<?xml version="1.0" encoding="UTF-8" standalone="no" ?>
<gpx xmlns="http://www.topografix.com/GPX/1/1" xmlns:xsi="http://www.w3.org/2001/XMLSchema-instance" xsi:schemaLocation="http://www.topografix.com/GPX/1/1 http://www.topografix.com/GPX/1/1/gpx.xsd" version="1.1" creator="VisuGPX - https://www.visugpx.com">
  <metadata>
    <name>Saint Laurent ,Le tour du lac de l'Abbaye.</name>
  </metadata>
  <trk>
    <name><![CDATA[Saint Laurent ,Le tour du lac de l'Abbaye._1]]></name>
    <trkseg>
      <trkpt lat="46.57141" lon="5.93801">
        <ele>891.9</ele>
        <time>2019-09-05T06:41:08Z</time>
      </trkpt>
      <trkpt lat="46.57139" lon="5.93807">
        <ele>901</ele>
        <time>2019-09-05T06:41:19Z</time>
      </trkpt>
      <trkpt lat="46.5714" lon="5.93813">
        <ele>903.2</ele>
        <time>2019-09-05T06:41:26Z</time>
      </trkpt>
      <trkpt lat="46.57143" lon="5.93819">
        <ele>903.5</ele>
        <time>2019-09-05T06:41:31Z</time>
      </trkpt>
      <trkpt lat="46.57156" lon="5.93846">
        <ele>903.2</ele>
        <time>2019-09-05T06:41:51Z</time>
      </trkpt>
      <trkpt lat="46.57158" lon="5.93853">
        <ele>903.1</ele>
        <time>2019-09-05T06:41:55Z</time>
      </trkpt>
      <trkpt lat="46.5716" lon="5.93859">
        <ele>903</ele>
        <time>2019-09-05T06:42:00Z</time>
      </trkpt>
      <trkpt lat="46.57161" lon="5.93866">
        <ele>903</ele>
        <time>2019-09-05T06:42:05Z</time>
      </trkpt>
      <trkpt lat="46.57163" lon="5.93873">
        <ele>903</ele>
        <time>2019-09-05T06:42:12Z</time>
      </trkpt>
      <trkpt lat="46.57165" lon="5.9388">
        <ele>903</ele>
        <time>2019-09-05T06:42:16Z</time>
      </trkpt>
      <trkpt lat="46.57167" lon="5.93887">
        <ele>902.9</ele>
        <time>2019-09-05T06:42:21Z</time>
      </trkpt>
      <trkpt lat="46.57166" lon="5.93893">
        <ele>902.7</ele>
        <time>2019-09-05T06:42:25Z</time>
      </trkpt>
      <trkpt lat="46.57164" lon="5.93899">
        <ele>902.4</ele>
        <time>2019-09-05T06:42:29Z</time>
      </trkpt>
      <trkpt lat="46.57163" lon="5.93906">
        <ele>902.3</ele>
        <time>2019-09-05T06:42:34Z</time>
      </trkpt>
      <trkpt lat="46.57165" lon="5.93912">
        <ele>902.3</ele>
        <time>2019-09-05T06:42:39Z</time>
      </trkpt>
      <trkpt lat="46.57167" lon="5.9392">
        <ele>902.4</ele>
        <time>2019-09-05T06:42:44Z</time>
      </trkpt>
      <trkpt lat="46.57169" lon="5.93927">
        <ele>902.6</ele>
        <time>2019-09-05T06:42:48Z</time>
      </trkpt>
      <trkpt lat="46.57165" lon="5.93932">
        <ele>902.8</ele>
        <time>2019-09-05T06:42:54Z</time>
      </trkpt>
      <trkpt lat="46.5716" lon="5.9393">
        <ele>902.9</ele>
        <time>2019-09-05T06:42:58Z</time>
      </trkpt>
      <trkpt lat="46.57156" lon="5.93927">
        <ele>902.8</ele>
        <time>2019-09-05T06:43:01Z</time>
      </trkpt>
      <trkpt lat="46.57152" lon="5.93926">
        <ele>902.8</ele>
        <time>2019-09-05T06:43:06Z</time>
      </trkpt>
      <trkpt lat="46.57147" lon="5.93924">
        <ele>902.6</ele>
        <time>2019-09-05T06:43:10Z</time>
      </trkpt>
      <trkpt lat="46.57142" lon="5.93924">
        <ele>902.6</ele>
        <time>2019-09-05T06:43:14Z</time>
      </trkpt>
      <trkpt lat="46.57138" lon="5.93923">
        <ele>902.6</ele>
        <time>2019-09-05T06:43:18Z</time>
      </trkpt>
      <trkpt lat="46.57133" lon="5.93921">
        <ele>902.9</ele>
        <time>2019-09-05T06:43:23Z</time>
      </trkpt>
      <trkpt lat="46.57128" lon="5.93921">
        <ele>903.4</ele>
        <time>2019-09-05T06:43:27Z</time>
      </trkpt>
      <trkpt lat="46.57123" lon="5.9392">
        <ele>903.8</ele>
        <time>2019-09-05T06:43:30Z</time>
      </trkpt>
      <trkpt lat="46.57118" lon="5.93919">
        <ele>904.4</ele>
        <time>2019-09-05T06:43:34Z</time>
      </trkpt>
      <trkpt lat="46.57113" lon="5.93915">
        <ele>904.9</ele>
        <time>2019-09-05T06:43:39Z</time>
      </trkpt>
      <trkpt lat="46.57108" lon="5.93912">
        <ele>905.5</ele>
        <time>2019-09-05T06:43:44Z</time>
      </trkpt>
      <trkpt lat="46.57103" lon="5.93909">
        <ele>906</ele>
        <time>2019-09-05T06:43:48Z</time>
      </trkpt>
      <trkpt lat="46.57098" lon="5.93907">
        <ele>906.4</ele>
        <time>2019-09-05T06:43:52Z</time>
      </trkpt>
      <trkpt lat="46.57094" lon="5.93904">
        <ele>906.8</ele>
        <time>2019-09-05T06:43:57Z</time>
      </trkpt>
      <trkpt lat="46.5709" lon="5.93899">
        <ele>907</ele>
        <time>2019-09-05T06:44:02Z</time>
      </trkpt>
      <trkpt lat="46.57086" lon="5.93895">
        <ele>907.1</ele>
        <time>2019-09-05T06:44:07Z</time>
      </trkpt>
      <trkpt lat="46.57082" lon="5.93891">
        <ele>907</ele>
        <time>2019-09-05T06:44:12Z</time>
      </trkpt>
      <trkpt lat="46.57079" lon="5.93885">
        <ele>907</ele>
        <time>2019-09-05T06:44:16Z</time>
      </trkpt>
      <trkpt lat="46.57076" lon="5.9388">
        <ele>907.1</ele>
        <time>2019-09-05T06:44:22Z</time>
      </trkpt>
      <trkpt lat="46.57073" lon="5.93876">
        <ele>907.4</ele>
        <time>2019-09-05T06:44:27Z</time>
      </trkpt>
      <trkpt lat="46.57068" lon="5.93872">
        <ele>907.4</ele>
        <time>2019-09-05T06:44:32Z</time>
      </trkpt>
      <trkpt lat="46.57064" lon="5.93868">
        <ele>907.6</ele>
        <time>2019-09-05T06:44:36Z</time>
      </trkpt>
      <trkpt lat="46.5706" lon="5.93865">
        <ele>907.7</ele>
        <time>2019-09-05T06:44:41Z</time>
      </trkpt>
      <trkpt lat="46.57056" lon="5.93861">
        <ele>907.7</ele>
        <time>2019-09-05T06:44:46Z</time>
      </trkpt>
      <trkpt lat="46.57052" lon="5.93858">
        <ele>907.6</ele>
        <time>2019-09-05T06:44:50Z</time>
      </trkpt>
      <trkpt lat="46.57047" lon="5.93855">
        <ele>907.4</ele>
        <time>2019-09-05T06:44:53Z</time>
      </trkpt>
      <trkpt lat="46.57042" lon="5.93851">
        <ele>907.3</ele>
        <time>2019-09-05T06:44:57Z</time>
      </trkpt>
      <trkpt lat="46.57038" lon="5.93849">
        <ele>907.3</ele>
        <time>2019-09-05T06:45:01Z</time>
      </trkpt>
      <trkpt lat="46.57033" lon="5.93848">
        <ele>907.2</ele>
        <time>2019-09-05T06:45:06Z</time>
      </trkpt>
      <trkpt lat="46.57028" lon="5.93846">
        <ele>907.2</ele>
        <time>2019-09-05T06:45:10Z</time>
      </trkpt>
      <trkpt lat="46.57023" lon="5.93844">
        <ele>907.4</ele>
        <time>2019-09-05T06:45:14Z</time>
      </trkpt>
      <trkpt lat="46.57018" lon="5.93844">
        <ele>907.7</ele>
        <time>2019-09-05T06:45:19Z</time>
      </trkpt>
      <trkpt lat="46.57013" lon="5.93842">
        <ele>907.9</ele>
        <time>2019-09-05T06:45:23Z</time>
      </trkpt>
      <trkpt lat="46.57008" lon="5.93841">
        <ele>908.4</ele>
        <time>2019-09-05T06:45:27Z</time>
      </trkpt>
      <trkpt lat="46.57002" lon="5.93838">
        <ele>909</ele>
        <time>2019-09-05T06:45:32Z</time>
      </trkpt>
      <trkpt lat="46.56998" lon="5.93835">
        <ele>909.7</ele>
        <time>2019-09-05T06:45:36Z</time>
      </trkpt>
      <trkpt lat="46.56994" lon="5.93832">
        <ele>910</ele>
        <time>2019-09-05T06:45:39Z</time>
      </trkpt>
      <trkpt lat="46.5699" lon="5.93829">
        <ele>910.5</ele>
        <time>2019-09-05T06:45:44Z</time>
      </trkpt>
      <trkpt lat="46.56985" lon="5.93826">
        <ele>910.7</ele>
        <time>2019-09-05T06:45:50Z</time>
      </trkpt>
      <trkpt lat="46.5698" lon="5.93823">
        <ele>910.4</ele>
        <time>2019-09-05T06:45:55Z</time>
      </trkpt>
      <trkpt lat="46.56975" lon="5.93821">
        <ele>910</ele>
        <time>2019-09-05T06:46:00Z</time>
      </trkpt>
      <trkpt lat="46.56969" lon="5.93821">
        <ele>909.7</ele>
        <time>2019-09-05T06:46:05Z</time>
      </trkpt>
      <trkpt lat="46.56965" lon="5.93821">
        <ele>909.6</ele>
        <time>2019-09-05T06:46:09Z</time>
      </trkpt>
      <trkpt lat="46.5696" lon="5.9382">
        <ele>909.4</ele>
        <time>2019-09-05T06:46:15Z</time>
      </trkpt>
      <trkpt lat="46.56955" lon="5.93818">
        <ele>909.4</ele>
        <time>2019-09-05T06:46:20Z</time>
      </trkpt>
      <trkpt lat="46.5695" lon="5.93816">
        <ele>909.4</ele>
        <time>2019-09-05T06:46:24Z</time>
      </trkpt>
      <trkpt lat="46.56944" lon="5.93814">
        <ele>909.3</ele>
        <time>2019-09-05T06:46:29Z</time>
      </trkpt>
      <trkpt lat="46.5694" lon="5.93811">
        <ele>909.3</ele>
        <time>2019-09-05T06:46:33Z</time>
      </trkpt>
      <trkpt lat="46.56935" lon="5.93809">
        <ele>909.4</ele>
        <time>2019-09-05T06:46:39Z</time>
      </trkpt>
      <trkpt lat="46.5693" lon="5.93806">
        <ele>909.4</ele>
        <time>2019-09-05T06:46:43Z</time>
      </trkpt>
      <trkpt lat="46.56925" lon="5.93803">
        <ele>909.1</ele>
        <time>2019-09-05T06:46:49Z</time>
      </trkpt>
      <trkpt lat="46.5692" lon="5.93798">
        <ele>908.5</ele>
        <time>2019-09-05T06:46:55Z</time>
      </trkpt>
      <trkpt lat="46.56916" lon="5.93795">
        <ele>908</ele>
        <time>2019-09-05T06:46:59Z</time>
      </trkpt>
      <trkpt lat="46.56911" lon="5.93792">
        <ele>907.6</ele>
        <time>2019-09-05T06:47:04Z</time>
      </trkpt>
      <trkpt lat="46.56906" lon="5.93789">
        <ele>907.3</ele>
        <time>2019-09-05T06:47:10Z</time>
      </trkpt>
      <trkpt lat="46.56901" lon="5.93786">
        <ele>906.9</ele>
        <time>2019-09-05T06:47:15Z</time>
      </trkpt>
      <trkpt lat="46.56897" lon="5.93783">
        <ele>906.6</ele>
        <time>2019-09-05T06:47:19Z</time>
      </trkpt>
      <trkpt lat="46.56893" lon="5.93778">
        <ele>906.1</ele>
        <time>2019-09-05T06:47:23Z</time>
      </trkpt>
      <trkpt lat="46.56879" lon="5.93774">
        <ele>903.8</ele>
        <time>2019-09-05T06:47:36Z</time>
      </trkpt>
      <trkpt lat="46.56875" lon="5.93772">
        <ele>903.3</ele>
        <time>2019-09-05T06:47:41Z</time>
      </trkpt>
      <trkpt lat="46.5687" lon="5.9377">
        <ele>902.8</ele>
        <time>2019-09-05T06:47:46Z</time>
      </trkpt>
      <trkpt lat="46.56866" lon="5.93767">
        <ele>902.4</ele>
        <time>2019-09-05T06:47:50Z</time>
      </trkpt>
      <trkpt lat="46.56861" lon="5.93764">
        <ele>901.6</ele>
        <time>2019-09-05T06:47:55Z</time>
      </trkpt>
      <trkpt lat="46.56856" lon="5.93761">
        <ele>901.3</ele>
        <time>2019-09-05T06:48:00Z</time>
      </trkpt>
      <trkpt lat="46.56849" lon="5.93761">
        <ele>901.2</ele>
        <time>2019-09-05T06:48:03Z</time>
      </trkpt>
      <trkpt lat="46.56844" lon="5.93762">
        <ele>901.2</ele>
        <time>2019-09-05T06:48:07Z</time>
      </trkpt>
      <trkpt lat="46.56839" lon="5.9376">
        <ele>901.3</ele>
        <time>2019-09-05T06:48:12Z</time>
      </trkpt>
      <trkpt lat="46.56834" lon="5.93758">
        <ele>901.5</ele>
        <time>2019-09-05T06:48:17Z</time>
      </trkpt>
      <trkpt lat="46.5683" lon="5.93752">
        <ele>902.2</ele>
        <time>2019-09-05T06:48:25Z</time>
      </trkpt>
      <trkpt lat="46.56826" lon="5.93746">
        <ele>903.1</ele>
        <time>2019-09-05T06:48:31Z</time>
      </trkpt>
      <trkpt lat="46.56821" lon="5.93742">
        <ele>903.3</ele>
        <time>2019-09-05T06:48:34Z</time>
      </trkpt>
      <trkpt lat="46.56818" lon="5.93737">
        <ele>903.5</ele>
        <time>2019-09-05T06:48:36Z</time>
      </trkpt>
      <trkpt lat="46.56815" lon="5.93732">
        <ele>903.8</ele>
        <time>2019-09-05T06:48:39Z</time>
      </trkpt>
      <trkpt lat="46.56811" lon="5.93727">
        <ele>904.1</ele>
        <time>2019-09-05T06:48:45Z</time>
      </trkpt>
      <trkpt lat="46.56808" lon="5.93722">
        <ele>904.1</ele>
        <time>2019-09-05T06:48:48Z</time>
      </trkpt>
      <trkpt lat="46.56805" lon="5.93716">
        <ele>904.1</ele>
        <time>2019-09-05T06:48:51Z</time>
      </trkpt>
      <trkpt lat="46.56801" lon="5.93711">
        <ele>904.1</ele>
        <time>2019-09-05T06:48:54Z</time>
      </trkpt>
      <trkpt lat="46.56798" lon="5.93706">
        <ele>904.5</ele>
        <time>2019-09-05T06:48:59Z</time>
      </trkpt>
      <trkpt lat="46.56793" lon="5.93705">
        <ele>905.2</ele>
        <time>2019-09-05T06:49:05Z</time>
      </trkpt>
      <trkpt lat="46.56782" lon="5.93703">
        <ele>906.3</ele>
        <time>2019-09-05T06:49:17Z</time>
      </trkpt>
      <trkpt lat="46.56777" lon="5.93699">
        <ele>906.1</ele>
        <time>2019-09-05T06:49:21Z</time>
      </trkpt>
      <trkpt lat="46.56772" lon="5.93698">
        <ele>905.9</ele>
        <time>2019-09-05T06:49:25Z</time>
      </trkpt>
      <trkpt lat="46.56767" lon="5.93696">
        <ele>905.6</ele>
        <time>2019-09-05T06:49:30Z</time>
      </trkpt>
      <trkpt lat="46.56763" lon="5.93694">
        <ele>905.3</ele>
        <time>2019-09-05T06:49:36Z</time>
      </trkpt>
      <trkpt lat="46.56758" lon="5.93691">
        <ele>905</ele>
        <time>2019-09-05T06:49:40Z</time>
      </trkpt>
      <trkpt lat="46.56753" lon="5.93688">
        <ele>904.3</ele>
        <time>2019-09-05T06:49:45Z</time>
      </trkpt>
      <trkpt lat="46.56749" lon="5.93685">
        <ele>903.6</ele>
        <time>2019-09-05T06:49:50Z</time>
      </trkpt>
      <trkpt lat="46.56744" lon="5.93682">
        <ele>903</ele>
        <time>2019-09-05T06:49:57Z</time>
      </trkpt>
      <trkpt lat="46.56739" lon="5.9368">
        <ele>902.3</ele>
        <time>2019-09-05T06:50:02Z</time>
      </trkpt>
      <trkpt lat="46.56734" lon="5.93678">
        <ele>901.8</ele>
        <time>2019-09-05T06:50:06Z</time>
      </trkpt>
      <trkpt lat="46.56728" lon="5.93677">
        <ele>901.4</ele>
        <time>2019-09-05T06:50:11Z</time>
      </trkpt>
      <trkpt lat="46.56723" lon="5.93677">
        <ele>900.9</ele>
        <time>2019-09-05T06:50:16Z</time>
      </trkpt>
      <trkpt lat="46.56718" lon="5.93676">
        <ele>900.3</ele>
        <time>2019-09-05T06:50:21Z</time>
      </trkpt>
      <trkpt lat="46.56714" lon="5.93674">
        <ele>899.8</ele>
        <time>2019-09-05T06:50:25Z</time>
      </trkpt>
      <trkpt lat="46.56709" lon="5.93671">
        <ele>899.4</ele>
        <time>2019-09-05T06:50:30Z</time>
      </trkpt>
      <trkpt lat="46.56705" lon="5.93668">
        <ele>899.2</ele>
        <time>2019-09-05T06:50:34Z</time>
      </trkpt>
      <trkpt lat="46.56701" lon="5.93665">
        <ele>898.9</ele>
        <time>2019-09-05T06:50:39Z</time>
      </trkpt>
      <trkpt lat="46.56696" lon="5.93665">
        <ele>898.5</ele>
        <time>2019-09-05T06:50:43Z</time>
      </trkpt>
      <trkpt lat="46.56691" lon="5.93664">
        <ele>898.2</ele>
        <time>2019-09-05T06:50:47Z</time>
      </trkpt>
      <trkpt lat="46.56687" lon="5.93662">
        <ele>897.8</ele>
        <time>2019-09-05T06:50:51Z</time>
      </trkpt>
      <trkpt lat="46.56682" lon="5.93661">
        <ele>897.6</ele>
        <time>2019-09-05T06:50:55Z</time>
      </trkpt>
      <trkpt lat="46.56676" lon="5.93659">
        <ele>897.4</ele>
        <time>2019-09-05T06:50:59Z</time>
      </trkpt>
      <trkpt lat="46.56671" lon="5.93658">
        <ele>897.2</ele>
        <time>2019-09-05T06:51:04Z</time>
      </trkpt>
      <trkpt lat="46.56666" lon="5.93657">
        <ele>896.7</ele>
        <time>2019-09-05T06:51:11Z</time>
      </trkpt>
      <trkpt lat="46.56662" lon="5.93654">
        <ele>896</ele>
        <time>2019-09-05T06:51:16Z</time>
      </trkpt>
      <trkpt lat="46.56656" lon="5.93652">
        <ele>895.2</ele>
        <time>2019-09-05T06:51:20Z</time>
      </trkpt>
      <trkpt lat="46.56652" lon="5.93649">
        <ele>894.2</ele>
        <time>2019-09-05T06:51:24Z</time>
      </trkpt>
      <trkpt lat="46.56647" lon="5.93646">
        <ele>893.3</ele>
        <time>2019-09-05T06:51:28Z</time>
      </trkpt>
      <trkpt lat="46.56643" lon="5.93643">
        <ele>891.7</ele>
        <time>2019-09-05T06:51:35Z</time>
      </trkpt>
      <trkpt lat="46.56638" lon="5.9364">
        <ele>890.7</ele>
        <time>2019-09-05T06:51:41Z</time>
      </trkpt>
      <trkpt lat="46.56633" lon="5.93638">
        <ele>890</ele>
        <time>2019-09-05T06:51:45Z</time>
      </trkpt>
      <trkpt lat="46.56628" lon="5.93637">
        <ele>889.2</ele>
        <time>2019-09-05T06:51:50Z</time>
      </trkpt>
      <trkpt lat="46.56623" lon="5.93634">
        <ele>888.5</ele>
        <time>2019-09-05T06:51:55Z</time>
      </trkpt>
      <trkpt lat="46.56618" lon="5.93633">
        <ele>887.9</ele>
        <time>2019-09-05T06:51:59Z</time>
      </trkpt>
      <trkpt lat="46.56614" lon="5.9363">
        <ele>887.5</ele>
        <time>2019-09-05T06:52:04Z</time>
      </trkpt>
      <trkpt lat="46.56609" lon="5.93628">
        <ele>887</ele>
        <time>2019-09-05T06:52:11Z</time>
      </trkpt>
      <trkpt lat="46.56604" lon="5.93627">
        <ele>887.2</ele>
        <time>2019-09-05T06:52:21Z</time>
      </trkpt>
      <trkpt lat="46.566" lon="5.9363">
        <ele>887.5</ele>
        <time>2019-09-05T06:52:27Z</time>
      </trkpt>
      <trkpt lat="46.56596" lon="5.93635">
        <ele>887.5</ele>
        <time>2019-09-05T06:52:31Z</time>
      </trkpt>
      <trkpt lat="46.56593" lon="5.9364">
        <ele>887.4</ele>
        <time>2019-09-05T06:52:35Z</time>
      </trkpt>
      <trkpt lat="46.56589" lon="5.93646">
        <ele>887.5</ele>
        <time>2019-09-05T06:52:38Z</time>
      </trkpt>
      <trkpt lat="46.56585" lon="5.9365">
        <ele>887.6</ele>
        <time>2019-09-05T06:52:42Z</time>
      </trkpt>
      <trkpt lat="46.56582" lon="5.93655">
        <ele>888</ele>
        <time>2019-09-05T06:52:48Z</time>
      </trkpt>
      <trkpt lat="46.5658" lon="5.93661">
        <ele>888.4</ele>
        <time>2019-09-05T06:52:53Z</time>
      </trkpt>
      <trkpt lat="46.56577" lon="5.93668">
        <ele>889.1</ele>
        <time>2019-09-05T06:53:00Z</time>
      </trkpt>
      <trkpt lat="46.56574" lon="5.93674">
        <ele>889.8</ele>
        <time>2019-09-05T06:53:06Z</time>
      </trkpt>
      <trkpt lat="46.56571" lon="5.93678">
        <ele>890.3</ele>
        <time>2019-09-05T06:53:10Z</time>
      </trkpt>
      <trkpt lat="46.56567" lon="5.93683">
        <ele>890.9</ele>
        <time>2019-09-05T06:53:16Z</time>
      </trkpt>
      <trkpt lat="46.56571" lon="5.93677">
        <ele>892.2</ele>
        <time>2019-09-05T06:53:32Z</time>
      </trkpt>
      <trkpt lat="46.56575" lon="5.93672">
        <ele>892.4</ele>
        <time>2019-09-05T06:53:36Z</time>
      </trkpt>
      <trkpt lat="46.56578" lon="5.93665">
        <ele>892.5</ele>
        <time>2019-09-05T06:53:41Z</time>
      </trkpt>
      <trkpt lat="46.56581" lon="5.9366">
        <ele>892.5</ele>
        <time>2019-09-05T06:53:45Z</time>
      </trkpt>
      <trkpt lat="46.56583" lon="5.93654">
        <ele>892.6</ele>
        <time>2019-09-05T06:53:49Z</time>
      </trkpt>
      <trkpt lat="46.56586" lon="5.93648">
        <ele>892.8</ele>
        <time>2019-09-05T06:53:53Z</time>
      </trkpt>
      <trkpt lat="46.56589" lon="5.93642">
        <ele>893.1</ele>
        <time>2019-09-05T06:53:58Z</time>
      </trkpt>
      <trkpt lat="46.56593" lon="5.9364">
        <ele>893.8</ele>
        <time>2019-09-05T06:54:07Z</time>
      </trkpt>
      <trkpt lat="46.5659" lon="5.93634">
        <ele>894.4</ele>
        <time>2019-09-05T06:54:24Z</time>
      </trkpt>
      <trkpt lat="46.56586" lon="5.9363">
        <ele>894.4</ele>
        <time>2019-09-05T06:54:29Z</time>
      </trkpt>
      <trkpt lat="46.56581" lon="5.93626">
        <ele>894</ele>
        <time>2019-09-05T06:54:33Z</time>
      </trkpt>
      <trkpt lat="46.56576" lon="5.93624">
        <ele>893.6</ele>
        <time>2019-09-05T06:54:38Z</time>
      </trkpt>
      <trkpt lat="46.56571" lon="5.93623">
        <ele>893.3</ele>
        <time>2019-09-05T06:54:43Z</time>
      </trkpt>
      <trkpt lat="46.56566" lon="5.93622">
        <ele>893.3</ele>
        <time>2019-09-05T06:54:48Z</time>
      </trkpt>
      <trkpt lat="46.56561" lon="5.93621">
        <ele>893.3</ele>
        <time>2019-09-05T06:54:52Z</time>
      </trkpt>
      <trkpt lat="46.56556" lon="5.93619">
        <ele>893.5</ele>
        <time>2019-09-05T06:54:56Z</time>
      </trkpt>
      <trkpt lat="46.5655" lon="5.93618">
        <ele>893.9</ele>
        <time>2019-09-05T06:55:01Z</time>
      </trkpt>
      <trkpt lat="46.56545" lon="5.93616">
        <ele>894</ele>
        <time>2019-09-05T06:55:05Z</time>
      </trkpt>
      <trkpt lat="46.56541" lon="5.93613">
        <ele>894.1</ele>
        <time>2019-09-05T06:55:09Z</time>
      </trkpt>
      <trkpt lat="46.56537" lon="5.9361">
        <ele>894.2</ele>
        <time>2019-09-05T06:55:14Z</time>
      </trkpt>
      <trkpt lat="46.56532" lon="5.93607">
        <ele>894.2</ele>
        <time>2019-09-05T06:55:20Z</time>
      </trkpt>
      <trkpt lat="46.56527" lon="5.93604">
        <ele>894.1</ele>
        <time>2019-09-05T06:55:26Z</time>
      </trkpt>
      <trkpt lat="46.56522" lon="5.93602">
        <ele>894</ele>
        <time>2019-09-05T06:55:30Z</time>
      </trkpt>
      <trkpt lat="46.56518" lon="5.936">
        <ele>893.8</ele>
        <time>2019-09-05T06:55:34Z</time>
      </trkpt>
      <trkpt lat="46.56512" lon="5.936">
        <ele>893.6</ele>
        <time>2019-09-05T06:55:39Z</time>
      </trkpt>
      <trkpt lat="46.56507" lon="5.93599">
        <ele>893.5</ele>
        <time>2019-09-05T06:55:44Z</time>
      </trkpt>
      <trkpt lat="46.56501" lon="5.93599">
        <ele>893.3</ele>
        <time>2019-09-05T06:55:48Z</time>
      </trkpt>
      <trkpt lat="46.56496" lon="5.93601">
        <ele>893.2</ele>
        <time>2019-09-05T06:55:52Z</time>
      </trkpt>
      <trkpt lat="46.56491" lon="5.93603">
        <ele>893.2</ele>
        <time>2019-09-05T06:55:56Z</time>
      </trkpt>
      <trkpt lat="46.56487" lon="5.93605">
        <ele>893.3</ele>
        <time>2019-09-05T06:56:00Z</time>
      </trkpt>
      <trkpt lat="46.56482" lon="5.93605">
        <ele>893.4</ele>
        <time>2019-09-05T06:56:04Z</time>
      </trkpt>
      <trkpt lat="46.56477" lon="5.93603">
        <ele>893.5</ele>
        <time>2019-09-05T06:56:10Z</time>
      </trkpt>
      <trkpt lat="46.56472" lon="5.936">
        <ele>893.6</ele>
        <time>2019-09-05T06:56:15Z</time>
      </trkpt>
      <trkpt lat="46.56468" lon="5.93597">
        <ele>893.9</ele>
        <time>2019-09-05T06:56:20Z</time>
      </trkpt>
      <trkpt lat="46.56463" lon="5.93594">
        <ele>894.1</ele>
        <time>2019-09-05T06:56:25Z</time>
      </trkpt>
      <trkpt lat="46.56459" lon="5.9359">
        <ele>894.4</ele>
        <time>2019-09-05T06:56:29Z</time>
      </trkpt>
      <trkpt lat="46.56454" lon="5.93588">
        <ele>894.7</ele>
        <time>2019-09-05T06:56:33Z</time>
      </trkpt>
      <trkpt lat="46.56449" lon="5.93586">
        <ele>895.2</ele>
        <time>2019-09-05T06:56:37Z</time>
      </trkpt>
      <trkpt lat="46.56445" lon="5.93583">
        <ele>895.6</ele>
        <time>2019-09-05T06:56:41Z</time>
      </trkpt>
      <trkpt lat="46.56441" lon="5.9358">
        <ele>895.7</ele>
        <time>2019-09-05T06:56:45Z</time>
      </trkpt>
      <trkpt lat="46.56436" lon="5.93577">
        <ele>895.7</ele>
        <time>2019-09-05T06:56:49Z</time>
      </trkpt>
      <trkpt lat="46.56432" lon="5.93575">
        <ele>895.8</ele>
        <time>2019-09-05T06:56:54Z</time>
      </trkpt>
      <trkpt lat="46.56427" lon="5.93571">
        <ele>896.1</ele>
        <time>2019-09-05T06:56:59Z</time>
      </trkpt>
      <trkpt lat="46.56422" lon="5.9357">
        <ele>896.2</ele>
        <time>2019-09-05T06:57:03Z</time>
      </trkpt>
      <trkpt lat="46.56418" lon="5.93569">
        <ele>896.2</ele>
        <time>2019-09-05T06:57:07Z</time>
      </trkpt>
      <trkpt lat="46.56413" lon="5.93571">
        <ele>896.2</ele>
        <time>2019-09-05T06:57:14Z</time>
      </trkpt>
      <trkpt lat="46.56408" lon="5.93574">
        <ele>896.2</ele>
        <time>2019-09-05T06:57:20Z</time>
      </trkpt>
      <trkpt lat="46.56404" lon="5.93579">
        <ele>896.3</ele>
        <time>2019-09-05T06:57:25Z</time>
      </trkpt>
      <trkpt lat="46.56401" lon="5.93583">
        <ele>896.5</ele>
        <time>2019-09-05T06:57:29Z</time>
      </trkpt>
      <trkpt lat="46.56399" lon="5.9359">
        <ele>896.7</ele>
        <time>2019-09-05T06:57:34Z</time>
      </trkpt>
      <trkpt lat="46.56396" lon="5.93596">
        <ele>896.7</ele>
        <time>2019-09-05T06:57:37Z</time>
      </trkpt>
      <trkpt lat="46.56393" lon="5.93602">
        <ele>896.6</ele>
        <time>2019-09-05T06:57:41Z</time>
      </trkpt>
      <trkpt lat="46.5639" lon="5.93609">
        <ele>896.6</ele>
        <time>2019-09-05T06:57:46Z</time>
      </trkpt>
      <trkpt lat="46.56387" lon="5.93614">
        <ele>896.6</ele>
        <time>2019-09-05T06:57:51Z</time>
      </trkpt>
      <trkpt lat="46.56383" lon="5.93619">
        <ele>896.7</ele>
        <time>2019-09-05T06:57:56Z</time>
      </trkpt>
      <trkpt lat="46.5638" lon="5.93624">
        <ele>896.7</ele>
        <time>2019-09-05T06:58:00Z</time>
      </trkpt>
      <trkpt lat="46.56377" lon="5.9363">
        <ele>897</ele>
        <time>2019-09-05T06:58:06Z</time>
      </trkpt>
      <trkpt lat="46.56374" lon="5.93635">
        <ele>897.2</ele>
        <time>2019-09-05T06:58:11Z</time>
      </trkpt>
      <trkpt lat="46.56371" lon="5.9364">
        <ele>897.6</ele>
        <time>2019-09-05T06:58:16Z</time>
      </trkpt>
      <trkpt lat="46.56368" lon="5.93647">
        <ele>897.9</ele>
        <time>2019-09-05T06:58:21Z</time>
      </trkpt>
      <trkpt lat="46.56364" lon="5.93652">
        <ele>898.4</ele>
        <time>2019-09-05T06:58:27Z</time>
      </trkpt>
      <trkpt lat="46.5636" lon="5.93657">
        <ele>899.2</ele>
        <time>2019-09-05T06:58:34Z</time>
      </trkpt>
      <trkpt lat="46.56357" lon="5.93661">
        <ele>899.6</ele>
        <time>2019-09-05T06:58:39Z</time>
      </trkpt>
      <trkpt lat="46.56352" lon="5.93665">
        <ele>900</ele>
        <time>2019-09-05T06:58:44Z</time>
      </trkpt>
      <trkpt lat="46.56348" lon="5.93669">
        <ele>900.2</ele>
        <time>2019-09-05T06:58:48Z</time>
      </trkpt>
      <trkpt lat="46.56344" lon="5.93673">
        <ele>900.4</ele>
        <time>2019-09-05T06:58:52Z</time>
      </trkpt>
      <trkpt lat="46.56339" lon="5.93675">
        <ele>900.8</ele>
        <time>2019-09-05T06:58:58Z</time>
      </trkpt>
      <trkpt lat="46.56334" lon="5.93677">
        <ele>901.1</ele>
        <time>2019-09-05T06:59:04Z</time>
      </trkpt>
      <trkpt lat="46.5633" lon="5.9368">
        <ele>901.5</ele>
        <time>2019-09-05T06:59:09Z</time>
      </trkpt>
      <trkpt lat="46.56325" lon="5.93683">
        <ele>901.9</ele>
        <time>2019-09-05T06:59:14Z</time>
      </trkpt>
      <trkpt lat="46.5632" lon="5.93686">
        <ele>902.2</ele>
        <time>2019-09-05T06:59:18Z</time>
      </trkpt>
      <trkpt lat="46.56315" lon="5.9369">
        <ele>902.7</ele>
        <time>2019-09-05T06:59:22Z</time>
      </trkpt>
      <trkpt lat="46.56311" lon="5.93694">
        <ele>903.2</ele>
        <time>2019-09-05T06:59:27Z</time>
      </trkpt>
      <trkpt lat="46.56307" lon="5.937">
        <ele>903.6</ele>
        <time>2019-09-05T06:59:33Z</time>
      </trkpt>
      <trkpt lat="46.56303" lon="5.93704">
        <ele>903.9</ele>
        <time>2019-09-05T06:59:40Z</time>
      </trkpt>
      <trkpt lat="46.56298" lon="5.93708">
        <ele>904.1</ele>
        <time>2019-09-05T06:59:45Z</time>
      </trkpt>
      <trkpt lat="46.56294" lon="5.93712">
        <ele>904.5</ele>
        <time>2019-09-05T06:59:50Z</time>
      </trkpt>
      <trkpt lat="46.5629" lon="5.93717">
        <ele>905.1</ele>
        <time>2019-09-05T06:59:54Z</time>
      </trkpt>
      <trkpt lat="46.56286" lon="5.93722">
        <ele>905.7</ele>
        <time>2019-09-05T06:59:59Z</time>
      </trkpt>
      <trkpt lat="46.56283" lon="5.93728">
        <ele>906.1</ele>
        <time>2019-09-05T07:00:03Z</time>
      </trkpt>
      <trkpt lat="46.5628" lon="5.93734">
        <ele>906.5</ele>
        <time>2019-09-05T07:00:07Z</time>
      </trkpt>
      <trkpt lat="46.56276" lon="5.9374">
        <ele>907</ele>
        <time>2019-09-05T07:00:11Z</time>
      </trkpt>
      <trkpt lat="46.56273" lon="5.93745">
        <ele>907.5</ele>
        <time>2019-09-05T07:00:14Z</time>
      </trkpt>
      <trkpt lat="46.56269" lon="5.93749">
        <ele>908.3</ele>
        <time>2019-09-05T07:00:17Z</time>
      </trkpt>
      <trkpt lat="46.56265" lon="5.93753">
        <ele>909.8</ele>
        <time>2019-09-05T07:00:23Z</time>
      </trkpt>
      <trkpt lat="46.56261" lon="5.93757">
        <ele>911.2</ele>
        <time>2019-09-05T07:00:31Z</time>
      </trkpt>
      <trkpt lat="46.56257" lon="5.93761">
        <ele>911.8</ele>
        <time>2019-09-05T07:00:37Z</time>
      </trkpt>
      <trkpt lat="46.56253" lon="5.93764">
        <ele>912.1</ele>
        <time>2019-09-05T07:00:42Z</time>
      </trkpt>
      <trkpt lat="46.56249" lon="5.93768">
        <ele>912.3</ele>
        <time>2019-09-05T07:00:48Z</time>
      </trkpt>
      <trkpt lat="46.56245" lon="5.93772">
        <ele>912.4</ele>
        <time>2019-09-05T07:00:52Z</time>
      </trkpt>
      <trkpt lat="46.56241" lon="5.93775">
        <ele>912.6</ele>
        <time>2019-09-05T07:00:57Z</time>
      </trkpt>
      <trkpt lat="46.56237" lon="5.93778">
        <ele>912.7</ele>
        <time>2019-09-05T07:01:03Z</time>
      </trkpt>
      <trkpt lat="46.56232" lon="5.93781">
        <ele>912.8</ele>
        <time>2019-09-05T07:01:09Z</time>
      </trkpt>
      <trkpt lat="46.56227" lon="5.93784">
        <ele>913.1</ele>
        <time>2019-09-05T07:01:14Z</time>
      </trkpt>
      <trkpt lat="46.56223" lon="5.93787">
        <ele>913.2</ele>
        <time>2019-09-05T07:01:19Z</time>
      </trkpt>
      <trkpt lat="46.56219" lon="5.93789">
        <ele>913.1</ele>
        <time>2019-09-05T07:01:25Z</time>
      </trkpt>
      <trkpt lat="46.56213" lon="5.93792">
        <ele>913.4</ele>
        <time>2019-09-05T07:01:31Z</time>
      </trkpt>
      <trkpt lat="46.56209" lon="5.93795">
        <ele>913.6</ele>
        <time>2019-09-05T07:01:36Z</time>
      </trkpt>
      <trkpt lat="46.56205" lon="5.93797">
        <ele>913.9</ele>
        <time>2019-09-05T07:01:43Z</time>
      </trkpt>
      <trkpt lat="46.562" lon="5.93799">
        <ele>914.1</ele>
        <time>2019-09-05T07:01:47Z</time>
      </trkpt>
      <trkpt lat="46.56195" lon="5.93802">
        <ele>914.3</ele>
        <time>2019-09-05T07:01:51Z</time>
      </trkpt>
      <trkpt lat="46.5619" lon="5.93804">
        <ele>914.7</ele>
        <time>2019-09-05T07:01:56Z</time>
      </trkpt>
      <trkpt lat="46.56186" lon="5.93808">
        <ele>915.3</ele>
        <time>2019-09-05T07:02:01Z</time>
      </trkpt>
      <trkpt lat="46.56181" lon="5.93812">
        <ele>915.9</ele>
        <time>2019-09-05T07:02:07Z</time>
      </trkpt>
      <trkpt lat="46.56176" lon="5.93815">
        <ele>916.2</ele>
        <time>2019-09-05T07:02:13Z</time>
      </trkpt>
      <trkpt lat="46.56171" lon="5.93819">
        <ele>916.2</ele>
        <time>2019-09-05T07:02:18Z</time>
      </trkpt>
      <trkpt lat="46.56166" lon="5.93821">
        <ele>916.3</ele>
        <time>2019-09-05T07:02:23Z</time>
      </trkpt>
      <trkpt lat="46.56162" lon="5.93823">
        <ele>916.7</ele>
        <time>2019-09-05T07:02:28Z</time>
      </trkpt>
      <trkpt lat="46.56157" lon="5.93825">
        <ele>917.2</ele>
        <time>2019-09-05T07:02:33Z</time>
      </trkpt>
      <trkpt lat="46.56152" lon="5.93828">
        <ele>917.5</ele>
        <time>2019-09-05T07:02:38Z</time>
      </trkpt>
      <trkpt lat="46.56148" lon="5.93831">
        <ele>917.8</ele>
        <time>2019-09-05T07:02:42Z</time>
      </trkpt>
      <trkpt lat="46.56143" lon="5.93834">
        <ele>918.1</ele>
        <time>2019-09-05T07:02:45Z</time>
      </trkpt>
      <trkpt lat="46.56139" lon="5.93837">
        <ele>918.4</ele>
        <time>2019-09-05T07:02:49Z</time>
      </trkpt>
      <trkpt lat="46.56134" lon="5.9384">
        <ele>919.1</ele>
        <time>2019-09-05T07:02:56Z</time>
      </trkpt>
      <trkpt lat="46.56129" lon="5.93843">
        <ele>919.6</ele>
        <time>2019-09-05T07:03:01Z</time>
      </trkpt>
      <trkpt lat="46.56124" lon="5.93846">
        <ele>920.1</ele>
        <time>2019-09-05T07:03:07Z</time>
      </trkpt>
      <trkpt lat="46.56119" lon="5.93849">
        <ele>920.3</ele>
        <time>2019-09-05T07:03:12Z</time>
      </trkpt>
      <trkpt lat="46.56115" lon="5.93852">
        <ele>920.6</ele>
        <time>2019-09-05T07:03:16Z</time>
      </trkpt>
      <trkpt lat="46.56111" lon="5.93855">
        <ele>921.1</ele>
        <time>2019-09-05T07:03:21Z</time>
      </trkpt>
      <trkpt lat="46.56106" lon="5.93858">
        <ele>921.6</ele>
        <time>2019-09-05T07:03:26Z</time>
      </trkpt>
      <trkpt lat="46.56101" lon="5.93862">
        <ele>922.1</ele>
        <time>2019-09-05T07:03:30Z</time>
      </trkpt>
      <trkpt lat="46.56097" lon="5.93866">
        <ele>922.6</ele>
        <time>2019-09-05T07:03:34Z</time>
      </trkpt>
      <trkpt lat="46.56093" lon="5.9387">
        <ele>923.2</ele>
        <time>2019-09-05T07:03:40Z</time>
      </trkpt>
      <trkpt lat="46.56089" lon="5.93875">
        <ele>923.5</ele>
        <time>2019-09-05T07:03:45Z</time>
      </trkpt>
      <trkpt lat="46.56085" lon="5.93879">
        <ele>923.6</ele>
        <time>2019-09-05T07:03:49Z</time>
      </trkpt>
      <trkpt lat="46.56082" lon="5.93883">
        <ele>923.9</ele>
        <time>2019-09-05T07:03:54Z</time>
      </trkpt>
      <trkpt lat="46.56072" lon="5.93901">
        <ele>925.1</ele>
        <time>2019-09-05T07:04:05Z</time>
      </trkpt>
      <trkpt lat="46.56068" lon="5.93907">
        <ele>925.4</ele>
        <time>2019-09-05T07:04:08Z</time>
      </trkpt>
      <trkpt lat="46.56064" lon="5.93912">
        <ele>925.9</ele>
        <time>2019-09-05T07:04:12Z</time>
      </trkpt>
      <trkpt lat="46.5606" lon="5.93916">
        <ele>926.6</ele>
        <time>2019-09-05T07:04:17Z</time>
      </trkpt>
      <trkpt lat="46.56056" lon="5.93921">
        <ele>927</ele>
        <time>2019-09-05T07:04:21Z</time>
      </trkpt>
      <trkpt lat="46.56052" lon="5.93925">
        <ele>927.5</ele>
        <time>2019-09-05T07:04:25Z</time>
      </trkpt>
      <trkpt lat="46.56048" lon="5.9393">
        <ele>928</ele>
        <time>2019-09-05T07:04:29Z</time>
      </trkpt>
      <trkpt lat="46.56045" lon="5.93934">
        <ele>928.5</ele>
        <time>2019-09-05T07:04:32Z</time>
      </trkpt>
      <trkpt lat="46.56041" lon="5.9394">
        <ele>929.3</ele>
        <time>2019-09-05T07:04:35Z</time>
      </trkpt>
      <trkpt lat="46.56037" lon="5.93945">
        <ele>930.5</ele>
        <time>2019-09-05T07:04:39Z</time>
      </trkpt>
      <trkpt lat="46.56034" lon="5.9395">
        <ele>932</ele>
        <time>2019-09-05T07:04:43Z</time>
      </trkpt>
      <trkpt lat="46.5603" lon="5.93957">
        <ele>933.5</ele>
        <time>2019-09-05T07:04:47Z</time>
      </trkpt>
      <trkpt lat="46.56028" lon="5.93963">
        <ele>935.3</ele>
        <time>2019-09-05T07:04:53Z</time>
      </trkpt>
      <trkpt lat="46.5603" lon="5.93958">
        <ele>938.3</ele>
        <time>2019-09-05T07:05:18Z</time>
      </trkpt>
      <trkpt lat="46.56027" lon="5.93963">
        <ele>939.9</ele>
        <time>2019-09-05T07:05:27Z</time>
      </trkpt>
      <trkpt lat="46.56023" lon="5.93969">
        <ele>941.3</ele>
        <time>2019-09-05T07:05:31Z</time>
      </trkpt>
      <trkpt lat="46.5602" lon="5.93975">
        <ele>942.4</ele>
        <time>2019-09-05T07:05:35Z</time>
      </trkpt>
      <trkpt lat="46.56016" lon="5.93983">
        <ele>942.6</ele>
        <time>2019-09-05T07:05:38Z</time>
      </trkpt>
      <trkpt lat="46.56013" lon="5.9399">
        <ele>942.5</ele>
        <time>2019-09-05T07:05:41Z</time>
      </trkpt>
      <trkpt lat="46.56011" lon="5.93996">
        <ele>942.2</ele>
        <time>2019-09-05T07:05:44Z</time>
      </trkpt>
      <trkpt lat="46.56007" lon="5.94002">
        <ele>941.1</ele>
        <time>2019-09-05T07:05:50Z</time>
      </trkpt>
      <trkpt lat="46.55999" lon="5.94022">
        <ele>938.6</ele>
        <time>2019-09-05T07:06:45Z</time>
      </trkpt>
      <trkpt lat="46.55995" lon="5.94026">
        <ele>938.6</ele>
        <time>2019-09-05T07:06:51Z</time>
      </trkpt>
      <trkpt lat="46.5599" lon="5.94032">
        <ele>938.8</ele>
        <time>2019-09-05T07:07:11Z</time>
      </trkpt>
      <trkpt lat="46.55987" lon="5.94039">
        <ele>938.7</ele>
        <time>2019-09-05T07:07:15Z</time>
      </trkpt>
      <trkpt lat="46.55983" lon="5.94047">
        <ele>938.5</ele>
        <time>2019-09-05T07:07:19Z</time>
      </trkpt>
      <trkpt lat="46.55979" lon="5.94053">
        <ele>938.4</ele>
        <time>2019-09-05T07:07:22Z</time>
      </trkpt>
      <trkpt lat="46.55976" lon="5.94059">
        <ele>938.1</ele>
        <time>2019-09-05T07:07:26Z</time>
      </trkpt>
      <trkpt lat="46.55972" lon="5.94065">
        <ele>937.6</ele>
        <time>2019-09-05T07:07:30Z</time>
      </trkpt>
      <trkpt lat="46.55966" lon="5.94081">
        <ele>934.6</ele>
        <time>2019-09-05T07:07:50Z</time>
      </trkpt>
      <trkpt lat="46.5596" lon="5.94096">
        <ele>931.8</ele>
        <time>2019-09-05T07:08:07Z</time>
      </trkpt>
      <trkpt lat="46.55957" lon="5.94106">
        <ele>931.5</ele>
        <time>2019-09-05T07:08:09Z</time>
      </trkpt>
      <trkpt lat="46.55954" lon="5.94115">
        <ele>931.3</ele>
        <time>2019-09-05T07:08:11Z</time>
      </trkpt>
      <trkpt lat="46.55952" lon="5.94123">
        <ele>931</ele>
        <time>2019-09-05T07:08:14Z</time>
      </trkpt>
      <trkpt lat="46.5595" lon="5.9413">
        <ele>930.6</ele>
        <time>2019-09-05T07:08:20Z</time>
      </trkpt>
      <trkpt lat="46.55949" lon="5.94137">
        <ele>930</ele>
        <time>2019-09-05T07:08:29Z</time>
      </trkpt>
      <trkpt lat="46.55947" lon="5.94143">
        <ele>929.7</ele>
        <time>2019-09-05T07:08:36Z</time>
      </trkpt>
      <trkpt lat="46.55945" lon="5.9415">
        <ele>929.6</ele>
        <time>2019-09-05T07:08:43Z</time>
      </trkpt>
      <trkpt lat="46.55943" lon="5.94157">
        <ele>929.1</ele>
        <time>2019-09-05T07:08:50Z</time>
      </trkpt>
      <trkpt lat="46.55942" lon="5.94165">
        <ele>928.8</ele>
        <time>2019-09-05T07:08:55Z</time>
      </trkpt>
      <trkpt lat="46.5594" lon="5.94171">
        <ele>928.6</ele>
        <time>2019-09-05T07:08:58Z</time>
      </trkpt>
      <trkpt lat="46.55939" lon="5.94178">
        <ele>928.3</ele>
        <time>2019-09-05T07:09:03Z</time>
      </trkpt>
      <trkpt lat="46.55938" lon="5.94185">
        <ele>927.5</ele>
        <time>2019-09-05T07:09:08Z</time>
      </trkpt>
      <trkpt lat="46.55936" lon="5.94192">
        <ele>926.6</ele>
        <time>2019-09-05T07:09:13Z</time>
      </trkpt>
      <trkpt lat="46.55934" lon="5.94198">
        <ele>925.6</ele>
        <time>2019-09-05T07:09:20Z</time>
      </trkpt>
      <trkpt lat="46.55929" lon="5.94204">
        <ele>925.1</ele>
        <time>2019-09-05T07:09:26Z</time>
      </trkpt>
      <trkpt lat="46.55926" lon="5.94209">
        <ele>925.1</ele>
        <time>2019-09-05T07:09:31Z</time>
      </trkpt>
      <trkpt lat="46.55922" lon="5.94213">
        <ele>925.5</ele>
        <time>2019-09-05T07:09:37Z</time>
      </trkpt>
      <trkpt lat="46.55916" lon="5.94218">
        <ele>925.9</ele>
        <time>2019-09-05T07:09:40Z</time>
      </trkpt>
      <trkpt lat="46.55911" lon="5.94224">
        <ele>926.3</ele>
        <time>2019-09-05T07:09:42Z</time>
      </trkpt>
      <trkpt lat="46.55907" lon="5.94228">
        <ele>927</ele>
        <time>2019-09-05T07:09:46Z</time>
      </trkpt>
      <trkpt lat="46.55901" lon="5.9424">
        <ele>928.6</ele>
        <time>2019-09-05T07:09:57Z</time>
      </trkpt>
      <trkpt lat="46.55898" lon="5.94245">
        <ele>928.7</ele>
        <time>2019-09-05T07:09:59Z</time>
      </trkpt>
      <trkpt lat="46.55891" lon="5.94264">
        <ele>928.4</ele>
        <time>2019-09-05T07:10:10Z</time>
      </trkpt>
      <trkpt lat="46.55882" lon="5.94269">
        <ele>925.7</ele>
        <time>2019-09-05T07:10:41Z</time>
      </trkpt>
      <trkpt lat="46.55878" lon="5.94273">
        <ele>924.7</ele>
        <time>2019-09-05T07:10:48Z</time>
      </trkpt>
      <trkpt lat="46.55874" lon="5.94276">
        <ele>924.1</ele>
        <time>2019-09-05T07:10:54Z</time>
      </trkpt>
      <trkpt lat="46.55869" lon="5.94278">
        <ele>923.5</ele>
        <time>2019-09-05T07:11:00Z</time>
      </trkpt>
      <trkpt lat="46.55864" lon="5.94277">
        <ele>922.8</ele>
        <time>2019-09-05T07:11:06Z</time>
      </trkpt>
      <trkpt lat="46.55859" lon="5.94275">
        <ele>922.2</ele>
        <time>2019-09-05T07:11:11Z</time>
      </trkpt>
      <trkpt lat="46.55854" lon="5.94273">
        <ele>921.7</ele>
        <time>2019-09-05T07:11:15Z</time>
      </trkpt>
      <trkpt lat="46.5585" lon="5.9427">
        <ele>921.3</ele>
        <time>2019-09-05T07:11:19Z</time>
      </trkpt>
      <trkpt lat="46.55845" lon="5.94269">
        <ele>921</ele>
        <time>2019-09-05T07:11:23Z</time>
      </trkpt>
      <trkpt lat="46.5584" lon="5.94266">
        <ele>920.7</ele>
        <time>2019-09-05T07:11:28Z</time>
      </trkpt>
      <trkpt lat="46.55836" lon="5.94264">
        <ele>920.7</ele>
        <time>2019-09-05T07:11:33Z</time>
      </trkpt>
      <trkpt lat="46.55831" lon="5.94262">
        <ele>920.9</ele>
        <time>2019-09-05T07:11:38Z</time>
      </trkpt>
      <trkpt lat="46.55826" lon="5.94259">
        <ele>921.1</ele>
        <time>2019-09-05T07:11:42Z</time>
      </trkpt>
      <trkpt lat="46.55822" lon="5.94257">
        <ele>921.2</ele>
        <time>2019-09-05T07:11:47Z</time>
      </trkpt>
      <trkpt lat="46.55817" lon="5.94254">
        <ele>921.1</ele>
        <time>2019-09-05T07:11:52Z</time>
      </trkpt>
      <trkpt lat="46.55813" lon="5.9425">
        <ele>920.9</ele>
        <time>2019-09-05T07:11:57Z</time>
      </trkpt>
      <trkpt lat="46.55809" lon="5.94248">
        <ele>920.7</ele>
        <time>2019-09-05T07:12:01Z</time>
      </trkpt>
      <trkpt lat="46.55803" lon="5.94246">
        <ele>920.5</ele>
        <time>2019-09-05T07:12:05Z</time>
      </trkpt>
      <trkpt lat="46.55798" lon="5.94245">
        <ele>920.6</ele>
        <time>2019-09-05T07:12:10Z</time>
      </trkpt>
      <trkpt lat="46.55793" lon="5.94244">
        <ele>920.9</ele>
        <time>2019-09-05T07:12:15Z</time>
      </trkpt>
      <trkpt lat="46.55789" lon="5.94242">
        <ele>921.3</ele>
        <time>2019-09-05T07:12:21Z</time>
      </trkpt>
      <trkpt lat="46.55784" lon="5.9424">
        <ele>921.5</ele>
        <time>2019-09-05T07:12:26Z</time>
      </trkpt>
      <trkpt lat="46.5578" lon="5.94238">
        <ele>921.4</ele>
        <time>2019-09-05T07:12:30Z</time>
      </trkpt>
      <trkpt lat="46.55769" lon="5.94232">
        <ele>921.2</ele>
        <time>2019-09-05T07:12:41Z</time>
      </trkpt>
      <trkpt lat="46.55764" lon="5.94232">
        <ele>921.3</ele>
        <time>2019-09-05T07:12:46Z</time>
      </trkpt>
      <trkpt lat="46.55759" lon="5.94231">
        <ele>921.5</ele>
        <time>2019-09-05T07:12:51Z</time>
      </trkpt>
      <trkpt lat="46.55754" lon="5.94229">
        <ele>921.6</ele>
        <time>2019-09-05T07:12:56Z</time>
      </trkpt>
      <trkpt lat="46.55739" lon="5.94223">
        <ele>920.8</ele>
        <time>2019-09-05T07:13:12Z</time>
      </trkpt>
      <trkpt lat="46.55724" lon="5.94223">
        <ele>919.3</ele>
        <time>2019-09-05T07:13:27Z</time>
      </trkpt>
      <trkpt lat="46.55718" lon="5.94224">
        <ele>918.9</ele>
        <time>2019-09-05T07:13:33Z</time>
      </trkpt>
      <trkpt lat="46.55713" lon="5.94225">
        <ele>918.4</ele>
        <time>2019-09-05T07:13:39Z</time>
      </trkpt>
      <trkpt lat="46.55708" lon="5.94226">
        <ele>917.9</ele>
        <time>2019-09-05T07:13:44Z</time>
      </trkpt>
      <trkpt lat="46.55702" lon="5.94228">
        <ele>917.1</ele>
        <time>2019-09-05T07:13:49Z</time>
      </trkpt>
      <trkpt lat="46.55697" lon="5.9423">
        <ele>916.3</ele>
        <time>2019-09-05T07:13:53Z</time>
      </trkpt>
      <trkpt lat="46.55693" lon="5.94233">
        <ele>915.7</ele>
        <time>2019-09-05T07:13:57Z</time>
      </trkpt>
      <trkpt lat="46.55688" lon="5.94236">
        <ele>915.2</ele>
        <time>2019-09-05T07:14:02Z</time>
      </trkpt>
      <trkpt lat="46.55684" lon="5.94239">
        <ele>915.1</ele>
        <time>2019-09-05T07:14:06Z</time>
      </trkpt>
      <trkpt lat="46.55679" lon="5.94242">
        <ele>915.1</ele>
        <time>2019-09-05T07:14:11Z</time>
      </trkpt>
      <trkpt lat="46.55674" lon="5.94245">
        <ele>915.5</ele>
        <time>2019-09-05T07:14:18Z</time>
      </trkpt>
      <trkpt lat="46.5567" lon="5.94248">
        <ele>915.9</ele>
        <time>2019-09-05T07:14:24Z</time>
      </trkpt>
      <trkpt lat="46.55666" lon="5.94253">
        <ele>916</ele>
        <time>2019-09-05T07:14:29Z</time>
      </trkpt>
      <trkpt lat="46.55661" lon="5.94256">
        <ele>916.1</ele>
        <time>2019-09-05T07:14:34Z</time>
      </trkpt>
      <trkpt lat="46.55657" lon="5.94259">
        <ele>916.2</ele>
        <time>2019-09-05T07:14:38Z</time>
      </trkpt>
      <trkpt lat="46.55652" lon="5.94262">
        <ele>916.2</ele>
        <time>2019-09-05T07:14:43Z</time>
      </trkpt>
      <trkpt lat="46.55648" lon="5.94266">
        <ele>916.3</ele>
        <time>2019-09-05T07:14:47Z</time>
      </trkpt>
      <trkpt lat="46.55644" lon="5.9427">
        <ele>916.8</ele>
        <time>2019-09-05T07:14:52Z</time>
      </trkpt>
      <trkpt lat="46.55632" lon="5.94274">
        <ele>918.4</ele>
        <time>2019-09-05T07:15:03Z</time>
      </trkpt>
      <trkpt lat="46.55627" lon="5.94273">
        <ele>918.9</ele>
        <time>2019-09-05T07:15:08Z</time>
      </trkpt>
      <trkpt lat="46.55622" lon="5.9427">
        <ele>919.6</ele>
        <time>2019-09-05T07:15:13Z</time>
      </trkpt>
      <trkpt lat="46.55616" lon="5.94268">
        <ele>920.3</ele>
        <time>2019-09-05T07:15:17Z</time>
      </trkpt>
      <trkpt lat="46.55611" lon="5.94266">
        <ele>920.9</ele>
        <time>2019-09-05T07:15:21Z</time>
      </trkpt>
      <trkpt lat="46.55606" lon="5.94263">
        <ele>921.3</ele>
        <time>2019-09-05T07:15:24Z</time>
      </trkpt>
      <trkpt lat="46.55601" lon="5.94262">
        <ele>921.6</ele>
        <time>2019-09-05T07:15:26Z</time>
      </trkpt>
      <trkpt lat="46.55589" lon="5.9426">
        <ele>924.4</ele>
        <time>2019-09-05T07:15:41Z</time>
      </trkpt>
      <trkpt lat="46.55584" lon="5.94264">
        <ele>924.7</ele>
        <time>2019-09-05T07:15:49Z</time>
      </trkpt>
      <trkpt lat="46.5558" lon="5.94267">
        <ele>925</ele>
        <time>2019-09-05T07:15:55Z</time>
      </trkpt>
      <trkpt lat="46.55576" lon="5.94271">
        <ele>925.1</ele>
        <time>2019-09-05T07:16:01Z</time>
      </trkpt>
      <trkpt lat="46.55572" lon="5.94275">
        <ele>925.2</ele>
        <time>2019-09-05T07:16:06Z</time>
      </trkpt>
      <trkpt lat="46.55568" lon="5.9428">
        <ele>925.5</ele>
        <time>2019-09-05T07:16:12Z</time>
      </trkpt>
      <trkpt lat="46.55564" lon="5.94284">
        <ele>925.5</ele>
        <time>2019-09-05T07:16:17Z</time>
      </trkpt>
      <trkpt lat="46.5556" lon="5.94288">
        <ele>925.5</ele>
        <time>2019-09-05T07:16:23Z</time>
      </trkpt>
      <trkpt lat="46.55557" lon="5.94293">
        <ele>925.8</ele>
        <time>2019-09-05T07:16:29Z</time>
      </trkpt>
      <trkpt lat="46.55553" lon="5.94298">
        <ele>926</ele>
        <time>2019-09-05T07:16:33Z</time>
      </trkpt>
      <trkpt lat="46.55549" lon="5.94302">
        <ele>926.2</ele>
        <time>2019-09-05T07:16:37Z</time>
      </trkpt>
      <trkpt lat="46.55545" lon="5.94306">
        <ele>926.4</ele>
        <time>2019-09-05T07:16:41Z</time>
      </trkpt>
      <trkpt lat="46.55541" lon="5.9431">
        <ele>926.5</ele>
        <time>2019-09-05T07:16:45Z</time>
      </trkpt>
      <trkpt lat="46.55537" lon="5.94313">
        <ele>926.6</ele>
        <time>2019-09-05T07:16:49Z</time>
      </trkpt>
      <trkpt lat="46.55533" lon="5.94318">
        <ele>926.8</ele>
        <time>2019-09-05T07:16:53Z</time>
      </trkpt>
      <trkpt lat="46.5553" lon="5.94323">
        <ele>927.1</ele>
        <time>2019-09-05T07:16:57Z</time>
      </trkpt>
      <trkpt lat="46.55526" lon="5.94328">
        <ele>927.4</ele>
        <time>2019-09-05T07:17:01Z</time>
      </trkpt>
      <trkpt lat="46.55522" lon="5.94333">
        <ele>927.8</ele>
        <time>2019-09-05T07:17:06Z</time>
      </trkpt>
      <trkpt lat="46.55514" lon="5.9434">
        <ele>928.8</ele>
        <time>2019-09-05T07:17:19Z</time>
      </trkpt>
      <trkpt lat="46.55509" lon="5.94339">
        <ele>928.8</ele>
        <time>2019-09-05T07:17:25Z</time>
      </trkpt>
      <trkpt lat="46.55504" lon="5.94338">
        <ele>928.9</ele>
        <time>2019-09-05T07:17:30Z</time>
      </trkpt>
      <trkpt lat="46.55493" lon="5.94339">
        <ele>929.3</ele>
        <time>2019-09-05T07:17:40Z</time>
      </trkpt>
      <trkpt lat="46.55487" lon="5.94338">
        <ele>929.4</ele>
        <time>2019-09-05T07:17:44Z</time>
      </trkpt>
      <trkpt lat="46.55482" lon="5.94337">
        <ele>929.5</ele>
        <time>2019-09-05T07:17:49Z</time>
      </trkpt>
      <trkpt lat="46.55477" lon="5.94334">
        <ele>929.4</ele>
        <time>2019-09-05T07:17:55Z</time>
      </trkpt>
      <trkpt lat="46.55473" lon="5.94332">
        <ele>929.3</ele>
        <time>2019-09-05T07:18:00Z</time>
      </trkpt>
      <trkpt lat="46.55469" lon="5.94329">
        <ele>929.3</ele>
        <time>2019-09-05T07:18:06Z</time>
      </trkpt>
      <trkpt lat="46.55467" lon="5.94323">
        <ele>930.6</ele>
        <time>2019-09-05T07:18:39Z</time>
      </trkpt>
      <trkpt lat="46.55459" lon="5.94324">
        <ele>931.6</ele>
        <time>2019-09-05T07:20:51Z</time>
      </trkpt>
      <trkpt lat="46.55454" lon="5.94323">
        <ele>931.6</ele>
        <time>2019-09-05T07:20:56Z</time>
      </trkpt>
      <trkpt lat="46.5545" lon="5.94322">
        <ele>931.6</ele>
        <time>2019-09-05T07:21:01Z</time>
      </trkpt>
      <trkpt lat="46.55445" lon="5.94321">
        <ele>931.6</ele>
        <time>2019-09-05T07:21:07Z</time>
      </trkpt>
      <trkpt lat="46.55441" lon="5.94321">
        <ele>931.7</ele>
        <time>2019-09-05T07:21:13Z</time>
      </trkpt>
      <trkpt lat="46.55435" lon="5.94323">
        <ele>931.4</ele>
        <time>2019-09-05T07:21:20Z</time>
      </trkpt>
      <trkpt lat="46.55431" lon="5.94327">
        <ele>931</ele>
        <time>2019-09-05T07:21:25Z</time>
      </trkpt>
      <trkpt lat="46.55427" lon="5.94331">
        <ele>930.8</ele>
        <time>2019-09-05T07:21:30Z</time>
      </trkpt>
      <trkpt lat="46.55423" lon="5.94334">
        <ele>930.6</ele>
        <time>2019-09-05T07:21:35Z</time>
      </trkpt>
      <trkpt lat="46.55419" lon="5.94338">
        <ele>930.6</ele>
        <time>2019-09-05T07:21:39Z</time>
      </trkpt>
      <trkpt lat="46.55414" lon="5.94341">
        <ele>930.5</ele>
        <time>2019-09-05T07:21:43Z</time>
      </trkpt>
      <trkpt lat="46.55409" lon="5.94345">
        <ele>930.4</ele>
        <time>2019-09-05T07:21:47Z</time>
      </trkpt>
      <trkpt lat="46.55404" lon="5.94347">
        <ele>930.3</ele>
        <time>2019-09-05T07:21:51Z</time>
      </trkpt>
      <trkpt lat="46.554" lon="5.9435">
        <ele>930.5</ele>
        <time>2019-09-05T07:21:56Z</time>
      </trkpt>
      <trkpt lat="46.55396" lon="5.94354">
        <ele>930.8</ele>
        <time>2019-09-05T07:22:01Z</time>
      </trkpt>
      <trkpt lat="46.55392" lon="5.94358">
        <ele>931.2</ele>
        <time>2019-09-05T07:22:06Z</time>
      </trkpt>
      <trkpt lat="46.55387" lon="5.94361">
        <ele>931.5</ele>
        <time>2019-09-05T07:22:13Z</time>
      </trkpt>
      <trkpt lat="46.55383" lon="5.94364">
        <ele>931.7</ele>
        <time>2019-09-05T07:22:19Z</time>
      </trkpt>
      <trkpt lat="46.55378" lon="5.94366">
        <ele>931.8</ele>
        <time>2019-09-05T07:22:25Z</time>
      </trkpt>
      <trkpt lat="46.55373" lon="5.9437">
        <ele>932</ele>
        <time>2019-09-05T07:22:30Z</time>
      </trkpt>
      <trkpt lat="46.55368" lon="5.94371">
        <ele>931.9</ele>
        <time>2019-09-05T07:22:34Z</time>
      </trkpt>
      <trkpt lat="46.55364" lon="5.94374">
        <ele>932.3</ele>
        <time>2019-09-05T07:22:43Z</time>
      </trkpt>
      <trkpt lat="46.5536" lon="5.94378">
        <ele>933</ele>
        <time>2019-09-05T07:22:47Z</time>
      </trkpt>
      <trkpt lat="46.55356" lon="5.94383">
        <ele>933.6</ele>
        <time>2019-09-05T07:22:51Z</time>
      </trkpt>
      <trkpt lat="46.55352" lon="5.94391">
        <ele>933.9</ele>
        <time>2019-09-05T07:22:55Z</time>
      </trkpt>
      <trkpt lat="46.55349" lon="5.94397">
        <ele>934.1</ele>
        <time>2019-09-05T07:22:59Z</time>
      </trkpt>
      <trkpt lat="46.55348" lon="5.94403">
        <ele>934.3</ele>
        <time>2019-09-05T07:23:04Z</time>
      </trkpt>
      <trkpt lat="46.55347" lon="5.9441">
        <ele>934.6</ele>
        <time>2019-09-05T07:23:10Z</time>
      </trkpt>
      <trkpt lat="46.55351" lon="5.94422">
        <ele>935.1</ele>
        <time>2019-09-05T07:23:22Z</time>
      </trkpt>
      <trkpt lat="46.55354" lon="5.94428">
        <ele>935.6</ele>
        <time>2019-09-05T07:23:29Z</time>
      </trkpt>
      <trkpt lat="46.55359" lon="5.9444">
        <ele>936</ele>
        <time>2019-09-05T07:23:40Z</time>
      </trkpt>
      <trkpt lat="46.55362" lon="5.94445">
        <ele>936.1</ele>
        <time>2019-09-05T07:23:45Z</time>
      </trkpt>
      <trkpt lat="46.55369" lon="5.94461">
        <ele>936.4</ele>
        <time>2019-09-05T07:23:57Z</time>
      </trkpt>
      <trkpt lat="46.55371" lon="5.94468">
        <ele>936.4</ele>
        <time>2019-09-05T07:24:02Z</time>
      </trkpt>
      <trkpt lat="46.55373" lon="5.94475">
        <ele>936.4</ele>
        <time>2019-09-05T07:24:08Z</time>
      </trkpt>
      <trkpt lat="46.55374" lon="5.94481">
        <ele>936.5</ele>
        <time>2019-09-05T07:24:14Z</time>
      </trkpt>
      <trkpt lat="46.55375" lon="5.94488">
        <ele>936.7</ele>
        <time>2019-09-05T07:24:20Z</time>
      </trkpt>
      <trkpt lat="46.55374" lon="5.94495">
        <ele>937.2</ele>
        <time>2019-09-05T07:24:28Z</time>
      </trkpt>
      <trkpt lat="46.5537" lon="5.945">
        <ele>938</ele>
        <time>2019-09-05T07:24:33Z</time>
      </trkpt>
      <trkpt lat="46.55344" lon="5.94542">
        <ele>953.1</ele>
        <time>2019-09-05T07:25:24Z</time>
      </trkpt>
      <trkpt lat="46.55319" lon="5.94556">
        <ele>957.7</ele>
        <time>2019-09-05T07:25:50Z</time>
      </trkpt>
      <trkpt lat="46.55314" lon="5.9456">
        <ele>958.3</ele>
        <time>2019-09-05T07:25:55Z</time>
      </trkpt>
      <trkpt lat="46.55298" lon="5.9457">
        <ele>959.7</ele>
        <time>2019-09-05T07:26:09Z</time>
      </trkpt>
      <trkpt lat="46.55293" lon="5.94575">
        <ele>960</ele>
        <time>2019-09-05T07:26:14Z</time>
      </trkpt>
      <trkpt lat="46.5529" lon="5.9458">
        <ele>960.5</ele>
        <time>2019-09-05T07:26:21Z</time>
      </trkpt>
      <trkpt lat="46.55286" lon="5.94584">
        <ele>960.8</ele>
        <time>2019-09-05T07:26:25Z</time>
      </trkpt>
      <trkpt lat="46.55283" lon="5.9459">
        <ele>961.6</ele>
        <time>2019-09-05T07:26:32Z</time>
      </trkpt>
      <trkpt lat="46.55279" lon="5.94595">
        <ele>962.1</ele>
        <time>2019-09-05T07:26:41Z</time>
      </trkpt>
      <trkpt lat="46.55276" lon="5.946">
        <ele>962</ele>
        <time>2019-09-05T07:26:48Z</time>
      </trkpt>
      <trkpt lat="46.55272" lon="5.94604">
        <ele>962</ele>
        <time>2019-09-05T07:26:52Z</time>
      </trkpt>
      <trkpt lat="46.55268" lon="5.94609">
        <ele>961.9</ele>
        <time>2019-09-05T07:26:57Z</time>
      </trkpt>
      <trkpt lat="46.55262" lon="5.94614">
        <ele>962</ele>
        <time>2019-09-05T07:27:05Z</time>
      </trkpt>
      <trkpt lat="46.55258" lon="5.94616">
        <ele>962.1</ele>
        <time>2019-09-05T07:27:09Z</time>
      </trkpt>
      <trkpt lat="46.55254" lon="5.94618">
        <ele>962.3</ele>
        <time>2019-09-05T07:27:14Z</time>
      </trkpt>
      <trkpt lat="46.55249" lon="5.9462">
        <ele>962.5</ele>
        <time>2019-09-05T07:27:21Z</time>
      </trkpt>
      <trkpt lat="46.55244" lon="5.94623">
        <ele>962.4</ele>
        <time>2019-09-05T07:27:25Z</time>
      </trkpt>
      <trkpt lat="46.5524" lon="5.94625">
        <ele>962.3</ele>
        <time>2019-09-05T07:27:28Z</time>
      </trkpt>
      <trkpt lat="46.55207" lon="5.94618">
        <ele>964.4</ele>
        <time>2019-09-05T07:27:58Z</time>
      </trkpt>
      <trkpt lat="46.55201" lon="5.94616">
        <ele>964.6</ele>
        <time>2019-09-05T07:28:05Z</time>
      </trkpt>
      <trkpt lat="46.55181" lon="5.94608">
        <ele>965</ele>
        <time>2019-09-05T07:28:23Z</time>
      </trkpt>
      <trkpt lat="46.55176" lon="5.94606">
        <ele>965.6</ele>
        <time>2019-09-05T07:28:27Z</time>
      </trkpt>
      <trkpt lat="46.55135" lon="5.94608">
        <ele>975.2</ele>
        <time>2019-09-05T07:29:05Z</time>
      </trkpt>
      <trkpt lat="46.55123" lon="5.94604">
        <ele>977.6</ele>
        <time>2019-09-05T07:29:15Z</time>
      </trkpt>
      <trkpt lat="46.55118" lon="5.94602">
        <ele>977.3</ele>
        <time>2019-09-05T07:29:22Z</time>
      </trkpt>
      <trkpt lat="46.55114" lon="5.94598">
        <ele>977.3</ele>
        <time>2019-09-05T07:29:29Z</time>
      </trkpt>
      <trkpt lat="46.55104" lon="5.94586">
        <ele>980.2</ele>
        <time>2019-09-05T07:29:44Z</time>
      </trkpt>
      <trkpt lat="46.55099" lon="5.94582">
        <ele>980.5</ele>
        <time>2019-09-05T07:29:47Z</time>
      </trkpt>
      <trkpt lat="46.55096" lon="5.94577">
        <ele>980.8</ele>
        <time>2019-09-05T07:29:50Z</time>
      </trkpt>
      <trkpt lat="46.55093" lon="5.94571">
        <ele>981.6</ele>
        <time>2019-09-05T07:29:54Z</time>
      </trkpt>
      <trkpt lat="46.5509" lon="5.94566">
        <ele>982.4</ele>
        <time>2019-09-05T07:29:59Z</time>
      </trkpt>
      <trkpt lat="46.55081" lon="5.94554">
        <ele>983.4</ele>
        <time>2019-09-05T07:30:10Z</time>
      </trkpt>
      <trkpt lat="46.55057" lon="5.94526">
        <ele>983.7</ele>
        <time>2019-09-05T07:30:36Z</time>
      </trkpt>
      <trkpt lat="46.55041" lon="5.94507">
        <ele>983.6</ele>
        <time>2019-09-05T07:30:56Z</time>
      </trkpt>
      <trkpt lat="46.55031" lon="5.94493">
        <ele>983.4</ele>
        <time>2019-09-05T07:31:09Z</time>
      </trkpt>
      <trkpt lat="46.55028" lon="5.94488">
        <ele>983.1</ele>
        <time>2019-09-05T07:31:15Z</time>
      </trkpt>
      <trkpt lat="46.55023" lon="5.94484">
        <ele>982.6</ele>
        <time>2019-09-05T07:31:21Z</time>
      </trkpt>
      <trkpt lat="46.55008" lon="5.94467">
        <ele>980.8</ele>
        <time>2019-09-05T07:31:44Z</time>
      </trkpt>
      <trkpt lat="46.55004" lon="5.94463">
        <ele>980.6</ele>
        <time>2019-09-05T07:31:50Z</time>
      </trkpt>
      <trkpt lat="46.54988" lon="5.9445">
        <ele>979.4</ele>
        <time>2019-09-05T07:32:09Z</time>
      </trkpt>
      <trkpt lat="46.54977" lon="5.94464">
        <ele>975.4</ele>
        <time>2019-09-05T07:32:51Z</time>
      </trkpt>
      <trkpt lat="46.54972" lon="5.94462">
        <ele>973.5</ele>
        <time>2019-09-05T07:32:59Z</time>
      </trkpt>
      <trkpt lat="46.54955" lon="5.94452">
        <ele>970.2</ele>
        <time>2019-09-05T07:33:07Z</time>
      </trkpt>
      <trkpt lat="46.5495" lon="5.9445">
        <ele>969.8</ele>
        <time>2019-09-05T07:33:10Z</time>
      </trkpt>
      <trkpt lat="46.54945" lon="5.9445">
        <ele>969.5</ele>
        <time>2019-09-05T07:33:13Z</time>
      </trkpt>
      <trkpt lat="46.54941" lon="5.9445">
        <ele>969.5</ele>
        <time>2019-09-05T07:33:24Z</time>
      </trkpt>
      <trkpt lat="46.5491" lon="5.94437">
        <ele>969.8</ele>
        <time>2019-09-05T07:34:21Z</time>
      </trkpt>
      <trkpt lat="46.54905" lon="5.94434">
        <ele>968.9</ele>
        <time>2019-09-05T07:34:26Z</time>
      </trkpt>
      <trkpt lat="46.54901" lon="5.9443">
        <ele>968.5</ele>
        <time>2019-09-05T07:34:28Z</time>
      </trkpt>
      <trkpt lat="46.54888" lon="5.94413">
        <ele>964.6</ele>
        <time>2019-09-05T07:34:58Z</time>
      </trkpt>
      <trkpt lat="46.54887" lon="5.94406">
        <ele>964.4</ele>
        <time>2019-09-05T07:35:01Z</time>
      </trkpt>
      <trkpt lat="46.54881" lon="5.94398">
        <ele>964.4</ele>
        <time>2019-09-05T07:35:04Z</time>
      </trkpt>
      <trkpt lat="46.54877" lon="5.94391">
        <ele>964.5</ele>
        <time>2019-09-05T07:35:06Z</time>
      </trkpt>
      <trkpt lat="46.54872" lon="5.94384">
        <ele>964.5</ele>
        <time>2019-09-05T07:35:08Z</time>
      </trkpt>
      <trkpt lat="46.54865" lon="5.94379">
        <ele>964.7</ele>
        <time>2019-09-05T07:35:10Z</time>
      </trkpt>
      <trkpt lat="46.54859" lon="5.94376">
        <ele>964.9</ele>
        <time>2019-09-05T07:35:12Z</time>
      </trkpt>
      <trkpt lat="46.54853" lon="5.94375">
        <ele>965.5</ele>
        <time>2019-09-05T07:35:15Z</time>
      </trkpt>
      <trkpt lat="46.54848" lon="5.94377">
        <ele>966.2</ele>
        <time>2019-09-05T07:35:18Z</time>
      </trkpt>
      <trkpt lat="46.54843" lon="5.94378">
        <ele>967.4</ele>
        <time>2019-09-05T07:35:22Z</time>
      </trkpt>
      <trkpt lat="46.54835" lon="5.9437">
        <ele>971.5</ele>
        <time>2019-09-05T07:35:39Z</time>
      </trkpt>
      <trkpt lat="46.54831" lon="5.94364">
        <ele>971.4</ele>
        <time>2019-09-05T07:35:42Z</time>
      </trkpt>
      <trkpt lat="46.54827" lon="5.94359">
        <ele>971.1</ele>
        <time>2019-09-05T07:35:46Z</time>
      </trkpt>
      <trkpt lat="46.54823" lon="5.94352">
        <ele>970.9</ele>
        <time>2019-09-05T07:35:51Z</time>
      </trkpt>
      <trkpt lat="46.54818" lon="5.94347">
        <ele>970.5</ele>
        <time>2019-09-05T07:35:57Z</time>
      </trkpt>
      <trkpt lat="46.54814" lon="5.94344">
        <ele>970.1</ele>
        <time>2019-09-05T07:36:02Z</time>
      </trkpt>
      <trkpt lat="46.5481" lon="5.94341">
        <ele>969.2</ele>
        <time>2019-09-05T07:36:09Z</time>
      </trkpt>
      <trkpt lat="46.54805" lon="5.94339">
        <ele>967.8</ele>
        <time>2019-09-05T07:36:16Z</time>
      </trkpt>
      <trkpt lat="46.54799" lon="5.94334">
        <ele>965.6</ele>
        <time>2019-09-05T07:36:24Z</time>
      </trkpt>
      <trkpt lat="46.54795" lon="5.9433">
        <ele>964.8</ele>
        <time>2019-09-05T07:36:27Z</time>
      </trkpt>
      <trkpt lat="46.5479" lon="5.9433">
        <ele>963.2</ele>
        <time>2019-09-05T07:36:33Z</time>
      </trkpt>
      <trkpt lat="46.54785" lon="5.94329">
        <ele>962</ele>
        <time>2019-09-05T07:36:39Z</time>
      </trkpt>
      <trkpt lat="46.54781" lon="5.94324">
        <ele>961.5</ele>
        <time>2019-09-05T07:36:44Z</time>
      </trkpt>
      <trkpt lat="46.54778" lon="5.94319">
        <ele>961.2</ele>
        <time>2019-09-05T07:36:50Z</time>
      </trkpt>
      <trkpt lat="46.54776" lon="5.94313">
        <ele>960.8</ele>
        <time>2019-09-05T07:36:57Z</time>
      </trkpt>
      <trkpt lat="46.54773" lon="5.94306">
        <ele>960.5</ele>
        <time>2019-09-05T07:37:01Z</time>
      </trkpt>
      <trkpt lat="46.5477" lon="5.94298">
        <ele>960.1</ele>
        <time>2019-09-05T07:37:08Z</time>
      </trkpt>
      <trkpt lat="46.54767" lon="5.94292">
        <ele>960.3</ele>
        <time>2019-09-05T07:37:14Z</time>
      </trkpt>
      <trkpt lat="46.5476" lon="5.94285">
        <ele>961</ele>
        <time>2019-09-05T07:37:22Z</time>
      </trkpt>
      <trkpt lat="46.54756" lon="5.94281">
        <ele>961.1</ele>
        <time>2019-09-05T07:37:25Z</time>
      </trkpt>
      <trkpt lat="46.54753" lon="5.94275">
        <ele>961.8</ele>
        <time>2019-09-05T07:37:30Z</time>
      </trkpt>
      <trkpt lat="46.54749" lon="5.94271">
        <ele>962.3</ele>
        <time>2019-09-05T07:37:34Z</time>
      </trkpt>
      <trkpt lat="46.54746" lon="5.94264">
        <ele>963.5</ele>
        <time>2019-09-05T07:37:43Z</time>
      </trkpt>
      <trkpt lat="46.54743" lon="5.94259">
        <ele>963.8</ele>
        <time>2019-09-05T07:37:47Z</time>
      </trkpt>
      <trkpt lat="46.5474" lon="5.94252">
        <ele>964.1</ele>
        <time>2019-09-05T07:37:52Z</time>
      </trkpt>
      <trkpt lat="46.54736" lon="5.94247">
        <ele>964.2</ele>
        <time>2019-09-05T07:37:54Z</time>
      </trkpt>
      <trkpt lat="46.54734" lon="5.9424">
        <ele>964.6</ele>
        <time>2019-09-05T07:38:00Z</time>
      </trkpt>
      <trkpt lat="46.54731" lon="5.94234">
        <ele>965.2</ele>
        <time>2019-09-05T07:38:08Z</time>
      </trkpt>
      <trkpt lat="46.54727" lon="5.94229">
        <ele>966</ele>
        <time>2019-09-05T07:38:15Z</time>
      </trkpt>
      <trkpt lat="46.54725" lon="5.94223">
        <ele>966.5</ele>
        <time>2019-09-05T07:38:19Z</time>
      </trkpt>
      <trkpt lat="46.54723" lon="5.94217">
        <ele>966.7</ele>
        <time>2019-09-05T07:38:24Z</time>
      </trkpt>
      <trkpt lat="46.5472" lon="5.94196">
        <ele>965.4</ele>
        <time>2019-09-05T07:38:35Z</time>
      </trkpt>
      <trkpt lat="46.54717" lon="5.9419">
        <ele>964.8</ele>
        <time>2019-09-05T07:38:40Z</time>
      </trkpt>
      <trkpt lat="46.54713" lon="5.94186">
        <ele>963.3</ele>
        <time>2019-09-05T07:38:49Z</time>
      </trkpt>
      <trkpt lat="46.54711" lon="5.94177">
        <ele>962.3</ele>
        <time>2019-09-05T07:38:57Z</time>
      </trkpt>
      <trkpt lat="46.54708" lon="5.94169">
        <ele>962.1</ele>
        <time>2019-09-05T07:38:59Z</time>
      </trkpt>
      <trkpt lat="46.54705" lon="5.94163">
        <ele>961.9</ele>
        <time>2019-09-05T07:39:01Z</time>
      </trkpt>
      <trkpt lat="46.54702" lon="5.94158">
        <ele>961.2</ele>
        <time>2019-09-05T07:39:06Z</time>
      </trkpt>
      <trkpt lat="46.54699" lon="5.94151">
        <ele>959.3</ele>
        <time>2019-09-05T07:39:20Z</time>
      </trkpt>
      <trkpt lat="46.54695" lon="5.94129">
        <ele>958</ele>
        <time>2019-09-05T07:39:33Z</time>
      </trkpt>
      <trkpt lat="46.54701" lon="5.94106">
        <ele>956.1</ele>
        <time>2019-09-05T07:40:01Z</time>
      </trkpt>
      <trkpt lat="46.54701" lon="5.94099">
        <ele>956.1</ele>
        <time>2019-09-05T07:40:04Z</time>
      </trkpt>
      <trkpt lat="46.54701" lon="5.94083">
        <ele>955.7</ele>
        <time>2019-09-05T07:40:13Z</time>
      </trkpt>
      <trkpt lat="46.54705" lon="5.94063">
        <ele>961.1</ele>
        <time>2019-09-05T07:44:39Z</time>
      </trkpt>
      <trkpt lat="46.54703" lon="5.94056">
        <ele>961.1</ele>
        <time>2019-09-05T07:44:42Z</time>
      </trkpt>
      <trkpt lat="46.54701" lon="5.94049">
        <ele>961</ele>
        <time>2019-09-05T07:44:44Z</time>
      </trkpt>
      <trkpt lat="46.54699" lon="5.94043">
        <ele>960.9</ele>
        <time>2019-09-05T07:44:49Z</time>
      </trkpt>
      <trkpt lat="46.54696" lon="5.94037">
        <ele>961.7</ele>
        <time>2019-09-05T07:44:58Z</time>
      </trkpt>
      <trkpt lat="46.54691" lon="5.94033">
        <ele>963.6</ele>
        <time>2019-09-05T07:45:13Z</time>
      </trkpt>
      <trkpt lat="46.54681" lon="5.94026">
        <ele>965.2</ele>
        <time>2019-09-05T07:45:21Z</time>
      </trkpt>
      <trkpt lat="46.54676" lon="5.94022">
        <ele>965.4</ele>
        <time>2019-09-05T07:45:23Z</time>
      </trkpt>
      <trkpt lat="46.54672" lon="5.94019">
        <ele>966</ele>
        <time>2019-09-05T07:45:28Z</time>
      </trkpt>
      <trkpt lat="46.5466" lon="5.94011">
        <ele>966.5</ele>
        <time>2019-09-05T07:45:40Z</time>
      </trkpt>
      <trkpt lat="46.54656" lon="5.94006">
        <ele>966.1</ele>
        <time>2019-09-05T07:45:46Z</time>
      </trkpt>
      <trkpt lat="46.54655" lon="5.94">
        <ele>964.9</ele>
        <time>2019-09-05T07:45:56Z</time>
      </trkpt>
      <trkpt lat="46.54649" lon="5.93993">
        <ele>963.6</ele>
        <time>2019-09-05T07:46:08Z</time>
      </trkpt>
      <trkpt lat="46.54633" lon="5.93983">
        <ele>962.1</ele>
        <time>2019-09-05T07:46:18Z</time>
      </trkpt>
      <trkpt lat="46.54629" lon="5.93978">
        <ele>961.9</ele>
        <time>2019-09-05T07:46:23Z</time>
      </trkpt>
      <trkpt lat="46.54613" lon="5.93956">
        <ele>958.9</ele>
        <time>2019-09-05T07:46:45Z</time>
      </trkpt>
      <trkpt lat="46.54608" lon="5.93948">
        <ele>958.4</ele>
        <time>2019-09-05T07:46:55Z</time>
      </trkpt>
      <trkpt lat="46.54602" lon="5.93942">
        <ele>958.8</ele>
        <time>2019-09-05T07:46:59Z</time>
      </trkpt>
      <trkpt lat="46.54597" lon="5.93939">
        <ele>959</ele>
        <time>2019-09-05T07:47:01Z</time>
      </trkpt>
      <trkpt lat="46.54591" lon="5.93934">
        <ele>959.2</ele>
        <time>2019-09-05T07:47:04Z</time>
      </trkpt>
      <trkpt lat="46.54587" lon="5.93929">
        <ele>959.6</ele>
        <time>2019-09-05T07:47:08Z</time>
      </trkpt>
      <trkpt lat="46.54584" lon="5.93924">
        <ele>960.2</ele>
        <time>2019-09-05T07:47:15Z</time>
      </trkpt>
      <trkpt lat="46.54581" lon="5.93918">
        <ele>960.8</ele>
        <time>2019-09-05T07:47:19Z</time>
      </trkpt>
      <trkpt lat="46.54579" lon="5.93912">
        <ele>961.3</ele>
        <time>2019-09-05T07:47:23Z</time>
      </trkpt>
      <trkpt lat="46.54577" lon="5.93906">
        <ele>961.6</ele>
        <time>2019-09-05T07:47:26Z</time>
      </trkpt>
      <trkpt lat="46.54576" lon="5.93899">
        <ele>961.9</ele>
        <time>2019-09-05T07:47:32Z</time>
      </trkpt>
      <trkpt lat="46.54574" lon="5.93893">
        <ele>962.1</ele>
        <time>2019-09-05T07:47:38Z</time>
      </trkpt>
      <trkpt lat="46.54572" lon="5.93886">
        <ele>961.9</ele>
        <time>2019-09-05T07:47:43Z</time>
      </trkpt>
      <trkpt lat="46.54569" lon="5.93879">
        <ele>961.4</ele>
        <time>2019-09-05T07:47:48Z</time>
      </trkpt>
      <trkpt lat="46.54568" lon="5.93871">
        <ele>960.6</ele>
        <time>2019-09-05T07:47:54Z</time>
      </trkpt>
      <trkpt lat="46.54567" lon="5.93865">
        <ele>959.6</ele>
        <time>2019-09-05T07:47:59Z</time>
      </trkpt>
      <trkpt lat="46.54566" lon="5.93857">
        <ele>958.6</ele>
        <time>2019-09-05T07:48:04Z</time>
      </trkpt>
      <trkpt lat="46.54564" lon="5.93851">
        <ele>957.2</ele>
        <time>2019-09-05T07:48:11Z</time>
      </trkpt>
      <trkpt lat="46.5456" lon="5.93845">
        <ele>956.4</ele>
        <time>2019-09-05T07:48:18Z</time>
      </trkpt>
      <trkpt lat="46.54559" lon="5.93837">
        <ele>956.1</ele>
        <time>2019-09-05T07:48:22Z</time>
      </trkpt>
      <trkpt lat="46.54558" lon="5.9383">
        <ele>955.7</ele>
        <time>2019-09-05T07:48:26Z</time>
      </trkpt>
      <trkpt lat="46.54556" lon="5.93823">
        <ele>955.4</ele>
        <time>2019-09-05T07:48:31Z</time>
      </trkpt>
      <trkpt lat="46.54554" lon="5.93816">
        <ele>954.9</ele>
        <time>2019-09-05T07:48:37Z</time>
      </trkpt>
      <trkpt lat="46.54553" lon="5.9381">
        <ele>954.3</ele>
        <time>2019-09-05T07:48:42Z</time>
      </trkpt>
      <trkpt lat="46.5455" lon="5.93803">
        <ele>953.6</ele>
        <time>2019-09-05T07:48:46Z</time>
      </trkpt>
      <trkpt lat="46.54547" lon="5.93794">
        <ele>953.1</ele>
        <time>2019-09-05T07:48:50Z</time>
      </trkpt>
      <trkpt lat="46.54544" lon="5.93787">
        <ele>952.6</ele>
        <time>2019-09-05T07:48:53Z</time>
      </trkpt>
      <trkpt lat="46.54541" lon="5.93781">
        <ele>952.1</ele>
        <time>2019-09-05T07:48:56Z</time>
      </trkpt>
      <trkpt lat="46.54539" lon="5.93773">
        <ele>951.3</ele>
        <time>2019-09-05T07:49:00Z</time>
      </trkpt>
      <trkpt lat="46.54538" lon="5.93765">
        <ele>950.8</ele>
        <time>2019-09-05T07:49:03Z</time>
      </trkpt>
      <trkpt lat="46.54538" lon="5.93758">
        <ele>950</ele>
        <time>2019-09-05T07:49:07Z</time>
      </trkpt>
      <trkpt lat="46.54536" lon="5.9375">
        <ele>945.1</ele>
        <time>2019-09-05T07:50:06Z</time>
      </trkpt>
      <trkpt lat="46.54531" lon="5.93752">
        <ele>945.4</ele>
        <time>2019-09-05T07:50:11Z</time>
      </trkpt>
      <trkpt lat="46.54526" lon="5.93755">
        <ele>946.4</ele>
        <time>2019-09-05T07:50:29Z</time>
      </trkpt>
      <trkpt lat="46.54521" lon="5.93758">
        <ele>946.8</ele>
        <time>2019-09-05T07:50:35Z</time>
      </trkpt>
      <trkpt lat="46.54516" lon="5.93755">
        <ele>947.1</ele>
        <time>2019-09-05T07:50:43Z</time>
      </trkpt>
      <trkpt lat="46.54512" lon="5.9375">
        <ele>947.3</ele>
        <time>2019-09-05T07:50:49Z</time>
      </trkpt>
      <trkpt lat="46.54508" lon="5.93743">
        <ele>947.5</ele>
        <time>2019-09-05T07:50:54Z</time>
      </trkpt>
      <trkpt lat="46.54506" lon="5.93738">
        <ele>947.4</ele>
        <time>2019-09-05T07:50:57Z</time>
      </trkpt>
      <trkpt lat="46.54501" lon="5.93733">
        <ele>947.4</ele>
        <time>2019-09-05T07:51:02Z</time>
      </trkpt>
      <trkpt lat="46.54498" lon="5.93728">
        <ele>947.6</ele>
        <time>2019-09-05T07:51:07Z</time>
      </trkpt>
      <trkpt lat="46.54495" lon="5.93721">
        <ele>947.6</ele>
        <time>2019-09-05T07:51:12Z</time>
      </trkpt>
      <trkpt lat="46.5449" lon="5.93716">
        <ele>947.5</ele>
        <time>2019-09-05T07:51:17Z</time>
      </trkpt>
      <trkpt lat="46.54486" lon="5.93714">
        <ele>947.8</ele>
        <time>2019-09-05T07:51:21Z</time>
      </trkpt>
      <trkpt lat="46.54483" lon="5.9371">
        <ele>948.2</ele>
        <time>2019-09-05T07:51:25Z</time>
      </trkpt>
      <trkpt lat="46.54479" lon="5.93706">
        <ele>948.7</ele>
        <time>2019-09-05T07:51:30Z</time>
      </trkpt>
      <trkpt lat="46.54475" lon="5.937">
        <ele>948.9</ele>
        <time>2019-09-05T07:51:35Z</time>
      </trkpt>
      <trkpt lat="46.54466" lon="5.93687">
        <ele>949.6</ele>
        <time>2019-09-05T07:51:50Z</time>
      </trkpt>
      <trkpt lat="46.54462" lon="5.93683">
        <ele>949.5</ele>
        <time>2019-09-05T07:51:54Z</time>
      </trkpt>
      <trkpt lat="46.54457" lon="5.93679">
        <ele>949.4</ele>
        <time>2019-09-05T07:52:00Z</time>
      </trkpt>
      <trkpt lat="46.54453" lon="5.93676">
        <ele>949.4</ele>
        <time>2019-09-05T07:52:07Z</time>
      </trkpt>
      <trkpt lat="46.54449" lon="5.93671">
        <ele>950.2</ele>
        <time>2019-09-05T07:52:16Z</time>
      </trkpt>
      <trkpt lat="46.54444" lon="5.93667">
        <ele>951</ele>
        <time>2019-09-05T07:52:20Z</time>
      </trkpt>
      <trkpt lat="46.54439" lon="5.93663">
        <ele>952.2</ele>
        <time>2019-09-05T07:52:25Z</time>
      </trkpt>
      <trkpt lat="46.54435" lon="5.93659">
        <ele>953.7</ele>
        <time>2019-09-05T07:52:30Z</time>
      </trkpt>
      <trkpt lat="46.54432" lon="5.93654">
        <ele>954.7</ele>
        <time>2019-09-05T07:52:33Z</time>
      </trkpt>
      <trkpt lat="46.54431" lon="5.93647">
        <ele>957.3</ele>
        <time>2019-09-05T07:52:40Z</time>
      </trkpt>
      <trkpt lat="46.54429" lon="5.93639">
        <ele>958.4</ele>
        <time>2019-09-05T07:52:44Z</time>
      </trkpt>
      <trkpt lat="46.54428" lon="5.93632">
        <ele>958.7</ele>
        <time>2019-09-05T07:52:46Z</time>
      </trkpt>
      <trkpt lat="46.54429" lon="5.93626">
        <ele>959.1</ele>
        <time>2019-09-05T07:52:49Z</time>
      </trkpt>
      <trkpt lat="46.5443" lon="5.93619">
        <ele>959.3</ele>
        <time>2019-09-05T07:52:53Z</time>
      </trkpt>
      <trkpt lat="46.54431" lon="5.93612">
        <ele>959.2</ele>
        <time>2019-09-05T07:53:00Z</time>
      </trkpt>
      <trkpt lat="46.54431" lon="5.93604">
        <ele>958.7</ele>
        <time>2019-09-05T07:53:06Z</time>
      </trkpt>
      <trkpt lat="46.54431" lon="5.93582">
        <ele>959</ele>
        <time>2019-09-05T07:53:26Z</time>
      </trkpt>
      <trkpt lat="46.54428" lon="5.93577">
        <ele>959.5</ele>
        <time>2019-09-05T07:53:33Z</time>
      </trkpt>
      <trkpt lat="46.54424" lon="5.93571">
        <ele>959.7</ele>
        <time>2019-09-05T07:53:39Z</time>
      </trkpt>
      <trkpt lat="46.5442" lon="5.93566">
        <ele>959.7</ele>
        <time>2019-09-05T07:53:42Z</time>
      </trkpt>
      <trkpt lat="46.54415" lon="5.93561">
        <ele>959.7</ele>
        <time>2019-09-05T07:53:46Z</time>
      </trkpt>
      <trkpt lat="46.54409" lon="5.93558">
        <ele>959.6</ele>
        <time>2019-09-05T07:53:52Z</time>
      </trkpt>
      <trkpt lat="46.54404" lon="5.93556">
        <ele>959.6</ele>
        <time>2019-09-05T07:53:54Z</time>
      </trkpt>
      <trkpt lat="46.54399" lon="5.93555">
        <ele>959.7</ele>
        <time>2019-09-05T07:53:59Z</time>
      </trkpt>
      <trkpt lat="46.54394" lon="5.93554">
        <ele>960.8</ele>
        <time>2019-09-05T07:54:06Z</time>
      </trkpt>
      <trkpt lat="46.54389" lon="5.93553">
        <ele>963.2</ele>
        <time>2019-09-05T07:54:16Z</time>
      </trkpt>
      <trkpt lat="46.54371" lon="5.9355">
        <ele>968.7</ele>
        <time>2019-09-05T07:54:30Z</time>
      </trkpt>
      <trkpt lat="46.54365" lon="5.93548">
        <ele>969.9</ele>
        <time>2019-09-05T07:54:35Z</time>
      </trkpt>
      <trkpt lat="46.5436" lon="5.93548">
        <ele>971.1</ele>
        <time>2019-09-05T07:54:40Z</time>
      </trkpt>
      <trkpt lat="46.54355" lon="5.93545">
        <ele>972.6</ele>
        <time>2019-09-05T07:54:46Z</time>
      </trkpt>
      <trkpt lat="46.5435" lon="5.93543">
        <ele>974</ele>
        <time>2019-09-05T07:54:52Z</time>
      </trkpt>
      <trkpt lat="46.54321" lon="5.93537">
        <ele>981.3</ele>
        <time>2019-09-05T07:55:16Z</time>
      </trkpt>
      <trkpt lat="46.54316" lon="5.93536">
        <ele>981</ele>
        <time>2019-09-05T07:55:20Z</time>
      </trkpt>
      <trkpt lat="46.54312" lon="5.93534">
        <ele>980.6</ele>
        <time>2019-09-05T07:55:23Z</time>
      </trkpt>
      <trkpt lat="46.54307" lon="5.93532">
        <ele>980</ele>
        <time>2019-09-05T07:55:27Z</time>
      </trkpt>
      <trkpt lat="46.54302" lon="5.93529">
        <ele>979</ele>
        <time>2019-09-05T07:55:32Z</time>
      </trkpt>
      <trkpt lat="46.54297" lon="5.93528">
        <ele>977.3</ele>
        <time>2019-09-05T07:55:39Z</time>
      </trkpt>
      <trkpt lat="46.54293" lon="5.93526">
        <ele>975.3</ele>
        <time>2019-09-05T07:55:47Z</time>
      </trkpt>
      <trkpt lat="46.54281" lon="5.93511">
        <ele>967.3</ele>
        <time>2019-09-05T07:56:38Z</time>
      </trkpt>
      <trkpt lat="46.54277" lon="5.93505">
        <ele>967.1</ele>
        <time>2019-09-05T07:56:42Z</time>
      </trkpt>
      <trkpt lat="46.54274" lon="5.93499">
        <ele>967</ele>
        <time>2019-09-05T07:56:47Z</time>
      </trkpt>
      <trkpt lat="46.5427" lon="5.93494">
        <ele>967</ele>
        <time>2019-09-05T07:56:51Z</time>
      </trkpt>
      <trkpt lat="46.54266" lon="5.93488">
        <ele>967</ele>
        <time>2019-09-05T07:56:55Z</time>
      </trkpt>
      <trkpt lat="46.54262" lon="5.93483">
        <ele>966.9</ele>
        <time>2019-09-05T07:57:01Z</time>
      </trkpt>
      <trkpt lat="46.54258" lon="5.93479">
        <ele>966.7</ele>
        <time>2019-09-05T07:57:11Z</time>
      </trkpt>
      <trkpt lat="46.54254" lon="5.93475">
        <ele>966.6</ele>
        <time>2019-09-05T07:57:17Z</time>
      </trkpt>
      <trkpt lat="46.54251" lon="5.93471">
        <ele>966.3</ele>
        <time>2019-09-05T07:57:21Z</time>
      </trkpt>
      <trkpt lat="46.54247" lon="5.93466">
        <ele>966.1</ele>
        <time>2019-09-05T07:57:25Z</time>
      </trkpt>
      <trkpt lat="46.54244" lon="5.9346">
        <ele>965.9</ele>
        <time>2019-09-05T07:57:31Z</time>
      </trkpt>
      <trkpt lat="46.5424" lon="5.93456">
        <ele>965.3</ele>
        <time>2019-09-05T07:57:40Z</time>
      </trkpt>
      <trkpt lat="46.54236" lon="5.93452">
        <ele>964.9</ele>
        <time>2019-09-05T07:57:44Z</time>
      </trkpt>
      <trkpt lat="46.54232" lon="5.93448">
        <ele>964.6</ele>
        <time>2019-09-05T07:57:47Z</time>
      </trkpt>
      <trkpt lat="46.54227" lon="5.93445">
        <ele>964.3</ele>
        <time>2019-09-05T07:57:51Z</time>
      </trkpt>
      <trkpt lat="46.54222" lon="5.93441">
        <ele>964.1</ele>
        <time>2019-09-05T07:57:55Z</time>
      </trkpt>
      <trkpt lat="46.54219" lon="5.93438">
        <ele>964.2</ele>
        <time>2019-09-05T07:58:00Z</time>
      </trkpt>
      <trkpt lat="46.54215" lon="5.93434">
        <ele>964.4</ele>
        <time>2019-09-05T07:58:05Z</time>
      </trkpt>
      <trkpt lat="46.54211" lon="5.93429">
        <ele>965.2</ele>
        <time>2019-09-05T07:58:14Z</time>
      </trkpt>
      <trkpt lat="46.54207" lon="5.93425">
        <ele>965.1</ele>
        <time>2019-09-05T07:58:21Z</time>
      </trkpt>
      <trkpt lat="46.54203" lon="5.9342">
        <ele>964.6</ele>
        <time>2019-09-05T07:58:27Z</time>
      </trkpt>
      <trkpt lat="46.54199" lon="5.93417">
        <ele>964.2</ele>
        <time>2019-09-05T07:58:33Z</time>
      </trkpt>
      <trkpt lat="46.54195" lon="5.93412">
        <ele>964</ele>
        <time>2019-09-05T07:58:39Z</time>
      </trkpt>
      <trkpt lat="46.5419" lon="5.9341">
        <ele>963.7</ele>
        <time>2019-09-05T07:58:44Z</time>
      </trkpt>
      <trkpt lat="46.54186" lon="5.93407">
        <ele>963.5</ele>
        <time>2019-09-05T07:58:49Z</time>
      </trkpt>
      <trkpt lat="46.54181" lon="5.93402">
        <ele>963.2</ele>
        <time>2019-09-05T07:58:55Z</time>
      </trkpt>
      <trkpt lat="46.54178" lon="5.93395">
        <ele>963.1</ele>
        <time>2019-09-05T07:58:58Z</time>
      </trkpt>
      <trkpt lat="46.54175" lon="5.93389">
        <ele>962.9</ele>
        <time>2019-09-05T07:59:02Z</time>
      </trkpt>
      <trkpt lat="46.54172" lon="5.93384">
        <ele>962.6</ele>
        <time>2019-09-05T07:59:09Z</time>
      </trkpt>
      <trkpt lat="46.54169" lon="5.93378">
        <ele>961.8</ele>
        <time>2019-09-05T07:59:18Z</time>
      </trkpt>
      <trkpt lat="46.54165" lon="5.93374">
        <ele>961.1</ele>
        <time>2019-09-05T07:59:30Z</time>
      </trkpt>
      <trkpt lat="46.54163" lon="5.93368">
        <ele>961</ele>
        <time>2019-09-05T07:59:33Z</time>
      </trkpt>
      <trkpt lat="46.54159" lon="5.93363">
        <ele>960.7</ele>
        <time>2019-09-05T07:59:39Z</time>
      </trkpt>
      <trkpt lat="46.54154" lon="5.93358">
        <ele>959.8</ele>
        <time>2019-09-05T07:59:47Z</time>
      </trkpt>
      <trkpt lat="46.54147" lon="5.93351">
        <ele>959.5</ele>
        <time>2019-09-05T07:59:49Z</time>
      </trkpt>
      <trkpt lat="46.5414" lon="5.93342">
        <ele>959.2</ele>
        <time>2019-09-05T07:59:51Z</time>
      </trkpt>
      <trkpt lat="46.54136" lon="5.93337">
        <ele>959</ele>
        <time>2019-09-05T07:59:53Z</time>
      </trkpt>
      <trkpt lat="46.54132" lon="5.93332">
        <ele>958.6</ele>
        <time>2019-09-05T07:59:56Z</time>
      </trkpt>
      <trkpt lat="46.54128" lon="5.93327">
        <ele>958.4</ele>
        <time>2019-09-05T08:00:00Z</time>
      </trkpt>
      <trkpt lat="46.54124" lon="5.93325">
        <ele>958.2</ele>
        <time>2019-09-05T08:00:04Z</time>
      </trkpt>
      <trkpt lat="46.54119" lon="5.93321">
        <ele>958.3</ele>
        <time>2019-09-05T08:00:09Z</time>
      </trkpt>
      <trkpt lat="46.54115" lon="5.93316">
        <ele>958.3</ele>
        <time>2019-09-05T08:00:15Z</time>
      </trkpt>
      <trkpt lat="46.54111" lon="5.93311">
        <ele>958.6</ele>
        <time>2019-09-05T08:00:21Z</time>
      </trkpt>
      <trkpt lat="46.54107" lon="5.93306">
        <ele>958.9</ele>
        <time>2019-09-05T08:00:27Z</time>
      </trkpt>
      <trkpt lat="46.54104" lon="5.93301">
        <ele>959.1</ele>
        <time>2019-09-05T08:00:33Z</time>
      </trkpt>
      <trkpt lat="46.541" lon="5.93299">
        <ele>959</ele>
        <time>2019-09-05T08:00:37Z</time>
      </trkpt>
      <trkpt lat="46.54095" lon="5.93295">
        <ele>959.2</ele>
        <time>2019-09-05T08:00:43Z</time>
      </trkpt>
      <trkpt lat="46.54091" lon="5.93289">
        <ele>959.3</ele>
        <time>2019-09-05T08:00:46Z</time>
      </trkpt>
      <trkpt lat="46.54078" lon="5.93273">
        <ele>959</ele>
        <time>2019-09-05T08:00:58Z</time>
      </trkpt>
      <trkpt lat="46.54074" lon="5.93269">
        <ele>958.7</ele>
        <time>2019-09-05T08:01:03Z</time>
      </trkpt>
      <trkpt lat="46.5407" lon="5.93266">
        <ele>958.8</ele>
        <time>2019-09-05T08:01:08Z</time>
      </trkpt>
      <trkpt lat="46.54066" lon="5.93263">
        <ele>959.2</ele>
        <time>2019-09-05T08:01:13Z</time>
      </trkpt>
      <trkpt lat="46.54063" lon="5.93257">
        <ele>959.6</ele>
        <time>2019-09-05T08:01:18Z</time>
      </trkpt>
      <trkpt lat="46.54052" lon="5.93245">
        <ele>961.9</ele>
        <time>2019-09-05T08:01:34Z</time>
      </trkpt>
      <trkpt lat="46.54049" lon="5.93239">
        <ele>961.9</ele>
        <time>2019-09-05T08:01:37Z</time>
      </trkpt>
      <trkpt lat="46.54047" lon="5.93232">
        <ele>961.9</ele>
        <time>2019-09-05T08:01:41Z</time>
      </trkpt>
      <trkpt lat="46.54044" lon="5.93227">
        <ele>962</ele>
        <time>2019-09-05T08:01:46Z</time>
      </trkpt>
      <trkpt lat="46.54048" lon="5.93214">
        <ele>962.1</ele>
        <time>2019-09-05T08:02:00Z</time>
      </trkpt>
      <trkpt lat="46.54048" lon="5.93198">
        <ele>960.4</ele>
        <time>2019-09-05T08:02:14Z</time>
      </trkpt>
      <trkpt lat="46.54046" lon="5.93191">
        <ele>959.7</ele>
        <time>2019-09-05T08:02:20Z</time>
      </trkpt>
      <trkpt lat="46.54044" lon="5.93185">
        <ele>958.9</ele>
        <time>2019-09-05T08:02:29Z</time>
      </trkpt>
      <trkpt lat="46.54042" lon="5.93178">
        <ele>958.6</ele>
        <time>2019-09-05T08:02:41Z</time>
      </trkpt>
      <trkpt lat="46.54039" lon="5.93174">
        <ele>958.1</ele>
        <time>2019-09-05T08:02:50Z</time>
      </trkpt>
      <trkpt lat="46.54035" lon="5.93168">
        <ele>957.6</ele>
        <time>2019-09-05T08:02:55Z</time>
      </trkpt>
      <trkpt lat="46.54032" lon="5.93163">
        <ele>957.4</ele>
        <time>2019-09-05T08:02:57Z</time>
      </trkpt>
      <trkpt lat="46.54023" lon="5.93143">
        <ele>955.9</ele>
        <time>2019-09-05T08:03:09Z</time>
      </trkpt>
      <trkpt lat="46.54012" lon="5.93134">
        <ele>955.9</ele>
        <time>2019-09-05T08:03:22Z</time>
      </trkpt>
      <trkpt lat="46.54008" lon="5.93129">
        <ele>955.9</ele>
        <time>2019-09-05T08:03:26Z</time>
      </trkpt>
      <trkpt lat="46.54003" lon="5.93125">
        <ele>955.7</ele>
        <time>2019-09-05T08:03:30Z</time>
      </trkpt>
      <trkpt lat="46.54" lon="5.93121">
        <ele>955.6</ele>
        <time>2019-09-05T08:03:32Z</time>
      </trkpt>
      <trkpt lat="46.53996" lon="5.93117">
        <ele>955.4</ele>
        <time>2019-09-05T08:03:36Z</time>
      </trkpt>
      <trkpt lat="46.53992" lon="5.93112">
        <ele>955.1</ele>
        <time>2019-09-05T08:03:40Z</time>
      </trkpt>
      <trkpt lat="46.53989" lon="5.93108">
        <ele>954.7</ele>
        <time>2019-09-05T08:03:44Z</time>
      </trkpt>
      <trkpt lat="46.53986" lon="5.93102">
        <ele>954.2</ele>
        <time>2019-09-05T08:03:49Z</time>
      </trkpt>
      <trkpt lat="46.53982" lon="5.93097">
        <ele>953.8</ele>
        <time>2019-09-05T08:03:53Z</time>
      </trkpt>
      <trkpt lat="46.53979" lon="5.93092">
        <ele>953.6</ele>
        <time>2019-09-05T08:03:56Z</time>
      </trkpt>
      <trkpt lat="46.53974" lon="5.93088">
        <ele>953.7</ele>
        <time>2019-09-05T08:04:04Z</time>
      </trkpt>
      <trkpt lat="46.53972" lon="5.93081">
        <ele>953.5</ele>
        <time>2019-09-05T08:04:11Z</time>
      </trkpt>
      <trkpt lat="46.53962" lon="5.93068">
        <ele>952.4</ele>
        <time>2019-09-05T08:04:19Z</time>
      </trkpt>
      <trkpt lat="46.53948" lon="5.93043">
        <ele>951</ele>
        <time>2019-09-05T08:04:43Z</time>
      </trkpt>
      <trkpt lat="46.53945" lon="5.93039">
        <ele>950.5</ele>
        <time>2019-09-05T08:04:50Z</time>
      </trkpt>
      <trkpt lat="46.53942" lon="5.93033">
        <ele>949.8</ele>
        <time>2019-09-05T08:04:55Z</time>
      </trkpt>
      <trkpt lat="46.53938" lon="5.93027">
        <ele>949.1</ele>
        <time>2019-09-05T08:05:00Z</time>
      </trkpt>
      <trkpt lat="46.53935" lon="5.93021">
        <ele>948.5</ele>
        <time>2019-09-05T08:05:06Z</time>
      </trkpt>
      <trkpt lat="46.53933" lon="5.93014">
        <ele>948.2</ele>
        <time>2019-09-05T08:05:11Z</time>
      </trkpt>
      <trkpt lat="46.5393" lon="5.93008">
        <ele>948.1</ele>
        <time>2019-09-05T08:05:16Z</time>
      </trkpt>
      <trkpt lat="46.53927" lon="5.93003">
        <ele>948.1</ele>
        <time>2019-09-05T08:05:22Z</time>
      </trkpt>
      <trkpt lat="46.53919" lon="5.92991">
        <ele>945.4</ele>
        <time>2019-09-05T08:05:39Z</time>
      </trkpt>
      <trkpt lat="46.53916" lon="5.92985">
        <ele>944</ele>
        <time>2019-09-05T08:05:47Z</time>
      </trkpt>
      <trkpt lat="46.53913" lon="5.9298">
        <ele>943.1</ele>
        <time>2019-09-05T08:05:53Z</time>
      </trkpt>
      <trkpt lat="46.53909" lon="5.92976">
        <ele>942.3</ele>
        <time>2019-09-05T08:05:58Z</time>
      </trkpt>
      <trkpt lat="46.53905" lon="5.92969">
        <ele>941.6</ele>
        <time>2019-09-05T08:06:04Z</time>
      </trkpt>
      <trkpt lat="46.53902" lon="5.92962">
        <ele>941.2</ele>
        <time>2019-09-05T08:06:08Z</time>
      </trkpt>
      <trkpt lat="46.53898" lon="5.92955">
        <ele>941</ele>
        <time>2019-09-05T08:06:11Z</time>
      </trkpt>
      <trkpt lat="46.53894" lon="5.92949">
        <ele>940.7</ele>
        <time>2019-09-05T08:06:14Z</time>
      </trkpt>
      <trkpt lat="46.53892" lon="5.92941">
        <ele>940.3</ele>
        <time>2019-09-05T08:06:18Z</time>
      </trkpt>
      <trkpt lat="46.53889" lon="5.92935">
        <ele>939.5</ele>
        <time>2019-09-05T08:06:24Z</time>
      </trkpt>
      <trkpt lat="46.53887" lon="5.92928">
        <ele>938.9</ele>
        <time>2019-09-05T08:06:29Z</time>
      </trkpt>
      <trkpt lat="46.53884" lon="5.92923">
        <ele>938.6</ele>
        <time>2019-09-05T08:06:33Z</time>
      </trkpt>
      <trkpt lat="46.53881" lon="5.92916">
        <ele>938.4</ele>
        <time>2019-09-05T08:06:37Z</time>
      </trkpt>
      <trkpt lat="46.53878" lon="5.9291">
        <ele>938.2</ele>
        <time>2019-09-05T08:06:41Z</time>
      </trkpt>
      <trkpt lat="46.53875" lon="5.92904">
        <ele>938.1</ele>
        <time>2019-09-05T08:06:45Z</time>
      </trkpt>
      <trkpt lat="46.53872" lon="5.92899">
        <ele>938</ele>
        <time>2019-09-05T08:06:52Z</time>
      </trkpt>
      <trkpt lat="46.53868" lon="5.92894">
        <ele>938</ele>
        <time>2019-09-05T08:06:57Z</time>
      </trkpt>
      <trkpt lat="46.53864" lon="5.92889">
        <ele>938</ele>
        <time>2019-09-05T08:07:02Z</time>
      </trkpt>
      <trkpt lat="46.53861" lon="5.92885">
        <ele>937.7</ele>
        <time>2019-09-05T08:07:08Z</time>
      </trkpt>
      <trkpt lat="46.53857" lon="5.92878">
        <ele>937.3</ele>
        <time>2019-09-05T08:07:13Z</time>
      </trkpt>
      <trkpt lat="46.53853" lon="5.92873">
        <ele>936.8</ele>
        <time>2019-09-05T08:07:18Z</time>
      </trkpt>
      <trkpt lat="46.5385" lon="5.92867">
        <ele>936.3</ele>
        <time>2019-09-05T08:07:22Z</time>
      </trkpt>
      <trkpt lat="46.53848" lon="5.92861">
        <ele>935.9</ele>
        <time>2019-09-05T08:07:26Z</time>
      </trkpt>
      <trkpt lat="46.53844" lon="5.92857">
        <ele>935.2</ele>
        <time>2019-09-05T08:07:31Z</time>
      </trkpt>
      <trkpt lat="46.53841" lon="5.92851">
        <ele>934.7</ele>
        <time>2019-09-05T08:07:36Z</time>
      </trkpt>
      <trkpt lat="46.53838" lon="5.92846">
        <ele>934.3</ele>
        <time>2019-09-05T08:07:40Z</time>
      </trkpt>
      <trkpt lat="46.53835" lon="5.9284">
        <ele>933.9</ele>
        <time>2019-09-05T08:07:46Z</time>
      </trkpt>
      <trkpt lat="46.53833" lon="5.92834">
        <ele>933.7</ele>
        <time>2019-09-05T08:07:52Z</time>
      </trkpt>
      <trkpt lat="46.5383" lon="5.92828">
        <ele>933.5</ele>
        <time>2019-09-05T08:07:57Z</time>
      </trkpt>
      <trkpt lat="46.53828" lon="5.92822">
        <ele>933.2</ele>
        <time>2019-09-05T08:08:01Z</time>
      </trkpt>
      <trkpt lat="46.53826" lon="5.92815">
        <ele>932.9</ele>
        <time>2019-09-05T08:08:04Z</time>
      </trkpt>
      <trkpt lat="46.53824" lon="5.92807">
        <ele>932.4</ele>
        <time>2019-09-05T08:08:08Z</time>
      </trkpt>
      <trkpt lat="46.53821" lon="5.92801">
        <ele>931.8</ele>
        <time>2019-09-05T08:08:13Z</time>
      </trkpt>
      <trkpt lat="46.53819" lon="5.92795">
        <ele>931.2</ele>
        <time>2019-09-05T08:08:18Z</time>
      </trkpt>
      <trkpt lat="46.53817" lon="5.92787">
        <ele>930.5</ele>
        <time>2019-09-05T08:08:22Z</time>
      </trkpt>
      <trkpt lat="46.53816" lon="5.9278">
        <ele>930</ele>
        <time>2019-09-05T08:08:26Z</time>
      </trkpt>
      <trkpt lat="46.53814" lon="5.92773">
        <ele>929.4</ele>
        <time>2019-09-05T08:08:31Z</time>
      </trkpt>
      <trkpt lat="46.53813" lon="5.92767">
        <ele>928.7</ele>
        <time>2019-09-05T08:08:36Z</time>
      </trkpt>
      <trkpt lat="46.53811" lon="5.92759">
        <ele>928.1</ele>
        <time>2019-09-05T08:08:40Z</time>
      </trkpt>
      <trkpt lat="46.5381" lon="5.92753">
        <ele>927</ele>
        <time>2019-09-05T08:08:45Z</time>
      </trkpt>
      <trkpt lat="46.53809" lon="5.92746">
        <ele>926.1</ele>
        <time>2019-09-05T08:08:49Z</time>
      </trkpt>
      <trkpt lat="46.53808" lon="5.92739">
        <ele>925.2</ele>
        <time>2019-09-05T08:08:53Z</time>
      </trkpt>
      <trkpt lat="46.53809" lon="5.92731">
        <ele>924.6</ele>
        <time>2019-09-05T08:08:57Z</time>
      </trkpt>
      <trkpt lat="46.53809" lon="5.92724">
        <ele>924.1</ele>
        <time>2019-09-05T08:09:01Z</time>
      </trkpt>
      <trkpt lat="46.5381" lon="5.92716">
        <ele>923.3</ele>
        <time>2019-09-05T08:09:08Z</time>
      </trkpt>
      <trkpt lat="46.53812" lon="5.9271">
        <ele>923</ele>
        <time>2019-09-05T08:09:14Z</time>
      </trkpt>
      <trkpt lat="46.53811" lon="5.92702">
        <ele>922.8</ele>
        <time>2019-09-05T08:09:20Z</time>
      </trkpt>
      <trkpt lat="46.53811" lon="5.92695">
        <ele>922.5</ele>
        <time>2019-09-05T08:09:26Z</time>
      </trkpt>
      <trkpt lat="46.53809" lon="5.92688">
        <ele>922</ele>
        <time>2019-09-05T08:09:32Z</time>
      </trkpt>
      <trkpt lat="46.53807" lon="5.92681">
        <ele>921.3</ele>
        <time>2019-09-05T08:09:38Z</time>
      </trkpt>
      <trkpt lat="46.53804" lon="5.92675">
        <ele>920.6</ele>
        <time>2019-09-05T08:09:43Z</time>
      </trkpt>
      <trkpt lat="46.53801" lon="5.92669">
        <ele>920.1</ele>
        <time>2019-09-05T08:09:47Z</time>
      </trkpt>
      <trkpt lat="46.53798" lon="5.92664">
        <ele>919.8</ele>
        <time>2019-09-05T08:09:51Z</time>
      </trkpt>
      <trkpt lat="46.53797" lon="5.92658">
        <ele>919.1</ele>
        <time>2019-09-05T08:09:56Z</time>
      </trkpt>
      <trkpt lat="46.53794" lon="5.92652">
        <ele>918.2</ele>
        <time>2019-09-05T08:10:02Z</time>
      </trkpt>
      <trkpt lat="46.5379" lon="5.92647">
        <ele>917.6</ele>
        <time>2019-09-05T08:10:07Z</time>
      </trkpt>
      <trkpt lat="46.53788" lon="5.92641">
        <ele>917.3</ele>
        <time>2019-09-05T08:10:11Z</time>
      </trkpt>
      <trkpt lat="46.53785" lon="5.92634">
        <ele>917.2</ele>
        <time>2019-09-05T08:10:14Z</time>
      </trkpt>
      <trkpt lat="46.53782" lon="5.92627">
        <ele>916.9</ele>
        <time>2019-09-05T08:10:18Z</time>
      </trkpt>
      <trkpt lat="46.53781" lon="5.92621">
        <ele>916.4</ele>
        <time>2019-09-05T08:10:22Z</time>
      </trkpt>
      <trkpt lat="46.53779" lon="5.92613">
        <ele>915.5</ele>
        <time>2019-09-05T08:10:28Z</time>
      </trkpt>
      <trkpt lat="46.53777" lon="5.92606">
        <ele>914.9</ele>
        <time>2019-09-05T08:10:32Z</time>
      </trkpt>
      <trkpt lat="46.53775" lon="5.92598">
        <ele>914.3</ele>
        <time>2019-09-05T08:10:36Z</time>
      </trkpt>
      <trkpt lat="46.53774" lon="5.9259">
        <ele>913.6</ele>
        <time>2019-09-05T08:10:40Z</time>
      </trkpt>
      <trkpt lat="46.53773" lon="5.92583">
        <ele>912.5</ele>
        <time>2019-09-05T08:10:46Z</time>
      </trkpt>
      <trkpt lat="46.53774" lon="5.92576">
        <ele>911.9</ele>
        <time>2019-09-05T08:10:51Z</time>
      </trkpt>
      <trkpt lat="46.53773" lon="5.92568">
        <ele>911.6</ele>
        <time>2019-09-05T08:10:56Z</time>
      </trkpt>
      <trkpt lat="46.53773" lon="5.9256">
        <ele>911.4</ele>
        <time>2019-09-05T08:11:00Z</time>
      </trkpt>
      <trkpt lat="46.53774" lon="5.92553">
        <ele>911.1</ele>
        <time>2019-09-05T08:11:05Z</time>
      </trkpt>
      <trkpt lat="46.53774" lon="5.92546">
        <ele>910.7</ele>
        <time>2019-09-05T08:11:11Z</time>
      </trkpt>
      <trkpt lat="46.53774" lon="5.92539">
        <ele>910.2</ele>
        <time>2019-09-05T08:11:15Z</time>
      </trkpt>
      <trkpt lat="46.53775" lon="5.92533">
        <ele>909.3</ele>
        <time>2019-09-05T08:11:20Z</time>
      </trkpt>
      <trkpt lat="46.53777" lon="5.92526">
        <ele>908.2</ele>
        <time>2019-09-05T08:11:25Z</time>
      </trkpt>
      <trkpt lat="46.53779" lon="5.9252">
        <ele>907.3</ele>
        <time>2019-09-05T08:11:31Z</time>
      </trkpt>
      <trkpt lat="46.53781" lon="5.92512">
        <ele>907</ele>
        <time>2019-09-05T08:11:35Z</time>
      </trkpt>
      <trkpt lat="46.53782" lon="5.92504">
        <ele>906.6</ele>
        <time>2019-09-05T08:11:40Z</time>
      </trkpt>
      <trkpt lat="46.53784" lon="5.92498">
        <ele>906.5</ele>
        <time>2019-09-05T08:11:44Z</time>
      </trkpt>
      <trkpt lat="46.53786" lon="5.92491">
        <ele>906.3</ele>
        <time>2019-09-05T08:11:50Z</time>
      </trkpt>
      <trkpt lat="46.53788" lon="5.92485">
        <ele>906</ele>
        <time>2019-09-05T08:11:54Z</time>
      </trkpt>
      <trkpt lat="46.5379" lon="5.92478">
        <ele>905.7</ele>
        <time>2019-09-05T08:11:58Z</time>
      </trkpt>
      <trkpt lat="46.53791" lon="5.92471">
        <ele>905.2</ele>
        <time>2019-09-05T08:12:03Z</time>
      </trkpt>
      <trkpt lat="46.53793" lon="5.92465">
        <ele>904.9</ele>
        <time>2019-09-05T08:12:07Z</time>
      </trkpt>
      <trkpt lat="46.53795" lon="5.92459">
        <ele>904.6</ele>
        <time>2019-09-05T08:12:12Z</time>
      </trkpt>
      <trkpt lat="46.53798" lon="5.92453">
        <ele>904.4</ele>
        <time>2019-09-05T08:12:16Z</time>
      </trkpt>
      <trkpt lat="46.53799" lon="5.92446">
        <ele>904</ele>
        <time>2019-09-05T08:12:21Z</time>
      </trkpt>
      <trkpt lat="46.538" lon="5.92439">
        <ele>903.4</ele>
        <time>2019-09-05T08:12:26Z</time>
      </trkpt>
      <trkpt lat="46.53802" lon="5.92432">
        <ele>902.9</ele>
        <time>2019-09-05T08:12:31Z</time>
      </trkpt>
      <trkpt lat="46.53804" lon="5.92425">
        <ele>902.6</ele>
        <time>2019-09-05T08:12:35Z</time>
      </trkpt>
      <trkpt lat="46.53807" lon="5.9242">
        <ele>902.5</ele>
        <time>2019-09-05T08:12:39Z</time>
      </trkpt>
      <trkpt lat="46.5381" lon="5.92414">
        <ele>902.4</ele>
        <time>2019-09-05T08:12:43Z</time>
      </trkpt>
      <trkpt lat="46.53813" lon="5.92408">
        <ele>902.3</ele>
        <time>2019-09-05T08:12:48Z</time>
      </trkpt>
      <trkpt lat="46.53814" lon="5.92402">
        <ele>902.3</ele>
        <time>2019-09-05T08:12:53Z</time>
      </trkpt>
      <trkpt lat="46.53815" lon="5.92394">
        <ele>902.2</ele>
        <time>2019-09-05T08:12:57Z</time>
      </trkpt>
      <trkpt lat="46.53817" lon="5.92387">
        <ele>902.2</ele>
        <time>2019-09-05T08:13:01Z</time>
      </trkpt>
      <trkpt lat="46.53818" lon="5.9238">
        <ele>902.1</ele>
        <time>2019-09-05T08:13:06Z</time>
      </trkpt>
      <trkpt lat="46.53819" lon="5.92372">
        <ele>902.1</ele>
        <time>2019-09-05T08:13:10Z</time>
      </trkpt>
      <trkpt lat="46.5382" lon="5.92366">
        <ele>901.9</ele>
        <time>2019-09-05T08:13:15Z</time>
      </trkpt>
      <trkpt lat="46.53823" lon="5.92359">
        <ele>901.7</ele>
        <time>2019-09-05T08:13:20Z</time>
      </trkpt>
      <trkpt lat="46.53824" lon="5.92351">
        <ele>901.3</ele>
        <time>2019-09-05T08:13:25Z</time>
      </trkpt>
      <trkpt lat="46.53826" lon="5.92344">
        <ele>900.8</ele>
        <time>2019-09-05T08:13:30Z</time>
      </trkpt>
      <trkpt lat="46.53826" lon="5.92337">
        <ele>900.1</ele>
        <time>2019-09-05T08:13:35Z</time>
      </trkpt>
      <trkpt lat="46.53827" lon="5.92329">
        <ele>899.6</ele>
        <time>2019-09-05T08:13:39Z</time>
      </trkpt>
      <trkpt lat="46.53825" lon="5.92321">
        <ele>899</ele>
        <time>2019-09-05T08:13:43Z</time>
      </trkpt>
      <trkpt lat="46.53823" lon="5.92314">
        <ele>898.5</ele>
        <time>2019-09-05T08:13:46Z</time>
      </trkpt>
      <trkpt lat="46.53819" lon="5.92308">
        <ele>898.1</ele>
        <time>2019-09-05T08:13:50Z</time>
      </trkpt>
      <trkpt lat="46.53816" lon="5.92303">
        <ele>897.9</ele>
        <time>2019-09-05T08:13:56Z</time>
      </trkpt>
      <trkpt lat="46.53812" lon="5.92298">
        <ele>897.8</ele>
        <time>2019-09-05T08:14:03Z</time>
      </trkpt>
      <trkpt lat="46.53808" lon="5.92294">
        <ele>897.7</ele>
        <time>2019-09-05T08:14:06Z</time>
      </trkpt>
      <trkpt lat="46.53804" lon="5.9229">
        <ele>897.6</ele>
        <time>2019-09-05T08:14:09Z</time>
      </trkpt>
      <trkpt lat="46.538" lon="5.92288">
        <ele>897.1</ele>
        <time>2019-09-05T08:14:14Z</time>
      </trkpt>
      <trkpt lat="46.53795" lon="5.92287">
        <ele>896.8</ele>
        <time>2019-09-05T08:14:20Z</time>
      </trkpt>
      <trkpt lat="46.5379" lon="5.92285">
        <ele>896.7</ele>
        <time>2019-09-05T08:14:24Z</time>
      </trkpt>
      <trkpt lat="46.53785" lon="5.92282">
        <ele>896.6</ele>
        <time>2019-09-05T08:14:29Z</time>
      </trkpt>
      <trkpt lat="46.5378" lon="5.92278">
        <ele>896.6</ele>
        <time>2019-09-05T08:14:33Z</time>
      </trkpt>
      <trkpt lat="46.53776" lon="5.92274">
        <ele>896.9</ele>
        <time>2019-09-05T08:14:38Z</time>
      </trkpt>
      <trkpt lat="46.53771" lon="5.9227">
        <ele>897.3</ele>
        <time>2019-09-05T08:14:43Z</time>
      </trkpt>
      <trkpt lat="46.53767" lon="5.92268">
        <ele>897.6</ele>
        <time>2019-09-05T08:14:48Z</time>
      </trkpt>
      <trkpt lat="46.53762" lon="5.92264">
        <ele>897.9</ele>
        <time>2019-09-05T08:14:52Z</time>
      </trkpt>
      <trkpt lat="46.53758" lon="5.92259">
        <ele>898.2</ele>
        <time>2019-09-05T08:14:57Z</time>
      </trkpt>
      <trkpt lat="46.53754" lon="5.92255">
        <ele>898.5</ele>
        <time>2019-09-05T08:15:02Z</time>
      </trkpt>
      <trkpt lat="46.53749" lon="5.92251">
        <ele>898.9</ele>
        <time>2019-09-05T08:15:07Z</time>
      </trkpt>
      <trkpt lat="46.53744" lon="5.92247">
        <ele>899</ele>
        <time>2019-09-05T08:15:11Z</time>
      </trkpt>
      <trkpt lat="46.5374" lon="5.92245">
        <ele>898.9</ele>
        <time>2019-09-05T08:15:15Z</time>
      </trkpt>
      <trkpt lat="46.53735" lon="5.92243">
        <ele>898.9</ele>
        <time>2019-09-05T08:15:19Z</time>
      </trkpt>
      <trkpt lat="46.5373" lon="5.9224">
        <ele>898.9</ele>
        <time>2019-09-05T08:15:22Z</time>
      </trkpt>
      <trkpt lat="46.53725" lon="5.92238">
        <ele>899.1</ele>
        <time>2019-09-05T08:15:27Z</time>
      </trkpt>
      <trkpt lat="46.5372" lon="5.92237">
        <ele>899.2</ele>
        <time>2019-09-05T08:15:32Z</time>
      </trkpt>
      <trkpt lat="46.53715" lon="5.92233">
        <ele>899.2</ele>
        <time>2019-09-05T08:15:37Z</time>
      </trkpt>
      <trkpt lat="46.53711" lon="5.92229">
        <ele>899</ele>
        <time>2019-09-05T08:15:42Z</time>
      </trkpt>
      <trkpt lat="46.53706" lon="5.92226">
        <ele>898.7</ele>
        <time>2019-09-05T08:15:46Z</time>
      </trkpt>
      <trkpt lat="46.53701" lon="5.92224">
        <ele>898.3</ele>
        <time>2019-09-05T08:15:50Z</time>
      </trkpt>
      <trkpt lat="46.53696" lon="5.92221">
        <ele>897.9</ele>
        <time>2019-09-05T08:15:54Z</time>
      </trkpt>
      <trkpt lat="46.53692" lon="5.92218">
        <ele>897.7</ele>
        <time>2019-09-05T08:15:58Z</time>
      </trkpt>
      <trkpt lat="46.53687" lon="5.92215">
        <ele>897.3</ele>
        <time>2019-09-05T08:16:06Z</time>
      </trkpt>
      <trkpt lat="46.53682" lon="5.92212">
        <ele>897.1</ele>
        <time>2019-09-05T08:16:09Z</time>
      </trkpt>
      <trkpt lat="46.53678" lon="5.92208">
        <ele>897</ele>
        <time>2019-09-05T08:16:12Z</time>
      </trkpt>
      <trkpt lat="46.53673" lon="5.92205">
        <ele>897</ele>
        <time>2019-09-05T08:16:17Z</time>
      </trkpt>
      <trkpt lat="46.53669" lon="5.92203">
        <ele>896.7</ele>
        <time>2019-09-05T08:16:24Z</time>
      </trkpt>
      <trkpt lat="46.53665" lon="5.92197">
        <ele>896.6</ele>
        <time>2019-09-05T08:16:28Z</time>
      </trkpt>
      <trkpt lat="46.53661" lon="5.92193">
        <ele>896.5</ele>
        <time>2019-09-05T08:16:32Z</time>
      </trkpt>
      <trkpt lat="46.53658" lon="5.92188">
        <ele>896.5</ele>
        <time>2019-09-05T08:16:36Z</time>
      </trkpt>
      <trkpt lat="46.53654" lon="5.92184">
        <ele>896.7</ele>
        <time>2019-09-05T08:16:40Z</time>
      </trkpt>
      <trkpt lat="46.5365" lon="5.9218">
        <ele>896.7</ele>
        <time>2019-09-05T08:16:44Z</time>
      </trkpt>
      <trkpt lat="46.53645" lon="5.92178">
        <ele>896.3</ele>
        <time>2019-09-05T08:16:50Z</time>
      </trkpt>
      <trkpt lat="46.5364" lon="5.92178">
        <ele>895.9</ele>
        <time>2019-09-05T08:16:55Z</time>
      </trkpt>
      <trkpt lat="46.53635" lon="5.92175">
        <ele>895</ele>
        <time>2019-09-05T08:17:10Z</time>
      </trkpt>
      <trkpt lat="46.53631" lon="5.92171">
        <ele>892.4</ele>
        <time>2019-09-05T08:17:22Z</time>
      </trkpt>
      <trkpt lat="46.53627" lon="5.9217">
        <ele>890.5</ele>
        <time>2019-09-05T08:17:29Z</time>
      </trkpt>
      <trkpt lat="46.53622" lon="5.92171">
        <ele>888.1</ele>
        <time>2019-09-05T08:17:36Z</time>
      </trkpt>
      <trkpt lat="46.53618" lon="5.92172">
        <ele>885.9</ele>
        <time>2019-09-05T08:17:43Z</time>
      </trkpt>
      <trkpt lat="46.53612" lon="5.92173">
        <ele>884.2</ele>
        <time>2019-09-05T08:17:49Z</time>
      </trkpt>
      <trkpt lat="46.53608" lon="5.92174">
        <ele>882.9</ele>
        <time>2019-09-05T08:17:53Z</time>
      </trkpt>
      <trkpt lat="46.53603" lon="5.92176">
        <ele>881.5</ele>
        <time>2019-09-05T08:17:57Z</time>
      </trkpt>
      <trkpt lat="46.53598" lon="5.92179">
        <ele>880</ele>
        <time>2019-09-05T08:18:02Z</time>
      </trkpt>
      <trkpt lat="46.53593" lon="5.92182">
        <ele>879.4</ele>
        <time>2019-09-05T08:18:05Z</time>
      </trkpt>
      <trkpt lat="46.53589" lon="5.92185">
        <ele>879</ele>
        <time>2019-09-05T08:18:09Z</time>
      </trkpt>
      <trkpt lat="46.53584" lon="5.9219">
        <ele>878.9</ele>
        <time>2019-09-05T08:18:14Z</time>
      </trkpt>
      <trkpt lat="46.53579" lon="5.92192">
        <ele>878.8</ele>
        <time>2019-09-05T08:18:18Z</time>
      </trkpt>
      <trkpt lat="46.53575" lon="5.92195">
        <ele>878.7</ele>
        <time>2019-09-05T08:18:23Z</time>
      </trkpt>
      <trkpt lat="46.53571" lon="5.922">
        <ele>878.8</ele>
        <time>2019-09-05T08:18:29Z</time>
      </trkpt>
      <trkpt lat="46.53566" lon="5.92201">
        <ele>879.4</ele>
        <time>2019-09-05T08:18:37Z</time>
      </trkpt>
      <trkpt lat="46.5356" lon="5.92201">
        <ele>879.5</ele>
        <time>2019-09-05T08:18:41Z</time>
      </trkpt>
      <trkpt lat="46.53556" lon="5.92204">
        <ele>879.9</ele>
        <time>2019-09-05T08:18:46Z</time>
      </trkpt>
      <trkpt lat="46.53551" lon="5.92206">
        <ele>880.4</ele>
        <time>2019-09-05T08:18:52Z</time>
      </trkpt>
      <trkpt lat="46.53547" lon="5.9221">
        <ele>879.8</ele>
        <time>2019-09-05T08:19:03Z</time>
      </trkpt>
      <trkpt lat="46.53547" lon="5.92217">
        <ele>879.6</ele>
        <time>2019-09-05T08:19:06Z</time>
      </trkpt>
      <trkpt lat="46.53542" lon="5.92221">
        <ele>879.4</ele>
        <time>2019-09-05T08:19:12Z</time>
      </trkpt>
      <trkpt lat="46.53537" lon="5.92221">
        <ele>879.4</ele>
        <time>2019-09-05T08:19:15Z</time>
      </trkpt>
      <trkpt lat="46.53533" lon="5.9222">
        <ele>879.5</ele>
        <time>2019-09-05T08:19:18Z</time>
      </trkpt>
      <trkpt lat="46.53527" lon="5.92218">
        <ele>879.8</ele>
        <time>2019-09-05T08:19:22Z</time>
      </trkpt>
      <trkpt lat="46.53523" lon="5.92216">
        <ele>880.1</ele>
        <time>2019-09-05T08:19:26Z</time>
      </trkpt>
      <trkpt lat="46.53518" lon="5.92214">
        <ele>880.7</ele>
        <time>2019-09-05T08:19:31Z</time>
      </trkpt>
      <trkpt lat="46.53514" lon="5.92212">
        <ele>881.8</ele>
        <time>2019-09-05T08:19:38Z</time>
      </trkpt>
      <trkpt lat="46.53511" lon="5.92204">
        <ele>883.2</ele>
        <time>2019-09-05T08:19:53Z</time>
      </trkpt>
      <trkpt lat="46.5351" lon="5.92196">
        <ele>883.5</ele>
        <time>2019-09-05T08:19:56Z</time>
      </trkpt>
      <trkpt lat="46.53509" lon="5.9219">
        <ele>883.8</ele>
        <time>2019-09-05T08:19:59Z</time>
      </trkpt>
      <trkpt lat="46.53502" lon="5.92184">
        <ele>884.5</ele>
        <time>2019-09-05T08:20:17Z</time>
      </trkpt>
      <trkpt lat="46.53497" lon="5.92182">
        <ele>885.2</ele>
        <time>2019-09-05T08:20:22Z</time>
      </trkpt>
      <trkpt lat="46.53493" lon="5.92179">
        <ele>886.3</ele>
        <time>2019-09-05T08:20:28Z</time>
      </trkpt>
      <trkpt lat="46.53488" lon="5.92178">
        <ele>887.6</ele>
        <time>2019-09-05T08:20:35Z</time>
      </trkpt>
      <trkpt lat="46.53483" lon="5.92175">
        <ele>888.2</ele>
        <time>2019-09-05T08:20:39Z</time>
      </trkpt>
      <trkpt lat="46.53478" lon="5.92171">
        <ele>888.5</ele>
        <time>2019-09-05T08:20:44Z</time>
      </trkpt>
      <trkpt lat="46.53474" lon="5.92167">
        <ele>888.5</ele>
        <time>2019-09-05T08:20:49Z</time>
      </trkpt>
      <trkpt lat="46.5347" lon="5.92165">
        <ele>888.8</ele>
        <time>2019-09-05T08:20:54Z</time>
      </trkpt>
      <trkpt lat="46.53465" lon="5.92162">
        <ele>889.2</ele>
        <time>2019-09-05T08:20:58Z</time>
      </trkpt>
      <trkpt lat="46.53461" lon="5.92157">
        <ele>889.6</ele>
        <time>2019-09-05T08:21:03Z</time>
      </trkpt>
      <trkpt lat="46.53457" lon="5.92152">
        <ele>889.5</ele>
        <time>2019-09-05T08:21:07Z</time>
      </trkpt>
      <trkpt lat="46.53454" lon="5.92148">
        <ele>888.9</ele>
        <time>2019-09-05T08:21:12Z</time>
      </trkpt>
      <trkpt lat="46.5345" lon="5.92143">
        <ele>887.4</ele>
        <time>2019-09-05T08:21:18Z</time>
      </trkpt>
      <trkpt lat="46.53446" lon="5.92139">
        <ele>885.9</ele>
        <time>2019-09-05T08:21:23Z</time>
      </trkpt>
      <trkpt lat="46.53441" lon="5.92137">
        <ele>885.1</ele>
        <time>2019-09-05T08:21:27Z</time>
      </trkpt>
      <trkpt lat="46.53435" lon="5.92137">
        <ele>884.7</ele>
        <time>2019-09-05T08:21:32Z</time>
      </trkpt>
      <trkpt lat="46.5343" lon="5.92135">
        <ele>884.5</ele>
        <time>2019-09-05T08:21:37Z</time>
      </trkpt>
      <trkpt lat="46.53417" lon="5.9213">
        <ele>885.1</ele>
        <time>2019-09-05T08:21:54Z</time>
      </trkpt>
      <trkpt lat="46.53413" lon="5.92127">
        <ele>885.5</ele>
        <time>2019-09-05T08:21:58Z</time>
      </trkpt>
      <trkpt lat="46.53408" lon="5.92122">
        <ele>885.9</ele>
        <time>2019-09-05T08:22:04Z</time>
      </trkpt>
      <trkpt lat="46.53405" lon="5.92118">
        <ele>885.9</ele>
        <time>2019-09-05T08:22:08Z</time>
      </trkpt>
      <trkpt lat="46.53401" lon="5.92113">
        <ele>885.7</ele>
        <time>2019-09-05T08:22:13Z</time>
      </trkpt>
      <trkpt lat="46.53397" lon="5.92109">
        <ele>885.2</ele>
        <time>2019-09-05T08:22:19Z</time>
      </trkpt>
      <trkpt lat="46.53393" lon="5.92105">
        <ele>885.1</ele>
        <time>2019-09-05T08:22:24Z</time>
      </trkpt>
      <trkpt lat="46.53387" lon="5.92103">
        <ele>885.1</ele>
        <time>2019-09-05T08:22:29Z</time>
      </trkpt>
      <trkpt lat="46.53382" lon="5.92102">
        <ele>885.3</ele>
        <time>2019-09-05T08:22:34Z</time>
      </trkpt>
      <trkpt lat="46.53378" lon="5.921">
        <ele>885.8</ele>
        <time>2019-09-05T08:22:39Z</time>
      </trkpt>
      <trkpt lat="46.53373" lon="5.921">
        <ele>886.3</ele>
        <time>2019-09-05T08:22:44Z</time>
      </trkpt>
      <trkpt lat="46.53368" lon="5.92098">
        <ele>886.7</ele>
        <time>2019-09-05T08:22:48Z</time>
      </trkpt>
      <trkpt lat="46.53363" lon="5.92097">
        <ele>887.3</ele>
        <time>2019-09-05T08:22:52Z</time>
      </trkpt>
      <trkpt lat="46.53359" lon="5.92095">
        <ele>887.8</ele>
        <time>2019-09-05T08:22:55Z</time>
      </trkpt>
      <trkpt lat="46.53355" lon="5.92092">
        <ele>888.4</ele>
        <time>2019-09-05T08:22:59Z</time>
      </trkpt>
      <trkpt lat="46.53351" lon="5.92088">
        <ele>889</ele>
        <time>2019-09-05T08:23:03Z</time>
      </trkpt>
      <trkpt lat="46.53347" lon="5.92084">
        <ele>889.3</ele>
        <time>2019-09-05T08:23:06Z</time>
      </trkpt>
      <trkpt lat="46.53342" lon="5.92079">
        <ele>889.8</ele>
        <time>2019-09-05T08:23:11Z</time>
      </trkpt>
      <trkpt lat="46.53338" lon="5.92074">
        <ele>890.4</ele>
        <time>2019-09-05T08:23:16Z</time>
      </trkpt>
      <trkpt lat="46.53334" lon="5.92071">
        <ele>890.8</ele>
        <time>2019-09-05T08:23:22Z</time>
      </trkpt>
      <trkpt lat="46.5333" lon="5.92068">
        <ele>890.7</ele>
        <time>2019-09-05T08:23:29Z</time>
      </trkpt>
      <trkpt lat="46.53325" lon="5.92067">
        <ele>890.2</ele>
        <time>2019-09-05T08:23:34Z</time>
      </trkpt>
      <trkpt lat="46.53321" lon="5.92063">
        <ele>889.4</ele>
        <time>2019-09-05T08:23:39Z</time>
      </trkpt>
      <trkpt lat="46.53316" lon="5.92058">
        <ele>888.7</ele>
        <time>2019-09-05T08:23:43Z</time>
      </trkpt>
      <trkpt lat="46.53312" lon="5.92054">
        <ele>888</ele>
        <time>2019-09-05T08:23:47Z</time>
      </trkpt>
      <trkpt lat="46.53308" lon="5.92051">
        <ele>887.1</ele>
        <time>2019-09-05T08:23:52Z</time>
      </trkpt>
      <trkpt lat="46.53303" lon="5.92045">
        <ele>886.3</ele>
        <time>2019-09-05T08:23:58Z</time>
      </trkpt>
      <trkpt lat="46.533" lon="5.9204">
        <ele>885.8</ele>
        <time>2019-09-05T08:24:02Z</time>
      </trkpt>
      <trkpt lat="46.53297" lon="5.92034">
        <ele>885.3</ele>
        <time>2019-09-05T08:24:06Z</time>
      </trkpt>
      <trkpt lat="46.53294" lon="5.92029">
        <ele>884.6</ele>
        <time>2019-09-05T08:24:12Z</time>
      </trkpt>
      <trkpt lat="46.5329" lon="5.92024">
        <ele>883.9</ele>
        <time>2019-09-05T08:24:18Z</time>
      </trkpt>
      <trkpt lat="46.53286" lon="5.9202">
        <ele>883.2</ele>
        <time>2019-09-05T08:24:24Z</time>
      </trkpt>
      <trkpt lat="46.53282" lon="5.92017">
        <ele>882.8</ele>
        <time>2019-09-05T08:24:29Z</time>
      </trkpt>
      <trkpt lat="46.53278" lon="5.92013">
        <ele>882.7</ele>
        <time>2019-09-05T08:24:33Z</time>
      </trkpt>
      <trkpt lat="46.53274" lon="5.92007">
        <ele>882.4</ele>
        <time>2019-09-05T08:24:37Z</time>
      </trkpt>
      <trkpt lat="46.5327" lon="5.92001">
        <ele>881.7</ele>
        <time>2019-09-05T08:24:42Z</time>
      </trkpt>
      <trkpt lat="46.53267" lon="5.91996">
        <ele>881</ele>
        <time>2019-09-05T08:24:47Z</time>
      </trkpt>
      <trkpt lat="46.53263" lon="5.91993">
        <ele>880.6</ele>
        <time>2019-09-05T08:24:51Z</time>
      </trkpt>
      <trkpt lat="46.53259" lon="5.91988">
        <ele>880.3</ele>
        <time>2019-09-05T08:24:55Z</time>
      </trkpt>
      <trkpt lat="46.53254" lon="5.91984">
        <ele>879.9</ele>
        <time>2019-09-05T08:25:00Z</time>
      </trkpt>
      <trkpt lat="46.53249" lon="5.9198">
        <ele>879.7</ele>
        <time>2019-09-05T08:25:05Z</time>
      </trkpt>
      <trkpt lat="46.53245" lon="5.91974">
        <ele>879.3</ele>
        <time>2019-09-05T08:25:09Z</time>
      </trkpt>
      <trkpt lat="46.53242" lon="5.91969">
        <ele>879</ele>
        <time>2019-09-05T08:25:12Z</time>
      </trkpt>
      <trkpt lat="46.53238" lon="5.91962">
        <ele>878.6</ele>
        <time>2019-09-05T08:25:16Z</time>
      </trkpt>
      <trkpt lat="46.53235" lon="5.91957">
        <ele>878.2</ele>
        <time>2019-09-05T08:25:20Z</time>
      </trkpt>
      <trkpt lat="46.53232" lon="5.91951">
        <ele>877.9</ele>
        <time>2019-09-05T08:25:24Z</time>
      </trkpt>
      <trkpt lat="46.53229" lon="5.91945">
        <ele>877.6</ele>
        <time>2019-09-05T08:25:30Z</time>
      </trkpt>
      <trkpt lat="46.53226" lon="5.91939">
        <ele>877.4</ele>
        <time>2019-09-05T08:25:35Z</time>
      </trkpt>
      <trkpt lat="46.53222" lon="5.91933">
        <ele>877.5</ele>
        <time>2019-09-05T08:25:40Z</time>
      </trkpt>
      <trkpt lat="46.53219" lon="5.91927">
        <ele>877.9</ele>
        <time>2019-09-05T08:25:45Z</time>
      </trkpt>
      <trkpt lat="46.53216" lon="5.91921">
        <ele>878.5</ele>
        <time>2019-09-05T08:25:51Z</time>
      </trkpt>
      <trkpt lat="46.53213" lon="5.91916">
        <ele>878.9</ele>
        <time>2019-09-05T08:25:56Z</time>
      </trkpt>
      <trkpt lat="46.53209" lon="5.9191">
        <ele>879.1</ele>
        <time>2019-09-05T08:26:00Z</time>
      </trkpt>
      <trkpt lat="46.53206" lon="5.91904">
        <ele>879.1</ele>
        <time>2019-09-05T08:26:04Z</time>
      </trkpt>
      <trkpt lat="46.53203" lon="5.91898">
        <ele>879.2</ele>
        <time>2019-09-05T08:26:08Z</time>
      </trkpt>
      <trkpt lat="46.532" lon="5.91892">
        <ele>878.9</ele>
        <time>2019-09-05T08:26:13Z</time>
      </trkpt>
      <trkpt lat="46.53197" lon="5.91886">
        <ele>878.5</ele>
        <time>2019-09-05T08:26:18Z</time>
      </trkpt>
      <trkpt lat="46.53194" lon="5.9188">
        <ele>878.1</ele>
        <time>2019-09-05T08:26:22Z</time>
      </trkpt>
      <trkpt lat="46.53191" lon="5.91874">
        <ele>877.6</ele>
        <time>2019-09-05T08:26:27Z</time>
      </trkpt>
      <trkpt lat="46.53189" lon="5.91868">
        <ele>877.2</ele>
        <time>2019-09-05T08:26:32Z</time>
      </trkpt>
      <trkpt lat="46.53187" lon="5.91862">
        <ele>876.8</ele>
        <time>2019-09-05T08:26:36Z</time>
      </trkpt>
      <trkpt lat="46.53185" lon="5.91856">
        <ele>876.4</ele>
        <time>2019-09-05T08:26:40Z</time>
      </trkpt>
      <trkpt lat="46.53182" lon="5.9185">
        <ele>876.1</ele>
        <time>2019-09-05T08:26:46Z</time>
      </trkpt>
      <trkpt lat="46.5318" lon="5.91843">
        <ele>875.9</ele>
        <time>2019-09-05T08:26:49Z</time>
      </trkpt>
      <trkpt lat="46.53178" lon="5.91837">
        <ele>875.8</ele>
        <time>2019-09-05T08:26:52Z</time>
      </trkpt>
      <trkpt lat="46.53176" lon="5.9183">
        <ele>875.6</ele>
        <time>2019-09-05T08:26:56Z</time>
      </trkpt>
      <trkpt lat="46.53173" lon="5.91824">
        <ele>875.5</ele>
        <time>2019-09-05T08:26:59Z</time>
      </trkpt>
      <trkpt lat="46.53172" lon="5.91817">
        <ele>875.2</ele>
        <time>2019-09-05T08:27:03Z</time>
      </trkpt>
      <trkpt lat="46.5317" lon="5.91811">
        <ele>874.3</ele>
        <time>2019-09-05T08:27:09Z</time>
      </trkpt>
      <trkpt lat="46.53166" lon="5.91807">
        <ele>873.8</ele>
        <time>2019-09-05T08:27:14Z</time>
      </trkpt>
      <trkpt lat="46.53157" lon="5.91795">
        <ele>875.1</ele>
        <time>2019-09-05T08:27:34Z</time>
      </trkpt>
      <trkpt lat="46.53154" lon="5.91789">
        <ele>875.9</ele>
        <time>2019-09-05T08:27:41Z</time>
      </trkpt>
      <trkpt lat="46.53152" lon="5.91784">
        <ele>876.7</ele>
        <time>2019-09-05T08:27:46Z</time>
      </trkpt>
      <trkpt lat="46.53147" lon="5.91777">
        <ele>877.1</ele>
        <time>2019-09-05T08:27:49Z</time>
      </trkpt>
      <trkpt lat="46.53144" lon="5.91772">
        <ele>877.5</ele>
        <time>2019-09-05T08:27:53Z</time>
      </trkpt>
      <trkpt lat="46.53139" lon="5.9177">
        <ele>877.8</ele>
        <time>2019-09-05T08:27:59Z</time>
      </trkpt>
      <trkpt lat="46.53134" lon="5.91769">
        <ele>878</ele>
        <time>2019-09-05T08:28:04Z</time>
      </trkpt>
      <trkpt lat="46.53129" lon="5.91766">
        <ele>878.2</ele>
        <time>2019-09-05T08:28:10Z</time>
      </trkpt>
      <trkpt lat="46.53126" lon="5.91761">
        <ele>878.4</ele>
        <time>2019-09-05T08:28:14Z</time>
      </trkpt>
      <trkpt lat="46.53123" lon="5.91755">
        <ele>878.9</ele>
        <time>2019-09-05T08:28:18Z</time>
      </trkpt>
      <trkpt lat="46.5312" lon="5.9175">
        <ele>879.8</ele>
        <time>2019-09-05T08:28:24Z</time>
      </trkpt>
      <trkpt lat="46.53115" lon="5.91747">
        <ele>880.8</ele>
        <time>2019-09-05T08:28:31Z</time>
      </trkpt>
      <trkpt lat="46.53113" lon="5.91741">
        <ele>881</ele>
        <time>2019-09-05T08:28:42Z</time>
      </trkpt>
      <trkpt lat="46.53111" lon="5.91735">
        <ele>880</ele>
        <time>2019-09-05T08:28:48Z</time>
      </trkpt>
      <trkpt lat="46.53107" lon="5.91729">
        <ele>879</ele>
        <time>2019-09-05T08:28:53Z</time>
      </trkpt>
      <trkpt lat="46.53103" lon="5.91725">
        <ele>878.1</ele>
        <time>2019-09-05T08:28:58Z</time>
      </trkpt>
      <trkpt lat="46.53099" lon="5.91723">
        <ele>877.4</ele>
        <time>2019-09-05T08:29:04Z</time>
      </trkpt>
      <trkpt lat="46.53095" lon="5.91719">
        <ele>877.1</ele>
        <time>2019-09-05T08:29:08Z</time>
      </trkpt>
      <trkpt lat="46.5309" lon="5.91716">
        <ele>877.2</ele>
        <time>2019-09-05T08:29:14Z</time>
      </trkpt>
      <trkpt lat="46.53086" lon="5.91713">
        <ele>878.3</ele>
        <time>2019-09-05T08:29:25Z</time>
      </trkpt>
      <trkpt lat="46.53081" lon="5.91713">
        <ele>879.2</ele>
        <time>2019-09-05T08:29:38Z</time>
      </trkpt>
      <trkpt lat="46.53076" lon="5.91714">
        <ele>879.6</ele>
        <time>2019-09-05T08:29:43Z</time>
      </trkpt>
      <trkpt lat="46.5307" lon="5.91713">
        <ele>879.9</ele>
        <time>2019-09-05T08:29:48Z</time>
      </trkpt>
      <trkpt lat="46.53066" lon="5.9171">
        <ele>880.2</ele>
        <time>2019-09-05T08:29:53Z</time>
      </trkpt>
      <trkpt lat="46.53062" lon="5.91705">
        <ele>880.1</ele>
        <time>2019-09-05T08:29:58Z</time>
      </trkpt>
      <trkpt lat="46.53057" lon="5.91701">
        <ele>879.8</ele>
        <time>2019-09-05T08:30:02Z</time>
      </trkpt>
      <trkpt lat="46.53052" lon="5.91701">
        <ele>879.5</ele>
        <time>2019-09-05T08:30:08Z</time>
      </trkpt>
      <trkpt lat="46.53048" lon="5.91697">
        <ele>879.5</ele>
        <time>2019-09-05T08:30:11Z</time>
      </trkpt>
      <trkpt lat="46.53045" lon="5.91693">
        <ele>879.5</ele>
        <time>2019-09-05T08:30:15Z</time>
      </trkpt>
      <trkpt lat="46.53041" lon="5.91688">
        <ele>879.5</ele>
        <time>2019-09-05T08:30:21Z</time>
      </trkpt>
      <trkpt lat="46.53036" lon="5.91679">
        <ele>879.5</ele>
        <time>2019-09-05T08:30:25Z</time>
      </trkpt>
      <trkpt lat="46.53033" lon="5.91674">
        <ele>879.5</ele>
        <time>2019-09-05T08:30:28Z</time>
      </trkpt>
      <trkpt lat="46.53029" lon="5.9167">
        <ele>879.7</ele>
        <time>2019-09-05T08:30:33Z</time>
      </trkpt>
      <trkpt lat="46.53024" lon="5.91666">
        <ele>880.2</ele>
        <time>2019-09-05T08:30:39Z</time>
      </trkpt>
      <trkpt lat="46.53021" lon="5.91662">
        <ele>880.4</ele>
        <time>2019-09-05T08:30:44Z</time>
      </trkpt>
      <trkpt lat="46.53017" lon="5.91657">
        <ele>880.5</ele>
        <time>2019-09-05T08:30:48Z</time>
      </trkpt>
      <trkpt lat="46.53014" lon="5.91652">
        <ele>880.7</ele>
        <time>2019-09-05T08:30:53Z</time>
      </trkpt>
      <trkpt lat="46.5301" lon="5.91647">
        <ele>880.9</ele>
        <time>2019-09-05T08:30:57Z</time>
      </trkpt>
      <trkpt lat="46.53006" lon="5.91642">
        <ele>880.9</ele>
        <time>2019-09-05T08:31:01Z</time>
      </trkpt>
      <trkpt lat="46.53002" lon="5.91637">
        <ele>881</ele>
        <time>2019-09-05T08:31:06Z</time>
      </trkpt>
      <trkpt lat="46.52999" lon="5.91632">
        <ele>880.9</ele>
        <time>2019-09-05T08:31:13Z</time>
      </trkpt>
      <trkpt lat="46.52995" lon="5.91626">
        <ele>880.8</ele>
        <time>2019-09-05T08:31:17Z</time>
      </trkpt>
      <trkpt lat="46.52992" lon="5.91621">
        <ele>880.8</ele>
        <time>2019-09-05T08:31:20Z</time>
      </trkpt>
      <trkpt lat="46.52989" lon="5.91617">
        <ele>880.9</ele>
        <time>2019-09-05T08:31:24Z</time>
      </trkpt>
      <trkpt lat="46.52985" lon="5.91611">
        <ele>880.9</ele>
        <time>2019-09-05T08:31:28Z</time>
      </trkpt>
      <trkpt lat="46.52982" lon="5.91606">
        <ele>881.2</ele>
        <time>2019-09-05T08:31:33Z</time>
      </trkpt>
      <trkpt lat="46.52978" lon="5.91602">
        <ele>881.4</ele>
        <time>2019-09-05T08:31:38Z</time>
      </trkpt>
      <trkpt lat="46.52974" lon="5.91597">
        <ele>881.3</ele>
        <time>2019-09-05T08:31:43Z</time>
      </trkpt>
      <trkpt lat="46.5297" lon="5.91592">
        <ele>881.3</ele>
        <time>2019-09-05T08:31:49Z</time>
      </trkpt>
      <trkpt lat="46.52966" lon="5.91588">
        <ele>881.3</ele>
        <time>2019-09-05T08:31:55Z</time>
      </trkpt>
      <trkpt lat="46.52962" lon="5.91583">
        <ele>881.4</ele>
        <time>2019-09-05T08:32:01Z</time>
      </trkpt>
      <trkpt lat="46.52957" lon="5.91579">
        <ele>881.5</ele>
        <time>2019-09-05T08:32:05Z</time>
      </trkpt>
      <trkpt lat="46.52953" lon="5.91574">
        <ele>881.6</ele>
        <time>2019-09-05T08:32:09Z</time>
      </trkpt>
      <trkpt lat="46.52949" lon="5.91569">
        <ele>881.7</ele>
        <time>2019-09-05T08:32:13Z</time>
      </trkpt>
      <trkpt lat="46.52946" lon="5.91565">
        <ele>881.6</ele>
        <time>2019-09-05T08:32:17Z</time>
      </trkpt>
      <trkpt lat="46.52941" lon="5.9156">
        <ele>881.5</ele>
        <time>2019-09-05T08:32:22Z</time>
      </trkpt>
      <trkpt lat="46.52938" lon="5.91555">
        <ele>881.4</ele>
        <time>2019-09-05T08:32:26Z</time>
      </trkpt>
      <trkpt lat="46.52934" lon="5.91551">
        <ele>881.4</ele>
        <time>2019-09-05T08:32:31Z</time>
      </trkpt>
      <trkpt lat="46.5293" lon="5.91545">
        <ele>881.5</ele>
        <time>2019-09-05T08:32:36Z</time>
      </trkpt>
      <trkpt lat="46.52927" lon="5.91539">
        <ele>881.5</ele>
        <time>2019-09-05T08:32:42Z</time>
      </trkpt>
      <trkpt lat="46.52923" lon="5.91533">
        <ele>881.7</ele>
        <time>2019-09-05T08:32:48Z</time>
      </trkpt>
      <trkpt lat="46.5292" lon="5.91528">
        <ele>881.8</ele>
        <time>2019-09-05T08:32:51Z</time>
      </trkpt>
      <trkpt lat="46.52916" lon="5.91523">
        <ele>881.9</ele>
        <time>2019-09-05T08:32:55Z</time>
      </trkpt>
      <trkpt lat="46.52913" lon="5.91518">
        <ele>882</ele>
        <time>2019-09-05T08:32:59Z</time>
      </trkpt>
      <trkpt lat="46.5291" lon="5.91513">
        <ele>882.2</ele>
        <time>2019-09-05T08:33:04Z</time>
      </trkpt>
      <trkpt lat="46.52906" lon="5.91508">
        <ele>882.6</ele>
        <time>2019-09-05T08:33:09Z</time>
      </trkpt>
      <trkpt lat="46.52902" lon="5.91504">
        <ele>882.8</ele>
        <time>2019-09-05T08:33:14Z</time>
      </trkpt>
      <trkpt lat="46.52899" lon="5.91499">
        <ele>883</ele>
        <time>2019-09-05T08:33:19Z</time>
      </trkpt>
      <trkpt lat="46.52896" lon="5.91495">
        <ele>883</ele>
        <time>2019-09-05T08:33:23Z</time>
      </trkpt>
      <trkpt lat="46.52891" lon="5.9149">
        <ele>882.9</ele>
        <time>2019-09-05T08:33:28Z</time>
      </trkpt>
      <trkpt lat="46.52887" lon="5.91487">
        <ele>882.8</ele>
        <time>2019-09-05T08:33:32Z</time>
      </trkpt>
      <trkpt lat="46.52884" lon="5.91483">
        <ele>882.7</ele>
        <time>2019-09-05T08:33:36Z</time>
      </trkpt>
      <trkpt lat="46.52881" lon="5.91476">
        <ele>882.3</ele>
        <time>2019-09-05T08:33:41Z</time>
      </trkpt>
      <trkpt lat="46.52877" lon="5.91471">
        <ele>882.1</ele>
        <time>2019-09-05T08:33:49Z</time>
      </trkpt>
      <trkpt lat="46.52873" lon="5.91466">
        <ele>882.1</ele>
        <time>2019-09-05T08:33:54Z</time>
      </trkpt>
      <trkpt lat="46.52869" lon="5.91463">
        <ele>882</ele>
        <time>2019-09-05T08:33:57Z</time>
      </trkpt>
      <trkpt lat="46.52866" lon="5.91459">
        <ele>882</ele>
        <time>2019-09-05T08:34:01Z</time>
      </trkpt>
      <trkpt lat="46.52864" lon="5.91453">
        <ele>881.9</ele>
        <time>2019-09-05T08:34:07Z</time>
      </trkpt>
      <trkpt lat="46.52862" lon="5.91446">
        <ele>881.8</ele>
        <time>2019-09-05T08:34:11Z</time>
      </trkpt>
      <trkpt lat="46.52859" lon="5.91441">
        <ele>881.9</ele>
        <time>2019-09-05T08:34:15Z</time>
      </trkpt>
      <trkpt lat="46.52855" lon="5.91435">
        <ele>881.9</ele>
        <time>2019-09-05T08:34:20Z</time>
      </trkpt>
      <trkpt lat="46.52852" lon="5.91429">
        <ele>881.7</ele>
        <time>2019-09-05T08:34:25Z</time>
      </trkpt>
      <trkpt lat="46.52848" lon="5.91425">
        <ele>881.3</ele>
        <time>2019-09-05T08:34:30Z</time>
      </trkpt>
      <trkpt lat="46.52844" lon="5.91421">
        <ele>880.9</ele>
        <time>2019-09-05T08:34:36Z</time>
      </trkpt>
      <trkpt lat="46.5284" lon="5.91414">
        <ele>880.6</ele>
        <time>2019-09-05T08:34:40Z</time>
      </trkpt>
      <trkpt lat="46.52837" lon="5.9141">
        <ele>880.4</ele>
        <time>2019-09-05T08:34:45Z</time>
      </trkpt>
      <trkpt lat="46.52834" lon="5.91404">
        <ele>880</ele>
        <time>2019-09-05T08:34:51Z</time>
      </trkpt>
      <trkpt lat="46.5283" lon="5.91399">
        <ele>880</ele>
        <time>2019-09-05T08:34:55Z</time>
      </trkpt>
      <trkpt lat="46.52827" lon="5.91394">
        <ele>880</ele>
        <time>2019-09-05T08:34:58Z</time>
      </trkpt>
      <trkpt lat="46.52822" lon="5.9139">
        <ele>879.9</ele>
        <time>2019-09-05T08:35:02Z</time>
      </trkpt>
      <trkpt lat="46.52818" lon="5.91384">
        <ele>879.8</ele>
        <time>2019-09-05T08:35:06Z</time>
      </trkpt>
      <trkpt lat="46.52814" lon="5.91379">
        <ele>879.7</ele>
        <time>2019-09-05T08:35:10Z</time>
      </trkpt>
      <trkpt lat="46.5281" lon="5.91373">
        <ele>879.6</ele>
        <time>2019-09-05T08:35:15Z</time>
      </trkpt>
      <trkpt lat="46.52807" lon="5.91368">
        <ele>879.6</ele>
        <time>2019-09-05T08:35:21Z</time>
      </trkpt>
      <trkpt lat="46.52805" lon="5.91361">
        <ele>879.6</ele>
        <time>2019-09-05T08:35:26Z</time>
      </trkpt>
      <trkpt lat="46.52802" lon="5.91356">
        <ele>879.6</ele>
        <time>2019-09-05T08:35:31Z</time>
      </trkpt>
      <trkpt lat="46.52799" lon="5.91351">
        <ele>879.6</ele>
        <time>2019-09-05T08:35:36Z</time>
      </trkpt>
      <trkpt lat="46.52795" lon="5.91346">
        <ele>879.4</ele>
        <time>2019-09-05T08:35:40Z</time>
      </trkpt>
      <trkpt lat="46.52791" lon="5.91342">
        <ele>879.3</ele>
        <time>2019-09-05T08:35:45Z</time>
      </trkpt>
      <trkpt lat="46.52788" lon="5.91338">
        <ele>879.4</ele>
        <time>2019-09-05T08:35:49Z</time>
      </trkpt>
      <trkpt lat="46.52783" lon="5.91331">
        <ele>879.5</ele>
        <time>2019-09-05T08:35:53Z</time>
      </trkpt>
      <trkpt lat="46.52781" lon="5.91326">
        <ele>879.7</ele>
        <time>2019-09-05T08:35:56Z</time>
      </trkpt>
      <trkpt lat="46.52778" lon="5.91319">
        <ele>880.3</ele>
        <time>2019-09-05T08:36:03Z</time>
      </trkpt>
      <trkpt lat="46.52775" lon="5.91313">
        <ele>880.7</ele>
        <time>2019-09-05T08:36:09Z</time>
      </trkpt>
      <trkpt lat="46.52771" lon="5.91308">
        <ele>880.8</ele>
        <time>2019-09-05T08:36:13Z</time>
      </trkpt>
      <trkpt lat="46.52768" lon="5.91303">
        <ele>880.8</ele>
        <time>2019-09-05T08:36:18Z</time>
      </trkpt>
      <trkpt lat="46.52765" lon="5.91298">
        <ele>880.8</ele>
        <time>2019-09-05T08:36:24Z</time>
      </trkpt>
      <trkpt lat="46.52761" lon="5.91293">
        <ele>880.7</ele>
        <time>2019-09-05T08:36:29Z</time>
      </trkpt>
      <trkpt lat="46.52758" lon="5.91287">
        <ele>880.7</ele>
        <time>2019-09-05T08:36:34Z</time>
      </trkpt>
      <trkpt lat="46.52754" lon="5.91281">
        <ele>880.7</ele>
        <time>2019-09-05T08:36:37Z</time>
      </trkpt>
      <trkpt lat="46.52751" lon="5.91277">
        <ele>880.8</ele>
        <time>2019-09-05T08:36:40Z</time>
      </trkpt>
      <trkpt lat="46.52748" lon="5.91272">
        <ele>880.8</ele>
        <time>2019-09-05T08:36:44Z</time>
      </trkpt>
      <trkpt lat="46.52745" lon="5.91266">
        <ele>880.9</ele>
        <time>2019-09-05T08:36:48Z</time>
      </trkpt>
      <trkpt lat="46.52742" lon="5.9126">
        <ele>881</ele>
        <time>2019-09-05T08:36:52Z</time>
      </trkpt>
      <trkpt lat="46.52739" lon="5.91255">
        <ele>880.9</ele>
        <time>2019-09-05T08:36:57Z</time>
      </trkpt>
      <trkpt lat="46.52735" lon="5.91249">
        <ele>880.7</ele>
        <time>2019-09-05T08:37:01Z</time>
      </trkpt>
      <trkpt lat="46.52733" lon="5.91243">
        <ele>880.5</ele>
        <time>2019-09-05T08:37:05Z</time>
      </trkpt>
      <trkpt lat="46.5273" lon="5.91237">
        <ele>880.3</ele>
        <time>2019-09-05T08:37:09Z</time>
      </trkpt>
      <trkpt lat="46.52728" lon="5.91231">
        <ele>880.2</ele>
        <time>2019-09-05T08:37:13Z</time>
      </trkpt>
      <trkpt lat="46.52726" lon="5.91225">
        <ele>880.1</ele>
        <time>2019-09-05T08:37:17Z</time>
      </trkpt>
      <trkpt lat="46.52724" lon="5.91219">
        <ele>880.1</ele>
        <time>2019-09-05T08:37:21Z</time>
      </trkpt>
      <trkpt lat="46.52721" lon="5.91212">
        <ele>880</ele>
        <time>2019-09-05T08:37:25Z</time>
      </trkpt>
      <trkpt lat="46.52718" lon="5.91207">
        <ele>879.9</ele>
        <time>2019-09-05T08:37:30Z</time>
      </trkpt>
      <trkpt lat="46.52715" lon="5.91201">
        <ele>879.8</ele>
        <time>2019-09-05T08:37:36Z</time>
      </trkpt>
      <trkpt lat="46.52712" lon="5.91196">
        <ele>879.7</ele>
        <time>2019-09-05T08:37:41Z</time>
      </trkpt>
      <trkpt lat="46.52709" lon="5.91191">
        <ele>879.6</ele>
        <time>2019-09-05T08:37:44Z</time>
      </trkpt>
      <trkpt lat="46.52706" lon="5.91185">
        <ele>879.4</ele>
        <time>2019-09-05T08:37:48Z</time>
      </trkpt>
      <trkpt lat="46.52702" lon="5.9118">
        <ele>879.4</ele>
        <time>2019-09-05T08:37:51Z</time>
      </trkpt>
      <trkpt lat="46.52699" lon="5.91175">
        <ele>879.4</ele>
        <time>2019-09-05T08:37:54Z</time>
      </trkpt>
      <trkpt lat="46.52696" lon="5.91169">
        <ele>879.3</ele>
        <time>2019-09-05T08:37:57Z</time>
      </trkpt>
      <trkpt lat="46.52693" lon="5.91164">
        <ele>879.3</ele>
        <time>2019-09-05T08:38:00Z</time>
      </trkpt>
      <trkpt lat="46.52689" lon="5.91157">
        <ele>879.3</ele>
        <time>2019-09-05T08:38:04Z</time>
      </trkpt>
      <trkpt lat="46.52686" lon="5.91151">
        <ele>879.3</ele>
        <time>2019-09-05T08:38:09Z</time>
      </trkpt>
      <trkpt lat="46.52684" lon="5.91145">
        <ele>879.4</ele>
        <time>2019-09-05T08:38:13Z</time>
      </trkpt>
      <trkpt lat="46.5268" lon="5.91139">
        <ele>879.5</ele>
        <time>2019-09-05T08:38:17Z</time>
      </trkpt>
      <trkpt lat="46.52676" lon="5.91135">
        <ele>879.6</ele>
        <time>2019-09-05T08:38:21Z</time>
      </trkpt>
      <trkpt lat="46.52672" lon="5.9113">
        <ele>879.8</ele>
        <time>2019-09-05T08:38:26Z</time>
      </trkpt>
      <trkpt lat="46.5267" lon="5.91123">
        <ele>879.9</ele>
        <time>2019-09-05T08:38:33Z</time>
      </trkpt>
      <trkpt lat="46.52667" lon="5.91118">
        <ele>879.8</ele>
        <time>2019-09-05T08:38:37Z</time>
      </trkpt>
      <trkpt lat="46.52664" lon="5.91113">
        <ele>879.6</ele>
        <time>2019-09-05T08:38:41Z</time>
      </trkpt>
      <trkpt lat="46.5266" lon="5.91107">
        <ele>879.4</ele>
        <time>2019-09-05T08:38:45Z</time>
      </trkpt>
      <trkpt lat="46.52657" lon="5.91103">
        <ele>879.2</ele>
        <time>2019-09-05T08:38:49Z</time>
      </trkpt>
      <trkpt lat="46.52654" lon="5.91097">
        <ele>879.2</ele>
        <time>2019-09-05T08:38:53Z</time>
      </trkpt>
      <trkpt lat="46.5265" lon="5.91091">
        <ele>879.5</ele>
        <time>2019-09-05T08:38:58Z</time>
      </trkpt>
      <trkpt lat="46.52647" lon="5.91086">
        <ele>879.6</ele>
        <time>2019-09-05T08:39:01Z</time>
      </trkpt>
      <trkpt lat="46.52644" lon="5.9108">
        <ele>880</ele>
        <time>2019-09-05T08:39:06Z</time>
      </trkpt>
      <trkpt lat="46.52641" lon="5.91074">
        <ele>880.2</ele>
        <time>2019-09-05T08:39:13Z</time>
      </trkpt>
      <trkpt lat="46.52638" lon="5.91068">
        <ele>880.2</ele>
        <time>2019-09-05T08:39:18Z</time>
      </trkpt>
      <trkpt lat="46.52635" lon="5.91062">
        <ele>879.8</ele>
        <time>2019-09-05T08:39:24Z</time>
      </trkpt>
      <trkpt lat="46.52632" lon="5.91057">
        <ele>879.5</ele>
        <time>2019-09-05T08:39:29Z</time>
      </trkpt>
      <trkpt lat="46.52628" lon="5.9105">
        <ele>879.2</ele>
        <time>2019-09-05T08:39:34Z</time>
      </trkpt>
      <trkpt lat="46.52626" lon="5.91045">
        <ele>878.9</ele>
        <time>2019-09-05T08:39:38Z</time>
      </trkpt>
      <trkpt lat="46.52623" lon="5.9104">
        <ele>878.8</ele>
        <time>2019-09-05T08:39:43Z</time>
      </trkpt>
      <trkpt lat="46.5262" lon="5.91035">
        <ele>878.7</ele>
        <time>2019-09-05T08:39:46Z</time>
      </trkpt>
      <trkpt lat="46.52616" lon="5.9103">
        <ele>878.5</ele>
        <time>2019-09-05T08:39:51Z</time>
      </trkpt>
      <trkpt lat="46.52613" lon="5.91025">
        <ele>878.5</ele>
        <time>2019-09-05T08:39:54Z</time>
      </trkpt>
      <trkpt lat="46.5261" lon="5.9102">
        <ele>878.4</ele>
        <time>2019-09-05T08:39:57Z</time>
      </trkpt>
      <trkpt lat="46.52607" lon="5.91014">
        <ele>878.3</ele>
        <time>2019-09-05T08:40:01Z</time>
      </trkpt>
      <trkpt lat="46.52604" lon="5.9101">
        <ele>878.4</ele>
        <time>2019-09-05T08:40:06Z</time>
      </trkpt>
      <trkpt lat="46.526" lon="5.91004">
        <ele>878.4</ele>
        <time>2019-09-05T08:40:11Z</time>
      </trkpt>
      <trkpt lat="46.52596" lon="5.90998">
        <ele>878.3</ele>
        <time>2019-09-05T08:40:15Z</time>
      </trkpt>
      <trkpt lat="46.52593" lon="5.90993">
        <ele>878.2</ele>
        <time>2019-09-05T08:40:20Z</time>
      </trkpt>
      <trkpt lat="46.52589" lon="5.90988">
        <ele>878.2</ele>
        <time>2019-09-05T08:40:25Z</time>
      </trkpt>
      <trkpt lat="46.52586" lon="5.90981">
        <ele>878</ele>
        <time>2019-09-05T08:40:30Z</time>
      </trkpt>
      <trkpt lat="46.52583" lon="5.90975">
        <ele>877.4</ele>
        <time>2019-09-05T08:40:35Z</time>
      </trkpt>
      <trkpt lat="46.5258" lon="5.9097">
        <ele>877</ele>
        <time>2019-09-05T08:40:40Z</time>
      </trkpt>
      <trkpt lat="46.52575" lon="5.90964">
        <ele>876.8</ele>
        <time>2019-09-05T08:40:44Z</time>
      </trkpt>
      <trkpt lat="46.52572" lon="5.9096">
        <ele>876.6</ele>
        <time>2019-09-05T08:40:48Z</time>
      </trkpt>
      <trkpt lat="46.52569" lon="5.90954">
        <ele>876.4</ele>
        <time>2019-09-05T08:40:52Z</time>
      </trkpt>
      <trkpt lat="46.52566" lon="5.90948">
        <ele>876.2</ele>
        <time>2019-09-05T08:40:55Z</time>
      </trkpt>
      <trkpt lat="46.52562" lon="5.90942">
        <ele>876</ele>
        <time>2019-09-05T08:40:59Z</time>
      </trkpt>
      <trkpt lat="46.52559" lon="5.90937">
        <ele>876</ele>
        <time>2019-09-05T08:41:03Z</time>
      </trkpt>
      <trkpt lat="46.52556" lon="5.90933">
        <ele>876</ele>
        <time>2019-09-05T08:41:08Z</time>
      </trkpt>
      <trkpt lat="46.52551" lon="5.90928">
        <ele>876</ele>
        <time>2019-09-05T08:41:14Z</time>
      </trkpt>
      <trkpt lat="46.52547" lon="5.90924">
        <ele>876.1</ele>
        <time>2019-09-05T08:41:18Z</time>
      </trkpt>
      <trkpt lat="46.52544" lon="5.90919">
        <ele>876.4</ele>
        <time>2019-09-05T08:41:22Z</time>
      </trkpt>
      <trkpt lat="46.52541" lon="5.90914">
        <ele>876.7</ele>
        <time>2019-09-05T08:41:26Z</time>
      </trkpt>
      <trkpt lat="46.52537" lon="5.90909">
        <ele>877</ele>
        <time>2019-09-05T08:41:31Z</time>
      </trkpt>
      <trkpt lat="46.52534" lon="5.90904">
        <ele>877</ele>
        <time>2019-09-05T08:41:35Z</time>
      </trkpt>
      <trkpt lat="46.5253" lon="5.90898">
        <ele>877.2</ele>
        <time>2019-09-05T08:41:39Z</time>
      </trkpt>
      <trkpt lat="46.52527" lon="5.90893">
        <ele>877.2</ele>
        <time>2019-09-05T08:41:43Z</time>
      </trkpt>
      <trkpt lat="46.52524" lon="5.90887">
        <ele>877.1</ele>
        <time>2019-09-05T08:41:47Z</time>
      </trkpt>
      <trkpt lat="46.52521" lon="5.90881">
        <ele>876.8</ele>
        <time>2019-09-05T08:41:52Z</time>
      </trkpt>
      <trkpt lat="46.52517" lon="5.90876">
        <ele>876.4</ele>
        <time>2019-09-05T08:41:57Z</time>
      </trkpt>
      <trkpt lat="46.52514" lon="5.90872">
        <ele>876.1</ele>
        <time>2019-09-05T08:42:01Z</time>
      </trkpt>
      <trkpt lat="46.52511" lon="5.90866">
        <ele>875.9</ele>
        <time>2019-09-05T08:42:06Z</time>
      </trkpt>
      <trkpt lat="46.52507" lon="5.9086">
        <ele>875.7</ele>
        <time>2019-09-05T08:42:10Z</time>
      </trkpt>
      <trkpt lat="46.52504" lon="5.90855">
        <ele>875.8</ele>
        <time>2019-09-05T08:42:14Z</time>
      </trkpt>
      <trkpt lat="46.525" lon="5.90849">
        <ele>875.9</ele>
        <time>2019-09-05T08:42:18Z</time>
      </trkpt>
      <trkpt lat="46.52497" lon="5.90843">
        <ele>875.9</ele>
        <time>2019-09-05T08:42:22Z</time>
      </trkpt>
      <trkpt lat="46.52493" lon="5.90837">
        <ele>875.8</ele>
        <time>2019-09-05T08:42:27Z</time>
      </trkpt>
      <trkpt lat="46.5249" lon="5.90832">
        <ele>875.8</ele>
        <time>2019-09-05T08:42:32Z</time>
      </trkpt>
      <trkpt lat="46.52487" lon="5.90826">
        <ele>875.6</ele>
        <time>2019-09-05T08:42:38Z</time>
      </trkpt>
      <trkpt lat="46.52484" lon="5.90819">
        <ele>875.2</ele>
        <time>2019-09-05T08:42:43Z</time>
      </trkpt>
      <trkpt lat="46.5248" lon="5.90812">
        <ele>875</ele>
        <time>2019-09-05T08:42:47Z</time>
      </trkpt>
      <trkpt lat="46.52478" lon="5.90806">
        <ele>874.9</ele>
        <time>2019-09-05T08:42:50Z</time>
      </trkpt>
      <trkpt lat="46.52475" lon="5.90801">
        <ele>874.9</ele>
        <time>2019-09-05T08:42:54Z</time>
      </trkpt>
      <trkpt lat="46.52472" lon="5.90795">
        <ele>875.1</ele>
        <time>2019-09-05T08:42:58Z</time>
      </trkpt>
      <trkpt lat="46.52469" lon="5.90788">
        <ele>875.6</ele>
        <time>2019-09-05T08:43:03Z</time>
      </trkpt>
      <trkpt lat="46.52467" lon="5.90781">
        <ele>876.3</ele>
        <time>2019-09-05T08:43:10Z</time>
      </trkpt>
      <trkpt lat="46.52466" lon="5.90774">
        <ele>876.8</ele>
        <time>2019-09-05T08:43:15Z</time>
      </trkpt>
      <trkpt lat="46.52463" lon="5.90768">
        <ele>877</ele>
        <time>2019-09-05T08:43:18Z</time>
      </trkpt>
      <trkpt lat="46.52461" lon="5.90762">
        <ele>877</ele>
        <time>2019-09-05T08:43:21Z</time>
      </trkpt>
      <trkpt lat="46.52459" lon="5.90755">
        <ele>877</ele>
        <time>2019-09-05T08:43:26Z</time>
      </trkpt>
      <trkpt lat="46.52457" lon="5.90748">
        <ele>877.1</ele>
        <time>2019-09-05T08:43:32Z</time>
      </trkpt>
      <trkpt lat="46.52455" lon="5.90741">
        <ele>877.4</ele>
        <time>2019-09-05T08:43:37Z</time>
      </trkpt>
      <trkpt lat="46.52453" lon="5.90735">
        <ele>878</ele>
        <time>2019-09-05T08:43:42Z</time>
      </trkpt>
      <trkpt lat="46.52451" lon="5.90729">
        <ele>878.5</ele>
        <time>2019-09-05T08:43:46Z</time>
      </trkpt>
      <trkpt lat="46.52448" lon="5.90724">
        <ele>879.3</ele>
        <time>2019-09-05T08:43:53Z</time>
      </trkpt>
      <trkpt lat="46.52443" lon="5.9072">
        <ele>880.1</ele>
        <time>2019-09-05T08:43:58Z</time>
      </trkpt>
      <trkpt lat="46.52439" lon="5.90716">
        <ele>881.1</ele>
        <time>2019-09-05T08:44:04Z</time>
      </trkpt>
      <trkpt lat="46.52436" lon="5.90712">
        <ele>881.6</ele>
        <time>2019-09-05T08:44:07Z</time>
      </trkpt>
      <trkpt lat="46.52431" lon="5.90708">
        <ele>882.3</ele>
        <time>2019-09-05T08:44:11Z</time>
      </trkpt>
      <trkpt lat="46.52428" lon="5.90702">
        <ele>883.2</ele>
        <time>2019-09-05T08:44:16Z</time>
      </trkpt>
      <trkpt lat="46.52425" lon="5.90695">
        <ele>883.8</ele>
        <time>2019-09-05T08:44:20Z</time>
      </trkpt>
      <trkpt lat="46.52422" lon="5.90689">
        <ele>884.3</ele>
        <time>2019-09-05T08:44:23Z</time>
      </trkpt>
      <trkpt lat="46.52418" lon="5.90683">
        <ele>884.7</ele>
        <time>2019-09-05T08:44:26Z</time>
      </trkpt>
      <trkpt lat="46.52416" lon="5.90676">
        <ele>885</ele>
        <time>2019-09-05T08:44:30Z</time>
      </trkpt>
      <trkpt lat="46.52414" lon="5.90668">
        <ele>885.1</ele>
        <time>2019-09-05T08:44:34Z</time>
      </trkpt>
      <trkpt lat="46.52412" lon="5.90661">
        <ele>885</ele>
        <time>2019-09-05T08:44:38Z</time>
      </trkpt>
      <trkpt lat="46.5241" lon="5.90655">
        <ele>884.6</ele>
        <time>2019-09-05T08:44:43Z</time>
      </trkpt>
      <trkpt lat="46.52407" lon="5.90649">
        <ele>883.8</ele>
        <time>2019-09-05T08:44:49Z</time>
      </trkpt>
      <trkpt lat="46.52403" lon="5.90643">
        <ele>882.9</ele>
        <time>2019-09-05T08:44:53Z</time>
      </trkpt>
      <trkpt lat="46.524" lon="5.90637">
        <ele>882.2</ele>
        <time>2019-09-05T08:44:58Z</time>
      </trkpt>
      <trkpt lat="46.52398" lon="5.9063">
        <ele>881.7</ele>
        <time>2019-09-05T08:45:03Z</time>
      </trkpt>
      <trkpt lat="46.52395" lon="5.90623">
        <ele>881.6</ele>
        <time>2019-09-05T08:45:08Z</time>
      </trkpt>
      <trkpt lat="46.52393" lon="5.90617">
        <ele>881.7</ele>
        <time>2019-09-05T08:45:13Z</time>
      </trkpt>
      <trkpt lat="46.52391" lon="5.90611">
        <ele>881.8</ele>
        <time>2019-09-05T08:45:19Z</time>
      </trkpt>
      <trkpt lat="46.52389" lon="5.90604">
        <ele>882</ele>
        <time>2019-09-05T08:45:24Z</time>
      </trkpt>
      <trkpt lat="46.52386" lon="5.90599">
        <ele>882.2</ele>
        <time>2019-09-05T08:45:28Z</time>
      </trkpt>
      <trkpt lat="46.52382" lon="5.90593">
        <ele>882.2</ele>
        <time>2019-09-05T08:45:32Z</time>
      </trkpt>
      <trkpt lat="46.52379" lon="5.90588">
        <ele>882.3</ele>
        <time>2019-09-05T08:45:36Z</time>
      </trkpt>
      <trkpt lat="46.52376" lon="5.90582">
        <ele>882.3</ele>
        <time>2019-09-05T08:45:40Z</time>
      </trkpt>
      <trkpt lat="46.52374" lon="5.90575">
        <ele>882.4</ele>
        <time>2019-09-05T08:45:45Z</time>
      </trkpt>
      <trkpt lat="46.52371" lon="5.90568">
        <ele>882.7</ele>
        <time>2019-09-05T08:45:50Z</time>
      </trkpt>
      <trkpt lat="46.52369" lon="5.90562">
        <ele>882.8</ele>
        <time>2019-09-05T08:45:53Z</time>
      </trkpt>
      <trkpt lat="46.52366" lon="5.90555">
        <ele>883</ele>
        <time>2019-09-05T08:45:57Z</time>
      </trkpt>
      <trkpt lat="46.52363" lon="5.90549">
        <ele>883.2</ele>
        <time>2019-09-05T08:46:01Z</time>
      </trkpt>
      <trkpt lat="46.52359" lon="5.90544">
        <ele>883.2</ele>
        <time>2019-09-05T08:46:05Z</time>
      </trkpt>
      <trkpt lat="46.52356" lon="5.90537">
        <ele>883.1</ele>
        <time>2019-09-05T08:46:09Z</time>
      </trkpt>
      <trkpt lat="46.52354" lon="5.90531">
        <ele>882.4</ele>
        <time>2019-09-05T08:46:14Z</time>
      </trkpt>
      <trkpt lat="46.52351" lon="5.90525">
        <ele>881.4</ele>
        <time>2019-09-05T08:46:19Z</time>
      </trkpt>
      <trkpt lat="46.52348" lon="5.90519">
        <ele>880.5</ele>
        <time>2019-09-05T08:46:23Z</time>
      </trkpt>
      <trkpt lat="46.52345" lon="5.90514">
        <ele>879.5</ele>
        <time>2019-09-05T08:46:28Z</time>
      </trkpt>
      <trkpt lat="46.52343" lon="5.90508">
        <ele>878.7</ele>
        <time>2019-09-05T08:46:32Z</time>
      </trkpt>
      <trkpt lat="46.52339" lon="5.90503">
        <ele>877.8</ele>
        <time>2019-09-05T08:46:38Z</time>
      </trkpt>
      <trkpt lat="46.52335" lon="5.90497">
        <ele>877.7</ele>
        <time>2019-09-05T08:46:42Z</time>
      </trkpt>
      <trkpt lat="46.52333" lon="5.9049">
        <ele>877.8</ele>
        <time>2019-09-05T08:46:45Z</time>
      </trkpt>
      <trkpt lat="46.5233" lon="5.90484">
        <ele>877.8</ele>
        <time>2019-09-05T08:46:50Z</time>
      </trkpt>
      <trkpt lat="46.52328" lon="5.90479">
        <ele>877.7</ele>
        <time>2019-09-05T08:46:55Z</time>
      </trkpt>
      <trkpt lat="46.52324" lon="5.90473">
        <ele>877.7</ele>
        <time>2019-09-05T08:46:59Z</time>
      </trkpt>
      <trkpt lat="46.52321" lon="5.90468">
        <ele>877.7</ele>
        <time>2019-09-05T08:47:03Z</time>
      </trkpt>
      <trkpt lat="46.52318" lon="5.90461">
        <ele>877.6</ele>
        <time>2019-09-05T08:47:08Z</time>
      </trkpt>
      <trkpt lat="46.52316" lon="5.90454">
        <ele>877.8</ele>
        <time>2019-09-05T08:47:13Z</time>
      </trkpt>
      <trkpt lat="46.52314" lon="5.90447">
        <ele>878.3</ele>
        <time>2019-09-05T08:47:18Z</time>
      </trkpt>
      <trkpt lat="46.52311" lon="5.90441">
        <ele>878.7</ele>
        <time>2019-09-05T08:47:22Z</time>
      </trkpt>
      <trkpt lat="46.52308" lon="5.90435">
        <ele>879.4</ele>
        <time>2019-09-05T08:47:27Z</time>
      </trkpt>
      <trkpt lat="46.52305" lon="5.90429">
        <ele>880</ele>
        <time>2019-09-05T08:47:31Z</time>
      </trkpt>
      <trkpt lat="46.52303" lon="5.90422">
        <ele>880.6</ele>
        <time>2019-09-05T08:47:35Z</time>
      </trkpt>
      <trkpt lat="46.52299" lon="5.90416">
        <ele>881.4</ele>
        <time>2019-09-05T08:47:40Z</time>
      </trkpt>
      <trkpt lat="46.52296" lon="5.90411">
        <ele>881.9</ele>
        <time>2019-09-05T08:47:44Z</time>
      </trkpt>
      <trkpt lat="46.52294" lon="5.90405">
        <ele>882.2</ele>
        <time>2019-09-05T08:47:48Z</time>
      </trkpt>
      <trkpt lat="46.52291" lon="5.90399">
        <ele>882.4</ele>
        <time>2019-09-05T08:47:53Z</time>
      </trkpt>
      <trkpt lat="46.52288" lon="5.90393">
        <ele>882.5</ele>
        <time>2019-09-05T08:47:58Z</time>
      </trkpt>
      <trkpt lat="46.52285" lon="5.90388">
        <ele>882.3</ele>
        <time>2019-09-05T08:48:03Z</time>
      </trkpt>
      <trkpt lat="46.52282" lon="5.90382">
        <ele>882</ele>
        <time>2019-09-05T08:48:07Z</time>
      </trkpt>
      <trkpt lat="46.52279" lon="5.90377">
        <ele>881.9</ele>
        <time>2019-09-05T08:48:11Z</time>
      </trkpt>
      <trkpt lat="46.52276" lon="5.9037">
        <ele>882.1</ele>
        <time>2019-09-05T08:48:17Z</time>
      </trkpt>
      <trkpt lat="46.52274" lon="5.90364">
        <ele>882.3</ele>
        <time>2019-09-05T08:48:21Z</time>
      </trkpt>
      <trkpt lat="46.5227" lon="5.90358">
        <ele>882.5</ele>
        <time>2019-09-05T08:48:24Z</time>
      </trkpt>
      <trkpt lat="46.52267" lon="5.90353">
        <ele>882.6</ele>
        <time>2019-09-05T08:48:28Z</time>
      </trkpt>
      <trkpt lat="46.52265" lon="5.90347">
        <ele>882.7</ele>
        <time>2019-09-05T08:48:31Z</time>
      </trkpt>
      <trkpt lat="46.52263" lon="5.9034">
        <ele>883</ele>
        <time>2019-09-05T08:48:36Z</time>
      </trkpt>
      <trkpt lat="46.52261" lon="5.90334">
        <ele>883.2</ele>
        <time>2019-09-05T08:48:40Z</time>
      </trkpt>
      <trkpt lat="46.52257" lon="5.90329">
        <ele>883.6</ele>
        <time>2019-09-05T08:48:44Z</time>
      </trkpt>
      <trkpt lat="46.52254" lon="5.90323">
        <ele>883.9</ele>
        <time>2019-09-05T08:48:49Z</time>
      </trkpt>
      <trkpt lat="46.52251" lon="5.90316">
        <ele>884</ele>
        <time>2019-09-05T08:48:55Z</time>
      </trkpt>
      <trkpt lat="46.52248" lon="5.90311">
        <ele>883.9</ele>
        <time>2019-09-05T08:49:00Z</time>
      </trkpt>
      <trkpt lat="46.52245" lon="5.90305">
        <ele>883.8</ele>
        <time>2019-09-05T08:49:04Z</time>
      </trkpt>
      <trkpt lat="46.52242" lon="5.90299">
        <ele>883.6</ele>
        <time>2019-09-05T08:49:09Z</time>
      </trkpt>
      <trkpt lat="46.52239" lon="5.90293">
        <ele>883.5</ele>
        <time>2019-09-05T08:49:13Z</time>
      </trkpt>
      <trkpt lat="46.52236" lon="5.90288">
        <ele>883.4</ele>
        <time>2019-09-05T08:49:17Z</time>
      </trkpt>
      <trkpt lat="46.52234" lon="5.90282">
        <ele>883.4</ele>
        <time>2019-09-05T08:49:20Z</time>
      </trkpt>
      <trkpt lat="46.52231" lon="5.90276">
        <ele>883.2</ele>
        <time>2019-09-05T08:49:24Z</time>
      </trkpt>
      <trkpt lat="46.52228" lon="5.90269">
        <ele>882.9</ele>
        <time>2019-09-05T08:49:29Z</time>
      </trkpt>
      <trkpt lat="46.52226" lon="5.90263">
        <ele>882.6</ele>
        <time>2019-09-05T08:49:33Z</time>
      </trkpt>
      <trkpt lat="46.52223" lon="5.90256">
        <ele>882.4</ele>
        <time>2019-09-05T08:49:37Z</time>
      </trkpt>
      <trkpt lat="46.5222" lon="5.90251">
        <ele>882.1</ele>
        <time>2019-09-05T08:49:42Z</time>
      </trkpt>
      <trkpt lat="46.52218" lon="5.90244">
        <ele>881.7</ele>
        <time>2019-09-05T08:49:47Z</time>
      </trkpt>
      <trkpt lat="46.52215" lon="5.90239">
        <ele>881.4</ele>
        <time>2019-09-05T08:49:52Z</time>
      </trkpt>
      <trkpt lat="46.52212" lon="5.90232">
        <ele>881</ele>
        <time>2019-09-05T08:49:56Z</time>
      </trkpt>
      <trkpt lat="46.52209" lon="5.90224">
        <ele>880.8</ele>
        <time>2019-09-05T08:50:00Z</time>
      </trkpt>
      <trkpt lat="46.52207" lon="5.90217">
        <ele>880.4</ele>
        <time>2019-09-05T08:50:04Z</time>
      </trkpt>
      <trkpt lat="46.52205" lon="5.9021">
        <ele>880</ele>
        <time>2019-09-05T08:50:09Z</time>
      </trkpt>
      <trkpt lat="46.52204" lon="5.90203">
        <ele>879.6</ele>
        <time>2019-09-05T08:50:14Z</time>
      </trkpt>
      <trkpt lat="46.52202" lon="5.90196">
        <ele>879.4</ele>
        <time>2019-09-05T08:50:19Z</time>
      </trkpt>
      <trkpt lat="46.522" lon="5.90188">
        <ele>879.3</ele>
        <time>2019-09-05T08:50:23Z</time>
      </trkpt>
      <trkpt lat="46.522" lon="5.90181">
        <ele>879.2</ele>
        <time>2019-09-05T08:50:27Z</time>
      </trkpt>
      <trkpt lat="46.52199" lon="5.90173">
        <ele>879.1</ele>
        <time>2019-09-05T08:50:31Z</time>
      </trkpt>
      <trkpt lat="46.52198" lon="5.90167">
        <ele>879.2</ele>
        <time>2019-09-05T08:50:35Z</time>
      </trkpt>
      <trkpt lat="46.52196" lon="5.9016">
        <ele>879.5</ele>
        <time>2019-09-05T08:50:40Z</time>
      </trkpt>
      <trkpt lat="46.52194" lon="5.90153">
        <ele>879.8</ele>
        <time>2019-09-05T08:50:44Z</time>
      </trkpt>
      <trkpt lat="46.52192" lon="5.90145">
        <ele>879.9</ele>
        <time>2019-09-05T08:50:48Z</time>
      </trkpt>
      <trkpt lat="46.52191" lon="5.90138">
        <ele>880.1</ele>
        <time>2019-09-05T08:50:53Z</time>
      </trkpt>
      <trkpt lat="46.52191" lon="5.90131">
        <ele>880.3</ele>
        <time>2019-09-05T08:50:57Z</time>
      </trkpt>
      <trkpt lat="46.5219" lon="5.90124">
        <ele>880.4</ele>
        <time>2019-09-05T08:51:02Z</time>
      </trkpt>
      <trkpt lat="46.52188" lon="5.90116">
        <ele>880.5</ele>
        <time>2019-09-05T08:51:06Z</time>
      </trkpt>
      <trkpt lat="46.52186" lon="5.90108">
        <ele>880.7</ele>
        <time>2019-09-05T08:51:10Z</time>
      </trkpt>
      <trkpt lat="46.52184" lon="5.90101">
        <ele>880.9</ele>
        <time>2019-09-05T08:51:14Z</time>
      </trkpt>
      <trkpt lat="46.52183" lon="5.90093">
        <ele>880.9</ele>
        <time>2019-09-05T08:51:19Z</time>
      </trkpt>
      <trkpt lat="46.52181" lon="5.90086">
        <ele>880.8</ele>
        <time>2019-09-05T08:51:23Z</time>
      </trkpt>
      <trkpt lat="46.5218" lon="5.90079">
        <ele>880.7</ele>
        <time>2019-09-05T08:51:27Z</time>
      </trkpt>
      <trkpt lat="46.52179" lon="5.9007">
        <ele>880.7</ele>
        <time>2019-09-05T08:51:32Z</time>
      </trkpt>
      <trkpt lat="46.52179" lon="5.90063">
        <ele>880.7</ele>
        <time>2019-09-05T08:51:36Z</time>
      </trkpt>
      <trkpt lat="46.52178" lon="5.90056">
        <ele>880.8</ele>
        <time>2019-09-05T08:51:40Z</time>
      </trkpt>
      <trkpt lat="46.52179" lon="5.9005">
        <ele>881</ele>
        <time>2019-09-05T08:51:45Z</time>
      </trkpt>
      <trkpt lat="46.5218" lon="5.90043">
        <ele>881.3</ele>
        <time>2019-09-05T08:51:49Z</time>
      </trkpt>
      <trkpt lat="46.52182" lon="5.90037">
        <ele>881.5</ele>
        <time>2019-09-05T08:51:53Z</time>
      </trkpt>
      <trkpt lat="46.52184" lon="5.90029">
        <ele>881.8</ele>
        <time>2019-09-05T08:51:59Z</time>
      </trkpt>
      <trkpt lat="46.52185" lon="5.90022">
        <ele>882.1</ele>
        <time>2019-09-05T08:52:04Z</time>
      </trkpt>
      <trkpt lat="46.52186" lon="5.90015">
        <ele>882.3</ele>
        <time>2019-09-05T08:52:09Z</time>
      </trkpt>
      <trkpt lat="46.52187" lon="5.90007">
        <ele>882.4</ele>
        <time>2019-09-05T08:52:13Z</time>
      </trkpt>
      <trkpt lat="46.52189" lon="5.90001">
        <ele>882.5</ele>
        <time>2019-09-05T08:52:17Z</time>
      </trkpt>
      <trkpt lat="46.52191" lon="5.89994">
        <ele>882.7</ele>
        <time>2019-09-05T08:52:22Z</time>
      </trkpt>
      <trkpt lat="46.52193" lon="5.89988">
        <ele>882.9</ele>
        <time>2019-09-05T08:52:27Z</time>
      </trkpt>
      <trkpt lat="46.52197" lon="5.89982">
        <ele>883</ele>
        <time>2019-09-05T08:52:33Z</time>
      </trkpt>
      <trkpt lat="46.52198" lon="5.89976">
        <ele>882.8</ele>
        <time>2019-09-05T08:52:38Z</time>
      </trkpt>
      <trkpt lat="46.522" lon="5.89968">
        <ele>882.6</ele>
        <time>2019-09-05T08:52:43Z</time>
      </trkpt>
      <trkpt lat="46.52202" lon="5.8996">
        <ele>882.3</ele>
        <time>2019-09-05T08:52:47Z</time>
      </trkpt>
      <trkpt lat="46.52204" lon="5.89954">
        <ele>881.9</ele>
        <time>2019-09-05T08:52:52Z</time>
      </trkpt>
      <trkpt lat="46.52204" lon="5.89946">
        <ele>881.7</ele>
        <time>2019-09-05T08:52:56Z</time>
      </trkpt>
      <trkpt lat="46.52205" lon="5.89938">
        <ele>881.7</ele>
        <time>2019-09-05T08:53:00Z</time>
      </trkpt>
      <trkpt lat="46.52207" lon="5.8993">
        <ele>881.8</ele>
        <time>2019-09-05T08:53:04Z</time>
      </trkpt>
      <trkpt lat="46.52207" lon="5.89923">
        <ele>881.7</ele>
        <time>2019-09-05T08:53:08Z</time>
      </trkpt>
      <trkpt lat="46.52207" lon="5.89915">
        <ele>881.7</ele>
        <time>2019-09-05T08:53:13Z</time>
      </trkpt>
      <trkpt lat="46.52209" lon="5.89909">
        <ele>881.8</ele>
        <time>2019-09-05T08:53:17Z</time>
      </trkpt>
      <trkpt lat="46.5221" lon="5.89902">
        <ele>881.7</ele>
        <time>2019-09-05T08:53:22Z</time>
      </trkpt>
      <trkpt lat="46.52211" lon="5.89896">
        <ele>881.6</ele>
        <time>2019-09-05T08:53:26Z</time>
      </trkpt>
      <trkpt lat="46.52212" lon="5.89888">
        <ele>881.7</ele>
        <time>2019-09-05T08:53:31Z</time>
      </trkpt>
      <trkpt lat="46.52213" lon="5.89882">
        <ele>881.7</ele>
        <time>2019-09-05T08:53:36Z</time>
      </trkpt>
      <trkpt lat="46.52215" lon="5.89875">
        <ele>881.8</ele>
        <time>2019-09-05T08:53:40Z</time>
      </trkpt>
      <trkpt lat="46.52214" lon="5.89867">
        <ele>881.9</ele>
        <time>2019-09-05T08:53:44Z</time>
      </trkpt>
      <trkpt lat="46.52214" lon="5.89861">
        <ele>881.9</ele>
        <time>2019-09-05T08:53:48Z</time>
      </trkpt>
      <trkpt lat="46.52214" lon="5.89853">
        <ele>881.9</ele>
        <time>2019-09-05T08:53:52Z</time>
      </trkpt>
      <trkpt lat="46.52215" lon="5.89846">
        <ele>881.9</ele>
        <time>2019-09-05T08:53:57Z</time>
      </trkpt>
      <trkpt lat="46.52216" lon="5.8984">
        <ele>882.1</ele>
        <time>2019-09-05T08:54:01Z</time>
      </trkpt>
      <trkpt lat="46.52219" lon="5.89834">
        <ele>882.4</ele>
        <time>2019-09-05T08:54:06Z</time>
      </trkpt>
      <trkpt lat="46.52221" lon="5.89829">
        <ele>882.6</ele>
        <time>2019-09-05T08:54:12Z</time>
      </trkpt>
      <trkpt lat="46.52224" lon="5.89821">
        <ele>882.8</ele>
        <time>2019-09-05T08:54:18Z</time>
      </trkpt>
      <trkpt lat="46.52226" lon="5.89816">
        <ele>883.1</ele>
        <time>2019-09-05T08:54:23Z</time>
      </trkpt>
      <trkpt lat="46.52229" lon="5.8981">
        <ele>883.4</ele>
        <time>2019-09-05T08:54:28Z</time>
      </trkpt>
      <trkpt lat="46.52233" lon="5.89804">
        <ele>883.5</ele>
        <time>2019-09-05T08:54:32Z</time>
      </trkpt>
      <trkpt lat="46.52236" lon="5.89799">
        <ele>883.3</ele>
        <time>2019-09-05T08:54:36Z</time>
      </trkpt>
      <trkpt lat="46.52239" lon="5.89794">
        <ele>883</ele>
        <time>2019-09-05T08:54:42Z</time>
      </trkpt>
      <trkpt lat="46.52242" lon="5.89789">
        <ele>882.9</ele>
        <time>2019-09-05T08:54:47Z</time>
      </trkpt>
      <trkpt lat="46.52245" lon="5.89783">
        <ele>882.8</ele>
        <time>2019-09-05T08:54:51Z</time>
      </trkpt>
      <trkpt lat="46.52248" lon="5.89777">
        <ele>882.7</ele>
        <time>2019-09-05T08:54:55Z</time>
      </trkpt>
      <trkpt lat="46.52251" lon="5.8977">
        <ele>882.6</ele>
        <time>2019-09-05T08:54:59Z</time>
      </trkpt>
      <trkpt lat="46.52254" lon="5.89766">
        <ele>882.4</ele>
        <time>2019-09-05T08:55:03Z</time>
      </trkpt>
      <trkpt lat="46.52258" lon="5.8976">
        <ele>882.2</ele>
        <time>2019-09-05T08:55:08Z</time>
      </trkpt>
      <trkpt lat="46.52262" lon="5.89754">
        <ele>881.9</ele>
        <time>2019-09-05T08:55:13Z</time>
      </trkpt>
      <trkpt lat="46.52266" lon="5.8975">
        <ele>881.8</ele>
        <time>2019-09-05T08:55:17Z</time>
      </trkpt>
      <trkpt lat="46.5227" lon="5.89745">
        <ele>881.5</ele>
        <time>2019-09-05T08:55:21Z</time>
      </trkpt>
      <trkpt lat="46.52275" lon="5.89741">
        <ele>881.2</ele>
        <time>2019-09-05T08:55:26Z</time>
      </trkpt>
      <trkpt lat="46.52279" lon="5.89739">
        <ele>880.9</ele>
        <time>2019-09-05T08:55:31Z</time>
      </trkpt>
      <trkpt lat="46.52284" lon="5.89736">
        <ele>880.9</ele>
        <time>2019-09-05T08:55:36Z</time>
      </trkpt>
      <trkpt lat="46.52288" lon="5.89733">
        <ele>881</ele>
        <time>2019-09-05T08:55:41Z</time>
      </trkpt>
      <trkpt lat="46.52294" lon="5.89731">
        <ele>881.2</ele>
        <time>2019-09-05T08:55:46Z</time>
      </trkpt>
      <trkpt lat="46.52298" lon="5.89729">
        <ele>881.2</ele>
        <time>2019-09-05T08:55:50Z</time>
      </trkpt>
      <trkpt lat="46.52303" lon="5.89726">
        <ele>881.3</ele>
        <time>2019-09-05T08:55:54Z</time>
      </trkpt>
      <trkpt lat="46.52307" lon="5.89723">
        <ele>881.5</ele>
        <time>2019-09-05T08:55:57Z</time>
      </trkpt>
      <trkpt lat="46.52311" lon="5.89718">
        <ele>881.8</ele>
        <time>2019-09-05T08:56:01Z</time>
      </trkpt>
      <trkpt lat="46.52315" lon="5.89714">
        <ele>882.1</ele>
        <time>2019-09-05T08:56:05Z</time>
      </trkpt>
      <trkpt lat="46.52319" lon="5.8971">
        <ele>882.2</ele>
        <time>2019-09-05T08:56:09Z</time>
      </trkpt>
      <trkpt lat="46.52322" lon="5.89703">
        <ele>882.3</ele>
        <time>2019-09-05T08:56:14Z</time>
      </trkpt>
      <trkpt lat="46.52325" lon="5.89698">
        <ele>882.1</ele>
        <time>2019-09-05T08:56:18Z</time>
      </trkpt>
      <trkpt lat="46.52328" lon="5.89693">
        <ele>881.9</ele>
        <time>2019-09-05T08:56:23Z</time>
      </trkpt>
      <trkpt lat="46.52331" lon="5.89687">
        <ele>881.6</ele>
        <time>2019-09-05T08:56:28Z</time>
      </trkpt>
      <trkpt lat="46.52334" lon="5.8968">
        <ele>881.4</ele>
        <time>2019-09-05T08:56:33Z</time>
      </trkpt>
      <trkpt lat="46.52336" lon="5.89672">
        <ele>881.2</ele>
        <time>2019-09-05T08:56:38Z</time>
      </trkpt>
      <trkpt lat="46.52338" lon="5.89665">
        <ele>881.1</ele>
        <time>2019-09-05T08:56:42Z</time>
      </trkpt>
      <trkpt lat="46.5234" lon="5.89658">
        <ele>880.8</ele>
        <time>2019-09-05T08:56:46Z</time>
      </trkpt>
      <trkpt lat="46.52342" lon="5.89651">
        <ele>880.7</ele>
        <time>2019-09-05T08:56:50Z</time>
      </trkpt>
      <trkpt lat="46.52344" lon="5.89645">
        <ele>880.6</ele>
        <time>2019-09-05T08:56:54Z</time>
      </trkpt>
      <trkpt lat="46.52346" lon="5.89639">
        <ele>880.4</ele>
        <time>2019-09-05T08:56:58Z</time>
      </trkpt>
      <trkpt lat="46.52346" lon="5.89631">
        <ele>880.3</ele>
        <time>2019-09-05T08:57:03Z</time>
      </trkpt>
      <trkpt lat="46.52348" lon="5.89625">
        <ele>880.3</ele>
        <time>2019-09-05T08:57:07Z</time>
      </trkpt>
      <trkpt lat="46.5235" lon="5.89618">
        <ele>880.2</ele>
        <time>2019-09-05T08:57:11Z</time>
      </trkpt>
      <trkpt lat="46.52354" lon="5.89612">
        <ele>880</ele>
        <time>2019-09-05T08:57:16Z</time>
      </trkpt>
      <trkpt lat="46.52357" lon="5.89606">
        <ele>879.9</ele>
        <time>2019-09-05T08:57:20Z</time>
      </trkpt>
      <trkpt lat="46.52359" lon="5.89599">
        <ele>879.8</ele>
        <time>2019-09-05T08:57:25Z</time>
      </trkpt>
      <trkpt lat="46.52361" lon="5.89592">
        <ele>879.7</ele>
        <time>2019-09-05T08:57:29Z</time>
      </trkpt>
      <trkpt lat="46.52364" lon="5.89587">
        <ele>879.7</ele>
        <time>2019-09-05T08:57:34Z</time>
      </trkpt>
      <trkpt lat="46.52368" lon="5.89582">
        <ele>879.7</ele>
        <time>2019-09-05T08:57:39Z</time>
      </trkpt>
      <trkpt lat="46.52372" lon="5.89577">
        <ele>879.8</ele>
        <time>2019-09-05T08:57:44Z</time>
      </trkpt>
      <trkpt lat="46.52376" lon="5.89571">
        <ele>879.9</ele>
        <time>2019-09-05T08:57:49Z</time>
      </trkpt>
      <trkpt lat="46.52379" lon="5.89567">
        <ele>880</ele>
        <time>2019-09-05T08:57:53Z</time>
      </trkpt>
      <trkpt lat="46.52383" lon="5.89562">
        <ele>880.1</ele>
        <time>2019-09-05T08:57:57Z</time>
      </trkpt>
      <trkpt lat="46.52387" lon="5.89557">
        <ele>880.1</ele>
        <time>2019-09-05T08:58:02Z</time>
      </trkpt>
      <trkpt lat="46.52391" lon="5.89553">
        <ele>880.1</ele>
        <time>2019-09-05T08:58:09Z</time>
      </trkpt>
      <trkpt lat="46.52395" lon="5.89546">
        <ele>880.3</ele>
        <time>2019-09-05T08:58:13Z</time>
      </trkpt>
      <trkpt lat="46.52398" lon="5.89541">
        <ele>880.5</ele>
        <time>2019-09-05T08:58:16Z</time>
      </trkpt>
      <trkpt lat="46.52402" lon="5.89537">
        <ele>880.8</ele>
        <time>2019-09-05T08:58:21Z</time>
      </trkpt>
      <trkpt lat="46.52407" lon="5.89536">
        <ele>881</ele>
        <time>2019-09-05T08:58:25Z</time>
      </trkpt>
      <trkpt lat="46.52412" lon="5.89537">
        <ele>881</ele>
        <time>2019-09-05T08:58:30Z</time>
      </trkpt>
      <trkpt lat="46.52416" lon="5.89541">
        <ele>880.9</ele>
        <time>2019-09-05T08:58:35Z</time>
      </trkpt>
      <trkpt lat="46.5242" lon="5.89545">
        <ele>881.1</ele>
        <time>2019-09-05T08:58:40Z</time>
      </trkpt>
      <trkpt lat="46.52424" lon="5.89551">
        <ele>881.4</ele>
        <time>2019-09-05T08:58:47Z</time>
      </trkpt>
      <trkpt lat="46.52427" lon="5.89556">
        <ele>881.7</ele>
        <time>2019-09-05T08:58:52Z</time>
      </trkpt>
      <trkpt lat="46.52431" lon="5.8956">
        <ele>881.9</ele>
        <time>2019-09-05T08:58:56Z</time>
      </trkpt>
      <trkpt lat="46.52435" lon="5.89565">
        <ele>882.2</ele>
        <time>2019-09-05T08:59:01Z</time>
      </trkpt>
      <trkpt lat="46.52439" lon="5.89571">
        <ele>882.8</ele>
        <time>2019-09-05T08:59:07Z</time>
      </trkpt>
      <trkpt lat="46.52442" lon="5.89575">
        <ele>883.3</ele>
        <time>2019-09-05T08:59:11Z</time>
      </trkpt>
      <trkpt lat="46.52446" lon="5.89579">
        <ele>883.8</ele>
        <time>2019-09-05T08:59:15Z</time>
      </trkpt>
      <trkpt lat="46.52449" lon="5.89584">
        <ele>884.3</ele>
        <time>2019-09-05T08:59:20Z</time>
      </trkpt>
      <trkpt lat="46.52453" lon="5.89589">
        <ele>884.8</ele>
        <time>2019-09-05T08:59:25Z</time>
      </trkpt>
      <trkpt lat="46.52456" lon="5.89595">
        <ele>885.1</ele>
        <time>2019-09-05T08:59:29Z</time>
      </trkpt>
      <trkpt lat="46.5246" lon="5.896">
        <ele>885.6</ele>
        <time>2019-09-05T08:59:33Z</time>
      </trkpt>
      <trkpt lat="46.52463" lon="5.89606">
        <ele>886.4</ele>
        <time>2019-09-05T08:59:38Z</time>
      </trkpt>
      <trkpt lat="46.52466" lon="5.89612">
        <ele>887</ele>
        <time>2019-09-05T08:59:42Z</time>
      </trkpt>
      <trkpt lat="46.5247" lon="5.89617">
        <ele>887.7</ele>
        <time>2019-09-05T08:59:47Z</time>
      </trkpt>
      <trkpt lat="46.52473" lon="5.89622">
        <ele>888.2</ele>
        <time>2019-09-05T08:59:51Z</time>
      </trkpt>
      <trkpt lat="46.52476" lon="5.89628">
        <ele>888.8</ele>
        <time>2019-09-05T08:59:56Z</time>
      </trkpt>
      <trkpt lat="46.52479" lon="5.89635">
        <ele>889.3</ele>
        <time>2019-09-05T09:00:01Z</time>
      </trkpt>
      <trkpt lat="46.52483" lon="5.89641">
        <ele>889.8</ele>
        <time>2019-09-05T09:00:07Z</time>
      </trkpt>
      <trkpt lat="46.52486" lon="5.89648">
        <ele>890</ele>
        <time>2019-09-05T09:00:11Z</time>
      </trkpt>
      <trkpt lat="46.52489" lon="5.89654">
        <ele>890.2</ele>
        <time>2019-09-05T09:00:15Z</time>
      </trkpt>
      <trkpt lat="46.52492" lon="5.8966">
        <ele>890.3</ele>
        <time>2019-09-05T09:00:20Z</time>
      </trkpt>
      <trkpt lat="46.52494" lon="5.89666">
        <ele>890.2</ele>
        <time>2019-09-05T09:00:25Z</time>
      </trkpt>
      <trkpt lat="46.52498" lon="5.89671">
        <ele>890.2</ele>
        <time>2019-09-05T09:00:30Z</time>
      </trkpt>
      <trkpt lat="46.52502" lon="5.89675">
        <ele>890.2</ele>
        <time>2019-09-05T09:00:34Z</time>
      </trkpt>
      <trkpt lat="46.52506" lon="5.89679">
        <ele>890.3</ele>
        <time>2019-09-05T09:00:37Z</time>
      </trkpt>
      <trkpt lat="46.5251" lon="5.89684">
        <ele>890.3</ele>
        <time>2019-09-05T09:00:41Z</time>
      </trkpt>
      <trkpt lat="46.52515" lon="5.89687">
        <ele>890.3</ele>
        <time>2019-09-05T09:00:46Z</time>
      </trkpt>
      <trkpt lat="46.5252" lon="5.8969">
        <ele>890</ele>
        <time>2019-09-05T09:00:51Z</time>
      </trkpt>
      <trkpt lat="46.52525" lon="5.89691">
        <ele>889.9</ele>
        <time>2019-09-05T09:00:55Z</time>
      </trkpt>
      <trkpt lat="46.52529" lon="5.89693">
        <ele>889.8</ele>
        <time>2019-09-05T09:00:59Z</time>
      </trkpt>
      <trkpt lat="46.52534" lon="5.89696">
        <ele>889.8</ele>
        <time>2019-09-05T09:01:04Z</time>
      </trkpt>
      <trkpt lat="46.52538" lon="5.89699">
        <ele>889.8</ele>
        <time>2019-09-05T09:01:09Z</time>
      </trkpt>
      <trkpt lat="46.52543" lon="5.89702">
        <ele>889.9</ele>
        <time>2019-09-05T09:01:13Z</time>
      </trkpt>
      <trkpt lat="46.52547" lon="5.89705">
        <ele>890</ele>
        <time>2019-09-05T09:01:17Z</time>
      </trkpt>
      <trkpt lat="46.52553" lon="5.89708">
        <ele>890.3</ele>
        <time>2019-09-05T09:01:21Z</time>
      </trkpt>
      <trkpt lat="46.52558" lon="5.89711">
        <ele>890.3</ele>
        <time>2019-09-05T09:01:25Z</time>
      </trkpt>
      <trkpt lat="46.52562" lon="5.89713">
        <ele>890.3</ele>
        <time>2019-09-05T09:01:29Z</time>
      </trkpt>
      <trkpt lat="46.52566" lon="5.89718">
        <ele>889.9</ele>
        <time>2019-09-05T09:01:35Z</time>
      </trkpt>
      <trkpt lat="46.5257" lon="5.89722">
        <ele>889.5</ele>
        <time>2019-09-05T09:01:40Z</time>
      </trkpt>
      <trkpt lat="46.52575" lon="5.89725">
        <ele>889.2</ele>
        <time>2019-09-05T09:01:44Z</time>
      </trkpt>
      <trkpt lat="46.52579" lon="5.8973">
        <ele>888.8</ele>
        <time>2019-09-05T09:01:49Z</time>
      </trkpt>
      <trkpt lat="46.52583" lon="5.89733">
        <ele>888.6</ele>
        <time>2019-09-05T09:01:53Z</time>
      </trkpt>
      <trkpt lat="46.52587" lon="5.89737">
        <ele>888.4</ele>
        <time>2019-09-05T09:01:57Z</time>
      </trkpt>
      <trkpt lat="46.5259" lon="5.89742">
        <ele>888.3</ele>
        <time>2019-09-05T09:02:00Z</time>
      </trkpt>
      <trkpt lat="46.52594" lon="5.89747">
        <ele>888.3</ele>
        <time>2019-09-05T09:02:04Z</time>
      </trkpt>
      <trkpt lat="46.52597" lon="5.89753">
        <ele>888.5</ele>
        <time>2019-09-05T09:02:09Z</time>
      </trkpt>
      <trkpt lat="46.52601" lon="5.89759">
        <ele>888.6</ele>
        <time>2019-09-05T09:02:13Z</time>
      </trkpt>
      <trkpt lat="46.52603" lon="5.89764">
        <ele>888.6</ele>
        <time>2019-09-05T09:02:17Z</time>
      </trkpt>
      <trkpt lat="46.52606" lon="5.8977">
        <ele>888.8</ele>
        <time>2019-09-05T09:02:21Z</time>
      </trkpt>
      <trkpt lat="46.52609" lon="5.89775">
        <ele>888.8</ele>
        <time>2019-09-05T09:02:26Z</time>
      </trkpt>
      <trkpt lat="46.52613" lon="5.8978">
        <ele>888.7</ele>
        <time>2019-09-05T09:02:30Z</time>
      </trkpt>
      <trkpt lat="46.52617" lon="5.89784">
        <ele>888.7</ele>
        <time>2019-09-05T09:02:36Z</time>
      </trkpt>
      <trkpt lat="46.52621" lon="5.89788">
        <ele>887.8</ele>
        <time>2019-09-05T09:02:50Z</time>
      </trkpt>
      <trkpt lat="46.52624" lon="5.89793">
        <ele>887.5</ele>
        <time>2019-09-05T09:02:57Z</time>
      </trkpt>
      <trkpt lat="46.52628" lon="5.89797">
        <ele>887.5</ele>
        <time>2019-09-05T09:03:02Z</time>
      </trkpt>
      <trkpt lat="46.52633" lon="5.89801">
        <ele>887.4</ele>
        <time>2019-09-05T09:03:07Z</time>
      </trkpt>
      <trkpt lat="46.52637" lon="5.89804">
        <ele>887.5</ele>
        <time>2019-09-05T09:03:12Z</time>
      </trkpt>
      <trkpt lat="46.52641" lon="5.89807">
        <ele>887.6</ele>
        <time>2019-09-05T09:03:16Z</time>
      </trkpt>
      <trkpt lat="46.52646" lon="5.89809">
        <ele>887.7</ele>
        <time>2019-09-05T09:03:20Z</time>
      </trkpt>
      <trkpt lat="46.52651" lon="5.89813">
        <ele>887.9</ele>
        <time>2019-09-05T09:03:24Z</time>
      </trkpt>
      <trkpt lat="46.52655" lon="5.89816">
        <ele>888</ele>
        <time>2019-09-05T09:03:28Z</time>
      </trkpt>
      <trkpt lat="46.52659" lon="5.89819">
        <ele>888.2</ele>
        <time>2019-09-05T09:03:33Z</time>
      </trkpt>
      <trkpt lat="46.52664" lon="5.89821">
        <ele>888.2</ele>
        <time>2019-09-05T09:03:37Z</time>
      </trkpt>
      <trkpt lat="46.52669" lon="5.89822">
        <ele>888</ele>
        <time>2019-09-05T09:03:42Z</time>
      </trkpt>
      <trkpt lat="46.52674" lon="5.89824">
        <ele>887.7</ele>
        <time>2019-09-05T09:03:46Z</time>
      </trkpt>
      <trkpt lat="46.52678" lon="5.89825">
        <ele>887.5</ele>
        <time>2019-09-05T09:03:51Z</time>
      </trkpt>
      <trkpt lat="46.52682" lon="5.89826">
        <ele>887.4</ele>
        <time>2019-09-05T09:03:57Z</time>
      </trkpt>
      <trkpt lat="46.52687" lon="5.89825">
        <ele>887.2</ele>
        <time>2019-09-05T09:04:02Z</time>
      </trkpt>
      <trkpt lat="46.52692" lon="5.89823">
        <ele>887.1</ele>
        <time>2019-09-05T09:04:08Z</time>
      </trkpt>
      <trkpt lat="46.52697" lon="5.8982">
        <ele>887.3</ele>
        <time>2019-09-05T09:04:13Z</time>
      </trkpt>
      <trkpt lat="46.527" lon="5.89815">
        <ele>887.2</ele>
        <time>2019-09-05T09:04:18Z</time>
      </trkpt>
      <trkpt lat="46.52704" lon="5.8981">
        <ele>887</ele>
        <time>2019-09-05T09:04:24Z</time>
      </trkpt>
      <trkpt lat="46.52709" lon="5.89806">
        <ele>886.8</ele>
        <time>2019-09-05T09:04:30Z</time>
      </trkpt>
      <trkpt lat="46.52714" lon="5.89805">
        <ele>886.9</ele>
        <time>2019-09-05T09:04:35Z</time>
      </trkpt>
      <trkpt lat="46.52719" lon="5.89805">
        <ele>887.1</ele>
        <time>2019-09-05T09:04:40Z</time>
      </trkpt>
      <trkpt lat="46.52724" lon="5.89806">
        <ele>887.1</ele>
        <time>2019-09-05T09:04:45Z</time>
      </trkpt>
      <trkpt lat="46.52729" lon="5.89807">
        <ele>886.8</ele>
        <time>2019-09-05T09:04:50Z</time>
      </trkpt>
      <trkpt lat="46.52733" lon="5.89808">
        <ele>886.6</ele>
        <time>2019-09-05T09:04:55Z</time>
      </trkpt>
      <trkpt lat="46.52737" lon="5.89805">
        <ele>885</ele>
        <time>2019-09-05T09:05:23Z</time>
      </trkpt>
      <trkpt lat="46.52742" lon="5.89802">
        <ele>884.7</ele>
        <time>2019-09-05T09:05:29Z</time>
      </trkpt>
      <trkpt lat="46.52746" lon="5.89799">
        <ele>884.6</ele>
        <time>2019-09-05T09:05:33Z</time>
      </trkpt>
      <trkpt lat="46.52749" lon="5.89795">
        <ele>884.7</ele>
        <time>2019-09-05T09:05:37Z</time>
      </trkpt>
      <trkpt lat="46.52751" lon="5.89789">
        <ele>885.1</ele>
        <time>2019-09-05T09:05:41Z</time>
      </trkpt>
      <trkpt lat="46.52754" lon="5.89782">
        <ele>885.6</ele>
        <time>2019-09-05T09:05:46Z</time>
      </trkpt>
      <trkpt lat="46.52755" lon="5.89775">
        <ele>886</ele>
        <time>2019-09-05T09:05:50Z</time>
      </trkpt>
      <trkpt lat="46.52758" lon="5.8977">
        <ele>886.4</ele>
        <time>2019-09-05T09:05:56Z</time>
      </trkpt>
      <trkpt lat="46.52763" lon="5.89774">
        <ele>886.6</ele>
        <time>2019-09-05T09:06:03Z</time>
      </trkpt>
      <trkpt lat="46.52769" lon="5.89775">
        <ele>886.8</ele>
        <time>2019-09-05T09:06:08Z</time>
      </trkpt>
      <trkpt lat="46.52774" lon="5.89778">
        <ele>886.7</ele>
        <time>2019-09-05T09:06:12Z</time>
      </trkpt>
      <trkpt lat="46.52779" lon="5.89781">
        <ele>886.6</ele>
        <time>2019-09-05T09:06:16Z</time>
      </trkpt>
      <trkpt lat="46.52789" lon="5.89785">
        <ele>886.1</ele>
        <time>2019-09-05T09:06:29Z</time>
      </trkpt>
      <trkpt lat="46.52795" lon="5.89786">
        <ele>886.4</ele>
        <time>2019-09-05T09:06:32Z</time>
      </trkpt>
      <trkpt lat="46.528" lon="5.89787">
        <ele>886.8</ele>
        <time>2019-09-05T09:06:36Z</time>
      </trkpt>
      <trkpt lat="46.52805" lon="5.89789">
        <ele>887.2</ele>
        <time>2019-09-05T09:06:39Z</time>
      </trkpt>
      <trkpt lat="46.5281" lon="5.8979">
        <ele>887.9</ele>
        <time>2019-09-05T09:06:43Z</time>
      </trkpt>
      <trkpt lat="46.52815" lon="5.89792">
        <ele>888.6</ele>
        <time>2019-09-05T09:06:48Z</time>
      </trkpt>
      <trkpt lat="46.5282" lon="5.89791">
        <ele>889.7</ele>
        <time>2019-09-05T09:06:54Z</time>
      </trkpt>
      <trkpt lat="46.52825" lon="5.89791">
        <ele>890.6</ele>
        <time>2019-09-05T09:06:59Z</time>
      </trkpt>
      <trkpt lat="46.52829" lon="5.89792">
        <ele>891.4</ele>
        <time>2019-09-05T09:07:04Z</time>
      </trkpt>
      <trkpt lat="46.52834" lon="5.89793">
        <ele>891.9</ele>
        <time>2019-09-05T09:07:08Z</time>
      </trkpt>
      <trkpt lat="46.52839" lon="5.89795">
        <ele>892.2</ele>
        <time>2019-09-05T09:07:12Z</time>
      </trkpt>
      <trkpt lat="46.52843" lon="5.89796">
        <ele>892.3</ele>
        <time>2019-09-05T09:07:19Z</time>
      </trkpt>
      <trkpt lat="46.52848" lon="5.89795">
        <ele>892.1</ele>
        <time>2019-09-05T09:07:27Z</time>
      </trkpt>
      <trkpt lat="46.52854" lon="5.89794">
        <ele>892.1</ele>
        <time>2019-09-05T09:07:31Z</time>
      </trkpt>
      <trkpt lat="46.52858" lon="5.89794">
        <ele>892.2</ele>
        <time>2019-09-05T09:07:34Z</time>
      </trkpt>
      <trkpt lat="46.52863" lon="5.89794">
        <ele>892.3</ele>
        <time>2019-09-05T09:07:38Z</time>
      </trkpt>
      <trkpt lat="46.52868" lon="5.89795">
        <ele>892</ele>
        <time>2019-09-05T09:07:42Z</time>
      </trkpt>
      <trkpt lat="46.52874" lon="5.89796">
        <ele>891.7</ele>
        <time>2019-09-05T09:07:45Z</time>
      </trkpt>
      <trkpt lat="46.52878" lon="5.89797">
        <ele>891.6</ele>
        <time>2019-09-05T09:07:48Z</time>
      </trkpt>
      <trkpt lat="46.52883" lon="5.89799">
        <ele>891.7</ele>
        <time>2019-09-05T09:07:52Z</time>
      </trkpt>
      <trkpt lat="46.52888" lon="5.898">
        <ele>892</ele>
        <time>2019-09-05T09:07:56Z</time>
      </trkpt>
      <trkpt lat="46.52892" lon="5.89802">
        <ele>892.2</ele>
        <time>2019-09-05T09:08:00Z</time>
      </trkpt>
      <trkpt lat="46.52897" lon="5.89804">
        <ele>892.5</ele>
        <time>2019-09-05T09:08:05Z</time>
      </trkpt>
      <trkpt lat="46.52902" lon="5.89805">
        <ele>893</ele>
        <time>2019-09-05T09:08:12Z</time>
      </trkpt>
      <trkpt lat="46.52907" lon="5.89806">
        <ele>893.1</ele>
        <time>2019-09-05T09:08:18Z</time>
      </trkpt>
      <trkpt lat="46.52912" lon="5.89808">
        <ele>893.1</ele>
        <time>2019-09-05T09:08:24Z</time>
      </trkpt>
      <trkpt lat="46.52918" lon="5.8981">
        <ele>893.2</ele>
        <time>2019-09-05T09:08:28Z</time>
      </trkpt>
      <trkpt lat="46.52923" lon="5.89812">
        <ele>893.1</ele>
        <time>2019-09-05T09:08:31Z</time>
      </trkpt>
      <trkpt lat="46.52928" lon="5.89814">
        <ele>893.1</ele>
        <time>2019-09-05T09:08:34Z</time>
      </trkpt>
      <trkpt lat="46.52934" lon="5.89816">
        <ele>893.1</ele>
        <time>2019-09-05T09:08:38Z</time>
      </trkpt>
      <trkpt lat="46.52938" lon="5.89817">
        <ele>893.1</ele>
        <time>2019-09-05T09:08:42Z</time>
      </trkpt>
      <trkpt lat="46.52943" lon="5.89818">
        <ele>893.2</ele>
        <time>2019-09-05T09:08:48Z</time>
      </trkpt>
      <trkpt lat="46.52947" lon="5.8982">
        <ele>893.2</ele>
        <time>2019-09-05T09:08:54Z</time>
      </trkpt>
      <trkpt lat="46.52952" lon="5.89822">
        <ele>893.1</ele>
        <time>2019-09-05T09:08:58Z</time>
      </trkpt>
      <trkpt lat="46.52957" lon="5.89825">
        <ele>893.1</ele>
        <time>2019-09-05T09:09:02Z</time>
      </trkpt>
      <trkpt lat="46.52962" lon="5.89828">
        <ele>892.9</ele>
        <time>2019-09-05T09:09:06Z</time>
      </trkpt>
      <trkpt lat="46.52967" lon="5.89829">
        <ele>892.6</ele>
        <time>2019-09-05T09:09:10Z</time>
      </trkpt>
      <trkpt lat="46.52971" lon="5.89829">
        <ele>892.4</ele>
        <time>2019-09-05T09:09:15Z</time>
      </trkpt>
      <trkpt lat="46.52977" lon="5.89829">
        <ele>892.2</ele>
        <time>2019-09-05T09:09:21Z</time>
      </trkpt>
      <trkpt lat="46.52981" lon="5.89824">
        <ele>892.3</ele>
        <time>2019-09-05T09:09:32Z</time>
      </trkpt>
      <trkpt lat="46.52984" lon="5.8982">
        <ele>892.8</ele>
        <time>2019-09-05T09:09:38Z</time>
      </trkpt>
      <trkpt lat="46.52988" lon="5.89815">
        <ele>893.5</ele>
        <time>2019-09-05T09:09:44Z</time>
      </trkpt>
      <trkpt lat="46.52993" lon="5.89811">
        <ele>894.4</ele>
        <time>2019-09-05T09:09:50Z</time>
      </trkpt>
      <trkpt lat="46.52996" lon="5.89806">
        <ele>895.7</ele>
        <time>2019-09-05T09:09:59Z</time>
      </trkpt>
      <trkpt lat="46.52999" lon="5.89801">
        <ele>896.3</ele>
        <time>2019-09-05T09:10:05Z</time>
      </trkpt>
      <trkpt lat="46.53003" lon="5.89796">
        <ele>896.9</ele>
        <time>2019-09-05T09:10:15Z</time>
      </trkpt>
      <trkpt lat="46.53007" lon="5.89793">
        <ele>897.2</ele>
        <time>2019-09-05T09:10:19Z</time>
      </trkpt>
      <trkpt lat="46.53013" lon="5.89792">
        <ele>897.6</ele>
        <time>2019-09-05T09:10:24Z</time>
      </trkpt>
      <trkpt lat="46.53018" lon="5.8979">
        <ele>897.6</ele>
        <time>2019-09-05T09:10:29Z</time>
      </trkpt>
      <trkpt lat="46.53023" lon="5.89789">
        <ele>897.3</ele>
        <time>2019-09-05T09:10:33Z</time>
      </trkpt>
      <trkpt lat="46.53028" lon="5.89788">
        <ele>896.8</ele>
        <time>2019-09-05T09:10:37Z</time>
      </trkpt>
      <trkpt lat="46.53034" lon="5.89791">
        <ele>896.1</ele>
        <time>2019-09-05T09:10:42Z</time>
      </trkpt>
      <trkpt lat="46.53039" lon="5.89795">
        <ele>895.4</ele>
        <time>2019-09-05T09:10:46Z</time>
      </trkpt>
      <trkpt lat="46.53043" lon="5.89798">
        <ele>894.8</ele>
        <time>2019-09-05T09:10:51Z</time>
      </trkpt>
      <trkpt lat="46.53048" lon="5.89801">
        <ele>894.4</ele>
        <time>2019-09-05T09:10:56Z</time>
      </trkpt>
      <trkpt lat="46.53052" lon="5.89806">
        <ele>894.1</ele>
        <time>2019-09-05T09:11:00Z</time>
      </trkpt>
      <trkpt lat="46.53057" lon="5.89811">
        <ele>893.6</ele>
        <time>2019-09-05T09:11:04Z</time>
      </trkpt>
      <trkpt lat="46.53061" lon="5.89814">
        <ele>893.1</ele>
        <time>2019-09-05T09:11:08Z</time>
      </trkpt>
      <trkpt lat="46.53066" lon="5.89815">
        <ele>892.6</ele>
        <time>2019-09-05T09:11:12Z</time>
      </trkpt>
      <trkpt lat="46.53071" lon="5.89815">
        <ele>892.2</ele>
        <time>2019-09-05T09:11:16Z</time>
      </trkpt>
      <trkpt lat="46.53076" lon="5.89813">
        <ele>891.8</ele>
        <time>2019-09-05T09:11:21Z</time>
      </trkpt>
      <trkpt lat="46.53082" lon="5.8981">
        <ele>891.6</ele>
        <time>2019-09-05T09:11:25Z</time>
      </trkpt>
      <trkpt lat="46.53086" lon="5.89807">
        <ele>891.2</ele>
        <time>2019-09-05T09:11:29Z</time>
      </trkpt>
      <trkpt lat="46.53089" lon="5.89801">
        <ele>890.7</ele>
        <time>2019-09-05T09:11:36Z</time>
      </trkpt>
      <trkpt lat="46.53093" lon="5.89797">
        <ele>890.4</ele>
        <time>2019-09-05T09:11:41Z</time>
      </trkpt>
      <trkpt lat="46.53098" lon="5.89794">
        <ele>890.4</ele>
        <time>2019-09-05T09:11:45Z</time>
      </trkpt>
      <trkpt lat="46.53103" lon="5.89791">
        <ele>890.5</ele>
        <time>2019-09-05T09:11:49Z</time>
      </trkpt>
      <trkpt lat="46.53107" lon="5.89788">
        <ele>890.7</ele>
        <time>2019-09-05T09:11:52Z</time>
      </trkpt>
      <trkpt lat="46.53112" lon="5.89786">
        <ele>890.8</ele>
        <time>2019-09-05T09:11:57Z</time>
      </trkpt>
      <trkpt lat="46.53118" lon="5.89786">
        <ele>890.8</ele>
        <time>2019-09-05T09:12:01Z</time>
      </trkpt>
      <trkpt lat="46.53124" lon="5.89787">
        <ele>890.8</ele>
        <time>2019-09-05T09:12:05Z</time>
      </trkpt>
      <trkpt lat="46.53129" lon="5.89786">
        <ele>890.2</ele>
        <time>2019-09-05T09:12:10Z</time>
      </trkpt>
      <trkpt lat="46.53134" lon="5.89785">
        <ele>889.8</ele>
        <time>2019-09-05T09:12:14Z</time>
      </trkpt>
      <trkpt lat="46.5314" lon="5.89783">
        <ele>889.3</ele>
        <time>2019-09-05T09:12:18Z</time>
      </trkpt>
      <trkpt lat="46.53144" lon="5.89778">
        <ele>888.9</ele>
        <time>2019-09-05T09:12:25Z</time>
      </trkpt>
      <trkpt lat="46.53147" lon="5.89772">
        <ele>888.8</ele>
        <time>2019-09-05T09:12:31Z</time>
      </trkpt>
      <trkpt lat="46.53151" lon="5.89767">
        <ele>889</ele>
        <time>2019-09-05T09:12:35Z</time>
      </trkpt>
      <trkpt lat="46.53154" lon="5.8976">
        <ele>889.2</ele>
        <time>2019-09-05T09:12:40Z</time>
      </trkpt>
      <trkpt lat="46.53157" lon="5.89755">
        <ele>889.3</ele>
        <time>2019-09-05T09:12:44Z</time>
      </trkpt>
      <trkpt lat="46.5316" lon="5.89747">
        <ele>889.4</ele>
        <time>2019-09-05T09:12:49Z</time>
      </trkpt>
      <trkpt lat="46.53164" lon="5.89741">
        <ele>889.5</ele>
        <time>2019-09-05T09:12:54Z</time>
      </trkpt>
      <trkpt lat="46.53166" lon="5.89734">
        <ele>889.5</ele>
        <time>2019-09-05T09:12:58Z</time>
      </trkpt>
      <trkpt lat="46.53169" lon="5.89727">
        <ele>889.4</ele>
        <time>2019-09-05T09:13:02Z</time>
      </trkpt>
      <trkpt lat="46.53172" lon="5.89721">
        <ele>889.2</ele>
        <time>2019-09-05T09:13:06Z</time>
      </trkpt>
      <trkpt lat="46.53174" lon="5.89715">
        <ele>889</ele>
        <time>2019-09-05T09:13:11Z</time>
      </trkpt>
      <trkpt lat="46.53176" lon="5.89707">
        <ele>888.7</ele>
        <time>2019-09-05T09:13:16Z</time>
      </trkpt>
      <trkpt lat="46.53178" lon="5.89701">
        <ele>888.4</ele>
        <time>2019-09-05T09:13:20Z</time>
      </trkpt>
      <trkpt lat="46.53181" lon="5.89695">
        <ele>888.2</ele>
        <time>2019-09-05T09:13:24Z</time>
      </trkpt>
      <trkpt lat="46.53185" lon="5.89689">
        <ele>888.2</ele>
        <time>2019-09-05T09:13:28Z</time>
      </trkpt>
      <trkpt lat="46.53189" lon="5.89685">
        <ele>888.2</ele>
        <time>2019-09-05T09:13:32Z</time>
      </trkpt>
      <trkpt lat="46.53194" lon="5.89683">
        <ele>888.2</ele>
        <time>2019-09-05T09:13:36Z</time>
      </trkpt>
      <trkpt lat="46.53199" lon="5.8968">
        <ele>888.1</ele>
        <time>2019-09-05T09:13:40Z</time>
      </trkpt>
      <trkpt lat="46.53204" lon="5.89678">
        <ele>887.9</ele>
        <time>2019-09-05T09:13:43Z</time>
      </trkpt>
      <trkpt lat="46.53209" lon="5.89676">
        <ele>887.5</ele>
        <time>2019-09-05T09:13:46Z</time>
      </trkpt>
      <trkpt lat="46.53213" lon="5.89676">
        <ele>887</ele>
        <time>2019-09-05T09:13:49Z</time>
      </trkpt>
      <trkpt lat="46.53219" lon="5.89677">
        <ele>886.4</ele>
        <time>2019-09-05T09:13:53Z</time>
      </trkpt>
      <trkpt lat="46.53224" lon="5.89676">
        <ele>885.7</ele>
        <time>2019-09-05T09:13:58Z</time>
      </trkpt>
      <trkpt lat="46.53229" lon="5.89676">
        <ele>885.2</ele>
        <time>2019-09-05T09:14:02Z</time>
      </trkpt>
      <trkpt lat="46.53235" lon="5.89677">
        <ele>884.8</ele>
        <time>2019-09-05T09:14:06Z</time>
      </trkpt>
      <trkpt lat="46.53239" lon="5.89678">
        <ele>884.6</ele>
        <time>2019-09-05T09:14:10Z</time>
      </trkpt>
      <trkpt lat="46.53245" lon="5.8968">
        <ele>884.3</ele>
        <time>2019-09-05T09:14:15Z</time>
      </trkpt>
      <trkpt lat="46.53249" lon="5.89682">
        <ele>884.2</ele>
        <time>2019-09-05T09:14:19Z</time>
      </trkpt>
      <trkpt lat="46.53254" lon="5.89684">
        <ele>884</ele>
        <time>2019-09-05T09:14:24Z</time>
      </trkpt>
      <trkpt lat="46.53258" lon="5.89684">
        <ele>883.9</ele>
        <time>2019-09-05T09:14:28Z</time>
      </trkpt>
      <trkpt lat="46.53264" lon="5.89686">
        <ele>883.7</ele>
        <time>2019-09-05T09:14:31Z</time>
      </trkpt>
      <trkpt lat="46.53268" lon="5.89687">
        <ele>883.2</ele>
        <time>2019-09-05T09:14:35Z</time>
      </trkpt>
      <trkpt lat="46.53273" lon="5.89688">
        <ele>882.6</ele>
        <time>2019-09-05T09:14:40Z</time>
      </trkpt>
      <trkpt lat="46.53278" lon="5.89689">
        <ele>882.2</ele>
        <time>2019-09-05T09:14:44Z</time>
      </trkpt>
      <trkpt lat="46.53283" lon="5.8969">
        <ele>881.7</ele>
        <time>2019-09-05T09:14:48Z</time>
      </trkpt>
      <trkpt lat="46.53289" lon="5.89691">
        <ele>881.2</ele>
        <time>2019-09-05T09:14:52Z</time>
      </trkpt>
      <trkpt lat="46.53294" lon="5.89692">
        <ele>880.6</ele>
        <time>2019-09-05T09:14:56Z</time>
      </trkpt>
      <trkpt lat="46.53299" lon="5.8969">
        <ele>879.9</ele>
        <time>2019-09-05T09:15:00Z</time>
      </trkpt>
      <trkpt lat="46.53303" lon="5.89687">
        <ele>879.2</ele>
        <time>2019-09-05T09:15:05Z</time>
      </trkpt>
      <trkpt lat="46.53307" lon="5.89682">
        <ele>878.6</ele>
        <time>2019-09-05T09:15:10Z</time>
      </trkpt>
      <trkpt lat="46.5331" lon="5.89676">
        <ele>878.4</ele>
        <time>2019-09-05T09:15:17Z</time>
      </trkpt>
      <trkpt lat="46.53312" lon="5.8967">
        <ele>878.5</ele>
        <time>2019-09-05T09:15:21Z</time>
      </trkpt>
      <trkpt lat="46.53315" lon="5.89664">
        <ele>878.7</ele>
        <time>2019-09-05T09:15:25Z</time>
      </trkpt>
      <trkpt lat="46.53317" lon="5.89658">
        <ele>879</ele>
        <time>2019-09-05T09:15:29Z</time>
      </trkpt>
      <trkpt lat="46.5332" lon="5.89652">
        <ele>879.4</ele>
        <time>2019-09-05T09:15:34Z</time>
      </trkpt>
      <trkpt lat="46.53323" lon="5.89646">
        <ele>879.6</ele>
        <time>2019-09-05T09:15:38Z</time>
      </trkpt>
      <trkpt lat="46.53325" lon="5.89639">
        <ele>879.9</ele>
        <time>2019-09-05T09:15:43Z</time>
      </trkpt>
      <trkpt lat="46.53328" lon="5.89634">
        <ele>879.8</ele>
        <time>2019-09-05T09:15:47Z</time>
      </trkpt>
      <trkpt lat="46.53332" lon="5.89629">
        <ele>879.8</ele>
        <time>2019-09-05T09:15:51Z</time>
      </trkpt>
      <trkpt lat="46.53335" lon="5.89623">
        <ele>879.8</ele>
        <time>2019-09-05T09:15:56Z</time>
      </trkpt>
      <trkpt lat="46.53338" lon="5.89617">
        <ele>879.7</ele>
        <time>2019-09-05T09:16:01Z</time>
      </trkpt>
      <trkpt lat="46.53341" lon="5.89612">
        <ele>879.7</ele>
        <time>2019-09-05T09:16:05Z</time>
      </trkpt>
      <trkpt lat="46.53344" lon="5.89606">
        <ele>879.6</ele>
        <time>2019-09-05T09:16:09Z</time>
      </trkpt>
      <trkpt lat="46.53346" lon="5.896">
        <ele>879.6</ele>
        <time>2019-09-05T09:16:14Z</time>
      </trkpt>
      <trkpt lat="46.53349" lon="5.89594">
        <ele>879.7</ele>
        <time>2019-09-05T09:16:18Z</time>
      </trkpt>
      <trkpt lat="46.53351" lon="5.89589">
        <ele>880</ele>
        <time>2019-09-05T09:16:22Z</time>
      </trkpt>
      <trkpt lat="46.53354" lon="5.89583">
        <ele>880.3</ele>
        <time>2019-09-05T09:16:27Z</time>
      </trkpt>
      <trkpt lat="46.53358" lon="5.89578">
        <ele>880.7</ele>
        <time>2019-09-05T09:16:31Z</time>
      </trkpt>
      <trkpt lat="46.53362" lon="5.89574">
        <ele>880.9</ele>
        <time>2019-09-05T09:16:36Z</time>
      </trkpt>
      <trkpt lat="46.53365" lon="5.89569">
        <ele>881</ele>
        <time>2019-09-05T09:16:40Z</time>
      </trkpt>
      <trkpt lat="46.53369" lon="5.89562">
        <ele>881.4</ele>
        <time>2019-09-05T09:16:44Z</time>
      </trkpt>
      <trkpt lat="46.53372" lon="5.89556">
        <ele>882</ele>
        <time>2019-09-05T09:16:49Z</time>
      </trkpt>
      <trkpt lat="46.53375" lon="5.8955">
        <ele>882.4</ele>
        <time>2019-09-05T09:16:53Z</time>
      </trkpt>
      <trkpt lat="46.53378" lon="5.89543">
        <ele>882.7</ele>
        <time>2019-09-05T09:16:58Z</time>
      </trkpt>
      <trkpt lat="46.5338" lon="5.89536">
        <ele>883</ele>
        <time>2019-09-05T09:17:02Z</time>
      </trkpt>
      <trkpt lat="46.53382" lon="5.89529">
        <ele>883.3</ele>
        <time>2019-09-05T09:17:07Z</time>
      </trkpt>
      <trkpt lat="46.53386" lon="5.89523">
        <ele>883.4</ele>
        <time>2019-09-05T09:17:12Z</time>
      </trkpt>
      <trkpt lat="46.53389" lon="5.89517">
        <ele>883.6</ele>
        <time>2019-09-05T09:17:18Z</time>
      </trkpt>
      <trkpt lat="46.53394" lon="5.89512">
        <ele>883.9</ele>
        <time>2019-09-05T09:17:23Z</time>
      </trkpt>
      <trkpt lat="46.53398" lon="5.89508">
        <ele>884.1</ele>
        <time>2019-09-05T09:17:26Z</time>
      </trkpt>
      <trkpt lat="46.53402" lon="5.89503">
        <ele>884.3</ele>
        <time>2019-09-05T09:17:30Z</time>
      </trkpt>
      <trkpt lat="46.53406" lon="5.895">
        <ele>884.4</ele>
        <time>2019-09-05T09:17:34Z</time>
      </trkpt>
      <trkpt lat="46.5341" lon="5.89495">
        <ele>884.1</ele>
        <time>2019-09-05T09:17:39Z</time>
      </trkpt>
      <trkpt lat="46.53414" lon="5.8949">
        <ele>884</ele>
        <time>2019-09-05T09:17:43Z</time>
      </trkpt>
      <trkpt lat="46.53418" lon="5.89486">
        <ele>884.1</ele>
        <time>2019-09-05T09:17:48Z</time>
      </trkpt>
      <trkpt lat="46.53422" lon="5.89482">
        <ele>884.5</ele>
        <time>2019-09-05T09:17:53Z</time>
      </trkpt>
      <trkpt lat="46.53427" lon="5.89478">
        <ele>885.1</ele>
        <time>2019-09-05T09:17:58Z</time>
      </trkpt>
      <trkpt lat="46.53431" lon="5.89474">
        <ele>885.5</ele>
        <time>2019-09-05T09:18:03Z</time>
      </trkpt>
      <trkpt lat="46.53434" lon="5.8947">
        <ele>885.5</ele>
        <time>2019-09-05T09:18:07Z</time>
      </trkpt>
      <trkpt lat="46.53438" lon="5.89467">
        <ele>885.4</ele>
        <time>2019-09-05T09:18:11Z</time>
      </trkpt>
      <trkpt lat="46.53443" lon="5.89465">
        <ele>885</ele>
        <time>2019-09-05T09:18:16Z</time>
      </trkpt>
      <trkpt lat="46.53447" lon="5.8946">
        <ele>884.5</ele>
        <time>2019-09-05T09:18:21Z</time>
      </trkpt>
      <trkpt lat="46.53451" lon="5.89454">
        <ele>884.2</ele>
        <time>2019-09-05T09:18:25Z</time>
      </trkpt>
      <trkpt lat="46.53454" lon="5.89448">
        <ele>883.9</ele>
        <time>2019-09-05T09:18:30Z</time>
      </trkpt>
      <trkpt lat="46.53454" lon="5.89441">
        <ele>883.7</ele>
        <time>2019-09-05T09:18:34Z</time>
      </trkpt>
      <trkpt lat="46.53454" lon="5.89433">
        <ele>883.6</ele>
        <time>2019-09-05T09:18:38Z</time>
      </trkpt>
      <trkpt lat="46.53452" lon="5.89425">
        <ele>883.4</ele>
        <time>2019-09-05T09:18:42Z</time>
      </trkpt>
      <trkpt lat="46.53452" lon="5.89417">
        <ele>882.9</ele>
        <time>2019-09-05T09:18:46Z</time>
      </trkpt>
      <trkpt lat="46.5345" lon="5.89409">
        <ele>882.5</ele>
        <time>2019-09-05T09:18:50Z</time>
      </trkpt>
      <trkpt lat="46.53448" lon="5.89401">
        <ele>882</ele>
        <time>2019-09-05T09:18:55Z</time>
      </trkpt>
      <trkpt lat="46.53446" lon="5.89394">
        <ele>881.8</ele>
        <time>2019-09-05T09:18:59Z</time>
      </trkpt>
      <trkpt lat="46.53445" lon="5.89387">
        <ele>881.6</ele>
        <time>2019-09-05T09:19:03Z</time>
      </trkpt>
      <trkpt lat="46.53445" lon="5.89379">
        <ele>881.5</ele>
        <time>2019-09-05T09:19:08Z</time>
      </trkpt>
      <trkpt lat="46.53443" lon="5.89372">
        <ele>881.5</ele>
        <time>2019-09-05T09:19:13Z</time>
      </trkpt>
      <trkpt lat="46.53441" lon="5.89366">
        <ele>881.3</ele>
        <time>2019-09-05T09:19:18Z</time>
      </trkpt>
      <trkpt lat="46.53441" lon="5.89359">
        <ele>881.1</ele>
        <time>2019-09-05T09:19:22Z</time>
      </trkpt>
      <trkpt lat="46.53441" lon="5.89352">
        <ele>881.2</ele>
        <time>2019-09-05T09:19:27Z</time>
      </trkpt>
      <trkpt lat="46.53442" lon="5.89344">
        <ele>881.2</ele>
        <time>2019-09-05T09:19:32Z</time>
      </trkpt>
      <trkpt lat="46.53444" lon="5.89337">
        <ele>881.4</ele>
        <time>2019-09-05T09:19:36Z</time>
      </trkpt>
      <trkpt lat="46.53446" lon="5.89332">
        <ele>881.6</ele>
        <time>2019-09-05T09:19:40Z</time>
      </trkpt>
      <trkpt lat="46.53449" lon="5.89325">
        <ele>882.1</ele>
        <time>2019-09-05T09:19:44Z</time>
      </trkpt>
      <trkpt lat="46.5345" lon="5.89318">
        <ele>882.8</ele>
        <time>2019-09-05T09:19:48Z</time>
      </trkpt>
      <trkpt lat="46.53452" lon="5.89312">
        <ele>883.6</ele>
        <time>2019-09-05T09:19:52Z</time>
      </trkpt>
      <trkpt lat="46.53453" lon="5.89305">
        <ele>884.4</ele>
        <time>2019-09-05T09:19:56Z</time>
      </trkpt>
      <trkpt lat="46.53453" lon="5.89297">
        <ele>884.9</ele>
        <time>2019-09-05T09:20:00Z</time>
      </trkpt>
      <trkpt lat="46.53452" lon="5.8929">
        <ele>885.1</ele>
        <time>2019-09-05T09:20:05Z</time>
      </trkpt>
      <trkpt lat="46.5345" lon="5.89283">
        <ele>884.7</ele>
        <time>2019-09-05T09:20:10Z</time>
      </trkpt>
      <trkpt lat="46.53448" lon="5.89275">
        <ele>884.2</ele>
        <time>2019-09-05T09:20:14Z</time>
      </trkpt>
      <trkpt lat="46.53447" lon="5.89268">
        <ele>883.7</ele>
        <time>2019-09-05T09:20:18Z</time>
      </trkpt>
      <trkpt lat="46.53447" lon="5.8926">
        <ele>882.9</ele>
        <time>2019-09-05T09:20:23Z</time>
      </trkpt>
      <trkpt lat="46.53447" lon="5.89253">
        <ele>882.2</ele>
        <time>2019-09-05T09:20:27Z</time>
      </trkpt>
      <trkpt lat="46.53448" lon="5.89246">
        <ele>881.8</ele>
        <time>2019-09-05T09:20:32Z</time>
      </trkpt>
      <trkpt lat="46.53449" lon="5.8924">
        <ele>881.8</ele>
        <time>2019-09-05T09:20:37Z</time>
      </trkpt>
      <trkpt lat="46.53451" lon="5.89234">
        <ele>882.7</ele>
        <time>2019-09-05T09:20:43Z</time>
      </trkpt>
      <trkpt lat="46.53451" lon="5.89226">
        <ele>884.2</ele>
        <time>2019-09-05T09:20:50Z</time>
      </trkpt>
      <trkpt lat="46.53451" lon="5.89218">
        <ele>885.8</ele>
        <time>2019-09-05T09:20:57Z</time>
      </trkpt>
      <trkpt lat="46.53451" lon="5.89211">
        <ele>886.8</ele>
        <time>2019-09-05T09:21:02Z</time>
      </trkpt>
      <trkpt lat="46.53452" lon="5.89204">
        <ele>887.4</ele>
        <time>2019-09-05T09:21:07Z</time>
      </trkpt>
      <trkpt lat="46.53454" lon="5.89197">
        <ele>887.9</ele>
        <time>2019-09-05T09:21:12Z</time>
      </trkpt>
      <trkpt lat="46.53456" lon="5.89191">
        <ele>888.4</ele>
        <time>2019-09-05T09:21:17Z</time>
      </trkpt>
      <trkpt lat="46.53457" lon="5.89184">
        <ele>888.7</ele>
        <time>2019-09-05T09:21:21Z</time>
      </trkpt>
      <trkpt lat="46.53459" lon="5.89178">
        <ele>889</ele>
        <time>2019-09-05T09:21:25Z</time>
      </trkpt>
      <trkpt lat="46.53461" lon="5.89171">
        <ele>889.6</ele>
        <time>2019-09-05T09:21:30Z</time>
      </trkpt>
      <trkpt lat="46.53463" lon="5.89163">
        <ele>890.2</ele>
        <time>2019-09-05T09:21:34Z</time>
      </trkpt>
      <trkpt lat="46.53466" lon="5.89157">
        <ele>890.7</ele>
        <time>2019-09-05T09:21:38Z</time>
      </trkpt>
      <trkpt lat="46.53469" lon="5.89151">
        <ele>891.1</ele>
        <time>2019-09-05T09:21:42Z</time>
      </trkpt>
      <trkpt lat="46.53473" lon="5.89145">
        <ele>891.5</ele>
        <time>2019-09-05T09:21:46Z</time>
      </trkpt>
      <trkpt lat="46.53477" lon="5.89141">
        <ele>891.8</ele>
        <time>2019-09-05T09:21:50Z</time>
      </trkpt>
      <trkpt lat="46.53481" lon="5.89137">
        <ele>892</ele>
        <time>2019-09-05T09:21:53Z</time>
      </trkpt>
      <trkpt lat="46.53486" lon="5.89133">
        <ele>892.3</ele>
        <time>2019-09-05T09:21:57Z</time>
      </trkpt>
      <trkpt lat="46.5349" lon="5.8913">
        <ele>892.7</ele>
        <time>2019-09-05T09:22:01Z</time>
      </trkpt>
      <trkpt lat="46.53495" lon="5.89127">
        <ele>893</ele>
        <time>2019-09-05T09:22:06Z</time>
      </trkpt>
      <trkpt lat="46.53499" lon="5.89125">
        <ele>893.3</ele>
        <time>2019-09-05T09:22:11Z</time>
      </trkpt>
      <trkpt lat="46.53504" lon="5.89121">
        <ele>893.4</ele>
        <time>2019-09-05T09:22:17Z</time>
      </trkpt>
      <trkpt lat="46.53508" lon="5.89117">
        <ele>893.6</ele>
        <time>2019-09-05T09:22:23Z</time>
      </trkpt>
      <trkpt lat="46.53512" lon="5.89112">
        <ele>893.6</ele>
        <time>2019-09-05T09:22:28Z</time>
      </trkpt>
      <trkpt lat="46.53515" lon="5.89106">
        <ele>893.5</ele>
        <time>2019-09-05T09:22:32Z</time>
      </trkpt>
      <trkpt lat="46.53517" lon="5.891">
        <ele>893.4</ele>
        <time>2019-09-05T09:22:37Z</time>
      </trkpt>
      <trkpt lat="46.53517" lon="5.89093">
        <ele>893.2</ele>
        <time>2019-09-05T09:22:41Z</time>
      </trkpt>
      <trkpt lat="46.53514" lon="5.89087">
        <ele>892.9</ele>
        <time>2019-09-05T09:22:46Z</time>
      </trkpt>
      <trkpt lat="46.5351" lon="5.89082">
        <ele>892.8</ele>
        <time>2019-09-05T09:22:51Z</time>
      </trkpt>
      <trkpt lat="46.53507" lon="5.89076">
        <ele>893.2</ele>
        <time>2019-09-05T09:22:57Z</time>
      </trkpt>
      <trkpt lat="46.53503" lon="5.89071">
        <ele>893.5</ele>
        <time>2019-09-05T09:23:01Z</time>
      </trkpt>
      <trkpt lat="46.53499" lon="5.89066">
        <ele>893.6</ele>
        <time>2019-09-05T09:23:06Z</time>
      </trkpt>
      <trkpt lat="46.53495" lon="5.89061">
        <ele>893.5</ele>
        <time>2019-09-05T09:23:10Z</time>
      </trkpt>
      <trkpt lat="46.53492" lon="5.89056">
        <ele>893.4</ele>
        <time>2019-09-05T09:23:14Z</time>
      </trkpt>
      <trkpt lat="46.53491" lon="5.8905">
        <ele>893</ele>
        <time>2019-09-05T09:23:19Z</time>
      </trkpt>
      <trkpt lat="46.53489" lon="5.89043">
        <ele>892.5</ele>
        <time>2019-09-05T09:23:24Z</time>
      </trkpt>
      <trkpt lat="46.53489" lon="5.89035">
        <ele>892</ele>
        <time>2019-09-05T09:23:28Z</time>
      </trkpt>
      <trkpt lat="46.53487" lon="5.89028">
        <ele>891.5</ele>
        <time>2019-09-05T09:23:33Z</time>
      </trkpt>
      <trkpt lat="46.53485" lon="5.89022">
        <ele>891.6</ele>
        <time>2019-09-05T09:23:37Z</time>
      </trkpt>
      <trkpt lat="46.53483" lon="5.89016">
        <ele>891.9</ele>
        <time>2019-09-05T09:23:42Z</time>
      </trkpt>
      <trkpt lat="46.53481" lon="5.8901">
        <ele>892.3</ele>
        <time>2019-09-05T09:23:46Z</time>
      </trkpt>
      <trkpt lat="46.5348" lon="5.89003">
        <ele>892.6</ele>
        <time>2019-09-05T09:23:52Z</time>
      </trkpt>
      <trkpt lat="46.53478" lon="5.88996">
        <ele>892.2</ele>
        <time>2019-09-05T09:23:58Z</time>
      </trkpt>
      <trkpt lat="46.53478" lon="5.88988">
        <ele>891.9</ele>
        <time>2019-09-05T09:24:02Z</time>
      </trkpt>
      <trkpt lat="46.53478" lon="5.88981">
        <ele>891.7</ele>
        <time>2019-09-05T09:24:06Z</time>
      </trkpt>
      <trkpt lat="46.53478" lon="5.88974">
        <ele>891.7</ele>
        <time>2019-09-05T09:24:11Z</time>
      </trkpt>
      <trkpt lat="46.53478" lon="5.88966">
        <ele>892</ele>
        <time>2019-09-05T09:24:16Z</time>
      </trkpt>
      <trkpt lat="46.5348" lon="5.8896">
        <ele>892.3</ele>
        <time>2019-09-05T09:24:20Z</time>
      </trkpt>
      <trkpt lat="46.53482" lon="5.88954">
        <ele>892.5</ele>
        <time>2019-09-05T09:24:25Z</time>
      </trkpt>
      <trkpt lat="46.53485" lon="5.88948">
        <ele>892.6</ele>
        <time>2019-09-05T09:24:30Z</time>
      </trkpt>
      <trkpt lat="46.53491" lon="5.88945">
        <ele>892.7</ele>
        <time>2019-09-05T09:24:35Z</time>
      </trkpt>
      <trkpt lat="46.53496" lon="5.88944">
        <ele>892.9</ele>
        <time>2019-09-05T09:24:39Z</time>
      </trkpt>
      <trkpt lat="46.53501" lon="5.88942">
        <ele>893.4</ele>
        <time>2019-09-05T09:24:44Z</time>
      </trkpt>
      <trkpt lat="46.53506" lon="5.88938">
        <ele>893.6</ele>
        <time>2019-09-05T09:24:48Z</time>
      </trkpt>
      <trkpt lat="46.53511" lon="5.88935">
        <ele>893.8</ele>
        <time>2019-09-05T09:24:52Z</time>
      </trkpt>
      <trkpt lat="46.53515" lon="5.88931">
        <ele>893.8</ele>
        <time>2019-09-05T09:24:56Z</time>
      </trkpt>
      <trkpt lat="46.5352" lon="5.88928">
        <ele>893.8</ele>
        <time>2019-09-05T09:25:00Z</time>
      </trkpt>
      <trkpt lat="46.53523" lon="5.88924">
        <ele>893.7</ele>
        <time>2019-09-05T09:25:05Z</time>
      </trkpt>
      <trkpt lat="46.53528" lon="5.8892">
        <ele>894.2</ele>
        <time>2019-09-05T09:25:11Z</time>
      </trkpt>
      <trkpt lat="46.53532" lon="5.88915">
        <ele>895.2</ele>
        <time>2019-09-05T09:25:17Z</time>
      </trkpt>
      <trkpt lat="46.53534" lon="5.88909">
        <ele>896.6</ele>
        <time>2019-09-05T09:25:22Z</time>
      </trkpt>
      <trkpt lat="46.53539" lon="5.88909">
        <ele>898.3</ele>
        <time>2019-09-05T09:25:30Z</time>
      </trkpt>
      <trkpt lat="46.53543" lon="5.88911">
        <ele>898.5</ele>
        <time>2019-09-05T09:25:36Z</time>
      </trkpt>
      <trkpt lat="46.53548" lon="5.88915">
        <ele>898.3</ele>
        <time>2019-09-05T09:25:40Z</time>
      </trkpt>
      <trkpt lat="46.53552" lon="5.88919">
        <ele>897.8</ele>
        <time>2019-09-05T09:25:45Z</time>
      </trkpt>
      <trkpt lat="46.53555" lon="5.88924">
        <ele>897.4</ele>
        <time>2019-09-05T09:25:50Z</time>
      </trkpt>
      <trkpt lat="46.53559" lon="5.88928">
        <ele>897.3</ele>
        <time>2019-09-05T09:25:55Z</time>
      </trkpt>
      <trkpt lat="46.53564" lon="5.88932">
        <ele>897.2</ele>
        <time>2019-09-05T09:26:00Z</time>
      </trkpt>
      <trkpt lat="46.53568" lon="5.88937">
        <ele>897.2</ele>
        <time>2019-09-05T09:26:05Z</time>
      </trkpt>
      <trkpt lat="46.53572" lon="5.88942">
        <ele>897.3</ele>
        <time>2019-09-05T09:26:09Z</time>
      </trkpt>
      <trkpt lat="46.53576" lon="5.88947">
        <ele>897.3</ele>
        <time>2019-09-05T09:26:13Z</time>
      </trkpt>
      <trkpt lat="46.53581" lon="5.88953">
        <ele>897.2</ele>
        <time>2019-09-05T09:26:18Z</time>
      </trkpt>
      <trkpt lat="46.53584" lon="5.88957">
        <ele>897.1</ele>
        <time>2019-09-05T09:26:22Z</time>
      </trkpt>
      <trkpt lat="46.53588" lon="5.88961">
        <ele>896.9</ele>
        <time>2019-09-05T09:26:26Z</time>
      </trkpt>
      <trkpt lat="46.53593" lon="5.88965">
        <ele>896.7</ele>
        <time>2019-09-05T09:26:30Z</time>
      </trkpt>
      <trkpt lat="46.53597" lon="5.88969">
        <ele>896.5</ele>
        <time>2019-09-05T09:26:34Z</time>
      </trkpt>
      <trkpt lat="46.53601" lon="5.88973">
        <ele>896.3</ele>
        <time>2019-09-05T09:26:39Z</time>
      </trkpt>
      <trkpt lat="46.53605" lon="5.88978">
        <ele>896.1</ele>
        <time>2019-09-05T09:26:44Z</time>
      </trkpt>
      <trkpt lat="46.53609" lon="5.88983">
        <ele>895.9</ele>
        <time>2019-09-05T09:26:49Z</time>
      </trkpt>
      <trkpt lat="46.53613" lon="5.88988">
        <ele>895.8</ele>
        <time>2019-09-05T09:26:53Z</time>
      </trkpt>
      <trkpt lat="46.53617" lon="5.88994">
        <ele>895.8</ele>
        <time>2019-09-05T09:26:58Z</time>
      </trkpt>
      <trkpt lat="46.53621" lon="5.88998">
        <ele>895.4</ele>
        <time>2019-09-05T09:27:03Z</time>
      </trkpt>
      <trkpt lat="46.53624" lon="5.89002">
        <ele>894.7</ele>
        <time>2019-09-05T09:27:08Z</time>
      </trkpt>
      <trkpt lat="46.53629" lon="5.89006">
        <ele>894.2</ele>
        <time>2019-09-05T09:27:12Z</time>
      </trkpt>
      <trkpt lat="46.53634" lon="5.89009">
        <ele>893.7</ele>
        <time>2019-09-05T09:27:16Z</time>
      </trkpt>
      <trkpt lat="46.53637" lon="5.89014">
        <ele>893.4</ele>
        <time>2019-09-05T09:27:21Z</time>
      </trkpt>
      <trkpt lat="46.5364" lon="5.89019">
        <ele>893.2</ele>
        <time>2019-09-05T09:27:26Z</time>
      </trkpt>
      <trkpt lat="46.53644" lon="5.89023">
        <ele>893</ele>
        <time>2019-09-05T09:27:30Z</time>
      </trkpt>
      <trkpt lat="46.53648" lon="5.89028">
        <ele>892.7</ele>
        <time>2019-09-05T09:27:35Z</time>
      </trkpt>
      <trkpt lat="46.53652" lon="5.89033">
        <ele>892.4</ele>
        <time>2019-09-05T09:27:40Z</time>
      </trkpt>
      <trkpt lat="46.53656" lon="5.89037">
        <ele>892.1</ele>
        <time>2019-09-05T09:27:44Z</time>
      </trkpt>
      <trkpt lat="46.5366" lon="5.89042">
        <ele>891.7</ele>
        <time>2019-09-05T09:27:48Z</time>
      </trkpt>
      <trkpt lat="46.53663" lon="5.89046">
        <ele>891.1</ele>
        <time>2019-09-05T09:27:53Z</time>
      </trkpt>
      <trkpt lat="46.53668" lon="5.8905">
        <ele>890.7</ele>
        <time>2019-09-05T09:27:58Z</time>
      </trkpt>
      <trkpt lat="46.53671" lon="5.89055">
        <ele>890.5</ele>
        <time>2019-09-05T09:28:02Z</time>
      </trkpt>
      <trkpt lat="46.53675" lon="5.89059">
        <ele>890.3</ele>
        <time>2019-09-05T09:28:06Z</time>
      </trkpt>
      <trkpt lat="46.53679" lon="5.89063">
        <ele>890.6</ele>
        <time>2019-09-05T09:28:11Z</time>
      </trkpt>
      <trkpt lat="46.53683" lon="5.89068">
        <ele>891.2</ele>
        <time>2019-09-05T09:28:17Z</time>
      </trkpt>
      <trkpt lat="46.53688" lon="5.8907">
        <ele>891.8</ele>
        <time>2019-09-05T09:28:21Z</time>
      </trkpt>
      <trkpt lat="46.53692" lon="5.89073">
        <ele>892.4</ele>
        <time>2019-09-05T09:28:28Z</time>
      </trkpt>
      <trkpt lat="46.53688" lon="5.89074">
        <ele>893.8</ele>
        <time>2019-09-05T09:29:39Z</time>
      </trkpt>
      <trkpt lat="46.53693" lon="5.89075">
        <ele>892.1</ele>
        <time>2019-09-05T09:29:59Z</time>
      </trkpt>
      <trkpt lat="46.53698" lon="5.89078">
        <ele>892.4</ele>
        <time>2019-09-05T09:30:02Z</time>
      </trkpt>
      <trkpt lat="46.53702" lon="5.89081">
        <ele>893.2</ele>
        <time>2019-09-05T09:30:08Z</time>
      </trkpt>
      <trkpt lat="46.53707" lon="5.89084">
        <ele>893.8</ele>
        <time>2019-09-05T09:30:13Z</time>
      </trkpt>
      <trkpt lat="46.53713" lon="5.89087">
        <ele>894.3</ele>
        <time>2019-09-05T09:30:17Z</time>
      </trkpt>
      <trkpt lat="46.53718" lon="5.89091">
        <ele>894.7</ele>
        <time>2019-09-05T09:30:21Z</time>
      </trkpt>
      <trkpt lat="46.53723" lon="5.89095">
        <ele>895</ele>
        <time>2019-09-05T09:30:25Z</time>
      </trkpt>
      <trkpt lat="46.53727" lon="5.891">
        <ele>895.1</ele>
        <time>2019-09-05T09:30:29Z</time>
      </trkpt>
      <trkpt lat="46.5373" lon="5.89105">
        <ele>895.1</ele>
        <time>2019-09-05T09:30:34Z</time>
      </trkpt>
      <trkpt lat="46.53733" lon="5.89109">
        <ele>895</ele>
        <time>2019-09-05T09:30:40Z</time>
      </trkpt>
      <trkpt lat="46.53738" lon="5.89114">
        <ele>895.1</ele>
        <time>2019-09-05T09:30:45Z</time>
      </trkpt>
      <trkpt lat="46.53742" lon="5.89117">
        <ele>895.1</ele>
        <time>2019-09-05T09:30:49Z</time>
      </trkpt>
      <trkpt lat="46.53747" lon="5.8912">
        <ele>894.9</ele>
        <time>2019-09-05T09:30:53Z</time>
      </trkpt>
      <trkpt lat="46.53751" lon="5.89123">
        <ele>894.7</ele>
        <time>2019-09-05T09:30:56Z</time>
      </trkpt>
      <trkpt lat="46.53756" lon="5.89127">
        <ele>894.5</ele>
        <time>2019-09-05T09:31:00Z</time>
      </trkpt>
      <trkpt lat="46.5376" lon="5.89131">
        <ele>894.2</ele>
        <time>2019-09-05T09:31:06Z</time>
      </trkpt>
      <trkpt lat="46.53764" lon="5.89136">
        <ele>894</ele>
        <time>2019-09-05T09:31:11Z</time>
      </trkpt>
      <trkpt lat="46.53768" lon="5.89141">
        <ele>893.9</ele>
        <time>2019-09-05T09:31:17Z</time>
      </trkpt>
      <trkpt lat="46.53773" lon="5.89144">
        <ele>894.1</ele>
        <time>2019-09-05T09:31:22Z</time>
      </trkpt>
      <trkpt lat="46.53777" lon="5.89148">
        <ele>894.5</ele>
        <time>2019-09-05T09:31:27Z</time>
      </trkpt>
      <trkpt lat="46.53782" lon="5.89151">
        <ele>894.6</ele>
        <time>2019-09-05T09:31:32Z</time>
      </trkpt>
      <trkpt lat="46.53786" lon="5.89156">
        <ele>894.5</ele>
        <time>2019-09-05T09:31:36Z</time>
      </trkpt>
      <trkpt lat="46.5379" lon="5.8916">
        <ele>894.4</ele>
        <time>2019-09-05T09:31:40Z</time>
      </trkpt>
      <trkpt lat="46.53795" lon="5.89162">
        <ele>894.4</ele>
        <time>2019-09-05T09:31:45Z</time>
      </trkpt>
      <trkpt lat="46.53799" lon="5.89164">
        <ele>894.3</ele>
        <time>2019-09-05T09:31:49Z</time>
      </trkpt>
      <trkpt lat="46.53804" lon="5.89167">
        <ele>894.1</ele>
        <time>2019-09-05T09:31:53Z</time>
      </trkpt>
      <trkpt lat="46.53808" lon="5.89169">
        <ele>893.8</ele>
        <time>2019-09-05T09:31:57Z</time>
      </trkpt>
      <trkpt lat="46.53814" lon="5.89171">
        <ele>893.5</ele>
        <time>2019-09-05T09:32:02Z</time>
      </trkpt>
      <trkpt lat="46.53818" lon="5.89175">
        <ele>893.4</ele>
        <time>2019-09-05T09:32:07Z</time>
      </trkpt>
      <trkpt lat="46.53822" lon="5.89179">
        <ele>893.3</ele>
        <time>2019-09-05T09:32:11Z</time>
      </trkpt>
      <trkpt lat="46.53826" lon="5.89183">
        <ele>893.1</ele>
        <time>2019-09-05T09:32:15Z</time>
      </trkpt>
      <trkpt lat="46.53829" lon="5.89189">
        <ele>892.8</ele>
        <time>2019-09-05T09:32:20Z</time>
      </trkpt>
      <trkpt lat="46.53833" lon="5.89194">
        <ele>892.8</ele>
        <time>2019-09-05T09:32:26Z</time>
      </trkpt>
      <trkpt lat="46.53837" lon="5.89199">
        <ele>892.8</ele>
        <time>2019-09-05T09:32:30Z</time>
      </trkpt>
      <trkpt lat="46.5384" lon="5.89203">
        <ele>892.9</ele>
        <time>2019-09-05T09:32:34Z</time>
      </trkpt>
      <trkpt lat="46.53845" lon="5.89209">
        <ele>893.1</ele>
        <time>2019-09-05T09:32:40Z</time>
      </trkpt>
      <trkpt lat="46.53849" lon="5.89214">
        <ele>893.2</ele>
        <time>2019-09-05T09:32:44Z</time>
      </trkpt>
      <trkpt lat="46.53852" lon="5.89219">
        <ele>893.4</ele>
        <time>2019-09-05T09:32:48Z</time>
      </trkpt>
      <trkpt lat="46.53856" lon="5.89223">
        <ele>893.4</ele>
        <time>2019-09-05T09:32:52Z</time>
      </trkpt>
      <trkpt lat="46.5386" lon="5.89228">
        <ele>893.3</ele>
        <time>2019-09-05T09:32:56Z</time>
      </trkpt>
      <trkpt lat="46.53862" lon="5.89233">
        <ele>893.1</ele>
        <time>2019-09-05T09:33:00Z</time>
      </trkpt>
      <trkpt lat="46.53865" lon="5.89238">
        <ele>892.9</ele>
        <time>2019-09-05T09:33:05Z</time>
      </trkpt>
      <trkpt lat="46.53869" lon="5.89244">
        <ele>892.4</ele>
        <time>2019-09-05T09:33:10Z</time>
      </trkpt>
      <trkpt lat="46.53873" lon="5.89249">
        <ele>891.7</ele>
        <time>2019-09-05T09:33:14Z</time>
      </trkpt>
      <trkpt lat="46.53876" lon="5.89254">
        <ele>891.1</ele>
        <time>2019-09-05T09:33:18Z</time>
      </trkpt>
      <trkpt lat="46.5388" lon="5.89259">
        <ele>890.3</ele>
        <time>2019-09-05T09:33:23Z</time>
      </trkpt>
      <trkpt lat="46.53883" lon="5.89263">
        <ele>889.5</ele>
        <time>2019-09-05T09:33:28Z</time>
      </trkpt>
      <trkpt lat="46.53887" lon="5.89268">
        <ele>889</ele>
        <time>2019-09-05T09:33:32Z</time>
      </trkpt>
      <trkpt lat="46.5389" lon="5.89273">
        <ele>888.4</ele>
        <time>2019-09-05T09:33:36Z</time>
      </trkpt>
      <trkpt lat="46.53893" lon="5.89279">
        <ele>888</ele>
        <time>2019-09-05T09:33:40Z</time>
      </trkpt>
      <trkpt lat="46.53897" lon="5.89283">
        <ele>887.7</ele>
        <time>2019-09-05T09:33:44Z</time>
      </trkpt>
      <trkpt lat="46.53901" lon="5.89288">
        <ele>887.6</ele>
        <time>2019-09-05T09:33:48Z</time>
      </trkpt>
      <trkpt lat="46.53905" lon="5.89292">
        <ele>887.2</ele>
        <time>2019-09-05T09:33:54Z</time>
      </trkpt>
      <trkpt lat="46.5391" lon="5.89294">
        <ele>886.8</ele>
        <time>2019-09-05T09:33:59Z</time>
      </trkpt>
      <trkpt lat="46.53913" lon="5.89299">
        <ele>886.4</ele>
        <time>2019-09-05T09:34:05Z</time>
      </trkpt>
      <trkpt lat="46.53918" lon="5.89302">
        <ele>886.2</ele>
        <time>2019-09-05T09:34:09Z</time>
      </trkpt>
      <trkpt lat="46.53923" lon="5.89304">
        <ele>886.1</ele>
        <time>2019-09-05T09:34:13Z</time>
      </trkpt>
      <trkpt lat="46.53928" lon="5.89307">
        <ele>886.1</ele>
        <time>2019-09-05T09:34:17Z</time>
      </trkpt>
      <trkpt lat="46.53933" lon="5.8931">
        <ele>885.9</ele>
        <time>2019-09-05T09:34:21Z</time>
      </trkpt>
      <trkpt lat="46.53937" lon="5.89311">
        <ele>885.3</ele>
        <time>2019-09-05T09:34:26Z</time>
      </trkpt>
      <trkpt lat="46.53942" lon="5.89314">
        <ele>884.9</ele>
        <time>2019-09-05T09:34:32Z</time>
      </trkpt>
      <trkpt lat="46.53947" lon="5.89317">
        <ele>884.8</ele>
        <time>2019-09-05T09:34:37Z</time>
      </trkpt>
      <trkpt lat="46.53951" lon="5.89319">
        <ele>884.8</ele>
        <time>2019-09-05T09:34:41Z</time>
      </trkpt>
      <trkpt lat="46.53957" lon="5.89323">
        <ele>884.8</ele>
        <time>2019-09-05T09:34:45Z</time>
      </trkpt>
      <trkpt lat="46.53961" lon="5.89325">
        <ele>885.1</ele>
        <time>2019-09-05T09:34:50Z</time>
      </trkpt>
      <trkpt lat="46.53966" lon="5.89326">
        <ele>885.5</ele>
        <time>2019-09-05T09:34:55Z</time>
      </trkpt>
      <trkpt lat="46.53971" lon="5.8933">
        <ele>886</ele>
        <time>2019-09-05T09:35:00Z</time>
      </trkpt>
      <trkpt lat="46.53975" lon="5.89335">
        <ele>886.3</ele>
        <time>2019-09-05T09:35:05Z</time>
      </trkpt>
      <trkpt lat="46.53979" lon="5.8934">
        <ele>886.6</ele>
        <time>2019-09-05T09:35:11Z</time>
      </trkpt>
      <trkpt lat="46.53983" lon="5.89344">
        <ele>886.8</ele>
        <time>2019-09-05T09:35:15Z</time>
      </trkpt>
      <trkpt lat="46.53988" lon="5.89347">
        <ele>886.9</ele>
        <time>2019-09-05T09:35:19Z</time>
      </trkpt>
      <trkpt lat="46.53992" lon="5.8935">
        <ele>887</ele>
        <time>2019-09-05T09:35:23Z</time>
      </trkpt>
      <trkpt lat="46.53996" lon="5.89355">
        <ele>887.1</ele>
        <time>2019-09-05T09:35:29Z</time>
      </trkpt>
      <trkpt lat="46.54" lon="5.89359">
        <ele>887.1</ele>
        <time>2019-09-05T09:35:34Z</time>
      </trkpt>
      <trkpt lat="46.54004" lon="5.89363">
        <ele>887.1</ele>
        <time>2019-09-05T09:35:38Z</time>
      </trkpt>
      <trkpt lat="46.54008" lon="5.89366">
        <ele>887</ele>
        <time>2019-09-05T09:35:42Z</time>
      </trkpt>
      <trkpt lat="46.54012" lon="5.8937">
        <ele>886.8</ele>
        <time>2019-09-05T09:35:47Z</time>
      </trkpt>
      <trkpt lat="46.54015" lon="5.89374">
        <ele>886.6</ele>
        <time>2019-09-05T09:35:51Z</time>
      </trkpt>
      <trkpt lat="46.54019" lon="5.89378">
        <ele>886.5</ele>
        <time>2019-09-05T09:35:55Z</time>
      </trkpt>
      <trkpt lat="46.54023" lon="5.89382">
        <ele>886.3</ele>
        <time>2019-09-05T09:35:59Z</time>
      </trkpt>
      <trkpt lat="46.54027" lon="5.89385">
        <ele>886.4</ele>
        <time>2019-09-05T09:36:03Z</time>
      </trkpt>
      <trkpt lat="46.54032" lon="5.89386">
        <ele>886.5</ele>
        <time>2019-09-05T09:36:07Z</time>
      </trkpt>
      <trkpt lat="46.54037" lon="5.89389">
        <ele>886.7</ele>
        <time>2019-09-05T09:36:12Z</time>
      </trkpt>
      <trkpt lat="46.54041" lon="5.89393">
        <ele>886.9</ele>
        <time>2019-09-05T09:36:17Z</time>
      </trkpt>
      <trkpt lat="46.54045" lon="5.89398">
        <ele>886.9</ele>
        <time>2019-09-05T09:36:22Z</time>
      </trkpt>
      <trkpt lat="46.54049" lon="5.89403">
        <ele>886.9</ele>
        <time>2019-09-05T09:36:28Z</time>
      </trkpt>
      <trkpt lat="46.54053" lon="5.89408">
        <ele>886.9</ele>
        <time>2019-09-05T09:36:33Z</time>
      </trkpt>
      <trkpt lat="46.54056" lon="5.89413">
        <ele>887</ele>
        <time>2019-09-05T09:36:37Z</time>
      </trkpt>
      <trkpt lat="46.5406" lon="5.89419">
        <ele>887</ele>
        <time>2019-09-05T09:36:42Z</time>
      </trkpt>
      <trkpt lat="46.54062" lon="5.89426">
        <ele>887</ele>
        <time>2019-09-05T09:36:47Z</time>
      </trkpt>
      <trkpt lat="46.54065" lon="5.89431">
        <ele>886.9</ele>
        <time>2019-09-05T09:36:52Z</time>
      </trkpt>
      <trkpt lat="46.54069" lon="5.89435">
        <ele>886.9</ele>
        <time>2019-09-05T09:36:56Z</time>
      </trkpt>
      <trkpt lat="46.54075" lon="5.89437">
        <ele>887</ele>
        <time>2019-09-05T09:37:01Z</time>
      </trkpt>
      <trkpt lat="46.54079" lon="5.8944">
        <ele>887</ele>
        <time>2019-09-05T09:37:06Z</time>
      </trkpt>
      <trkpt lat="46.54084" lon="5.89444">
        <ele>887</ele>
        <time>2019-09-05T09:37:10Z</time>
      </trkpt>
      <trkpt lat="46.54089" lon="5.89448">
        <ele>887</ele>
        <time>2019-09-05T09:37:14Z</time>
      </trkpt>
      <trkpt lat="46.54093" lon="5.89452">
        <ele>886.9</ele>
        <time>2019-09-05T09:37:18Z</time>
      </trkpt>
      <trkpt lat="46.54098" lon="5.89455">
        <ele>886.8</ele>
        <time>2019-09-05T09:37:23Z</time>
      </trkpt>
      <trkpt lat="46.54102" lon="5.89459">
        <ele>886.7</ele>
        <time>2019-09-05T09:37:27Z</time>
      </trkpt>
      <trkpt lat="46.54106" lon="5.89464">
        <ele>886.5</ele>
        <time>2019-09-05T09:37:31Z</time>
      </trkpt>
      <trkpt lat="46.54109" lon="5.89469">
        <ele>886.4</ele>
        <time>2019-09-05T09:37:35Z</time>
      </trkpt>
      <trkpt lat="46.54112" lon="5.89473">
        <ele>886.2</ele>
        <time>2019-09-05T09:37:39Z</time>
      </trkpt>
      <trkpt lat="46.54115" lon="5.8948">
        <ele>886</ele>
        <time>2019-09-05T09:37:44Z</time>
      </trkpt>
      <trkpt lat="46.54117" lon="5.89486">
        <ele>885.9</ele>
        <time>2019-09-05T09:37:48Z</time>
      </trkpt>
      <trkpt lat="46.54118" lon="5.89493">
        <ele>886</ele>
        <time>2019-09-05T09:37:54Z</time>
      </trkpt>
      <trkpt lat="46.54121" lon="5.89499">
        <ele>886</ele>
        <time>2019-09-05T09:37:59Z</time>
      </trkpt>
      <trkpt lat="46.54124" lon="5.89505">
        <ele>885.9</ele>
        <time>2019-09-05T09:38:05Z</time>
      </trkpt>
      <trkpt lat="46.54128" lon="5.89508">
        <ele>885.7</ele>
        <time>2019-09-05T09:38:10Z</time>
      </trkpt>
      <trkpt lat="46.54133" lon="5.8951">
        <ele>885.6</ele>
        <time>2019-09-05T09:38:14Z</time>
      </trkpt>
      <trkpt lat="46.54138" lon="5.89514">
        <ele>885.3</ele>
        <time>2019-09-05T09:38:18Z</time>
      </trkpt>
      <trkpt lat="46.54142" lon="5.89517">
        <ele>884.9</ele>
        <time>2019-09-05T09:38:22Z</time>
      </trkpt>
      <trkpt lat="46.54147" lon="5.89518">
        <ele>884.6</ele>
        <time>2019-09-05T09:38:26Z</time>
      </trkpt>
      <trkpt lat="46.54152" lon="5.8952">
        <ele>884.2</ele>
        <time>2019-09-05T09:38:30Z</time>
      </trkpt>
      <trkpt lat="46.54157" lon="5.89523">
        <ele>883.7</ele>
        <time>2019-09-05T09:38:34Z</time>
      </trkpt>
      <trkpt lat="46.54161" lon="5.89525">
        <ele>883.3</ele>
        <time>2019-09-05T09:38:38Z</time>
      </trkpt>
      <trkpt lat="46.54165" lon="5.8953">
        <ele>882.7</ele>
        <time>2019-09-05T09:38:44Z</time>
      </trkpt>
      <trkpt lat="46.54169" lon="5.89533">
        <ele>882.3</ele>
        <time>2019-09-05T09:38:49Z</time>
      </trkpt>
      <trkpt lat="46.54174" lon="5.89536">
        <ele>882</ele>
        <time>2019-09-05T09:38:54Z</time>
      </trkpt>
      <trkpt lat="46.54178" lon="5.89541">
        <ele>881.6</ele>
        <time>2019-09-05T09:38:59Z</time>
      </trkpt>
      <trkpt lat="46.54182" lon="5.89543">
        <ele>881.3</ele>
        <time>2019-09-05T09:39:03Z</time>
      </trkpt>
      <trkpt lat="46.54187" lon="5.89545">
        <ele>881.1</ele>
        <time>2019-09-05T09:39:07Z</time>
      </trkpt>
      <trkpt lat="46.54191" lon="5.89545">
        <ele>880.9</ele>
        <time>2019-09-05T09:39:13Z</time>
      </trkpt>
      <trkpt lat="46.54196" lon="5.89544">
        <ele>880.8</ele>
        <time>2019-09-05T09:39:20Z</time>
      </trkpt>
      <trkpt lat="46.54195" lon="5.89538">
        <ele>880.4</ele>
        <time>2019-09-05T09:39:38Z</time>
      </trkpt>
      <trkpt lat="46.54195" lon="5.8953">
        <ele>880.5</ele>
        <time>2019-09-05T09:39:44Z</time>
      </trkpt>
      <trkpt lat="46.54195" lon="5.89523">
        <ele>880.6</ele>
        <time>2019-09-05T09:39:50Z</time>
      </trkpt>
      <trkpt lat="46.54196" lon="5.89516">
        <ele>880.6</ele>
        <time>2019-09-05T09:39:54Z</time>
      </trkpt>
      <trkpt lat="46.54198" lon="5.89509">
        <ele>880.6</ele>
        <time>2019-09-05T09:39:59Z</time>
      </trkpt>
      <trkpt lat="46.542" lon="5.89503">
        <ele>880.5</ele>
        <time>2019-09-05T09:40:03Z</time>
      </trkpt>
      <trkpt lat="46.54201" lon="5.89496">
        <ele>880.4</ele>
        <time>2019-09-05T09:40:06Z</time>
      </trkpt>
      <trkpt lat="46.54203" lon="5.8949">
        <ele>880.1</ele>
        <time>2019-09-05T09:40:09Z</time>
      </trkpt>
      <trkpt lat="46.54204" lon="5.89482">
        <ele>879.6</ele>
        <time>2019-09-05T09:40:13Z</time>
      </trkpt>
      <trkpt lat="46.54205" lon="5.89476">
        <ele>878.7</ele>
        <time>2019-09-05T09:40:19Z</time>
      </trkpt>
      <trkpt lat="46.54207" lon="5.89469">
        <ele>878.1</ele>
        <time>2019-09-05T09:40:25Z</time>
      </trkpt>
      <trkpt lat="46.54209" lon="5.89462">
        <ele>877.6</ele>
        <time>2019-09-05T09:40:31Z</time>
      </trkpt>
      <trkpt lat="46.54212" lon="5.89456">
        <ele>877.1</ele>
        <time>2019-09-05T09:40:38Z</time>
      </trkpt>
      <trkpt lat="46.54214" lon="5.89448">
        <ele>876.9</ele>
        <time>2019-09-05T09:40:43Z</time>
      </trkpt>
      <trkpt lat="46.54216" lon="5.89441">
        <ele>876.6</ele>
        <time>2019-09-05T09:40:47Z</time>
      </trkpt>
      <trkpt lat="46.54217" lon="5.89433">
        <ele>876.4</ele>
        <time>2019-09-05T09:40:51Z</time>
      </trkpt>
      <trkpt lat="46.54218" lon="5.89425">
        <ele>876.1</ele>
        <time>2019-09-05T09:40:55Z</time>
      </trkpt>
      <trkpt lat="46.54219" lon="5.89418">
        <ele>875.9</ele>
        <time>2019-09-05T09:40:59Z</time>
      </trkpt>
      <trkpt lat="46.54221" lon="5.89412">
        <ele>875.7</ele>
        <time>2019-09-05T09:41:04Z</time>
      </trkpt>
      <trkpt lat="46.54222" lon="5.89405">
        <ele>875.9</ele>
        <time>2019-09-05T09:41:10Z</time>
      </trkpt>
      <trkpt lat="46.54222" lon="5.89397">
        <ele>876.2</ele>
        <time>2019-09-05T09:41:16Z</time>
      </trkpt>
      <trkpt lat="46.54224" lon="5.89391">
        <ele>876.7</ele>
        <time>2019-09-05T09:41:21Z</time>
      </trkpt>
      <trkpt lat="46.54227" lon="5.89383">
        <ele>877.1</ele>
        <time>2019-09-05T09:41:26Z</time>
      </trkpt>
      <trkpt lat="46.54229" lon="5.89377">
        <ele>877.4</ele>
        <time>2019-09-05T09:41:30Z</time>
      </trkpt>
      <trkpt lat="46.54231" lon="5.89371">
        <ele>877.6</ele>
        <time>2019-09-05T09:41:34Z</time>
      </trkpt>
      <trkpt lat="46.54233" lon="5.89364">
        <ele>877.7</ele>
        <time>2019-09-05T09:41:38Z</time>
      </trkpt>
      <trkpt lat="46.54235" lon="5.89357">
        <ele>877.6</ele>
        <time>2019-09-05T09:41:43Z</time>
      </trkpt>
      <trkpt lat="46.54237" lon="5.89349">
        <ele>877.4</ele>
        <time>2019-09-05T09:41:47Z</time>
      </trkpt>
      <trkpt lat="46.5424" lon="5.89342">
        <ele>877.2</ele>
        <time>2019-09-05T09:41:52Z</time>
      </trkpt>
      <trkpt lat="46.54242" lon="5.89336">
        <ele>877.2</ele>
        <time>2019-09-05T09:41:56Z</time>
      </trkpt>
      <trkpt lat="46.54244" lon="5.89329">
        <ele>876.9</ele>
        <time>2019-09-05T09:42:02Z</time>
      </trkpt>
      <trkpt lat="46.54246" lon="5.89322">
        <ele>876.7</ele>
        <time>2019-09-05T09:42:07Z</time>
      </trkpt>
      <trkpt lat="46.5425" lon="5.89316">
        <ele>876.6</ele>
        <time>2019-09-05T09:42:12Z</time>
      </trkpt>
      <trkpt lat="46.54254" lon="5.89312">
        <ele>876.4</ele>
        <time>2019-09-05T09:42:17Z</time>
      </trkpt>
      <trkpt lat="46.54258" lon="5.8931">
        <ele>875.9</ele>
        <time>2019-09-05T09:42:23Z</time>
      </trkpt>
      <trkpt lat="46.54263" lon="5.89308">
        <ele>875.8</ele>
        <time>2019-09-05T09:42:29Z</time>
      </trkpt>
      <trkpt lat="46.54268" lon="5.89307">
        <ele>876</ele>
        <time>2019-09-05T09:42:35Z</time>
      </trkpt>
      <trkpt lat="46.54273" lon="5.89307">
        <ele>876.2</ele>
        <time>2019-09-05T09:42:39Z</time>
      </trkpt>
      <trkpt lat="46.54278" lon="5.89309">
        <ele>876.4</ele>
        <time>2019-09-05T09:42:43Z</time>
      </trkpt>
      <trkpt lat="46.54283" lon="5.8931">
        <ele>876.5</ele>
        <time>2019-09-05T09:42:46Z</time>
      </trkpt>
      <trkpt lat="46.54288" lon="5.89311">
        <ele>876.6</ele>
        <time>2019-09-05T09:42:49Z</time>
      </trkpt>
      <trkpt lat="46.54293" lon="5.89312">
        <ele>876.7</ele>
        <time>2019-09-05T09:42:53Z</time>
      </trkpt>
      <trkpt lat="46.54298" lon="5.89314">
        <ele>876.8</ele>
        <time>2019-09-05T09:42:58Z</time>
      </trkpt>
      <trkpt lat="46.54302" lon="5.89318">
        <ele>876.9</ele>
        <time>2019-09-05T09:43:03Z</time>
      </trkpt>
      <trkpt lat="46.54305" lon="5.89323">
        <ele>877.2</ele>
        <time>2019-09-05T09:43:08Z</time>
      </trkpt>
      <trkpt lat="46.54309" lon="5.89328">
        <ele>877.4</ele>
        <time>2019-09-05T09:43:12Z</time>
      </trkpt>
      <trkpt lat="46.54313" lon="5.89331">
        <ele>877.7</ele>
        <time>2019-09-05T09:43:16Z</time>
      </trkpt>
      <trkpt lat="46.54317" lon="5.89335">
        <ele>878.2</ele>
        <time>2019-09-05T09:43:21Z</time>
      </trkpt>
      <trkpt lat="46.54322" lon="5.89338">
        <ele>878.5</ele>
        <time>2019-09-05T09:43:26Z</time>
      </trkpt>
      <trkpt lat="46.54326" lon="5.89341">
        <ele>878.5</ele>
        <time>2019-09-05T09:43:30Z</time>
      </trkpt>
      <trkpt lat="46.54331" lon="5.89345">
        <ele>878.4</ele>
        <time>2019-09-05T09:43:35Z</time>
      </trkpt>
      <trkpt lat="46.54335" lon="5.89349">
        <ele>878.5</ele>
        <time>2019-09-05T09:43:40Z</time>
      </trkpt>
      <trkpt lat="46.54339" lon="5.89351">
        <ele>878.3</ele>
        <time>2019-09-05T09:43:44Z</time>
      </trkpt>
      <trkpt lat="46.54344" lon="5.89354">
        <ele>878.1</ele>
        <time>2019-09-05T09:43:49Z</time>
      </trkpt>
      <trkpt lat="46.54349" lon="5.89353">
        <ele>878</ele>
        <time>2019-09-05T09:43:55Z</time>
      </trkpt>
      <trkpt lat="46.54353" lon="5.89349">
        <ele>877.6</ele>
        <time>2019-09-05T09:44:07Z</time>
      </trkpt>
      <trkpt lat="46.54358" lon="5.89346">
        <ele>877</ele>
        <time>2019-09-05T09:44:14Z</time>
      </trkpt>
      <trkpt lat="46.54363" lon="5.89345">
        <ele>876.2</ele>
        <time>2019-09-05T09:44:23Z</time>
      </trkpt>
      <trkpt lat="46.54368" lon="5.89343">
        <ele>875.8</ele>
        <time>2019-09-05T09:44:29Z</time>
      </trkpt>
      <trkpt lat="46.54372" lon="5.89342">
        <ele>875.3</ele>
        <time>2019-09-05T09:44:36Z</time>
      </trkpt>
      <trkpt lat="46.54366" lon="5.89335">
        <ele>873.8</ele>
        <time>2019-09-05T09:44:51Z</time>
      </trkpt>
      <trkpt lat="46.54356" lon="5.89329">
        <ele>871.2</ele>
        <time>2019-09-05T09:45:17Z</time>
      </trkpt>
      <trkpt lat="46.54364" lon="5.89326">
        <ele>866.4</ele>
        <time>2019-09-05T09:45:56Z</time>
      </trkpt>
      <trkpt lat="46.54373" lon="5.89326">
        <ele>871.2</ele>
        <time>2019-09-05T09:46:53Z</time>
      </trkpt>
      <trkpt lat="46.54376" lon="5.89325">
        <ele>887.1</ele>
        <time>2019-09-05T10:21:55Z</time>
      </trkpt>
      <trkpt lat="46.54373" lon="5.89332">
        <ele>887.5</ele>
        <time>2019-09-05T10:22:00Z</time>
      </trkpt>
      <trkpt lat="46.54371" lon="5.89338">
        <ele>888.1</ele>
        <time>2019-09-05T10:22:06Z</time>
      </trkpt>
      <trkpt lat="46.54369" lon="5.89346">
        <ele>889.2</ele>
        <time>2019-09-05T10:22:13Z</time>
      </trkpt>
      <trkpt lat="46.54365" lon="5.89349">
        <ele>890.1</ele>
        <time>2019-09-05T10:22:22Z</time>
      </trkpt>
      <trkpt lat="46.5436" lon="5.89351">
        <ele>890.3</ele>
        <time>2019-09-05T10:22:28Z</time>
      </trkpt>
      <trkpt lat="46.54355" lon="5.89354">
        <ele>890.5</ele>
        <time>2019-09-05T10:22:36Z</time>
      </trkpt>
      <trkpt lat="46.54354" lon="5.89361">
        <ele>891.2</ele>
        <time>2019-09-05T10:22:43Z</time>
      </trkpt>
      <trkpt lat="46.54358" lon="5.89367">
        <ele>891.6</ele>
        <time>2019-09-05T10:22:48Z</time>
      </trkpt>
      <trkpt lat="46.54361" lon="5.89372">
        <ele>891.5</ele>
        <time>2019-09-05T10:22:54Z</time>
      </trkpt>
      <trkpt lat="46.54364" lon="5.89377">
        <ele>891</ele>
        <time>2019-09-05T10:22:59Z</time>
      </trkpt>
      <trkpt lat="46.54367" lon="5.89382">
        <ele>890.5</ele>
        <time>2019-09-05T10:23:04Z</time>
      </trkpt>
      <trkpt lat="46.54369" lon="5.8939">
        <ele>890</ele>
        <time>2019-09-05T10:23:08Z</time>
      </trkpt>
      <trkpt lat="46.54372" lon="5.89397">
        <ele>889.3</ele>
        <time>2019-09-05T10:23:14Z</time>
      </trkpt>
      <trkpt lat="46.54371" lon="5.89404">
        <ele>888.8</ele>
        <time>2019-09-05T10:23:20Z</time>
      </trkpt>
      <trkpt lat="46.54371" lon="5.89411">
        <ele>888.5</ele>
        <time>2019-09-05T10:23:24Z</time>
      </trkpt>
      <trkpt lat="46.54371" lon="5.89419">
        <ele>888.1</ele>
        <time>2019-09-05T10:23:28Z</time>
      </trkpt>
      <trkpt lat="46.54372" lon="5.89426">
        <ele>887.6</ele>
        <time>2019-09-05T10:23:33Z</time>
      </trkpt>
      <trkpt lat="46.54372" lon="5.89433">
        <ele>887.4</ele>
        <time>2019-09-05T10:23:37Z</time>
      </trkpt>
      <trkpt lat="46.54371" lon="5.8944">
        <ele>887.2</ele>
        <time>2019-09-05T10:23:41Z</time>
      </trkpt>
      <trkpt lat="46.5437" lon="5.89448">
        <ele>887.2</ele>
        <time>2019-09-05T10:23:45Z</time>
      </trkpt>
      <trkpt lat="46.54368" lon="5.89455">
        <ele>887.1</ele>
        <time>2019-09-05T10:23:49Z</time>
      </trkpt>
      <trkpt lat="46.54366" lon="5.89462">
        <ele>887</ele>
        <time>2019-09-05T10:23:53Z</time>
      </trkpt>
      <trkpt lat="46.54366" lon="5.89469">
        <ele>887.2</ele>
        <time>2019-09-05T10:23:58Z</time>
      </trkpt>
      <trkpt lat="46.54365" lon="5.89476">
        <ele>887.6</ele>
        <time>2019-09-05T10:24:03Z</time>
      </trkpt>
      <trkpt lat="46.54364" lon="5.89483">
        <ele>888</ele>
        <time>2019-09-05T10:24:08Z</time>
      </trkpt>
      <trkpt lat="46.54363" lon="5.8949">
        <ele>888.3</ele>
        <time>2019-09-05T10:24:12Z</time>
      </trkpt>
      <trkpt lat="46.54362" lon="5.89497">
        <ele>888.5</ele>
        <time>2019-09-05T10:24:16Z</time>
      </trkpt>
      <trkpt lat="46.54362" lon="5.89504">
        <ele>888.5</ele>
        <time>2019-09-05T10:24:20Z</time>
      </trkpt>
      <trkpt lat="46.54362" lon="5.89512">
        <ele>888.4</ele>
        <time>2019-09-05T10:24:25Z</time>
      </trkpt>
      <trkpt lat="46.54364" lon="5.89519">
        <ele>888.3</ele>
        <time>2019-09-05T10:24:30Z</time>
      </trkpt>
      <trkpt lat="46.54367" lon="5.89524">
        <ele>888</ele>
        <time>2019-09-05T10:24:35Z</time>
      </trkpt>
      <trkpt lat="46.54372" lon="5.89529">
        <ele>887.8</ele>
        <time>2019-09-05T10:24:40Z</time>
      </trkpt>
      <trkpt lat="46.54375" lon="5.89534">
        <ele>887.7</ele>
        <time>2019-09-05T10:24:44Z</time>
      </trkpt>
      <trkpt lat="46.5438" lon="5.89539">
        <ele>887.5</ele>
        <time>2019-09-05T10:24:49Z</time>
      </trkpt>
      <trkpt lat="46.54385" lon="5.89543">
        <ele>887.4</ele>
        <time>2019-09-05T10:24:53Z</time>
      </trkpt>
      <trkpt lat="46.54389" lon="5.89546">
        <ele>887.4</ele>
        <time>2019-09-05T10:24:57Z</time>
      </trkpt>
      <trkpt lat="46.54394" lon="5.89551">
        <ele>887.2</ele>
        <time>2019-09-05T10:25:02Z</time>
      </trkpt>
      <trkpt lat="46.54398" lon="5.89554">
        <ele>886.7</ele>
        <time>2019-09-05T10:25:07Z</time>
      </trkpt>
      <trkpt lat="46.54401" lon="5.89558">
        <ele>886.2</ele>
        <time>2019-09-05T10:25:11Z</time>
      </trkpt>
      <trkpt lat="46.54405" lon="5.89563">
        <ele>885.7</ele>
        <time>2019-09-05T10:25:15Z</time>
      </trkpt>
      <trkpt lat="46.54409" lon="5.89568">
        <ele>885.1</ele>
        <time>2019-09-05T10:25:20Z</time>
      </trkpt>
      <trkpt lat="46.54412" lon="5.89573">
        <ele>884.6</ele>
        <time>2019-09-05T10:25:25Z</time>
      </trkpt>
      <trkpt lat="46.54416" lon="5.89577">
        <ele>884.3</ele>
        <time>2019-09-05T10:25:29Z</time>
      </trkpt>
      <trkpt lat="46.54421" lon="5.8958">
        <ele>884.2</ele>
        <time>2019-09-05T10:25:33Z</time>
      </trkpt>
      <trkpt lat="46.54425" lon="5.89584">
        <ele>884.2</ele>
        <time>2019-09-05T10:25:37Z</time>
      </trkpt>
      <trkpt lat="46.54429" lon="5.89588">
        <ele>884.3</ele>
        <time>2019-09-05T10:25:41Z</time>
      </trkpt>
      <trkpt lat="46.54433" lon="5.89592">
        <ele>884.5</ele>
        <time>2019-09-05T10:25:45Z</time>
      </trkpt>
      <trkpt lat="46.54437" lon="5.89596">
        <ele>884.7</ele>
        <time>2019-09-05T10:25:50Z</time>
      </trkpt>
      <trkpt lat="46.54441" lon="5.89601">
        <ele>884.5</ele>
        <time>2019-09-05T10:25:56Z</time>
      </trkpt>
      <trkpt lat="46.54445" lon="5.89605">
        <ele>884.2</ele>
        <time>2019-09-05T10:26:00Z</time>
      </trkpt>
      <trkpt lat="46.54449" lon="5.8961">
        <ele>883.9</ele>
        <time>2019-09-05T10:26:04Z</time>
      </trkpt>
      <trkpt lat="46.54453" lon="5.89615">
        <ele>883.5</ele>
        <time>2019-09-05T10:26:09Z</time>
      </trkpt>
      <trkpt lat="46.54457" lon="5.8962">
        <ele>883.2</ele>
        <time>2019-09-05T10:26:14Z</time>
      </trkpt>
      <trkpt lat="46.54462" lon="5.89623">
        <ele>882.7</ele>
        <time>2019-09-05T10:26:18Z</time>
      </trkpt>
      <trkpt lat="46.54467" lon="5.89626">
        <ele>882.2</ele>
        <time>2019-09-05T10:26:21Z</time>
      </trkpt>
      <trkpt lat="46.54471" lon="5.89631">
        <ele>881.6</ele>
        <time>2019-09-05T10:26:25Z</time>
      </trkpt>
      <trkpt lat="46.54475" lon="5.89637">
        <ele>881.1</ele>
        <time>2019-09-05T10:26:31Z</time>
      </trkpt>
      <trkpt lat="46.54478" lon="5.89642">
        <ele>881</ele>
        <time>2019-09-05T10:26:36Z</time>
      </trkpt>
      <trkpt lat="46.54482" lon="5.89646">
        <ele>880.9</ele>
        <time>2019-09-05T10:26:40Z</time>
      </trkpt>
      <trkpt lat="46.54486" lon="5.8965">
        <ele>880.8</ele>
        <time>2019-09-05T10:26:44Z</time>
      </trkpt>
      <trkpt lat="46.5449" lon="5.89654">
        <ele>880.7</ele>
        <time>2019-09-05T10:26:48Z</time>
      </trkpt>
      <trkpt lat="46.54494" lon="5.89658">
        <ele>880.6</ele>
        <time>2019-09-05T10:26:52Z</time>
      </trkpt>
      <trkpt lat="46.54498" lon="5.89662">
        <ele>880.5</ele>
        <time>2019-09-05T10:26:56Z</time>
      </trkpt>
      <trkpt lat="46.54503" lon="5.89666">
        <ele>880.4</ele>
        <time>2019-09-05T10:27:00Z</time>
      </trkpt>
      <trkpt lat="46.54507" lon="5.89671">
        <ele>880.3</ele>
        <time>2019-09-05T10:27:04Z</time>
      </trkpt>
      <trkpt lat="46.54511" lon="5.89676">
        <ele>880.2</ele>
        <time>2019-09-05T10:27:11Z</time>
      </trkpt>
      <trkpt lat="46.54515" lon="5.89679">
        <ele>880.3</ele>
        <time>2019-09-05T10:27:16Z</time>
      </trkpt>
      <trkpt lat="46.54521" lon="5.89682">
        <ele>880.2</ele>
        <time>2019-09-05T10:27:20Z</time>
      </trkpt>
      <trkpt lat="46.54525" lon="5.89685">
        <ele>879.9</ele>
        <time>2019-09-05T10:27:24Z</time>
      </trkpt>
      <trkpt lat="46.5453" lon="5.8969">
        <ele>879.7</ele>
        <time>2019-09-05T10:27:28Z</time>
      </trkpt>
      <trkpt lat="46.54533" lon="5.89694">
        <ele>879.7</ele>
        <time>2019-09-05T10:27:32Z</time>
      </trkpt>
      <trkpt lat="46.54538" lon="5.89698">
        <ele>879.7</ele>
        <time>2019-09-05T10:27:37Z</time>
      </trkpt>
      <trkpt lat="46.54541" lon="5.89702">
        <ele>879.9</ele>
        <time>2019-09-05T10:27:41Z</time>
      </trkpt>
      <trkpt lat="46.54545" lon="5.89706">
        <ele>880.2</ele>
        <time>2019-09-05T10:27:45Z</time>
      </trkpt>
      <trkpt lat="46.54549" lon="5.89711">
        <ele>880.7</ele>
        <time>2019-09-05T10:27:49Z</time>
      </trkpt>
      <trkpt lat="46.54552" lon="5.89715">
        <ele>881.1</ele>
        <time>2019-09-05T10:27:53Z</time>
      </trkpt>
      <trkpt lat="46.54556" lon="5.8972">
        <ele>881.5</ele>
        <time>2019-09-05T10:27:57Z</time>
      </trkpt>
      <trkpt lat="46.5456" lon="5.89725">
        <ele>881.9</ele>
        <time>2019-09-05T10:28:02Z</time>
      </trkpt>
      <trkpt lat="46.54564" lon="5.8973">
        <ele>882.2</ele>
        <time>2019-09-05T10:28:06Z</time>
      </trkpt>
      <trkpt lat="46.54568" lon="5.89734">
        <ele>882.4</ele>
        <time>2019-09-05T10:28:10Z</time>
      </trkpt>
      <trkpt lat="46.54572" lon="5.89738">
        <ele>882.6</ele>
        <time>2019-09-05T10:28:16Z</time>
      </trkpt>
      <trkpt lat="46.54577" lon="5.89742">
        <ele>882.7</ele>
        <time>2019-09-05T10:28:20Z</time>
      </trkpt>
      <trkpt lat="46.54581" lon="5.89745">
        <ele>882.7</ele>
        <time>2019-09-05T10:28:24Z</time>
      </trkpt>
      <trkpt lat="46.54586" lon="5.89749">
        <ele>882.5</ele>
        <time>2019-09-05T10:28:29Z</time>
      </trkpt>
      <trkpt lat="46.5459" lon="5.89752">
        <ele>882.2</ele>
        <time>2019-09-05T10:28:33Z</time>
      </trkpt>
      <trkpt lat="46.5459" lon="5.89759">
        <ele>879.8</ele>
        <time>2019-09-05T10:29:08Z</time>
      </trkpt>
      <trkpt lat="46.54594" lon="5.89762">
        <ele>879.6</ele>
        <time>2019-09-05T10:29:13Z</time>
      </trkpt>
      <trkpt lat="46.54599" lon="5.89766">
        <ele>879.4</ele>
        <time>2019-09-05T10:29:18Z</time>
      </trkpt>
      <trkpt lat="46.54604" lon="5.89769">
        <ele>879.4</ele>
        <time>2019-09-05T10:29:22Z</time>
      </trkpt>
      <trkpt lat="46.54608" lon="5.89773">
        <ele>879.5</ele>
        <time>2019-09-05T10:29:26Z</time>
      </trkpt>
      <trkpt lat="46.54613" lon="5.89778">
        <ele>879.6</ele>
        <time>2019-09-05T10:29:30Z</time>
      </trkpt>
      <trkpt lat="46.54617" lon="5.89782">
        <ele>879.5</ele>
        <time>2019-09-05T10:29:35Z</time>
      </trkpt>
      <trkpt lat="46.54621" lon="5.89786">
        <ele>879.4</ele>
        <time>2019-09-05T10:29:39Z</time>
      </trkpt>
      <trkpt lat="46.54625" lon="5.89791">
        <ele>879</ele>
        <time>2019-09-05T10:29:44Z</time>
      </trkpt>
      <trkpt lat="46.54628" lon="5.89796">
        <ele>878.6</ele>
        <time>2019-09-05T10:29:49Z</time>
      </trkpt>
      <trkpt lat="46.54632" lon="5.89802">
        <ele>878.3</ele>
        <time>2019-09-05T10:29:54Z</time>
      </trkpt>
      <trkpt lat="46.54635" lon="5.89806">
        <ele>878</ele>
        <time>2019-09-05T10:29:58Z</time>
      </trkpt>
      <trkpt lat="46.54639" lon="5.8981">
        <ele>877.6</ele>
        <time>2019-09-05T10:30:03Z</time>
      </trkpt>
      <trkpt lat="46.54643" lon="5.89814">
        <ele>877.1</ele>
        <time>2019-09-05T10:30:09Z</time>
      </trkpt>
      <trkpt lat="46.54647" lon="5.89819">
        <ele>876.9</ele>
        <time>2019-09-05T10:30:14Z</time>
      </trkpt>
      <trkpt lat="46.54651" lon="5.89824">
        <ele>876.7</ele>
        <time>2019-09-05T10:30:20Z</time>
      </trkpt>
      <trkpt lat="46.54654" lon="5.8983">
        <ele>876.4</ele>
        <time>2019-09-05T10:30:24Z</time>
      </trkpt>
      <trkpt lat="46.54658" lon="5.89835">
        <ele>876.2</ele>
        <time>2019-09-05T10:30:28Z</time>
      </trkpt>
      <trkpt lat="46.54662" lon="5.89841">
        <ele>875.9</ele>
        <time>2019-09-05T10:30:33Z</time>
      </trkpt>
      <trkpt lat="46.54665" lon="5.89846">
        <ele>875.5</ele>
        <time>2019-09-05T10:30:39Z</time>
      </trkpt>
      <trkpt lat="46.54669" lon="5.8985">
        <ele>875.2</ele>
        <time>2019-09-05T10:30:43Z</time>
      </trkpt>
      <trkpt lat="46.54674" lon="5.89855">
        <ele>875</ele>
        <time>2019-09-05T10:30:47Z</time>
      </trkpt>
      <trkpt lat="46.54678" lon="5.89858">
        <ele>874.7</ele>
        <time>2019-09-05T10:30:51Z</time>
      </trkpt>
      <trkpt lat="46.54682" lon="5.89862">
        <ele>874.4</ele>
        <time>2019-09-05T10:30:56Z</time>
      </trkpt>
      <trkpt lat="46.54687" lon="5.89866">
        <ele>874.2</ele>
        <time>2019-09-05T10:31:01Z</time>
      </trkpt>
      <trkpt lat="46.54692" lon="5.8987">
        <ele>874</ele>
        <time>2019-09-05T10:31:05Z</time>
      </trkpt>
      <trkpt lat="46.54696" lon="5.89874">
        <ele>873.9</ele>
        <time>2019-09-05T10:31:10Z</time>
      </trkpt>
      <trkpt lat="46.547" lon="5.89879">
        <ele>873.8</ele>
        <time>2019-09-05T10:31:14Z</time>
      </trkpt>
      <trkpt lat="46.54704" lon="5.89883">
        <ele>873.8</ele>
        <time>2019-09-05T10:31:19Z</time>
      </trkpt>
      <trkpt lat="46.54707" lon="5.89888">
        <ele>873.8</ele>
        <time>2019-09-05T10:31:23Z</time>
      </trkpt>
      <trkpt lat="46.54711" lon="5.89893">
        <ele>873.9</ele>
        <time>2019-09-05T10:31:27Z</time>
      </trkpt>
      <trkpt lat="46.54715" lon="5.89897">
        <ele>874.1</ele>
        <time>2019-09-05T10:31:31Z</time>
      </trkpt>
      <trkpt lat="46.54719" lon="5.89901">
        <ele>874.4</ele>
        <time>2019-09-05T10:31:37Z</time>
      </trkpt>
      <trkpt lat="46.54724" lon="5.89905">
        <ele>874.6</ele>
        <time>2019-09-05T10:31:41Z</time>
      </trkpt>
      <trkpt lat="46.54727" lon="5.89909">
        <ele>874.9</ele>
        <time>2019-09-05T10:31:45Z</time>
      </trkpt>
      <trkpt lat="46.54731" lon="5.89913">
        <ele>874.9</ele>
        <time>2019-09-05T10:31:50Z</time>
      </trkpt>
      <trkpt lat="46.54736" lon="5.89919">
        <ele>875.1</ele>
        <time>2019-09-05T10:31:55Z</time>
      </trkpt>
      <trkpt lat="46.54741" lon="5.89922">
        <ele>875.4</ele>
        <time>2019-09-05T10:31:59Z</time>
      </trkpt>
      <trkpt lat="46.54745" lon="5.89925">
        <ele>875.8</ele>
        <time>2019-09-05T10:32:03Z</time>
      </trkpt>
      <trkpt lat="46.5475" lon="5.89928">
        <ele>876.1</ele>
        <time>2019-09-05T10:32:08Z</time>
      </trkpt>
      <trkpt lat="46.54755" lon="5.89929">
        <ele>876.5</ele>
        <time>2019-09-05T10:32:14Z</time>
      </trkpt>
      <trkpt lat="46.54761" lon="5.89932">
        <ele>876.8</ele>
        <time>2019-09-05T10:32:18Z</time>
      </trkpt>
      <trkpt lat="46.54765" lon="5.89934">
        <ele>877</ele>
        <time>2019-09-05T10:32:23Z</time>
      </trkpt>
      <trkpt lat="46.5477" lon="5.89939">
        <ele>877.3</ele>
        <time>2019-09-05T10:32:28Z</time>
      </trkpt>
      <trkpt lat="46.54775" lon="5.89943">
        <ele>877.6</ele>
        <time>2019-09-05T10:32:32Z</time>
      </trkpt>
      <trkpt lat="46.5478" lon="5.89945">
        <ele>878</ele>
        <time>2019-09-05T10:32:36Z</time>
      </trkpt>
      <trkpt lat="46.54784" lon="5.8995">
        <ele>878.5</ele>
        <time>2019-09-05T10:32:40Z</time>
      </trkpt>
      <trkpt lat="46.54788" lon="5.89954">
        <ele>879</ele>
        <time>2019-09-05T10:32:45Z</time>
      </trkpt>
      <trkpt lat="46.54791" lon="5.89959">
        <ele>879.5</ele>
        <time>2019-09-05T10:32:50Z</time>
      </trkpt>
      <trkpt lat="46.54795" lon="5.89965">
        <ele>879.9</ele>
        <time>2019-09-05T10:32:55Z</time>
      </trkpt>
      <trkpt lat="46.54799" lon="5.89968">
        <ele>880.3</ele>
        <time>2019-09-05T10:33:00Z</time>
      </trkpt>
      <trkpt lat="46.54804" lon="5.89969">
        <ele>880.5</ele>
        <time>2019-09-05T10:33:12Z</time>
      </trkpt>
      <trkpt lat="46.54808" lon="5.89972">
        <ele>882.7</ele>
        <time>2019-09-05T10:33:34Z</time>
      </trkpt>
      <trkpt lat="46.54809" lon="5.89978">
        <ele>883.5</ele>
        <time>2019-09-05T10:33:38Z</time>
      </trkpt>
      <trkpt lat="46.54808" lon="5.89985">
        <ele>884.2</ele>
        <time>2019-09-05T10:33:42Z</time>
      </trkpt>
      <trkpt lat="46.54808" lon="5.89992">
        <ele>885.1</ele>
        <time>2019-09-05T10:33:47Z</time>
      </trkpt>
      <trkpt lat="46.54807" lon="5.9">
        <ele>885.6</ele>
        <time>2019-09-05T10:33:52Z</time>
      </trkpt>
      <trkpt lat="46.54806" lon="5.90006">
        <ele>886</ele>
        <time>2019-09-05T10:33:56Z</time>
      </trkpt>
      <trkpt lat="46.54804" lon="5.90013">
        <ele>886.3</ele>
        <time>2019-09-05T10:34:00Z</time>
      </trkpt>
      <trkpt lat="46.54801" lon="5.90019">
        <ele>886.7</ele>
        <time>2019-09-05T10:34:04Z</time>
      </trkpt>
      <trkpt lat="46.54798" lon="5.90026">
        <ele>887.1</ele>
        <time>2019-09-05T10:34:08Z</time>
      </trkpt>
      <trkpt lat="46.54797" lon="5.90034">
        <ele>887.7</ele>
        <time>2019-09-05T10:34:14Z</time>
      </trkpt>
      <trkpt lat="46.54795" lon="5.9004">
        <ele>888.2</ele>
        <time>2019-09-05T10:34:18Z</time>
      </trkpt>
      <trkpt lat="46.54795" lon="5.90048">
        <ele>888.7</ele>
        <time>2019-09-05T10:34:23Z</time>
      </trkpt>
      <trkpt lat="46.54794" lon="5.90055">
        <ele>889</ele>
        <time>2019-09-05T10:34:28Z</time>
      </trkpt>
      <trkpt lat="46.54793" lon="5.90063">
        <ele>889.3</ele>
        <time>2019-09-05T10:34:33Z</time>
      </trkpt>
      <trkpt lat="46.54793" lon="5.90071">
        <ele>889.5</ele>
        <time>2019-09-05T10:34:38Z</time>
      </trkpt>
      <trkpt lat="46.54794" lon="5.90078">
        <ele>889.7</ele>
        <time>2019-09-05T10:34:43Z</time>
      </trkpt>
      <trkpt lat="46.54797" lon="5.90085">
        <ele>889.8</ele>
        <time>2019-09-05T10:34:47Z</time>
      </trkpt>
      <trkpt lat="46.54799" lon="5.90092">
        <ele>889.7</ele>
        <time>2019-09-05T10:34:52Z</time>
      </trkpt>
      <trkpt lat="46.54801" lon="5.90099">
        <ele>889.6</ele>
        <time>2019-09-05T10:34:56Z</time>
      </trkpt>
      <trkpt lat="46.54802" lon="5.90106">
        <ele>889.4</ele>
        <time>2019-09-05T10:35:00Z</time>
      </trkpt>
      <trkpt lat="46.54804" lon="5.90113">
        <ele>888.8</ele>
        <time>2019-09-05T10:35:06Z</time>
      </trkpt>
      <trkpt lat="46.54806" lon="5.9012">
        <ele>888.2</ele>
        <time>2019-09-05T10:35:11Z</time>
      </trkpt>
      <trkpt lat="46.54807" lon="5.90126">
        <ele>887.8</ele>
        <time>2019-09-05T10:35:15Z</time>
      </trkpt>
      <trkpt lat="46.54808" lon="5.90134">
        <ele>887.3</ele>
        <time>2019-09-05T10:35:20Z</time>
      </trkpt>
      <trkpt lat="46.54806" lon="5.90141">
        <ele>887.1</ele>
        <time>2019-09-05T10:35:23Z</time>
      </trkpt>
      <trkpt lat="46.54805" lon="5.90149">
        <ele>886.9</ele>
        <time>2019-09-05T10:35:27Z</time>
      </trkpt>
      <trkpt lat="46.54804" lon="5.90157">
        <ele>886.9</ele>
        <time>2019-09-05T10:35:32Z</time>
      </trkpt>
      <trkpt lat="46.54803" lon="5.90164">
        <ele>886.7</ele>
        <time>2019-09-05T10:35:36Z</time>
      </trkpt>
      <trkpt lat="46.54802" lon="5.90172">
        <ele>886.2</ele>
        <time>2019-09-05T10:35:42Z</time>
      </trkpt>
      <trkpt lat="46.54801" lon="5.90179">
        <ele>885.9</ele>
        <time>2019-09-05T10:35:48Z</time>
      </trkpt>
      <trkpt lat="46.54802" lon="5.90186">
        <ele>885.4</ele>
        <time>2019-09-05T10:35:55Z</time>
      </trkpt>
      <trkpt lat="46.54804" lon="5.90191">
        <ele>885.1</ele>
        <time>2019-09-05T10:36:00Z</time>
      </trkpt>
      <trkpt lat="46.54807" lon="5.90197">
        <ele>884.7</ele>
        <time>2019-09-05T10:36:04Z</time>
      </trkpt>
      <trkpt lat="46.54811" lon="5.90202">
        <ele>884.3</ele>
        <time>2019-09-05T10:36:08Z</time>
      </trkpt>
      <trkpt lat="46.54815" lon="5.90207">
        <ele>883.8</ele>
        <time>2019-09-05T10:36:12Z</time>
      </trkpt>
      <trkpt lat="46.54814" lon="5.90214">
        <ele>880.5</ele>
        <time>2019-09-05T10:36:29Z</time>
      </trkpt>
      <trkpt lat="46.54817" lon="5.9022">
        <ele>879.9</ele>
        <time>2019-09-05T10:36:33Z</time>
      </trkpt>
      <trkpt lat="46.54821" lon="5.90224">
        <ele>879.3</ele>
        <time>2019-09-05T10:36:38Z</time>
      </trkpt>
      <trkpt lat="46.54825" lon="5.90228">
        <ele>878.9</ele>
        <time>2019-09-05T10:36:42Z</time>
      </trkpt>
      <trkpt lat="46.5483" lon="5.90232">
        <ele>878.5</ele>
        <time>2019-09-05T10:36:47Z</time>
      </trkpt>
      <trkpt lat="46.54834" lon="5.90237">
        <ele>878.2</ele>
        <time>2019-09-05T10:36:51Z</time>
      </trkpt>
      <trkpt lat="46.54837" lon="5.90241">
        <ele>878</ele>
        <time>2019-09-05T10:36:55Z</time>
      </trkpt>
      <trkpt lat="46.54841" lon="5.90246">
        <ele>877.7</ele>
        <time>2019-09-05T10:37:03Z</time>
      </trkpt>
      <trkpt lat="46.54846" lon="5.90251">
        <ele>877.5</ele>
        <time>2019-09-05T10:37:07Z</time>
      </trkpt>
      <trkpt lat="46.54849" lon="5.90256">
        <ele>877.2</ele>
        <time>2019-09-05T10:37:12Z</time>
      </trkpt>
      <trkpt lat="46.54853" lon="5.90261">
        <ele>877.1</ele>
        <time>2019-09-05T10:37:16Z</time>
      </trkpt>
      <trkpt lat="46.54856" lon="5.90267">
        <ele>876.4</ele>
        <time>2019-09-05T10:37:21Z</time>
      </trkpt>
      <trkpt lat="46.54859" lon="5.90273">
        <ele>875.8</ele>
        <time>2019-09-05T10:37:25Z</time>
      </trkpt>
      <trkpt lat="46.54862" lon="5.90277">
        <ele>875.1</ele>
        <time>2019-09-05T10:37:30Z</time>
      </trkpt>
      <trkpt lat="46.54866" lon="5.9028">
        <ele>874.6</ele>
        <time>2019-09-05T10:37:34Z</time>
      </trkpt>
      <trkpt lat="46.54871" lon="5.90283">
        <ele>874.1</ele>
        <time>2019-09-05T10:37:38Z</time>
      </trkpt>
      <trkpt lat="46.54876" lon="5.90286">
        <ele>873.3</ele>
        <time>2019-09-05T10:37:44Z</time>
      </trkpt>
      <trkpt lat="46.5488" lon="5.9029">
        <ele>872.9</ele>
        <time>2019-09-05T10:37:50Z</time>
      </trkpt>
      <trkpt lat="46.54884" lon="5.90294">
        <ele>872.8</ele>
        <time>2019-09-05T10:37:55Z</time>
      </trkpt>
      <trkpt lat="46.54888" lon="5.90299">
        <ele>872.6</ele>
        <time>2019-09-05T10:37:59Z</time>
      </trkpt>
      <trkpt lat="46.54892" lon="5.90303">
        <ele>872.3</ele>
        <time>2019-09-05T10:38:04Z</time>
      </trkpt>
      <trkpt lat="46.54897" lon="5.90306">
        <ele>872</ele>
        <time>2019-09-05T10:38:09Z</time>
      </trkpt>
      <trkpt lat="46.54901" lon="5.9031">
        <ele>871.6</ele>
        <time>2019-09-05T10:38:13Z</time>
      </trkpt>
      <trkpt lat="46.54905" lon="5.90315">
        <ele>871.3</ele>
        <time>2019-09-05T10:38:16Z</time>
      </trkpt>
      <trkpt lat="46.54909" lon="5.90321">
        <ele>871.1</ele>
        <time>2019-09-05T10:38:20Z</time>
      </trkpt>
      <trkpt lat="46.54912" lon="5.90327">
        <ele>870.9</ele>
        <time>2019-09-05T10:38:25Z</time>
      </trkpt>
      <trkpt lat="46.54915" lon="5.90332">
        <ele>870.7</ele>
        <time>2019-09-05T10:38:30Z</time>
      </trkpt>
      <trkpt lat="46.54919" lon="5.90337">
        <ele>870.5</ele>
        <time>2019-09-05T10:38:34Z</time>
      </trkpt>
      <trkpt lat="46.54922" lon="5.90342">
        <ele>870.3</ele>
        <time>2019-09-05T10:38:38Z</time>
      </trkpt>
      <trkpt lat="46.54927" lon="5.90346">
        <ele>870.1</ele>
        <time>2019-09-05T10:38:42Z</time>
      </trkpt>
      <trkpt lat="46.5493" lon="5.9035">
        <ele>869.8</ele>
        <time>2019-09-05T10:38:47Z</time>
      </trkpt>
      <trkpt lat="46.54934" lon="5.90354">
        <ele>869.4</ele>
        <time>2019-09-05T10:38:53Z</time>
      </trkpt>
      <trkpt lat="46.54939" lon="5.9036">
        <ele>869.2</ele>
        <time>2019-09-05T10:38:57Z</time>
      </trkpt>
      <trkpt lat="46.54943" lon="5.90364">
        <ele>868.9</ele>
        <time>2019-09-05T10:39:01Z</time>
      </trkpt>
      <trkpt lat="46.54947" lon="5.90368">
        <ele>868.5</ele>
        <time>2019-09-05T10:39:06Z</time>
      </trkpt>
      <trkpt lat="46.54951" lon="5.90373">
        <ele>868.3</ele>
        <time>2019-09-05T10:39:11Z</time>
      </trkpt>
      <trkpt lat="46.54954" lon="5.90378">
        <ele>868.2</ele>
        <time>2019-09-05T10:39:15Z</time>
      </trkpt>
      <trkpt lat="46.54958" lon="5.90382">
        <ele>868.1</ele>
        <time>2019-09-05T10:39:20Z</time>
      </trkpt>
      <trkpt lat="46.54963" lon="5.90386">
        <ele>868</ele>
        <time>2019-09-05T10:39:24Z</time>
      </trkpt>
      <trkpt lat="46.54968" lon="5.9039">
        <ele>867.9</ele>
        <time>2019-09-05T10:39:28Z</time>
      </trkpt>
      <trkpt lat="46.54972" lon="5.90393">
        <ele>867.7</ele>
        <time>2019-09-05T10:39:32Z</time>
      </trkpt>
      <trkpt lat="46.54977" lon="5.90397">
        <ele>867.5</ele>
        <time>2019-09-05T10:39:36Z</time>
      </trkpt>
      <trkpt lat="46.54981" lon="5.904">
        <ele>867.4</ele>
        <time>2019-09-05T10:39:39Z</time>
      </trkpt>
      <trkpt lat="46.54985" lon="5.90405">
        <ele>867.4</ele>
        <time>2019-09-05T10:39:43Z</time>
      </trkpt>
      <trkpt lat="46.54989" lon="5.9041">
        <ele>867.4</ele>
        <time>2019-09-05T10:39:47Z</time>
      </trkpt>
      <trkpt lat="46.54993" lon="5.90414">
        <ele>867.5</ele>
        <time>2019-09-05T10:39:51Z</time>
      </trkpt>
      <trkpt lat="46.54997" lon="5.90419">
        <ele>867.7</ele>
        <time>2019-09-05T10:39:55Z</time>
      </trkpt>
      <trkpt lat="46.55001" lon="5.90422">
        <ele>868</ele>
        <time>2019-09-05T10:39:59Z</time>
      </trkpt>
      <trkpt lat="46.55006" lon="5.90426">
        <ele>868.3</ele>
        <time>2019-09-05T10:40:03Z</time>
      </trkpt>
      <trkpt lat="46.5501" lon="5.90431">
        <ele>868.6</ele>
        <time>2019-09-05T10:40:07Z</time>
      </trkpt>
      <trkpt lat="46.55013" lon="5.90436">
        <ele>869.1</ele>
        <time>2019-09-05T10:40:12Z</time>
      </trkpt>
      <trkpt lat="46.55016" lon="5.90442">
        <ele>869.6</ele>
        <time>2019-09-05T10:40:17Z</time>
      </trkpt>
      <trkpt lat="46.55019" lon="5.90447">
        <ele>869.9</ele>
        <time>2019-09-05T10:40:21Z</time>
      </trkpt>
      <trkpt lat="46.55023" lon="5.90452">
        <ele>870.2</ele>
        <time>2019-09-05T10:40:25Z</time>
      </trkpt>
      <trkpt lat="46.55026" lon="5.90457">
        <ele>870.4</ele>
        <time>2019-09-05T10:40:29Z</time>
      </trkpt>
      <trkpt lat="46.5503" lon="5.90461">
        <ele>870.5</ele>
        <time>2019-09-05T10:40:33Z</time>
      </trkpt>
      <trkpt lat="46.55034" lon="5.90466">
        <ele>870.5</ele>
        <time>2019-09-05T10:40:37Z</time>
      </trkpt>
      <trkpt lat="46.55037" lon="5.90471">
        <ele>870.5</ele>
        <time>2019-09-05T10:40:41Z</time>
      </trkpt>
      <trkpt lat="46.55041" lon="5.90477">
        <ele>870.6</ele>
        <time>2019-09-05T10:40:46Z</time>
      </trkpt>
      <trkpt lat="46.55045" lon="5.90481">
        <ele>870.7</ele>
        <time>2019-09-05T10:40:51Z</time>
      </trkpt>
      <trkpt lat="46.55048" lon="5.90485">
        <ele>870.7</ele>
        <time>2019-09-05T10:40:55Z</time>
      </trkpt>
      <trkpt lat="46.55052" lon="5.9049">
        <ele>870.4</ele>
        <time>2019-09-05T10:41:00Z</time>
      </trkpt>
      <trkpt lat="46.55057" lon="5.90493">
        <ele>870.1</ele>
        <time>2019-09-05T10:41:04Z</time>
      </trkpt>
      <trkpt lat="46.55061" lon="5.90498">
        <ele>869.7</ele>
        <time>2019-09-05T10:41:08Z</time>
      </trkpt>
      <trkpt lat="46.55065" lon="5.90503">
        <ele>869.3</ele>
        <time>2019-09-05T10:41:13Z</time>
      </trkpt>
      <trkpt lat="46.55069" lon="5.90507">
        <ele>869</ele>
        <time>2019-09-05T10:41:18Z</time>
      </trkpt>
      <trkpt lat="46.55075" lon="5.9051">
        <ele>868.8</ele>
        <time>2019-09-05T10:41:23Z</time>
      </trkpt>
      <trkpt lat="46.5508" lon="5.90513">
        <ele>868.6</ele>
        <time>2019-09-05T10:41:28Z</time>
      </trkpt>
      <trkpt lat="46.55084" lon="5.90514">
        <ele>868.2</ele>
        <time>2019-09-05T10:41:32Z</time>
      </trkpt>
      <trkpt lat="46.55089" lon="5.90515">
        <ele>867.7</ele>
        <time>2019-09-05T10:41:36Z</time>
      </trkpt>
      <trkpt lat="46.55095" lon="5.90516">
        <ele>867.3</ele>
        <time>2019-09-05T10:41:40Z</time>
      </trkpt>
      <trkpt lat="46.55099" lon="5.9052">
        <ele>867</ele>
        <time>2019-09-05T10:41:44Z</time>
      </trkpt>
      <trkpt lat="46.55103" lon="5.90525">
        <ele>867</ele>
        <time>2019-09-05T10:41:49Z</time>
      </trkpt>
      <trkpt lat="46.55107" lon="5.9053">
        <ele>866.8</ele>
        <time>2019-09-05T10:41:53Z</time>
      </trkpt>
      <trkpt lat="46.55111" lon="5.90536">
        <ele>866.8</ele>
        <time>2019-09-05T10:41:57Z</time>
      </trkpt>
      <trkpt lat="46.55115" lon="5.90541">
        <ele>866.8</ele>
        <time>2019-09-05T10:42:01Z</time>
      </trkpt>
      <trkpt lat="46.55119" lon="5.90546">
        <ele>866.8</ele>
        <time>2019-09-05T10:42:05Z</time>
      </trkpt>
      <trkpt lat="46.55122" lon="5.90551">
        <ele>866.8</ele>
        <time>2019-09-05T10:42:09Z</time>
      </trkpt>
      <trkpt lat="46.55126" lon="5.90555">
        <ele>866.9</ele>
        <time>2019-09-05T10:42:13Z</time>
      </trkpt>
      <trkpt lat="46.5513" lon="5.90559">
        <ele>866.9</ele>
        <time>2019-09-05T10:42:17Z</time>
      </trkpt>
      <trkpt lat="46.55134" lon="5.90563">
        <ele>867.1</ele>
        <time>2019-09-05T10:42:22Z</time>
      </trkpt>
      <trkpt lat="46.55138" lon="5.90567">
        <ele>867.3</ele>
        <time>2019-09-05T10:42:25Z</time>
      </trkpt>
      <trkpt lat="46.55142" lon="5.90571">
        <ele>867.4</ele>
        <time>2019-09-05T10:42:30Z</time>
      </trkpt>
      <trkpt lat="46.55146" lon="5.90574">
        <ele>867.3</ele>
        <time>2019-09-05T10:42:34Z</time>
      </trkpt>
      <trkpt lat="46.55151" lon="5.90577">
        <ele>867.1</ele>
        <time>2019-09-05T10:42:39Z</time>
      </trkpt>
      <trkpt lat="46.55155" lon="5.90582">
        <ele>867</ele>
        <time>2019-09-05T10:42:43Z</time>
      </trkpt>
      <trkpt lat="46.5516" lon="5.90585">
        <ele>866.9</ele>
        <time>2019-09-05T10:42:47Z</time>
      </trkpt>
      <trkpt lat="46.55164" lon="5.90589">
        <ele>867</ele>
        <time>2019-09-05T10:42:51Z</time>
      </trkpt>
      <trkpt lat="46.55169" lon="5.90593">
        <ele>867.1</ele>
        <time>2019-09-05T10:42:56Z</time>
      </trkpt>
      <trkpt lat="46.55172" lon="5.90597">
        <ele>867.1</ele>
        <time>2019-09-05T10:43:00Z</time>
      </trkpt>
      <trkpt lat="46.55177" lon="5.90602">
        <ele>867.2</ele>
        <time>2019-09-05T10:43:05Z</time>
      </trkpt>
      <trkpt lat="46.55182" lon="5.90606">
        <ele>867.3</ele>
        <time>2019-09-05T10:43:09Z</time>
      </trkpt>
      <trkpt lat="46.55186" lon="5.9061">
        <ele>867.5</ele>
        <time>2019-09-05T10:43:13Z</time>
      </trkpt>
      <trkpt lat="46.55189" lon="5.90614">
        <ele>867.6</ele>
        <time>2019-09-05T10:43:17Z</time>
      </trkpt>
      <trkpt lat="46.55193" lon="5.90619">
        <ele>867.8</ele>
        <time>2019-09-05T10:43:22Z</time>
      </trkpt>
      <trkpt lat="46.55197" lon="5.90623">
        <ele>868.1</ele>
        <time>2019-09-05T10:43:26Z</time>
      </trkpt>
      <trkpt lat="46.55201" lon="5.90627">
        <ele>868.5</ele>
        <time>2019-09-05T10:43:30Z</time>
      </trkpt>
      <trkpt lat="46.55205" lon="5.90632">
        <ele>868.9</ele>
        <time>2019-09-05T10:43:35Z</time>
      </trkpt>
      <trkpt lat="46.5521" lon="5.90636">
        <ele>869.3</ele>
        <time>2019-09-05T10:43:40Z</time>
      </trkpt>
      <trkpt lat="46.55214" lon="5.90639">
        <ele>869.7</ele>
        <time>2019-09-05T10:43:44Z</time>
      </trkpt>
      <trkpt lat="46.55218" lon="5.90641">
        <ele>870.1</ele>
        <time>2019-09-05T10:43:48Z</time>
      </trkpt>
      <trkpt lat="46.55223" lon="5.90645">
        <ele>870.4</ele>
        <time>2019-09-05T10:43:52Z</time>
      </trkpt>
      <trkpt lat="46.55227" lon="5.90649">
        <ele>870.6</ele>
        <time>2019-09-05T10:43:56Z</time>
      </trkpt>
      <trkpt lat="46.55232" lon="5.90652">
        <ele>870.7</ele>
        <time>2019-09-05T10:44:00Z</time>
      </trkpt>
      <trkpt lat="46.55236" lon="5.90657">
        <ele>870.7</ele>
        <time>2019-09-05T10:44:05Z</time>
      </trkpt>
      <trkpt lat="46.5524" lon="5.90661">
        <ele>870.8</ele>
        <time>2019-09-05T10:44:10Z</time>
      </trkpt>
      <trkpt lat="46.55244" lon="5.90667">
        <ele>870.8</ele>
        <time>2019-09-05T10:44:14Z</time>
      </trkpt>
      <trkpt lat="46.55248" lon="5.90673">
        <ele>870.8</ele>
        <time>2019-09-05T10:44:18Z</time>
      </trkpt>
      <trkpt lat="46.55251" lon="5.90678">
        <ele>870.7</ele>
        <time>2019-09-05T10:44:22Z</time>
      </trkpt>
      <trkpt lat="46.55255" lon="5.90682">
        <ele>870.4</ele>
        <time>2019-09-05T10:44:27Z</time>
      </trkpt>
      <trkpt lat="46.55259" lon="5.90688">
        <ele>870.3</ele>
        <time>2019-09-05T10:44:31Z</time>
      </trkpt>
      <trkpt lat="46.55263" lon="5.90692">
        <ele>870.2</ele>
        <time>2019-09-05T10:44:35Z</time>
      </trkpt>
      <trkpt lat="46.55268" lon="5.90696">
        <ele>870.2</ele>
        <time>2019-09-05T10:44:39Z</time>
      </trkpt>
      <trkpt lat="46.55273" lon="5.90699">
        <ele>870.2</ele>
        <time>2019-09-05T10:44:43Z</time>
      </trkpt>
      <trkpt lat="46.55277" lon="5.90703">
        <ele>870.4</ele>
        <time>2019-09-05T10:44:48Z</time>
      </trkpt>
      <trkpt lat="46.55282" lon="5.90707">
        <ele>870.7</ele>
        <time>2019-09-05T10:44:52Z</time>
      </trkpt>
      <trkpt lat="46.55286" lon="5.9071">
        <ele>870.9</ele>
        <time>2019-09-05T10:44:56Z</time>
      </trkpt>
      <trkpt lat="46.55291" lon="5.90712">
        <ele>871.1</ele>
        <time>2019-09-05T10:45:01Z</time>
      </trkpt>
      <trkpt lat="46.55296" lon="5.90715">
        <ele>871.2</ele>
        <time>2019-09-05T10:45:06Z</time>
      </trkpt>
      <trkpt lat="46.553" lon="5.90717">
        <ele>871.3</ele>
        <time>2019-09-05T10:45:10Z</time>
      </trkpt>
      <trkpt lat="46.55304" lon="5.9072">
        <ele>871.6</ele>
        <time>2019-09-05T10:45:14Z</time>
      </trkpt>
      <trkpt lat="46.55308" lon="5.90724">
        <ele>871.9</ele>
        <time>2019-09-05T10:45:18Z</time>
      </trkpt>
      <trkpt lat="46.55313" lon="5.90728">
        <ele>872.3</ele>
        <time>2019-09-05T10:45:23Z</time>
      </trkpt>
      <trkpt lat="46.55317" lon="5.90732">
        <ele>872.4</ele>
        <time>2019-09-05T10:45:27Z</time>
      </trkpt>
      <trkpt lat="46.55322" lon="5.90736">
        <ele>872.5</ele>
        <time>2019-09-05T10:45:31Z</time>
      </trkpt>
      <trkpt lat="46.55327" lon="5.90742">
        <ele>872.5</ele>
        <time>2019-09-05T10:45:35Z</time>
      </trkpt>
      <trkpt lat="46.5533" lon="5.90746">
        <ele>872.5</ele>
        <time>2019-09-05T10:45:40Z</time>
      </trkpt>
      <trkpt lat="46.55334" lon="5.90751">
        <ele>872.5</ele>
        <time>2019-09-05T10:45:44Z</time>
      </trkpt>
      <trkpt lat="46.55338" lon="5.90755">
        <ele>872.4</ele>
        <time>2019-09-05T10:45:49Z</time>
      </trkpt>
      <trkpt lat="46.55342" lon="5.9076">
        <ele>872.3</ele>
        <time>2019-09-05T10:45:54Z</time>
      </trkpt>
      <trkpt lat="46.55346" lon="5.90764">
        <ele>872.3</ele>
        <time>2019-09-05T10:45:58Z</time>
      </trkpt>
      <trkpt lat="46.55351" lon="5.90767">
        <ele>872.4</ele>
        <time>2019-09-05T10:46:02Z</time>
      </trkpt>
      <trkpt lat="46.55355" lon="5.90771">
        <ele>872.4</ele>
        <time>2019-09-05T10:46:06Z</time>
      </trkpt>
      <trkpt lat="46.5536" lon="5.90774">
        <ele>872.3</ele>
        <time>2019-09-05T10:46:10Z</time>
      </trkpt>
      <trkpt lat="46.55366" lon="5.90778">
        <ele>872.2</ele>
        <time>2019-09-05T10:46:14Z</time>
      </trkpt>
      <trkpt lat="46.55369" lon="5.90782">
        <ele>872.1</ele>
        <time>2019-09-05T10:46:18Z</time>
      </trkpt>
      <trkpt lat="46.55373" lon="5.90787">
        <ele>872.1</ele>
        <time>2019-09-05T10:46:23Z</time>
      </trkpt>
      <trkpt lat="46.55377" lon="5.90792">
        <ele>872</ele>
        <time>2019-09-05T10:46:27Z</time>
      </trkpt>
      <trkpt lat="46.55382" lon="5.90796">
        <ele>871.8</ele>
        <time>2019-09-05T10:46:31Z</time>
      </trkpt>
      <trkpt lat="46.55387" lon="5.90799">
        <ele>871.4</ele>
        <time>2019-09-05T10:46:36Z</time>
      </trkpt>
      <trkpt lat="46.55392" lon="5.90801">
        <ele>871.1</ele>
        <time>2019-09-05T10:46:41Z</time>
      </trkpt>
      <trkpt lat="46.55397" lon="5.90804">
        <ele>871</ele>
        <time>2019-09-05T10:46:45Z</time>
      </trkpt>
      <trkpt lat="46.554" lon="5.90808">
        <ele>870.9</ele>
        <time>2019-09-05T10:46:49Z</time>
      </trkpt>
      <trkpt lat="46.55405" lon="5.90812">
        <ele>870.7</ele>
        <time>2019-09-05T10:46:53Z</time>
      </trkpt>
      <trkpt lat="46.55409" lon="5.90816">
        <ele>870.5</ele>
        <time>2019-09-05T10:46:58Z</time>
      </trkpt>
      <trkpt lat="46.55413" lon="5.90819">
        <ele>870.4</ele>
        <time>2019-09-05T10:47:02Z</time>
      </trkpt>
      <trkpt lat="46.55418" lon="5.90824">
        <ele>870.4</ele>
        <time>2019-09-05T10:47:06Z</time>
      </trkpt>
      <trkpt lat="46.55421" lon="5.9083">
        <ele>870.5</ele>
        <time>2019-09-05T10:47:11Z</time>
      </trkpt>
      <trkpt lat="46.55424" lon="5.90836">
        <ele>870.6</ele>
        <time>2019-09-05T10:47:16Z</time>
      </trkpt>
      <trkpt lat="46.55428" lon="5.90841">
        <ele>870.5</ele>
        <time>2019-09-05T10:47:20Z</time>
      </trkpt>
      <trkpt lat="46.55432" lon="5.90846">
        <ele>870.4</ele>
        <time>2019-09-05T10:47:25Z</time>
      </trkpt>
      <trkpt lat="46.55436" lon="5.90853">
        <ele>870.1</ele>
        <time>2019-09-05T10:47:30Z</time>
      </trkpt>
      <trkpt lat="46.55439" lon="5.9086">
        <ele>869.9</ele>
        <time>2019-09-05T10:47:34Z</time>
      </trkpt>
      <trkpt lat="46.55441" lon="5.90867">
        <ele>869.6</ele>
        <time>2019-09-05T10:47:39Z</time>
      </trkpt>
      <trkpt lat="46.55443" lon="5.90875">
        <ele>869.5</ele>
        <time>2019-09-05T10:47:44Z</time>
      </trkpt>
      <trkpt lat="46.55445" lon="5.90881">
        <ele>869.5</ele>
        <time>2019-09-05T10:47:48Z</time>
      </trkpt>
      <trkpt lat="46.55447" lon="5.90888">
        <ele>869.4</ele>
        <time>2019-09-05T10:47:52Z</time>
      </trkpt>
      <trkpt lat="46.55449" lon="5.90894">
        <ele>869.4</ele>
        <time>2019-09-05T10:47:56Z</time>
      </trkpt>
      <trkpt lat="46.55451" lon="5.90901">
        <ele>869.5</ele>
        <time>2019-09-05T10:48:00Z</time>
      </trkpt>
      <trkpt lat="46.55452" lon="5.90908">
        <ele>869.5</ele>
        <time>2019-09-05T10:48:05Z</time>
      </trkpt>
      <trkpt lat="46.55454" lon="5.90914">
        <ele>869.6</ele>
        <time>2019-09-05T10:48:09Z</time>
      </trkpt>
      <trkpt lat="46.55456" lon="5.90921">
        <ele>869.9</ele>
        <time>2019-09-05T10:48:14Z</time>
      </trkpt>
      <trkpt lat="46.55458" lon="5.90927">
        <ele>870.3</ele>
        <time>2019-09-05T10:48:18Z</time>
      </trkpt>
      <trkpt lat="46.55459" lon="5.90933">
        <ele>870.8</ele>
        <time>2019-09-05T10:48:22Z</time>
      </trkpt>
      <trkpt lat="46.55461" lon="5.90941">
        <ele>871.5</ele>
        <time>2019-09-05T10:48:27Z</time>
      </trkpt>
      <trkpt lat="46.55462" lon="5.90948">
        <ele>872.2</ele>
        <time>2019-09-05T10:48:32Z</time>
      </trkpt>
      <trkpt lat="46.55463" lon="5.90956">
        <ele>872.6</ele>
        <time>2019-09-05T10:48:36Z</time>
      </trkpt>
      <trkpt lat="46.55463" lon="5.90963">
        <ele>872.9</ele>
        <time>2019-09-05T10:48:40Z</time>
      </trkpt>
      <trkpt lat="46.55464" lon="5.90971">
        <ele>872.9</ele>
        <time>2019-09-05T10:48:45Z</time>
      </trkpt>
      <trkpt lat="46.55464" lon="5.90982">
        <ele>873.4</ele>
        <time>2019-09-05T10:49:07Z</time>
      </trkpt>
      <trkpt lat="46.55466" lon="5.90988">
        <ele>873.4</ele>
        <time>2019-09-05T10:49:11Z</time>
      </trkpt>
      <trkpt lat="46.55468" lon="5.90994">
        <ele>873.3</ele>
        <time>2019-09-05T10:49:15Z</time>
      </trkpt>
      <trkpt lat="46.55469" lon="5.91002">
        <ele>873.1</ele>
        <time>2019-09-05T10:49:20Z</time>
      </trkpt>
      <trkpt lat="46.55472" lon="5.91009">
        <ele>873</ele>
        <time>2019-09-05T10:49:26Z</time>
      </trkpt>
      <trkpt lat="46.55475" lon="5.91015">
        <ele>873</ele>
        <time>2019-09-05T10:49:32Z</time>
      </trkpt>
      <trkpt lat="46.55479" lon="5.91021">
        <ele>873</ele>
        <time>2019-09-05T10:49:37Z</time>
      </trkpt>
      <trkpt lat="46.55482" lon="5.91027">
        <ele>872.8</ele>
        <time>2019-09-05T10:49:41Z</time>
      </trkpt>
      <trkpt lat="46.55485" lon="5.91033">
        <ele>872.6</ele>
        <time>2019-09-05T10:49:46Z</time>
      </trkpt>
      <trkpt lat="46.55488" lon="5.91039">
        <ele>872.5</ele>
        <time>2019-09-05T10:49:50Z</time>
      </trkpt>
      <trkpt lat="46.55491" lon="5.91045">
        <ele>872.5</ele>
        <time>2019-09-05T10:49:54Z</time>
      </trkpt>
      <trkpt lat="46.55494" lon="5.91051">
        <ele>872.3</ele>
        <time>2019-09-05T10:49:59Z</time>
      </trkpt>
      <trkpt lat="46.55497" lon="5.91057">
        <ele>871.9</ele>
        <time>2019-09-05T10:50:04Z</time>
      </trkpt>
      <trkpt lat="46.55501" lon="5.91062">
        <ele>871.5</ele>
        <time>2019-09-05T10:50:08Z</time>
      </trkpt>
      <trkpt lat="46.55504" lon="5.91069">
        <ele>871.3</ele>
        <time>2019-09-05T10:50:12Z</time>
      </trkpt>
      <trkpt lat="46.55507" lon="5.91074">
        <ele>871.1</ele>
        <time>2019-09-05T10:50:16Z</time>
      </trkpt>
      <trkpt lat="46.5551" lon="5.91079">
        <ele>870.9</ele>
        <time>2019-09-05T10:50:20Z</time>
      </trkpt>
      <trkpt lat="46.55514" lon="5.91083">
        <ele>870.6</ele>
        <time>2019-09-05T10:50:24Z</time>
      </trkpt>
      <trkpt lat="46.55519" lon="5.91086">
        <ele>870.1</ele>
        <time>2019-09-05T10:50:29Z</time>
      </trkpt>
      <trkpt lat="46.55524" lon="5.91089">
        <ele>869.6</ele>
        <time>2019-09-05T10:50:34Z</time>
      </trkpt>
      <trkpt lat="46.55529" lon="5.91091">
        <ele>869</ele>
        <time>2019-09-05T10:50:38Z</time>
      </trkpt>
      <trkpt lat="46.55534" lon="5.91094">
        <ele>868.4</ele>
        <time>2019-09-05T10:50:42Z</time>
      </trkpt>
      <trkpt lat="46.55537" lon="5.91098">
        <ele>867.8</ele>
        <time>2019-09-05T10:50:47Z</time>
      </trkpt>
      <trkpt lat="46.55542" lon="5.91103">
        <ele>867.4</ele>
        <time>2019-09-05T10:50:52Z</time>
      </trkpt>
      <trkpt lat="46.55546" lon="5.91107">
        <ele>866.8</ele>
        <time>2019-09-05T10:50:58Z</time>
      </trkpt>
      <trkpt lat="46.55551" lon="5.91109">
        <ele>866.3</ele>
        <time>2019-09-05T10:51:03Z</time>
      </trkpt>
      <trkpt lat="46.55555" lon="5.91111">
        <ele>866.2</ele>
        <time>2019-09-05T10:51:07Z</time>
      </trkpt>
      <trkpt lat="46.5556" lon="5.91114">
        <ele>866.2</ele>
        <time>2019-09-05T10:51:11Z</time>
      </trkpt>
      <trkpt lat="46.55565" lon="5.91117">
        <ele>866.6</ele>
        <time>2019-09-05T10:51:16Z</time>
      </trkpt>
      <trkpt lat="46.55569" lon="5.9112">
        <ele>867</ele>
        <time>2019-09-05T10:51:21Z</time>
      </trkpt>
      <trkpt lat="46.55574" lon="5.91122">
        <ele>867.5</ele>
        <time>2019-09-05T10:51:27Z</time>
      </trkpt>
      <trkpt lat="46.55579" lon="5.91124">
        <ele>867.8</ele>
        <time>2019-09-05T10:51:32Z</time>
      </trkpt>
      <trkpt lat="46.55584" lon="5.91127">
        <ele>868.1</ele>
        <time>2019-09-05T10:51:38Z</time>
      </trkpt>
      <trkpt lat="46.55589" lon="5.91131">
        <ele>868.4</ele>
        <time>2019-09-05T10:51:43Z</time>
      </trkpt>
      <trkpt lat="46.55593" lon="5.91134">
        <ele>868.7</ele>
        <time>2019-09-05T10:51:48Z</time>
      </trkpt>
      <trkpt lat="46.55597" lon="5.91135">
        <ele>868.7</ele>
        <time>2019-09-05T10:51:52Z</time>
      </trkpt>
      <trkpt lat="46.55603" lon="5.91138">
        <ele>868.7</ele>
        <time>2019-09-05T10:51:57Z</time>
      </trkpt>
      <trkpt lat="46.55607" lon="5.9114">
        <ele>868.9</ele>
        <time>2019-09-05T10:52:01Z</time>
      </trkpt>
      <trkpt lat="46.55611" lon="5.91144">
        <ele>869.2</ele>
        <time>2019-09-05T10:52:05Z</time>
      </trkpt>
      <trkpt lat="46.55615" lon="5.91148">
        <ele>869.6</ele>
        <time>2019-09-05T10:52:09Z</time>
      </trkpt>
      <trkpt lat="46.5562" lon="5.91151">
        <ele>870</ele>
        <time>2019-09-05T10:52:14Z</time>
      </trkpt>
      <trkpt lat="46.55624" lon="5.91154">
        <ele>870.3</ele>
        <time>2019-09-05T10:52:19Z</time>
      </trkpt>
      <trkpt lat="46.55628" lon="5.91157">
        <ele>870.8</ele>
        <time>2019-09-05T10:52:24Z</time>
      </trkpt>
      <trkpt lat="46.55632" lon="5.91161">
        <ele>871.2</ele>
        <time>2019-09-05T10:52:30Z</time>
      </trkpt>
      <trkpt lat="46.55636" lon="5.91166">
        <ele>871.4</ele>
        <time>2019-09-05T10:52:35Z</time>
      </trkpt>
      <trkpt lat="46.5564" lon="5.9117">
        <ele>871.5</ele>
        <time>2019-09-05T10:52:39Z</time>
      </trkpt>
      <trkpt lat="46.55644" lon="5.91175">
        <ele>871.3</ele>
        <time>2019-09-05T10:52:44Z</time>
      </trkpt>
      <trkpt lat="46.55646" lon="5.91181">
        <ele>870.1</ele>
        <time>2019-09-05T10:52:50Z</time>
      </trkpt>
      <trkpt lat="46.55649" lon="5.91188">
        <ele>868.6</ele>
        <time>2019-09-05T10:52:56Z</time>
      </trkpt>
      <trkpt lat="46.55651" lon="5.91194">
        <ele>867.4</ele>
        <time>2019-09-05T10:53:01Z</time>
      </trkpt>
      <trkpt lat="46.55655" lon="5.91199">
        <ele>866.1</ele>
        <time>2019-09-05T10:53:07Z</time>
      </trkpt>
      <trkpt lat="46.55659" lon="5.91205">
        <ele>865.5</ele>
        <time>2019-09-05T10:53:11Z</time>
      </trkpt>
      <trkpt lat="46.55662" lon="5.9121">
        <ele>865.1</ele>
        <time>2019-09-05T10:53:15Z</time>
      </trkpt>
      <trkpt lat="46.55666" lon="5.91215">
        <ele>865</ele>
        <time>2019-09-05T10:53:19Z</time>
      </trkpt>
      <trkpt lat="46.5567" lon="5.9122">
        <ele>865.1</ele>
        <time>2019-09-05T10:53:23Z</time>
      </trkpt>
      <trkpt lat="46.55674" lon="5.91226">
        <ele>865.3</ele>
        <time>2019-09-05T10:53:29Z</time>
      </trkpt>
      <trkpt lat="46.55677" lon="5.91231">
        <ele>865.3</ele>
        <time>2019-09-05T10:53:34Z</time>
      </trkpt>
      <trkpt lat="46.55682" lon="5.91235">
        <ele>865.1</ele>
        <time>2019-09-05T10:53:39Z</time>
      </trkpt>
      <trkpt lat="46.55686" lon="5.91239">
        <ele>864.9</ele>
        <time>2019-09-05T10:53:44Z</time>
      </trkpt>
      <trkpt lat="46.55691" lon="5.91243">
        <ele>864.7</ele>
        <time>2019-09-05T10:53:49Z</time>
      </trkpt>
      <trkpt lat="46.55695" lon="5.91246">
        <ele>864.4</ele>
        <time>2019-09-05T10:53:53Z</time>
      </trkpt>
      <trkpt lat="46.557" lon="5.9125">
        <ele>864.1</ele>
        <time>2019-09-05T10:53:56Z</time>
      </trkpt>
      <trkpt lat="46.55705" lon="5.91252">
        <ele>863.9</ele>
        <time>2019-09-05T10:53:59Z</time>
      </trkpt>
      <trkpt lat="46.55709" lon="5.91255">
        <ele>863.7</ele>
        <time>2019-09-05T10:54:02Z</time>
      </trkpt>
      <trkpt lat="46.55714" lon="5.9126">
        <ele>863.5</ele>
        <time>2019-09-05T10:54:07Z</time>
      </trkpt>
      <trkpt lat="46.55718" lon="5.91265">
        <ele>863.8</ele>
        <time>2019-09-05T10:54:13Z</time>
      </trkpt>
      <trkpt lat="46.55722" lon="5.91269">
        <ele>864</ele>
        <time>2019-09-05T10:54:17Z</time>
      </trkpt>
      <trkpt lat="46.55726" lon="5.91273">
        <ele>864</ele>
        <time>2019-09-05T10:54:20Z</time>
      </trkpt>
      <trkpt lat="46.55731" lon="5.91277">
        <ele>864.1</ele>
        <time>2019-09-05T10:54:24Z</time>
      </trkpt>
      <trkpt lat="46.55735" lon="5.91282">
        <ele>864.4</ele>
        <time>2019-09-05T10:54:29Z</time>
      </trkpt>
      <trkpt lat="46.55738" lon="5.91288">
        <ele>864.5</ele>
        <time>2019-09-05T10:54:34Z</time>
      </trkpt>
      <trkpt lat="46.55742" lon="5.91294">
        <ele>864.5</ele>
        <time>2019-09-05T10:54:38Z</time>
      </trkpt>
      <trkpt lat="46.55744" lon="5.913">
        <ele>864.5</ele>
        <time>2019-09-05T10:54:42Z</time>
      </trkpt>
      <trkpt lat="46.55747" lon="5.91306">
        <ele>864.3</ele>
        <time>2019-09-05T10:54:48Z</time>
      </trkpt>
      <trkpt lat="46.55751" lon="5.9131">
        <ele>864.2</ele>
        <time>2019-09-05T10:54:52Z</time>
      </trkpt>
      <trkpt lat="46.55755" lon="5.91314">
        <ele>864.3</ele>
        <time>2019-09-05T10:54:56Z</time>
      </trkpt>
      <trkpt lat="46.55759" lon="5.91318">
        <ele>864.3</ele>
        <time>2019-09-05T10:55:00Z</time>
      </trkpt>
      <trkpt lat="46.55764" lon="5.91322">
        <ele>864.4</ele>
        <time>2019-09-05T10:55:04Z</time>
      </trkpt>
      <trkpt lat="46.55768" lon="5.91325">
        <ele>864.5</ele>
        <time>2019-09-05T10:55:08Z</time>
      </trkpt>
      <trkpt lat="46.55772" lon="5.91328">
        <ele>864.6</ele>
        <time>2019-09-05T10:55:13Z</time>
      </trkpt>
      <trkpt lat="46.55776" lon="5.91334">
        <ele>864.8</ele>
        <time>2019-09-05T10:55:18Z</time>
      </trkpt>
      <trkpt lat="46.55781" lon="5.91339">
        <ele>865.4</ele>
        <time>2019-09-05T10:55:24Z</time>
      </trkpt>
      <trkpt lat="46.55786" lon="5.91342">
        <ele>865.7</ele>
        <time>2019-09-05T10:55:28Z</time>
      </trkpt>
      <trkpt lat="46.5579" lon="5.91345">
        <ele>865.9</ele>
        <time>2019-09-05T10:55:34Z</time>
      </trkpt>
      <trkpt lat="46.55794" lon="5.91351">
        <ele>865.9</ele>
        <time>2019-09-05T10:55:39Z</time>
      </trkpt>
      <trkpt lat="46.55798" lon="5.91357">
        <ele>865.9</ele>
        <time>2019-09-05T10:55:44Z</time>
      </trkpt>
      <trkpt lat="46.558" lon="5.91363">
        <ele>865.9</ele>
        <time>2019-09-05T10:55:50Z</time>
      </trkpt>
      <trkpt lat="46.55797" lon="5.9137">
        <ele>867.1</ele>
        <time>2019-09-05T10:56:05Z</time>
      </trkpt>
      <trkpt lat="46.55792" lon="5.9137">
        <ele>868.1</ele>
        <time>2019-09-05T10:56:09Z</time>
      </trkpt>
      <trkpt lat="46.55788" lon="5.9137">
        <ele>868.8</ele>
        <time>2019-09-05T10:56:11Z</time>
      </trkpt>
      <trkpt lat="46.55782" lon="5.91368">
        <ele>870.1</ele>
        <time>2019-09-05T10:56:14Z</time>
      </trkpt>
      <trkpt lat="46.55777" lon="5.91364">
        <ele>872.1</ele>
        <time>2019-09-05T10:56:19Z</time>
      </trkpt>
      <trkpt lat="46.55773" lon="5.91363">
        <ele>874.4</ele>
        <time>2019-09-05T10:56:24Z</time>
      </trkpt>
      <trkpt lat="46.55768" lon="5.91363">
        <ele>877.3</ele>
        <time>2019-09-05T10:56:29Z</time>
      </trkpt>
      <trkpt lat="46.55762" lon="5.91362">
        <ele>879.6</ele>
        <time>2019-09-05T10:56:33Z</time>
      </trkpt>
      <trkpt lat="46.55758" lon="5.91359">
        <ele>881.9</ele>
        <time>2019-09-05T10:56:37Z</time>
      </trkpt>
      <trkpt lat="46.55754" lon="5.91355">
        <ele>884.9</ele>
        <time>2019-09-05T10:56:42Z</time>
      </trkpt>
      <trkpt lat="46.55749" lon="5.91352">
        <ele>887.8</ele>
        <time>2019-09-05T10:56:47Z</time>
      </trkpt>
      <trkpt lat="46.55744" lon="5.91349">
        <ele>890.2</ele>
        <time>2019-09-05T10:56:52Z</time>
      </trkpt>
      <trkpt lat="46.55739" lon="5.91346">
        <ele>892.1</ele>
        <time>2019-09-05T10:56:56Z</time>
      </trkpt>
      <trkpt lat="46.55733" lon="5.91345">
        <ele>893.9</ele>
        <time>2019-09-05T10:57:00Z</time>
      </trkpt>
      <trkpt lat="46.55728" lon="5.91343">
        <ele>895.4</ele>
        <time>2019-09-05T10:57:04Z</time>
      </trkpt>
      <trkpt lat="46.55723" lon="5.91344">
        <ele>896.7</ele>
        <time>2019-09-05T10:57:09Z</time>
      </trkpt>
      <trkpt lat="46.55718" lon="5.91344">
        <ele>897</ele>
        <time>2019-09-05T10:57:15Z</time>
      </trkpt>
      <trkpt lat="46.55713" lon="5.91346">
        <ele>897.1</ele>
        <time>2019-09-05T10:57:19Z</time>
      </trkpt>
      <trkpt lat="46.55708" lon="5.91346">
        <ele>897.5</ele>
        <time>2019-09-05T10:57:23Z</time>
      </trkpt>
      <trkpt lat="46.55702" lon="5.91347">
        <ele>897.9</ele>
        <time>2019-09-05T10:57:27Z</time>
      </trkpt>
      <trkpt lat="46.55697" lon="5.91348">
        <ele>898.1</ele>
        <time>2019-09-05T10:57:32Z</time>
      </trkpt>
      <trkpt lat="46.55692" lon="5.9135">
        <ele>898.1</ele>
        <time>2019-09-05T10:57:40Z</time>
      </trkpt>
      <trkpt lat="46.55686" lon="5.91351">
        <ele>898.2</ele>
        <time>2019-09-05T10:57:44Z</time>
      </trkpt>
      <trkpt lat="46.55681" lon="5.91351">
        <ele>898.2</ele>
        <time>2019-09-05T10:57:48Z</time>
      </trkpt>
      <trkpt lat="46.55676" lon="5.9135">
        <ele>898.4</ele>
        <time>2019-09-05T10:57:52Z</time>
      </trkpt>
      <trkpt lat="46.55671" lon="5.9135">
        <ele>898.5</ele>
        <time>2019-09-05T10:57:58Z</time>
      </trkpt>
      <trkpt lat="46.55666" lon="5.91351">
        <ele>898.5</ele>
        <time>2019-09-05T10:58:02Z</time>
      </trkpt>
      <trkpt lat="46.55661" lon="5.91351">
        <ele>898.5</ele>
        <time>2019-09-05T10:58:05Z</time>
      </trkpt>
      <trkpt lat="46.55657" lon="5.91351">
        <ele>898.6</ele>
        <time>2019-09-05T10:58:09Z</time>
      </trkpt>
      <trkpt lat="46.55652" lon="5.9135">
        <ele>898.8</ele>
        <time>2019-09-05T10:58:13Z</time>
      </trkpt>
      <trkpt lat="46.55647" lon="5.91351">
        <ele>898.9</ele>
        <time>2019-09-05T10:58:18Z</time>
      </trkpt>
      <trkpt lat="46.55642" lon="5.9135">
        <ele>899</ele>
        <time>2019-09-05T10:58:22Z</time>
      </trkpt>
      <trkpt lat="46.55637" lon="5.91347">
        <ele>899</ele>
        <time>2019-09-05T10:58:25Z</time>
      </trkpt>
      <trkpt lat="46.55633" lon="5.91344">
        <ele>899</ele>
        <time>2019-09-05T10:58:29Z</time>
      </trkpt>
      <trkpt lat="46.55628" lon="5.91342">
        <ele>899.2</ele>
        <time>2019-09-05T10:58:35Z</time>
      </trkpt>
      <trkpt lat="46.55623" lon="5.91338">
        <ele>899.3</ele>
        <time>2019-09-05T10:58:40Z</time>
      </trkpt>
      <trkpt lat="46.55619" lon="5.91334">
        <ele>899.5</ele>
        <time>2019-09-05T10:58:47Z</time>
      </trkpt>
      <trkpt lat="46.55614" lon="5.91332">
        <ele>899.3</ele>
        <time>2019-09-05T10:58:51Z</time>
      </trkpt>
      <trkpt lat="46.55609" lon="5.91331">
        <ele>899.1</ele>
        <time>2019-09-05T10:58:54Z</time>
      </trkpt>
      <trkpt lat="46.55604" lon="5.9133">
        <ele>898.9</ele>
        <time>2019-09-05T10:58:58Z</time>
      </trkpt>
      <trkpt lat="46.556" lon="5.91328">
        <ele>898.8</ele>
        <time>2019-09-05T10:59:02Z</time>
      </trkpt>
      <trkpt lat="46.55595" lon="5.91326">
        <ele>898.6</ele>
        <time>2019-09-05T10:59:06Z</time>
      </trkpt>
      <trkpt lat="46.55591" lon="5.91323">
        <ele>898.6</ele>
        <time>2019-09-05T10:59:10Z</time>
      </trkpt>
      <trkpt lat="46.55586" lon="5.91322">
        <ele>898.7</ele>
        <time>2019-09-05T10:59:14Z</time>
      </trkpt>
      <trkpt lat="46.55581" lon="5.91319">
        <ele>899</ele>
        <time>2019-09-05T10:59:19Z</time>
      </trkpt>
      <trkpt lat="46.55577" lon="5.91316">
        <ele>899.1</ele>
        <time>2019-09-05T10:59:23Z</time>
      </trkpt>
      <trkpt lat="46.55573" lon="5.91313">
        <ele>899.3</ele>
        <time>2019-09-05T10:59:28Z</time>
      </trkpt>
      <trkpt lat="46.55568" lon="5.9131">
        <ele>899.3</ele>
        <time>2019-09-05T10:59:32Z</time>
      </trkpt>
      <trkpt lat="46.55563" lon="5.91308">
        <ele>899.2</ele>
        <time>2019-09-05T10:59:36Z</time>
      </trkpt>
      <trkpt lat="46.55559" lon="5.91305">
        <ele>899.2</ele>
        <time>2019-09-05T10:59:39Z</time>
      </trkpt>
      <trkpt lat="46.55554" lon="5.91303">
        <ele>899.3</ele>
        <time>2019-09-05T10:59:44Z</time>
      </trkpt>
      <trkpt lat="46.55549" lon="5.91301">
        <ele>899.1</ele>
        <time>2019-09-05T10:59:51Z</time>
      </trkpt>
      <trkpt lat="46.55545" lon="5.91301">
        <ele>899.2</ele>
        <time>2019-09-05T10:59:55Z</time>
      </trkpt>
      <trkpt lat="46.5554" lon="5.91301">
        <ele>899.5</ele>
        <time>2019-09-05T10:59:59Z</time>
      </trkpt>
      <trkpt lat="46.55536" lon="5.91297">
        <ele>899.9</ele>
        <time>2019-09-05T11:00:03Z</time>
      </trkpt>
      <trkpt lat="46.55531" lon="5.91293">
        <ele>900</ele>
        <time>2019-09-05T11:00:08Z</time>
      </trkpt>
      <trkpt lat="46.55527" lon="5.91291">
        <ele>899.8</ele>
        <time>2019-09-05T11:00:13Z</time>
      </trkpt>
      <trkpt lat="46.55522" lon="5.9129">
        <ele>899.5</ele>
        <time>2019-09-05T11:00:20Z</time>
      </trkpt>
      <trkpt lat="46.55517" lon="5.91292">
        <ele>899.3</ele>
        <time>2019-09-05T11:00:24Z</time>
      </trkpt>
      <trkpt lat="46.55512" lon="5.91296">
        <ele>898.8</ele>
        <time>2019-09-05T11:00:29Z</time>
      </trkpt>
      <trkpt lat="46.55507" lon="5.91299">
        <ele>898.3</ele>
        <time>2019-09-05T11:00:33Z</time>
      </trkpt>
      <trkpt lat="46.55502" lon="5.91302">
        <ele>897.8</ele>
        <time>2019-09-05T11:00:37Z</time>
      </trkpt>
      <trkpt lat="46.55497" lon="5.91306">
        <ele>897.3</ele>
        <time>2019-09-05T11:00:41Z</time>
      </trkpt>
      <trkpt lat="46.55492" lon="5.91309">
        <ele>896.8</ele>
        <time>2019-09-05T11:00:45Z</time>
      </trkpt>
      <trkpt lat="46.55487" lon="5.91312">
        <ele>896.2</ele>
        <time>2019-09-05T11:00:50Z</time>
      </trkpt>
      <trkpt lat="46.55482" lon="5.91314">
        <ele>895.5</ele>
        <time>2019-09-05T11:00:55Z</time>
      </trkpt>
      <trkpt lat="46.55478" lon="5.91317">
        <ele>894.3</ele>
        <time>2019-09-05T11:01:01Z</time>
      </trkpt>
      <trkpt lat="46.55474" lon="5.9132">
        <ele>893.1</ele>
        <time>2019-09-05T11:01:06Z</time>
      </trkpt>
      <trkpt lat="46.5547" lon="5.91324">
        <ele>892.5</ele>
        <time>2019-09-05T11:01:10Z</time>
      </trkpt>
      <trkpt lat="46.55465" lon="5.91327">
        <ele>892.2</ele>
        <time>2019-09-05T11:01:15Z</time>
      </trkpt>
      <trkpt lat="46.55461" lon="5.9133">
        <ele>891.8</ele>
        <time>2019-09-05T11:01:20Z</time>
      </trkpt>
      <trkpt lat="46.55457" lon="5.91333">
        <ele>891.6</ele>
        <time>2019-09-05T11:01:24Z</time>
      </trkpt>
      <trkpt lat="46.55452" lon="5.91336">
        <ele>891.4</ele>
        <time>2019-09-05T11:01:29Z</time>
      </trkpt>
      <trkpt lat="46.55448" lon="5.9134">
        <ele>891.5</ele>
        <time>2019-09-05T11:01:33Z</time>
      </trkpt>
      <trkpt lat="46.55444" lon="5.91344">
        <ele>891.2</ele>
        <time>2019-09-05T11:01:39Z</time>
      </trkpt>
      <trkpt lat="46.5544" lon="5.9135">
        <ele>890.1</ele>
        <time>2019-09-05T11:01:44Z</time>
      </trkpt>
      <trkpt lat="46.55436" lon="5.91355">
        <ele>889</ele>
        <time>2019-09-05T11:01:49Z</time>
      </trkpt>
      <trkpt lat="46.55432" lon="5.91359">
        <ele>887.9</ele>
        <time>2019-09-05T11:01:55Z</time>
      </trkpt>
      <trkpt lat="46.55428" lon="5.91363">
        <ele>887.2</ele>
        <time>2019-09-05T11:01:59Z</time>
      </trkpt>
      <trkpt lat="46.55424" lon="5.91365">
        <ele>885.6</ele>
        <time>2019-09-05T11:02:08Z</time>
      </trkpt>
      <trkpt lat="46.5542" lon="5.91368">
        <ele>884.6</ele>
        <time>2019-09-05T11:02:14Z</time>
      </trkpt>
      <trkpt lat="46.55415" lon="5.91371">
        <ele>883.1</ele>
        <time>2019-09-05T11:02:21Z</time>
      </trkpt>
      <trkpt lat="46.55411" lon="5.91375">
        <ele>881.9</ele>
        <time>2019-09-05T11:02:26Z</time>
      </trkpt>
      <trkpt lat="46.55394" lon="5.91386">
        <ele>876.9</ele>
        <time>2019-09-05T11:02:43Z</time>
      </trkpt>
      <trkpt lat="46.5539" lon="5.91391">
        <ele>875.9</ele>
        <time>2019-09-05T11:02:47Z</time>
      </trkpt>
      <trkpt lat="46.55386" lon="5.91397">
        <ele>875.1</ele>
        <time>2019-09-05T11:02:50Z</time>
      </trkpt>
      <trkpt lat="46.55383" lon="5.91401">
        <ele>874.5</ele>
        <time>2019-09-05T11:02:53Z</time>
      </trkpt>
      <trkpt lat="46.55378" lon="5.91407">
        <ele>873.6</ele>
        <time>2019-09-05T11:02:57Z</time>
      </trkpt>
      <trkpt lat="46.55374" lon="5.91411">
        <ele>872.8</ele>
        <time>2019-09-05T11:03:01Z</time>
      </trkpt>
      <trkpt lat="46.55371" lon="5.91415">
        <ele>872.2</ele>
        <time>2019-09-05T11:03:05Z</time>
      </trkpt>
      <trkpt lat="46.55366" lon="5.91421">
        <ele>871.9</ele>
        <time>2019-09-05T11:03:09Z</time>
      </trkpt>
      <trkpt lat="46.5536" lon="5.91423">
        <ele>872.2</ele>
        <time>2019-09-05T11:03:13Z</time>
      </trkpt>
      <trkpt lat="46.55356" lon="5.91426">
        <ele>872.8</ele>
        <time>2019-09-05T11:03:17Z</time>
      </trkpt>
      <trkpt lat="46.55351" lon="5.9143">
        <ele>873.6</ele>
        <time>2019-09-05T11:03:22Z</time>
      </trkpt>
      <trkpt lat="46.55346" lon="5.91432">
        <ele>874.2</ele>
        <time>2019-09-05T11:03:26Z</time>
      </trkpt>
      <trkpt lat="46.55341" lon="5.91434">
        <ele>874.9</ele>
        <time>2019-09-05T11:03:29Z</time>
      </trkpt>
      <trkpt lat="46.55338" lon="5.91439">
        <ele>876.3</ele>
        <time>2019-09-05T11:03:37Z</time>
      </trkpt>
      <trkpt lat="46.55338" lon="5.91447">
        <ele>876.7</ele>
        <time>2019-09-05T11:03:41Z</time>
      </trkpt>
      <trkpt lat="46.55342" lon="5.91452">
        <ele>874.7</ele>
        <time>2019-09-05T11:03:53Z</time>
      </trkpt>
      <trkpt lat="46.55347" lon="5.91454">
        <ele>873.5</ele>
        <time>2019-09-05T11:03:58Z</time>
      </trkpt>
      <trkpt lat="46.55352" lon="5.91457">
        <ele>872.4</ele>
        <time>2019-09-05T11:04:03Z</time>
      </trkpt>
      <trkpt lat="46.55356" lon="5.91459">
        <ele>871.5</ele>
        <time>2019-09-05T11:04:07Z</time>
      </trkpt>
      <trkpt lat="46.5536" lon="5.91463">
        <ele>870.3</ele>
        <time>2019-09-05T11:04:12Z</time>
      </trkpt>
      <trkpt lat="46.55364" lon="5.91468">
        <ele>869.4</ele>
        <time>2019-09-05T11:04:16Z</time>
      </trkpt>
      <trkpt lat="46.55367" lon="5.91473">
        <ele>868.5</ele>
        <time>2019-09-05T11:04:21Z</time>
      </trkpt>
      <trkpt lat="46.5537" lon="5.91479">
        <ele>867</ele>
        <time>2019-09-05T11:04:31Z</time>
      </trkpt>
      <trkpt lat="46.55372" lon="5.91486">
        <ele>866.4</ele>
        <time>2019-09-05T11:04:35Z</time>
      </trkpt>
      <trkpt lat="46.55375" lon="5.91492">
        <ele>865.6</ele>
        <time>2019-09-05T11:04:40Z</time>
      </trkpt>
      <trkpt lat="46.55378" lon="5.91497">
        <ele>864.9</ele>
        <time>2019-09-05T11:04:44Z</time>
      </trkpt>
      <trkpt lat="46.55381" lon="5.91502">
        <ele>864.5</ele>
        <time>2019-09-05T11:04:47Z</time>
      </trkpt>
      <trkpt lat="46.55385" lon="5.91507">
        <ele>863.8</ele>
        <time>2019-09-05T11:04:52Z</time>
      </trkpt>
      <trkpt lat="46.5539" lon="5.91509">
        <ele>863.2</ele>
        <time>2019-09-05T11:04:57Z</time>
      </trkpt>
      <trkpt lat="46.55395" lon="5.91511">
        <ele>862.6</ele>
        <time>2019-09-05T11:05:02Z</time>
      </trkpt>
      <trkpt lat="46.554" lon="5.91512">
        <ele>862.2</ele>
        <time>2019-09-05T11:05:06Z</time>
      </trkpt>
      <trkpt lat="46.55404" lon="5.91514">
        <ele>861.8</ele>
        <time>2019-09-05T11:05:11Z</time>
      </trkpt>
      <trkpt lat="46.5541" lon="5.91514">
        <ele>861.2</ele>
        <time>2019-09-05T11:05:17Z</time>
      </trkpt>
      <trkpt lat="46.55415" lon="5.91515">
        <ele>861</ele>
        <time>2019-09-05T11:05:22Z</time>
      </trkpt>
      <trkpt lat="46.55421" lon="5.91517">
        <ele>861.1</ele>
        <time>2019-09-05T11:05:27Z</time>
      </trkpt>
      <trkpt lat="46.55425" lon="5.91519">
        <ele>861.2</ele>
        <time>2019-09-05T11:05:32Z</time>
      </trkpt>
      <trkpt lat="46.55429" lon="5.91521">
        <ele>861.2</ele>
        <time>2019-09-05T11:05:36Z</time>
      </trkpt>
      <trkpt lat="46.55433" lon="5.91524">
        <ele>861.3</ele>
        <time>2019-09-05T11:05:40Z</time>
      </trkpt>
      <trkpt lat="46.55438" lon="5.91527">
        <ele>861.5</ele>
        <time>2019-09-05T11:05:45Z</time>
      </trkpt>
      <trkpt lat="46.55443" lon="5.91531">
        <ele>861.7</ele>
        <time>2019-09-05T11:05:50Z</time>
      </trkpt>
      <trkpt lat="46.55447" lon="5.91533">
        <ele>862</ele>
        <time>2019-09-05T11:05:55Z</time>
      </trkpt>
      <trkpt lat="46.55451" lon="5.91538">
        <ele>862.4</ele>
        <time>2019-09-05T11:06:00Z</time>
      </trkpt>
      <trkpt lat="46.55456" lon="5.91543">
        <ele>862.7</ele>
        <time>2019-09-05T11:06:04Z</time>
      </trkpt>
      <trkpt lat="46.5546" lon="5.91547">
        <ele>863.1</ele>
        <time>2019-09-05T11:06:09Z</time>
      </trkpt>
      <trkpt lat="46.55464" lon="5.91551">
        <ele>863.5</ele>
        <time>2019-09-05T11:06:14Z</time>
      </trkpt>
      <trkpt lat="46.55468" lon="5.91555">
        <ele>863.5</ele>
        <time>2019-09-05T11:06:18Z</time>
      </trkpt>
      <trkpt lat="46.55472" lon="5.91561">
        <ele>863.6</ele>
        <time>2019-09-05T11:06:23Z</time>
      </trkpt>
      <trkpt lat="46.55475" lon="5.91566">
        <ele>863.6</ele>
        <time>2019-09-05T11:06:28Z</time>
      </trkpt>
      <trkpt lat="46.55479" lon="5.9157">
        <ele>863.6</ele>
        <time>2019-09-05T11:06:34Z</time>
      </trkpt>
      <trkpt lat="46.55483" lon="5.91574">
        <ele>863.6</ele>
        <time>2019-09-05T11:06:39Z</time>
      </trkpt>
      <trkpt lat="46.55487" lon="5.91578">
        <ele>863.5</ele>
        <time>2019-09-05T11:06:43Z</time>
      </trkpt>
      <trkpt lat="46.55491" lon="5.91583">
        <ele>863.6</ele>
        <time>2019-09-05T11:06:48Z</time>
      </trkpt>
      <trkpt lat="46.55495" lon="5.91587">
        <ele>863.8</ele>
        <time>2019-09-05T11:06:53Z</time>
      </trkpt>
      <trkpt lat="46.55499" lon="5.9159">
        <ele>863.9</ele>
        <time>2019-09-05T11:06:57Z</time>
      </trkpt>
      <trkpt lat="46.55504" lon="5.91594">
        <ele>863.9</ele>
        <time>2019-09-05T11:07:02Z</time>
      </trkpt>
      <trkpt lat="46.55508" lon="5.91598">
        <ele>863.9</ele>
        <time>2019-09-05T11:07:07Z</time>
      </trkpt>
      <trkpt lat="46.55512" lon="5.91602">
        <ele>864</ele>
        <time>2019-09-05T11:07:12Z</time>
      </trkpt>
      <trkpt lat="46.55517" lon="5.91605">
        <ele>864.2</ele>
        <time>2019-09-05T11:07:17Z</time>
      </trkpt>
      <trkpt lat="46.55522" lon="5.91607">
        <ele>864.7</ele>
        <time>2019-09-05T11:07:22Z</time>
      </trkpt>
      <trkpt lat="46.55526" lon="5.91612">
        <ele>865.4</ele>
        <time>2019-09-05T11:07:27Z</time>
      </trkpt>
      <trkpt lat="46.5553" lon="5.91615">
        <ele>865.8</ele>
        <time>2019-09-05T11:07:32Z</time>
      </trkpt>
      <trkpt lat="46.55535" lon="5.91619">
        <ele>865.9</ele>
        <time>2019-09-05T11:07:37Z</time>
      </trkpt>
      <trkpt lat="46.55539" lon="5.91621">
        <ele>866</ele>
        <time>2019-09-05T11:07:42Z</time>
      </trkpt>
      <trkpt lat="46.55544" lon="5.91623">
        <ele>865.9</ele>
        <time>2019-09-05T11:07:46Z</time>
      </trkpt>
      <trkpt lat="46.55549" lon="5.91625">
        <ele>865.8</ele>
        <time>2019-09-05T11:07:51Z</time>
      </trkpt>
      <trkpt lat="46.55554" lon="5.91628">
        <ele>865.8</ele>
        <time>2019-09-05T11:07:56Z</time>
      </trkpt>
      <trkpt lat="46.55559" lon="5.91631">
        <ele>865.8</ele>
        <time>2019-09-05T11:08:00Z</time>
      </trkpt>
      <trkpt lat="46.55563" lon="5.91632">
        <ele>865.9</ele>
        <time>2019-09-05T11:08:04Z</time>
      </trkpt>
      <trkpt lat="46.55569" lon="5.91633">
        <ele>866.1</ele>
        <time>2019-09-05T11:08:08Z</time>
      </trkpt>
      <trkpt lat="46.55574" lon="5.91635">
        <ele>866.4</ele>
        <time>2019-09-05T11:08:14Z</time>
      </trkpt>
      <trkpt lat="46.55578" lon="5.91639">
        <ele>866.8</ele>
        <time>2019-09-05T11:08:19Z</time>
      </trkpt>
      <trkpt lat="46.55582" lon="5.91643">
        <ele>867.1</ele>
        <time>2019-09-05T11:08:25Z</time>
      </trkpt>
      <trkpt lat="46.55586" lon="5.91647">
        <ele>867</ele>
        <time>2019-09-05T11:08:30Z</time>
      </trkpt>
      <trkpt lat="46.55591" lon="5.91651">
        <ele>866.9</ele>
        <time>2019-09-05T11:08:36Z</time>
      </trkpt>
      <trkpt lat="46.55595" lon="5.91655">
        <ele>866.5</ele>
        <time>2019-09-05T11:08:41Z</time>
      </trkpt>
      <trkpt lat="46.55599" lon="5.91658">
        <ele>866</ele>
        <time>2019-09-05T11:08:46Z</time>
      </trkpt>
      <trkpt lat="46.55603" lon="5.91662">
        <ele>865.8</ele>
        <time>2019-09-05T11:08:50Z</time>
      </trkpt>
      <trkpt lat="46.55607" lon="5.91666">
        <ele>865.7</ele>
        <time>2019-09-05T11:08:54Z</time>
      </trkpt>
      <trkpt lat="46.55611" lon="5.9167">
        <ele>865.5</ele>
        <time>2019-09-05T11:08:58Z</time>
      </trkpt>
      <trkpt lat="46.55616" lon="5.91674">
        <ele>865.4</ele>
        <time>2019-09-05T11:09:03Z</time>
      </trkpt>
      <trkpt lat="46.5562" lon="5.91677">
        <ele>865.2</ele>
        <time>2019-09-05T11:09:07Z</time>
      </trkpt>
      <trkpt lat="46.55624" lon="5.91681">
        <ele>865</ele>
        <time>2019-09-05T11:09:11Z</time>
      </trkpt>
      <trkpt lat="46.55628" lon="5.91684">
        <ele>864.9</ele>
        <time>2019-09-05T11:09:15Z</time>
      </trkpt>
      <trkpt lat="46.55633" lon="5.91687">
        <ele>865</ele>
        <time>2019-09-05T11:09:20Z</time>
      </trkpt>
      <trkpt lat="46.55639" lon="5.9169">
        <ele>864.8</ele>
        <time>2019-09-05T11:09:25Z</time>
      </trkpt>
      <trkpt lat="46.55644" lon="5.91693">
        <ele>864.3</ele>
        <time>2019-09-05T11:09:30Z</time>
      </trkpt>
      <trkpt lat="46.55649" lon="5.91696">
        <ele>863.7</ele>
        <time>2019-09-05T11:09:35Z</time>
      </trkpt>
      <trkpt lat="46.55653" lon="5.91699">
        <ele>863.4</ele>
        <time>2019-09-05T11:09:39Z</time>
      </trkpt>
      <trkpt lat="46.55658" lon="5.91701">
        <ele>863.1</ele>
        <time>2019-09-05T11:09:44Z</time>
      </trkpt>
      <trkpt lat="46.55663" lon="5.91703">
        <ele>862.5</ele>
        <time>2019-09-05T11:09:50Z</time>
      </trkpt>
      <trkpt lat="46.55668" lon="5.91705">
        <ele>862</ele>
        <time>2019-09-05T11:09:55Z</time>
      </trkpt>
      <trkpt lat="46.55673" lon="5.91707">
        <ele>861.6</ele>
        <time>2019-09-05T11:09:59Z</time>
      </trkpt>
      <trkpt lat="46.55678" lon="5.91708">
        <ele>861.2</ele>
        <time>2019-09-05T11:10:03Z</time>
      </trkpt>
      <trkpt lat="46.55683" lon="5.9171">
        <ele>860.9</ele>
        <time>2019-09-05T11:10:07Z</time>
      </trkpt>
      <trkpt lat="46.55688" lon="5.9171">
        <ele>860.4</ele>
        <time>2019-09-05T11:10:13Z</time>
      </trkpt>
      <trkpt lat="46.55693" lon="5.91712">
        <ele>860</ele>
        <time>2019-09-05T11:10:17Z</time>
      </trkpt>
      <trkpt lat="46.55698" lon="5.91712">
        <ele>859.8</ele>
        <time>2019-09-05T11:10:21Z</time>
      </trkpt>
      <trkpt lat="46.55702" lon="5.91714">
        <ele>859.4</ele>
        <time>2019-09-05T11:10:26Z</time>
      </trkpt>
      <trkpt lat="46.55707" lon="5.91716">
        <ele>858.7</ele>
        <time>2019-09-05T11:10:33Z</time>
      </trkpt>
      <trkpt lat="46.55713" lon="5.91718">
        <ele>858.3</ele>
        <time>2019-09-05T11:10:39Z</time>
      </trkpt>
      <trkpt lat="46.55717" lon="5.91721">
        <ele>858.1</ele>
        <time>2019-09-05T11:10:43Z</time>
      </trkpt>
      <trkpt lat="46.55722" lon="5.91722">
        <ele>858</ele>
        <time>2019-09-05T11:10:47Z</time>
      </trkpt>
      <trkpt lat="46.55727" lon="5.91725">
        <ele>857.9</ele>
        <time>2019-09-05T11:10:52Z</time>
      </trkpt>
      <trkpt lat="46.55732" lon="5.91728">
        <ele>857.9</ele>
        <time>2019-09-05T11:10:57Z</time>
      </trkpt>
      <trkpt lat="46.55737" lon="5.91731">
        <ele>857.9</ele>
        <time>2019-09-05T11:11:01Z</time>
      </trkpt>
      <trkpt lat="46.55741" lon="5.91733">
        <ele>858</ele>
        <time>2019-09-05T11:11:05Z</time>
      </trkpt>
      <trkpt lat="46.55746" lon="5.91735">
        <ele>858.1</ele>
        <time>2019-09-05T11:11:10Z</time>
      </trkpt>
      <trkpt lat="46.55751" lon="5.91737">
        <ele>858.4</ele>
        <time>2019-09-05T11:11:16Z</time>
      </trkpt>
      <trkpt lat="46.55755" lon="5.91739">
        <ele>858.6</ele>
        <time>2019-09-05T11:11:20Z</time>
      </trkpt>
      <trkpt lat="46.5576" lon="5.91742">
        <ele>859</ele>
        <time>2019-09-05T11:11:26Z</time>
      </trkpt>
      <trkpt lat="46.55765" lon="5.91743">
        <ele>859.3</ele>
        <time>2019-09-05T11:11:32Z</time>
      </trkpt>
      <trkpt lat="46.5577" lon="5.91745">
        <ele>859.3</ele>
        <time>2019-09-05T11:11:37Z</time>
      </trkpt>
      <trkpt lat="46.55775" lon="5.91747">
        <ele>859.3</ele>
        <time>2019-09-05T11:11:43Z</time>
      </trkpt>
      <trkpt lat="46.55779" lon="5.91749">
        <ele>859.6</ele>
        <time>2019-09-05T11:11:49Z</time>
      </trkpt>
      <trkpt lat="46.55783" lon="5.91753">
        <ele>860.3</ele>
        <time>2019-09-05T11:11:56Z</time>
      </trkpt>
      <trkpt lat="46.55787" lon="5.91757">
        <ele>860.6</ele>
        <time>2019-09-05T11:12:00Z</time>
      </trkpt>
      <trkpt lat="46.55791" lon="5.9176">
        <ele>861.1</ele>
        <time>2019-09-05T11:12:05Z</time>
      </trkpt>
      <trkpt lat="46.55795" lon="5.91762">
        <ele>861.7</ele>
        <time>2019-09-05T11:12:11Z</time>
      </trkpt>
      <trkpt lat="46.558" lon="5.91766">
        <ele>862</ele>
        <time>2019-09-05T11:12:19Z</time>
      </trkpt>
      <trkpt lat="46.55804" lon="5.91768">
        <ele>862</ele>
        <time>2019-09-05T11:12:22Z</time>
      </trkpt>
      <trkpt lat="46.55809" lon="5.91769">
        <ele>862.1</ele>
        <time>2019-09-05T11:12:26Z</time>
      </trkpt>
      <trkpt lat="46.55813" lon="5.91771">
        <ele>862.1</ele>
        <time>2019-09-05T11:12:30Z</time>
      </trkpt>
      <trkpt lat="46.55818" lon="5.91773">
        <ele>862.2</ele>
        <time>2019-09-05T11:12:34Z</time>
      </trkpt>
      <trkpt lat="46.55823" lon="5.91776">
        <ele>862.4</ele>
        <time>2019-09-05T11:12:40Z</time>
      </trkpt>
      <trkpt lat="46.55828" lon="5.91778">
        <ele>862.6</ele>
        <time>2019-09-05T11:12:44Z</time>
      </trkpt>
      <trkpt lat="46.55833" lon="5.9178">
        <ele>862.8</ele>
        <time>2019-09-05T11:12:48Z</time>
      </trkpt>
      <trkpt lat="46.55838" lon="5.91783">
        <ele>862.9</ele>
        <time>2019-09-05T11:12:53Z</time>
      </trkpt>
      <trkpt lat="46.55842" lon="5.91786">
        <ele>862.9</ele>
        <time>2019-09-05T11:12:57Z</time>
      </trkpt>
      <trkpt lat="46.55847" lon="5.91789">
        <ele>862.9</ele>
        <time>2019-09-05T11:13:02Z</time>
      </trkpt>
      <trkpt lat="46.55851" lon="5.91792">
        <ele>863</ele>
        <time>2019-09-05T11:13:07Z</time>
      </trkpt>
      <trkpt lat="46.55856" lon="5.91793">
        <ele>863.3</ele>
        <time>2019-09-05T11:13:11Z</time>
      </trkpt>
      <trkpt lat="46.5586" lon="5.91795">
        <ele>863.4</ele>
        <time>2019-09-05T11:13:16Z</time>
      </trkpt>
      <trkpt lat="46.55865" lon="5.91798">
        <ele>863.7</ele>
        <time>2019-09-05T11:13:22Z</time>
      </trkpt>
      <trkpt lat="46.5587" lon="5.91801">
        <ele>864</ele>
        <time>2019-09-05T11:13:27Z</time>
      </trkpt>
      <trkpt lat="46.55874" lon="5.91804">
        <ele>864.4</ele>
        <time>2019-09-05T11:13:32Z</time>
      </trkpt>
      <trkpt lat="46.55879" lon="5.91807">
        <ele>865.1</ele>
        <time>2019-09-05T11:13:39Z</time>
      </trkpt>
      <trkpt lat="46.55884" lon="5.91809">
        <ele>865.5</ele>
        <time>2019-09-05T11:13:44Z</time>
      </trkpt>
      <trkpt lat="46.55888" lon="5.91811">
        <ele>866</ele>
        <time>2019-09-05T11:13:50Z</time>
      </trkpt>
      <trkpt lat="46.55893" lon="5.91814">
        <ele>866.4</ele>
        <time>2019-09-05T11:13:55Z</time>
      </trkpt>
      <trkpt lat="46.55899" lon="5.91816">
        <ele>866.8</ele>
        <time>2019-09-05T11:14:00Z</time>
      </trkpt>
      <trkpt lat="46.55904" lon="5.91818">
        <ele>867.4</ele>
        <time>2019-09-05T11:14:04Z</time>
      </trkpt>
      <trkpt lat="46.55908" lon="5.9182">
        <ele>868.1</ele>
        <time>2019-09-05T11:14:10Z</time>
      </trkpt>
      <trkpt lat="46.55913" lon="5.91822">
        <ele>868.4</ele>
        <time>2019-09-05T11:14:17Z</time>
      </trkpt>
      <trkpt lat="46.55917" lon="5.91824">
        <ele>868.5</ele>
        <time>2019-09-05T11:14:21Z</time>
      </trkpt>
      <trkpt lat="46.55923" lon="5.91826">
        <ele>868.6</ele>
        <time>2019-09-05T11:14:25Z</time>
      </trkpt>
      <trkpt lat="46.55928" lon="5.9183">
        <ele>868.9</ele>
        <time>2019-09-05T11:14:29Z</time>
      </trkpt>
      <trkpt lat="46.55932" lon="5.91833">
        <ele>869.2</ele>
        <time>2019-09-05T11:14:34Z</time>
      </trkpt>
      <trkpt lat="46.55937" lon="5.91836">
        <ele>869.6</ele>
        <time>2019-09-05T11:14:40Z</time>
      </trkpt>
      <trkpt lat="46.55942" lon="5.91839">
        <ele>869.9</ele>
        <time>2019-09-05T11:14:44Z</time>
      </trkpt>
      <trkpt lat="46.55946" lon="5.91841">
        <ele>870.2</ele>
        <time>2019-09-05T11:14:48Z</time>
      </trkpt>
      <trkpt lat="46.5595" lon="5.91843">
        <ele>870.6</ele>
        <time>2019-09-05T11:14:52Z</time>
      </trkpt>
      <trkpt lat="46.55955" lon="5.91847">
        <ele>871</ele>
        <time>2019-09-05T11:14:58Z</time>
      </trkpt>
      <trkpt lat="46.55959" lon="5.91849">
        <ele>871.1</ele>
        <time>2019-09-05T11:15:02Z</time>
      </trkpt>
      <trkpt lat="46.55964" lon="5.91851">
        <ele>871.3</ele>
        <time>2019-09-05T11:15:07Z</time>
      </trkpt>
      <trkpt lat="46.55969" lon="5.91853">
        <ele>871.5</ele>
        <time>2019-09-05T11:15:12Z</time>
      </trkpt>
      <trkpt lat="46.55974" lon="5.91854">
        <ele>871.6</ele>
        <time>2019-09-05T11:15:17Z</time>
      </trkpt>
      <trkpt lat="46.55979" lon="5.91855">
        <ele>871.8</ele>
        <time>2019-09-05T11:15:21Z</time>
      </trkpt>
      <trkpt lat="46.55984" lon="5.91858">
        <ele>871.8</ele>
        <time>2019-09-05T11:15:26Z</time>
      </trkpt>
      <trkpt lat="46.55989" lon="5.91861">
        <ele>871.9</ele>
        <time>2019-09-05T11:15:31Z</time>
      </trkpt>
      <trkpt lat="46.55993" lon="5.91864">
        <ele>872</ele>
        <time>2019-09-05T11:15:35Z</time>
      </trkpt>
      <trkpt lat="46.55998" lon="5.91867">
        <ele>872.1</ele>
        <time>2019-09-05T11:15:40Z</time>
      </trkpt>
      <trkpt lat="46.56002" lon="5.91871">
        <ele>872.2</ele>
        <time>2019-09-05T11:15:44Z</time>
      </trkpt>
      <trkpt lat="46.56006" lon="5.91874">
        <ele>872.2</ele>
        <time>2019-09-05T11:15:49Z</time>
      </trkpt>
      <trkpt lat="46.5601" lon="5.91878">
        <ele>872.1</ele>
        <time>2019-09-05T11:15:54Z</time>
      </trkpt>
      <trkpt lat="46.56014" lon="5.91882">
        <ele>871.8</ele>
        <time>2019-09-05T11:15:59Z</time>
      </trkpt>
      <trkpt lat="46.56017" lon="5.91887">
        <ele>871.2</ele>
        <time>2019-09-05T11:16:04Z</time>
      </trkpt>
      <trkpt lat="46.56021" lon="5.91891">
        <ele>870.6</ele>
        <time>2019-09-05T11:16:09Z</time>
      </trkpt>
      <trkpt lat="46.56026" lon="5.91895">
        <ele>869.8</ele>
        <time>2019-09-05T11:16:14Z</time>
      </trkpt>
      <trkpt lat="46.5603" lon="5.919">
        <ele>869.4</ele>
        <time>2019-09-05T11:16:19Z</time>
      </trkpt>
      <trkpt lat="46.56034" lon="5.91905">
        <ele>869.3</ele>
        <time>2019-09-05T11:16:24Z</time>
      </trkpt>
      <trkpt lat="46.56039" lon="5.9191">
        <ele>869.5</ele>
        <time>2019-09-05T11:16:29Z</time>
      </trkpt>
      <trkpt lat="46.56043" lon="5.91914">
        <ele>869.8</ele>
        <time>2019-09-05T11:16:34Z</time>
      </trkpt>
      <trkpt lat="46.56047" lon="5.91918">
        <ele>870.1</ele>
        <time>2019-09-05T11:16:38Z</time>
      </trkpt>
      <trkpt lat="46.56051" lon="5.91923">
        <ele>870.4</ele>
        <time>2019-09-05T11:16:43Z</time>
      </trkpt>
      <trkpt lat="46.56056" lon="5.91926">
        <ele>870.6</ele>
        <time>2019-09-05T11:16:48Z</time>
      </trkpt>
      <trkpt lat="46.5606" lon="5.91931">
        <ele>870.9</ele>
        <time>2019-09-05T11:16:53Z</time>
      </trkpt>
      <trkpt lat="46.56063" lon="5.91937">
        <ele>871.2</ele>
        <time>2019-09-05T11:16:58Z</time>
      </trkpt>
      <trkpt lat="46.56067" lon="5.91941">
        <ele>871.5</ele>
        <time>2019-09-05T11:17:03Z</time>
      </trkpt>
      <trkpt lat="46.56071" lon="5.91945">
        <ele>871.7</ele>
        <time>2019-09-05T11:17:08Z</time>
      </trkpt>
      <trkpt lat="46.56075" lon="5.91949">
        <ele>871.8</ele>
        <time>2019-09-05T11:17:12Z</time>
      </trkpt>
      <trkpt lat="46.56079" lon="5.91953">
        <ele>871.9</ele>
        <time>2019-09-05T11:17:17Z</time>
      </trkpt>
      <trkpt lat="46.56084" lon="5.91956">
        <ele>872</ele>
        <time>2019-09-05T11:17:21Z</time>
      </trkpt>
      <trkpt lat="46.56088" lon="5.91959">
        <ele>872</ele>
        <time>2019-09-05T11:17:25Z</time>
      </trkpt>
      <trkpt lat="46.56092" lon="5.91963">
        <ele>872.1</ele>
        <time>2019-09-05T11:17:29Z</time>
      </trkpt>
      <trkpt lat="46.56096" lon="5.91968">
        <ele>872.3</ele>
        <time>2019-09-05T11:17:35Z</time>
      </trkpt>
      <trkpt lat="46.561" lon="5.91972">
        <ele>872.5</ele>
        <time>2019-09-05T11:17:39Z</time>
      </trkpt>
      <trkpt lat="46.56105" lon="5.91974">
        <ele>872.7</ele>
        <time>2019-09-05T11:17:43Z</time>
      </trkpt>
      <trkpt lat="46.5611" lon="5.91975">
        <ele>872.9</ele>
        <time>2019-09-05T11:17:48Z</time>
      </trkpt>
      <trkpt lat="46.56115" lon="5.91978">
        <ele>873.3</ele>
        <time>2019-09-05T11:17:54Z</time>
      </trkpt>
      <trkpt lat="46.5612" lon="5.9198">
        <ele>873.6</ele>
        <time>2019-09-05T11:17:59Z</time>
      </trkpt>
      <trkpt lat="46.56125" lon="5.91981">
        <ele>873.8</ele>
        <time>2019-09-05T11:18:04Z</time>
      </trkpt>
      <trkpt lat="46.56129" lon="5.91984">
        <ele>874</ele>
        <time>2019-09-05T11:18:13Z</time>
      </trkpt>
      <trkpt lat="46.56132" lon="5.9199">
        <ele>873.8</ele>
        <time>2019-09-05T11:18:23Z</time>
      </trkpt>
      <trkpt lat="46.56135" lon="5.91994">
        <ele>873.8</ele>
        <time>2019-09-05T11:18:32Z</time>
      </trkpt>
      <trkpt lat="46.56138" lon="5.92">
        <ele>873.7</ele>
        <time>2019-09-05T11:18:38Z</time>
      </trkpt>
      <trkpt lat="46.5614" lon="5.92006">
        <ele>873.9</ele>
        <time>2019-09-05T11:18:44Z</time>
      </trkpt>
      <trkpt lat="46.56142" lon="5.92013">
        <ele>874.1</ele>
        <time>2019-09-05T11:18:50Z</time>
      </trkpt>
      <trkpt lat="46.56146" lon="5.92018">
        <ele>874.1</ele>
        <time>2019-09-05T11:18:55Z</time>
      </trkpt>
      <trkpt lat="46.5615" lon="5.92022">
        <ele>874</ele>
        <time>2019-09-05T11:19:00Z</time>
      </trkpt>
      <trkpt lat="46.56155" lon="5.92027">
        <ele>873.6</ele>
        <time>2019-09-05T11:19:06Z</time>
      </trkpt>
      <trkpt lat="46.56159" lon="5.92031">
        <ele>873.1</ele>
        <time>2019-09-05T11:19:11Z</time>
      </trkpt>
      <trkpt lat="46.56163" lon="5.92034">
        <ele>872.9</ele>
        <time>2019-09-05T11:19:18Z</time>
      </trkpt>
      <trkpt lat="46.56168" lon="5.92039">
        <ele>872.5</ele>
        <time>2019-09-05T11:19:28Z</time>
      </trkpt>
      <trkpt lat="46.56172" lon="5.92042">
        <ele>872.4</ele>
        <time>2019-09-05T11:19:33Z</time>
      </trkpt>
      <trkpt lat="46.56177" lon="5.92044">
        <ele>872.4</ele>
        <time>2019-09-05T11:19:36Z</time>
      </trkpt>
      <trkpt lat="46.56182" lon="5.92046">
        <ele>872.6</ele>
        <time>2019-09-05T11:19:40Z</time>
      </trkpt>
      <trkpt lat="46.56188" lon="5.92046">
        <ele>872.8</ele>
        <time>2019-09-05T11:19:44Z</time>
      </trkpt>
      <trkpt lat="46.56193" lon="5.92047">
        <ele>873.1</ele>
        <time>2019-09-05T11:19:49Z</time>
      </trkpt>
      <trkpt lat="46.56198" lon="5.92048">
        <ele>873.4</ele>
        <time>2019-09-05T11:19:54Z</time>
      </trkpt>
      <trkpt lat="46.56203" lon="5.92049">
        <ele>873.7</ele>
        <time>2019-09-05T11:19:59Z</time>
      </trkpt>
      <trkpt lat="46.56208" lon="5.9205">
        <ele>874.1</ele>
        <time>2019-09-05T11:20:05Z</time>
      </trkpt>
      <trkpt lat="46.56212" lon="5.92053">
        <ele>874.2</ele>
        <time>2019-09-05T11:20:10Z</time>
      </trkpt>
      <trkpt lat="46.56217" lon="5.92057">
        <ele>874</ele>
        <time>2019-09-05T11:20:15Z</time>
      </trkpt>
      <trkpt lat="46.5622" lon="5.92061">
        <ele>873.7</ele>
        <time>2019-09-05T11:20:20Z</time>
      </trkpt>
      <trkpt lat="46.56224" lon="5.92066">
        <ele>873.5</ele>
        <time>2019-09-05T11:20:25Z</time>
      </trkpt>
      <trkpt lat="46.56228" lon="5.92071">
        <ele>873.4</ele>
        <time>2019-09-05T11:20:30Z</time>
      </trkpt>
      <trkpt lat="46.56232" lon="5.92076">
        <ele>873.3</ele>
        <time>2019-09-05T11:20:36Z</time>
      </trkpt>
      <trkpt lat="46.56237" lon="5.92079">
        <ele>873.1</ele>
        <time>2019-09-05T11:20:41Z</time>
      </trkpt>
      <trkpt lat="46.56242" lon="5.92082">
        <ele>872.9</ele>
        <time>2019-09-05T11:20:46Z</time>
      </trkpt>
      <trkpt lat="46.56246" lon="5.92087">
        <ele>872.7</ele>
        <time>2019-09-05T11:20:51Z</time>
      </trkpt>
      <trkpt lat="46.5625" lon="5.92091">
        <ele>872.6</ele>
        <time>2019-09-05T11:20:55Z</time>
      </trkpt>
      <trkpt lat="46.56254" lon="5.92096">
        <ele>872.5</ele>
        <time>2019-09-05T11:21:07Z</time>
      </trkpt>
      <trkpt lat="46.56259" lon="5.92099">
        <ele>872.4</ele>
        <time>2019-09-05T11:21:12Z</time>
      </trkpt>
      <trkpt lat="46.56263" lon="5.92103">
        <ele>872.3</ele>
        <time>2019-09-05T11:21:18Z</time>
      </trkpt>
      <trkpt lat="46.56267" lon="5.92106">
        <ele>872.2</ele>
        <time>2019-09-05T11:21:22Z</time>
      </trkpt>
      <trkpt lat="46.56272" lon="5.92108">
        <ele>872.3</ele>
        <time>2019-09-05T11:21:25Z</time>
      </trkpt>
      <trkpt lat="46.56277" lon="5.9211">
        <ele>872.5</ele>
        <time>2019-09-05T11:21:29Z</time>
      </trkpt>
      <trkpt lat="46.56281" lon="5.92113">
        <ele>872.8</ele>
        <time>2019-09-05T11:21:33Z</time>
      </trkpt>
      <trkpt lat="46.56286" lon="5.92115">
        <ele>873.2</ele>
        <time>2019-09-05T11:21:37Z</time>
      </trkpt>
      <trkpt lat="46.56291" lon="5.92118">
        <ele>873.9</ele>
        <time>2019-09-05T11:21:43Z</time>
      </trkpt>
      <trkpt lat="46.56295" lon="5.92121">
        <ele>874.4</ele>
        <time>2019-09-05T11:21:49Z</time>
      </trkpt>
      <trkpt lat="46.56299" lon="5.92125">
        <ele>875.2</ele>
        <time>2019-09-05T11:21:59Z</time>
      </trkpt>
      <trkpt lat="46.56304" lon="5.92127">
        <ele>876.9</ele>
        <time>2019-09-05T11:22:15Z</time>
      </trkpt>
      <trkpt lat="46.56309" lon="5.92129">
        <ele>877.2</ele>
        <time>2019-09-05T11:22:20Z</time>
      </trkpt>
      <trkpt lat="46.56314" lon="5.9213">
        <ele>877.4</ele>
        <time>2019-09-05T11:22:25Z</time>
      </trkpt>
      <trkpt lat="46.56319" lon="5.92131">
        <ele>877.7</ele>
        <time>2019-09-05T11:22:31Z</time>
      </trkpt>
      <trkpt lat="46.56324" lon="5.92132">
        <ele>877.8</ele>
        <time>2019-09-05T11:22:36Z</time>
      </trkpt>
      <trkpt lat="46.56329" lon="5.9213">
        <ele>877.9</ele>
        <time>2019-09-05T11:22:41Z</time>
      </trkpt>
      <trkpt lat="46.56334" lon="5.9213">
        <ele>877.9</ele>
        <time>2019-09-05T11:22:46Z</time>
      </trkpt>
      <trkpt lat="46.56339" lon="5.92128">
        <ele>877.9</ele>
        <time>2019-09-05T11:22:50Z</time>
      </trkpt>
      <trkpt lat="46.56343" lon="5.92126">
        <ele>878</ele>
        <time>2019-09-05T11:22:54Z</time>
      </trkpt>
      <trkpt lat="46.56348" lon="5.92124">
        <ele>878.3</ele>
        <time>2019-09-05T11:22:59Z</time>
      </trkpt>
      <trkpt lat="46.56353" lon="5.92122">
        <ele>878.5</ele>
        <time>2019-09-05T11:23:04Z</time>
      </trkpt>
      <trkpt lat="46.56358" lon="5.92121">
        <ele>878.7</ele>
        <time>2019-09-05T11:23:09Z</time>
      </trkpt>
      <trkpt lat="46.56363" lon="5.9212">
        <ele>878.9</ele>
        <time>2019-09-05T11:23:13Z</time>
      </trkpt>
      <trkpt lat="46.56367" lon="5.92118">
        <ele>879</ele>
        <time>2019-09-05T11:23:18Z</time>
      </trkpt>
      <trkpt lat="46.56372" lon="5.92116">
        <ele>879.1</ele>
        <time>2019-09-05T11:23:23Z</time>
      </trkpt>
      <trkpt lat="46.56377" lon="5.92116">
        <ele>879</ele>
        <time>2019-09-05T11:23:29Z</time>
      </trkpt>
      <trkpt lat="46.56382" lon="5.92116">
        <ele>878.9</ele>
        <time>2019-09-05T11:23:33Z</time>
      </trkpt>
      <trkpt lat="46.56387" lon="5.92117">
        <ele>878.8</ele>
        <time>2019-09-05T11:23:37Z</time>
      </trkpt>
      <trkpt lat="46.56392" lon="5.92117">
        <ele>878.8</ele>
        <time>2019-09-05T11:23:40Z</time>
      </trkpt>
      <trkpt lat="46.56397" lon="5.92116">
        <ele>878.9</ele>
        <time>2019-09-05T11:23:44Z</time>
      </trkpt>
      <trkpt lat="46.56402" lon="5.92115">
        <ele>879</ele>
        <time>2019-09-05T11:23:50Z</time>
      </trkpt>
      <trkpt lat="46.56407" lon="5.92114">
        <ele>879.1</ele>
        <time>2019-09-05T11:23:55Z</time>
      </trkpt>
      <trkpt lat="46.56411" lon="5.92114">
        <ele>879.1</ele>
        <time>2019-09-05T11:24:00Z</time>
      </trkpt>
      <trkpt lat="46.56417" lon="5.92116">
        <ele>879.4</ele>
        <time>2019-09-05T11:24:06Z</time>
      </trkpt>
      <trkpt lat="46.56422" lon="5.92117">
        <ele>879.7</ele>
        <time>2019-09-05T11:24:10Z</time>
      </trkpt>
      <trkpt lat="46.56427" lon="5.92118">
        <ele>880</ele>
        <time>2019-09-05T11:24:14Z</time>
      </trkpt>
      <trkpt lat="46.56432" lon="5.92118">
        <ele>880.3</ele>
        <time>2019-09-05T11:24:19Z</time>
      </trkpt>
      <trkpt lat="46.56437" lon="5.92118">
        <ele>880.8</ele>
        <time>2019-09-05T11:24:24Z</time>
      </trkpt>
      <trkpt lat="46.56441" lon="5.92117">
        <ele>881.2</ele>
        <time>2019-09-05T11:24:29Z</time>
      </trkpt>
      <trkpt lat="46.56446" lon="5.92115">
        <ele>881.5</ele>
        <time>2019-09-05T11:24:33Z</time>
      </trkpt>
      <trkpt lat="46.56451" lon="5.92114">
        <ele>881.8</ele>
        <time>2019-09-05T11:24:38Z</time>
      </trkpt>
      <trkpt lat="46.56455" lon="5.92117">
        <ele>882.4</ele>
        <time>2019-09-05T11:24:46Z</time>
      </trkpt>
      <trkpt lat="46.56457" lon="5.92124">
        <ele>882.7</ele>
        <time>2019-09-05T11:24:55Z</time>
      </trkpt>
      <trkpt lat="46.56459" lon="5.92131">
        <ele>882.6</ele>
        <time>2019-09-05T11:25:01Z</time>
      </trkpt>
      <trkpt lat="46.56462" lon="5.92137">
        <ele>882.3</ele>
        <time>2019-09-05T11:25:08Z</time>
      </trkpt>
      <trkpt lat="46.56465" lon="5.92143">
        <ele>882.1</ele>
        <time>2019-09-05T11:25:12Z</time>
      </trkpt>
      <trkpt lat="46.5647" lon="5.92147">
        <ele>881.9</ele>
        <time>2019-09-05T11:25:19Z</time>
      </trkpt>
      <trkpt lat="46.56474" lon="5.92151">
        <ele>881.7</ele>
        <time>2019-09-05T11:25:23Z</time>
      </trkpt>
      <trkpt lat="46.56479" lon="5.92154">
        <ele>881.6</ele>
        <time>2019-09-05T11:25:27Z</time>
      </trkpt>
      <trkpt lat="46.56483" lon="5.92156">
        <ele>881.6</ele>
        <time>2019-09-05T11:25:31Z</time>
      </trkpt>
      <trkpt lat="46.56489" lon="5.92158">
        <ele>881.6</ele>
        <time>2019-09-05T11:25:36Z</time>
      </trkpt>
      <trkpt lat="46.56493" lon="5.92161">
        <ele>881.7</ele>
        <time>2019-09-05T11:25:40Z</time>
      </trkpt>
      <trkpt lat="46.56497" lon="5.92163">
        <ele>881.9</ele>
        <time>2019-09-05T11:25:45Z</time>
      </trkpt>
      <trkpt lat="46.56502" lon="5.92167">
        <ele>882</ele>
        <time>2019-09-05T11:25:50Z</time>
      </trkpt>
      <trkpt lat="46.56506" lon="5.92172">
        <ele>882.1</ele>
        <time>2019-09-05T11:25:56Z</time>
      </trkpt>
      <trkpt lat="46.5651" lon="5.92176">
        <ele>881.9</ele>
        <time>2019-09-05T11:26:03Z</time>
      </trkpt>
      <trkpt lat="46.56515" lon="5.92178">
        <ele>881.8</ele>
        <time>2019-09-05T11:26:08Z</time>
      </trkpt>
      <trkpt lat="46.56518" lon="5.92184">
        <ele>881.5</ele>
        <time>2019-09-05T11:26:16Z</time>
      </trkpt>
      <trkpt lat="46.56522" lon="5.92186">
        <ele>881.1</ele>
        <time>2019-09-05T11:26:21Z</time>
      </trkpt>
      <trkpt lat="46.56527" lon="5.9219">
        <ele>880.8</ele>
        <time>2019-09-05T11:26:25Z</time>
      </trkpt>
      <trkpt lat="46.56531" lon="5.92192">
        <ele>880.6</ele>
        <time>2019-09-05T11:26:29Z</time>
      </trkpt>
      <trkpt lat="46.56535" lon="5.92195">
        <ele>880.6</ele>
        <time>2019-09-05T11:26:32Z</time>
      </trkpt>
      <trkpt lat="46.5654" lon="5.92198">
        <ele>880.5</ele>
        <time>2019-09-05T11:26:35Z</time>
      </trkpt>
      <trkpt lat="46.56544" lon="5.922">
        <ele>880.5</ele>
        <time>2019-09-05T11:26:39Z</time>
      </trkpt>
      <trkpt lat="46.56549" lon="5.92202">
        <ele>880.6</ele>
        <time>2019-09-05T11:26:44Z</time>
      </trkpt>
      <trkpt lat="46.56554" lon="5.92205">
        <ele>880.5</ele>
        <time>2019-09-05T11:26:48Z</time>
      </trkpt>
      <trkpt lat="46.56558" lon="5.92207">
        <ele>880.3</ele>
        <time>2019-09-05T11:26:52Z</time>
      </trkpt>
      <trkpt lat="46.56563" lon="5.9221">
        <ele>880.1</ele>
        <time>2019-09-05T11:26:56Z</time>
      </trkpt>
      <trkpt lat="46.56568" lon="5.92214">
        <ele>879.9</ele>
        <time>2019-09-05T11:27:01Z</time>
      </trkpt>
      <trkpt lat="46.56572" lon="5.92217">
        <ele>879.8</ele>
        <time>2019-09-05T11:27:07Z</time>
      </trkpt>
      <trkpt lat="46.56576" lon="5.92221">
        <ele>879.7</ele>
        <time>2019-09-05T11:27:13Z</time>
      </trkpt>
      <trkpt lat="46.56581" lon="5.92224">
        <ele>879.7</ele>
        <time>2019-09-05T11:27:17Z</time>
      </trkpt>
      <trkpt lat="46.56585" lon="5.92228">
        <ele>879.7</ele>
        <time>2019-09-05T11:27:22Z</time>
      </trkpt>
      <trkpt lat="46.56589" lon="5.92231">
        <ele>879.7</ele>
        <time>2019-09-05T11:27:27Z</time>
      </trkpt>
      <trkpt lat="46.56593" lon="5.92235">
        <ele>879.7</ele>
        <time>2019-09-05T11:27:32Z</time>
      </trkpt>
      <trkpt lat="46.56597" lon="5.92239">
        <ele>879.5</ele>
        <time>2019-09-05T11:27:36Z</time>
      </trkpt>
      <trkpt lat="46.56601" lon="5.92243">
        <ele>879.4</ele>
        <time>2019-09-05T11:27:40Z</time>
      </trkpt>
      <trkpt lat="46.56606" lon="5.92245">
        <ele>879.3</ele>
        <time>2019-09-05T11:27:45Z</time>
      </trkpt>
      <trkpt lat="46.56611" lon="5.92247">
        <ele>879</ele>
        <time>2019-09-05T11:27:50Z</time>
      </trkpt>
      <trkpt lat="46.56616" lon="5.92249">
        <ele>878.9</ele>
        <time>2019-09-05T11:27:55Z</time>
      </trkpt>
      <trkpt lat="46.56621" lon="5.9225">
        <ele>878.7</ele>
        <time>2019-09-05T11:28:00Z</time>
      </trkpt>
      <trkpt lat="46.56626" lon="5.92251">
        <ele>878.6</ele>
        <time>2019-09-05T11:28:05Z</time>
      </trkpt>
      <trkpt lat="46.56631" lon="5.92253">
        <ele>878.5</ele>
        <time>2019-09-05T11:28:09Z</time>
      </trkpt>
      <trkpt lat="46.56636" lon="5.92254">
        <ele>878.4</ele>
        <time>2019-09-05T11:28:14Z</time>
      </trkpt>
      <trkpt lat="46.56641" lon="5.92255">
        <ele>878.2</ele>
        <time>2019-09-05T11:28:19Z</time>
      </trkpt>
      <trkpt lat="46.56647" lon="5.92256">
        <ele>878.1</ele>
        <time>2019-09-05T11:28:24Z</time>
      </trkpt>
      <trkpt lat="46.56652" lon="5.92257">
        <ele>878.1</ele>
        <time>2019-09-05T11:28:28Z</time>
      </trkpt>
      <trkpt lat="46.56658" lon="5.92257">
        <ele>878</ele>
        <time>2019-09-05T11:28:33Z</time>
      </trkpt>
      <trkpt lat="46.56662" lon="5.92258">
        <ele>877.9</ele>
        <time>2019-09-05T11:28:38Z</time>
      </trkpt>
      <trkpt lat="46.56667" lon="5.92259">
        <ele>877.7</ele>
        <time>2019-09-05T11:28:43Z</time>
      </trkpt>
      <trkpt lat="46.56673" lon="5.92261">
        <ele>877.5</ele>
        <time>2019-09-05T11:28:48Z</time>
      </trkpt>
      <trkpt lat="46.56678" lon="5.92262">
        <ele>877.3</ele>
        <time>2019-09-05T11:28:53Z</time>
      </trkpt>
      <trkpt lat="46.56683" lon="5.92262">
        <ele>877.3</ele>
        <time>2019-09-05T11:28:57Z</time>
      </trkpt>
      <trkpt lat="46.56687" lon="5.92262">
        <ele>877.4</ele>
        <time>2019-09-05T11:29:02Z</time>
      </trkpt>
      <trkpt lat="46.56692" lon="5.92263">
        <ele>877.7</ele>
        <time>2019-09-05T11:29:07Z</time>
      </trkpt>
      <trkpt lat="46.56697" lon="5.92264">
        <ele>878</ele>
        <time>2019-09-05T11:29:12Z</time>
      </trkpt>
      <trkpt lat="46.56702" lon="5.92266">
        <ele>878.4</ele>
        <time>2019-09-05T11:29:17Z</time>
      </trkpt>
      <trkpt lat="46.56706" lon="5.92269">
        <ele>878.8</ele>
        <time>2019-09-05T11:29:22Z</time>
      </trkpt>
      <trkpt lat="46.56711" lon="5.9227">
        <ele>878.9</ele>
        <time>2019-09-05T11:29:26Z</time>
      </trkpt>
      <trkpt lat="46.56717" lon="5.9227">
        <ele>879</ele>
        <time>2019-09-05T11:29:31Z</time>
      </trkpt>
      <trkpt lat="46.56721" lon="5.9227">
        <ele>879.1</ele>
        <time>2019-09-05T11:29:36Z</time>
      </trkpt>
      <trkpt lat="46.56726" lon="5.92272">
        <ele>879.2</ele>
        <time>2019-09-05T11:29:41Z</time>
      </trkpt>
      <trkpt lat="46.56731" lon="5.92274">
        <ele>879.3</ele>
        <time>2019-09-05T11:29:45Z</time>
      </trkpt>
      <trkpt lat="46.56736" lon="5.92276">
        <ele>879.2</ele>
        <time>2019-09-05T11:29:50Z</time>
      </trkpt>
      <trkpt lat="46.56741" lon="5.92277">
        <ele>879.2</ele>
        <time>2019-09-05T11:29:54Z</time>
      </trkpt>
      <trkpt lat="46.56746" lon="5.92278">
        <ele>879.3</ele>
        <time>2019-09-05T11:29:58Z</time>
      </trkpt>
      <trkpt lat="46.56751" lon="5.92279">
        <ele>879.3</ele>
        <time>2019-09-05T11:30:03Z</time>
      </trkpt>
      <trkpt lat="46.56756" lon="5.92281">
        <ele>879.2</ele>
        <time>2019-09-05T11:30:09Z</time>
      </trkpt>
      <trkpt lat="46.56762" lon="5.92283">
        <ele>879</ele>
        <time>2019-09-05T11:30:14Z</time>
      </trkpt>
      <trkpt lat="46.56766" lon="5.92283">
        <ele>878.8</ele>
        <time>2019-09-05T11:30:18Z</time>
      </trkpt>
      <trkpt lat="46.56772" lon="5.92283">
        <ele>878.7</ele>
        <time>2019-09-05T11:30:22Z</time>
      </trkpt>
      <trkpt lat="46.56776" lon="5.92284">
        <ele>878.7</ele>
        <time>2019-09-05T11:30:26Z</time>
      </trkpt>
      <trkpt lat="46.56782" lon="5.92286">
        <ele>878.6</ele>
        <time>2019-09-05T11:30:31Z</time>
      </trkpt>
      <trkpt lat="46.56787" lon="5.92288">
        <ele>878.4</ele>
        <time>2019-09-05T11:30:35Z</time>
      </trkpt>
      <trkpt lat="46.56791" lon="5.92291">
        <ele>877.9</ele>
        <time>2019-09-05T11:30:40Z</time>
      </trkpt>
      <trkpt lat="46.56796" lon="5.92292">
        <ele>877.4</ele>
        <time>2019-09-05T11:30:45Z</time>
      </trkpt>
      <trkpt lat="46.56801" lon="5.92293">
        <ele>876.9</ele>
        <time>2019-09-05T11:30:50Z</time>
      </trkpt>
      <trkpt lat="46.56806" lon="5.92295">
        <ele>876.6</ele>
        <time>2019-09-05T11:30:54Z</time>
      </trkpt>
      <trkpt lat="46.56811" lon="5.92296">
        <ele>876.5</ele>
        <time>2019-09-05T11:30:59Z</time>
      </trkpt>
      <trkpt lat="46.56816" lon="5.92296">
        <ele>876.4</ele>
        <time>2019-09-05T11:31:05Z</time>
      </trkpt>
      <trkpt lat="46.56821" lon="5.92296">
        <ele>876.2</ele>
        <time>2019-09-05T11:31:10Z</time>
      </trkpt>
      <trkpt lat="46.56826" lon="5.92297">
        <ele>875.9</ele>
        <time>2019-09-05T11:31:15Z</time>
      </trkpt>
      <trkpt lat="46.56831" lon="5.92296">
        <ele>875.8</ele>
        <time>2019-09-05T11:31:19Z</time>
      </trkpt>
      <trkpt lat="46.56835" lon="5.92295">
        <ele>875.5</ele>
        <time>2019-09-05T11:31:23Z</time>
      </trkpt>
      <trkpt lat="46.56841" lon="5.92294">
        <ele>875.4</ele>
        <time>2019-09-05T11:31:28Z</time>
      </trkpt>
      <trkpt lat="46.56846" lon="5.92292">
        <ele>875.4</ele>
        <time>2019-09-05T11:31:33Z</time>
      </trkpt>
      <trkpt lat="46.56851" lon="5.92291">
        <ele>875.5</ele>
        <time>2019-09-05T11:31:38Z</time>
      </trkpt>
      <trkpt lat="46.56856" lon="5.9229">
        <ele>875.5</ele>
        <time>2019-09-05T11:31:42Z</time>
      </trkpt>
      <trkpt lat="46.56862" lon="5.9229">
        <ele>875.3</ele>
        <time>2019-09-05T11:31:48Z</time>
      </trkpt>
      <trkpt lat="46.56867" lon="5.9229">
        <ele>875.2</ele>
        <time>2019-09-05T11:31:53Z</time>
      </trkpt>
      <trkpt lat="46.56873" lon="5.92292">
        <ele>875.1</ele>
        <time>2019-09-05T11:31:58Z</time>
      </trkpt>
      <trkpt lat="46.56878" lon="5.92294">
        <ele>875.1</ele>
        <time>2019-09-05T11:32:03Z</time>
      </trkpt>
      <trkpt lat="46.56882" lon="5.92296">
        <ele>874.9</ele>
        <time>2019-09-05T11:32:08Z</time>
      </trkpt>
      <trkpt lat="46.56887" lon="5.92297">
        <ele>874.5</ele>
        <time>2019-09-05T11:32:13Z</time>
      </trkpt>
      <trkpt lat="46.56893" lon="5.92299">
        <ele>874.1</ele>
        <time>2019-09-05T11:32:18Z</time>
      </trkpt>
      <trkpt lat="46.56897" lon="5.923">
        <ele>873.8</ele>
        <time>2019-09-05T11:32:22Z</time>
      </trkpt>
      <trkpt lat="46.56902" lon="5.92303">
        <ele>873.3</ele>
        <time>2019-09-05T11:32:28Z</time>
      </trkpt>
      <trkpt lat="46.56906" lon="5.92307">
        <ele>872.8</ele>
        <time>2019-09-05T11:32:32Z</time>
      </trkpt>
      <trkpt lat="46.56911" lon="5.9231">
        <ele>872.2</ele>
        <time>2019-09-05T11:32:37Z</time>
      </trkpt>
      <trkpt lat="46.56916" lon="5.92311">
        <ele>871.8</ele>
        <time>2019-09-05T11:32:42Z</time>
      </trkpt>
      <trkpt lat="46.56921" lon="5.92312">
        <ele>871.5</ele>
        <time>2019-09-05T11:32:47Z</time>
      </trkpt>
      <trkpt lat="46.56926" lon="5.92313">
        <ele>871.4</ele>
        <time>2019-09-05T11:32:52Z</time>
      </trkpt>
      <trkpt lat="46.56931" lon="5.92315">
        <ele>871.3</ele>
        <time>2019-09-05T11:32:57Z</time>
      </trkpt>
      <trkpt lat="46.56935" lon="5.92316">
        <ele>871.2</ele>
        <time>2019-09-05T11:33:02Z</time>
      </trkpt>
      <trkpt lat="46.5694" lon="5.92318">
        <ele>871.2</ele>
        <time>2019-09-05T11:33:07Z</time>
      </trkpt>
      <trkpt lat="46.56944" lon="5.9232">
        <ele>870.8</ele>
        <time>2019-09-05T11:33:12Z</time>
      </trkpt>
      <trkpt lat="46.56949" lon="5.92322">
        <ele>870.1</ele>
        <time>2019-09-05T11:33:16Z</time>
      </trkpt>
      <trkpt lat="46.56954" lon="5.92325">
        <ele>869.5</ele>
        <time>2019-09-05T11:33:20Z</time>
      </trkpt>
      <trkpt lat="46.56959" lon="5.92326">
        <ele>869</ele>
        <time>2019-09-05T11:33:24Z</time>
      </trkpt>
      <trkpt lat="46.56965" lon="5.92326">
        <ele>868.5</ele>
        <time>2019-09-05T11:33:29Z</time>
      </trkpt>
      <trkpt lat="46.5697" lon="5.92329">
        <ele>868.1</ele>
        <time>2019-09-05T11:33:34Z</time>
      </trkpt>
      <trkpt lat="46.56975" lon="5.9233">
        <ele>867.6</ele>
        <time>2019-09-05T11:33:39Z</time>
      </trkpt>
      <trkpt lat="46.5698" lon="5.92331">
        <ele>867.5</ele>
        <time>2019-09-05T11:33:44Z</time>
      </trkpt>
      <trkpt lat="46.56984" lon="5.92334">
        <ele>867.4</ele>
        <time>2019-09-05T11:33:48Z</time>
      </trkpt>
      <trkpt lat="46.56989" lon="5.92338">
        <ele>867.2</ele>
        <time>2019-09-05T11:33:53Z</time>
      </trkpt>
      <trkpt lat="46.56994" lon="5.92342">
        <ele>867</ele>
        <time>2019-09-05T11:33:58Z</time>
      </trkpt>
      <trkpt lat="46.56998" lon="5.92344">
        <ele>866.9</ele>
        <time>2019-09-05T11:34:03Z</time>
      </trkpt>
      <trkpt lat="46.57003" lon="5.92345">
        <ele>866.9</ele>
        <time>2019-09-05T11:34:10Z</time>
      </trkpt>
      <trkpt lat="46.57009" lon="5.92345">
        <ele>867.1</ele>
        <time>2019-09-05T11:34:16Z</time>
      </trkpt>
      <trkpt lat="46.57013" lon="5.92347">
        <ele>867.3</ele>
        <time>2019-09-05T11:34:21Z</time>
      </trkpt>
      <trkpt lat="46.57017" lon="5.92351">
        <ele>867.5</ele>
        <time>2019-09-05T11:34:28Z</time>
      </trkpt>
      <trkpt lat="46.57018" lon="5.92358">
        <ele>867.4</ele>
        <time>2019-09-05T11:34:35Z</time>
      </trkpt>
      <trkpt lat="46.57015" lon="5.92364">
        <ele>867.3</ele>
        <time>2019-09-05T11:34:43Z</time>
      </trkpt>
      <trkpt lat="46.57017" lon="5.92371">
        <ele>867</ele>
        <time>2019-09-05T11:34:50Z</time>
      </trkpt>
      <trkpt lat="46.57018" lon="5.92377">
        <ele>866.9</ele>
        <time>2019-09-05T11:34:58Z</time>
      </trkpt>
      <trkpt lat="46.5702" lon="5.92383">
        <ele>867</ele>
        <time>2019-09-05T11:35:05Z</time>
      </trkpt>
      <trkpt lat="46.57024" lon="5.92388">
        <ele>866.9</ele>
        <time>2019-09-05T11:35:10Z</time>
      </trkpt>
      <trkpt lat="46.57027" lon="5.92393">
        <ele>866.8</ele>
        <time>2019-09-05T11:35:14Z</time>
      </trkpt>
      <trkpt lat="46.57032" lon="5.92397">
        <ele>866.7</ele>
        <time>2019-09-05T11:35:18Z</time>
      </trkpt>
      <trkpt lat="46.57036" lon="5.92401">
        <ele>866.5</ele>
        <time>2019-09-05T11:35:22Z</time>
      </trkpt>
      <trkpt lat="46.5704" lon="5.92404">
        <ele>866.3</ele>
        <time>2019-09-05T11:35:25Z</time>
      </trkpt>
      <trkpt lat="46.57045" lon="5.92407">
        <ele>865.9</ele>
        <time>2019-09-05T11:35:30Z</time>
      </trkpt>
      <trkpt lat="46.5705" lon="5.92405">
        <ele>865.5</ele>
        <time>2019-09-05T11:35:35Z</time>
      </trkpt>
      <trkpt lat="46.57054" lon="5.92403">
        <ele>865</ele>
        <time>2019-09-05T11:35:40Z</time>
      </trkpt>
      <trkpt lat="46.5706" lon="5.92401">
        <ele>864.5</ele>
        <time>2019-09-05T11:35:45Z</time>
      </trkpt>
      <trkpt lat="46.57065" lon="5.92401">
        <ele>864</ele>
        <time>2019-09-05T11:35:50Z</time>
      </trkpt>
      <trkpt lat="46.57069" lon="5.92401">
        <ele>863.6</ele>
        <time>2019-09-05T11:35:55Z</time>
      </trkpt>
      <trkpt lat="46.57074" lon="5.92404">
        <ele>863</ele>
        <time>2019-09-05T11:36:01Z</time>
      </trkpt>
      <trkpt lat="46.57079" lon="5.92407">
        <ele>862.8</ele>
        <time>2019-09-05T11:36:06Z</time>
      </trkpt>
      <trkpt lat="46.57083" lon="5.9241">
        <ele>862.7</ele>
        <time>2019-09-05T11:36:11Z</time>
      </trkpt>
      <trkpt lat="46.57086" lon="5.92416">
        <ele>862.9</ele>
        <time>2019-09-05T11:36:18Z</time>
      </trkpt>
      <trkpt lat="46.5709" lon="5.9242">
        <ele>862.9</ele>
        <time>2019-09-05T11:36:24Z</time>
      </trkpt>
      <trkpt lat="46.57093" lon="5.92425">
        <ele>862.8</ele>
        <time>2019-09-05T11:36:29Z</time>
      </trkpt>
      <trkpt lat="46.57096" lon="5.9243">
        <ele>862.5</ele>
        <time>2019-09-05T11:36:35Z</time>
      </trkpt>
      <trkpt lat="46.57098" lon="5.92436">
        <ele>862</ele>
        <time>2019-09-05T11:36:42Z</time>
      </trkpt>
      <trkpt lat="46.57102" lon="5.92442">
        <ele>861.7</ele>
        <time>2019-09-05T11:36:48Z</time>
      </trkpt>
      <trkpt lat="46.57106" lon="5.92446">
        <ele>861.1</ele>
        <time>2019-09-05T11:36:53Z</time>
      </trkpt>
      <trkpt lat="46.5711" lon="5.92451">
        <ele>860.5</ele>
        <time>2019-09-05T11:36:59Z</time>
      </trkpt>
      <trkpt lat="46.57108" lon="5.92457">
        <ele>860.2</ele>
        <time>2019-09-05T11:37:08Z</time>
      </trkpt>
      <trkpt lat="46.57104" lon="5.92462">
        <ele>861.5</ele>
        <time>2019-09-05T11:37:21Z</time>
      </trkpt>
      <trkpt lat="46.57108" lon="5.92467">
        <ele>865.6</ele>
        <time>2019-09-05T11:37:40Z</time>
      </trkpt>
      <trkpt lat="46.5711" lon="5.92473">
        <ele>866.8</ele>
        <time>2019-09-05T11:37:48Z</time>
      </trkpt>
      <trkpt lat="46.57113" lon="5.92477">
        <ele>867.8</ele>
        <time>2019-09-05T11:37:59Z</time>
      </trkpt>
      <trkpt lat="46.57109" lon="5.9248">
        <ele>869</ele>
        <time>2019-09-05T11:38:40Z</time>
      </trkpt>
      <trkpt lat="46.57105" lon="5.92482">
        <ele>869.6</ele>
        <time>2019-09-05T11:38:45Z</time>
      </trkpt>
      <trkpt lat="46.571" lon="5.92483">
        <ele>870.1</ele>
        <time>2019-09-05T11:38:50Z</time>
      </trkpt>
      <trkpt lat="46.57096" lon="5.92487">
        <ele>870.2</ele>
        <time>2019-09-05T11:38:55Z</time>
      </trkpt>
      <trkpt lat="46.57091" lon="5.92492">
        <ele>870</ele>
        <time>2019-09-05T11:39:00Z</time>
      </trkpt>
      <trkpt lat="46.57087" lon="5.92496">
        <ele>869.6</ele>
        <time>2019-09-05T11:39:06Z</time>
      </trkpt>
      <trkpt lat="46.57082" lon="5.92499">
        <ele>868.6</ele>
        <time>2019-09-05T11:39:13Z</time>
      </trkpt>
      <trkpt lat="46.57078" lon="5.92505">
        <ele>867.8</ele>
        <time>2019-09-05T11:39:19Z</time>
      </trkpt>
      <trkpt lat="46.57074" lon="5.92508">
        <ele>867.1</ele>
        <time>2019-09-05T11:39:25Z</time>
      </trkpt>
      <trkpt lat="46.5707" lon="5.92512">
        <ele>866.1</ele>
        <time>2019-09-05T11:39:30Z</time>
      </trkpt>
      <trkpt lat="46.57066" lon="5.92516">
        <ele>864.9</ele>
        <time>2019-09-05T11:39:35Z</time>
      </trkpt>
      <trkpt lat="46.57061" lon="5.92519">
        <ele>863.4</ele>
        <time>2019-09-05T11:39:40Z</time>
      </trkpt>
      <trkpt lat="46.57057" lon="5.92521">
        <ele>861.8</ele>
        <time>2019-09-05T11:39:45Z</time>
      </trkpt>
      <trkpt lat="46.57054" lon="5.92527">
        <ele>859.4</ele>
        <time>2019-09-05T11:39:51Z</time>
      </trkpt>
      <trkpt lat="46.57052" lon="5.92533">
        <ele>856.3</ele>
        <time>2019-09-05T11:39:59Z</time>
      </trkpt>
      <trkpt lat="46.57048" lon="5.92537">
        <ele>853.3</ele>
        <time>2019-09-05T11:40:08Z</time>
      </trkpt>
      <trkpt lat="46.57045" lon="5.92543">
        <ele>850.5</ele>
        <time>2019-09-05T11:40:18Z</time>
      </trkpt>
      <trkpt lat="46.57042" lon="5.92549">
        <ele>848.9</ele>
        <time>2019-09-05T11:40:25Z</time>
      </trkpt>
      <trkpt lat="46.57038" lon="5.92555">
        <ele>847.8</ele>
        <time>2019-09-05T11:40:30Z</time>
      </trkpt>
      <trkpt lat="46.57034" lon="5.9256">
        <ele>846.9</ele>
        <time>2019-09-05T11:40:34Z</time>
      </trkpt>
      <trkpt lat="46.57031" lon="5.92565">
        <ele>845.6</ele>
        <time>2019-09-05T11:40:40Z</time>
      </trkpt>
      <trkpt lat="46.57028" lon="5.92571">
        <ele>844.6</ele>
        <time>2019-09-05T11:40:45Z</time>
      </trkpt>
      <trkpt lat="46.57026" lon="5.92577">
        <ele>843.8</ele>
        <time>2019-09-05T11:40:49Z</time>
      </trkpt>
      <trkpt lat="46.57022" lon="5.92583">
        <ele>842.7</ele>
        <time>2019-09-05T11:40:55Z</time>
      </trkpt>
      <trkpt lat="46.57019" lon="5.92588">
        <ele>841.8</ele>
        <time>2019-09-05T11:41:01Z</time>
      </trkpt>
      <trkpt lat="46.57017" lon="5.92596">
        <ele>841.4</ele>
        <time>2019-09-05T11:41:05Z</time>
      </trkpt>
      <trkpt lat="46.57017" lon="5.92602">
        <ele>841.4</ele>
        <time>2019-09-05T11:41:07Z</time>
      </trkpt>
      <trkpt lat="46.57016" lon="5.9261">
        <ele>841.6</ele>
        <time>2019-09-05T11:41:09Z</time>
      </trkpt>
      <trkpt lat="46.57017" lon="5.92618">
        <ele>841.9</ele>
        <time>2019-09-05T11:41:11Z</time>
      </trkpt>
      <trkpt lat="46.57017" lon="5.92625">
        <ele>842.4</ele>
        <time>2019-09-05T11:41:13Z</time>
      </trkpt>
      <trkpt lat="46.57017" lon="5.92632">
        <ele>842.9</ele>
        <time>2019-09-05T11:41:15Z</time>
      </trkpt>
      <trkpt lat="46.57015" lon="5.9264">
        <ele>843.9</ele>
        <time>2019-09-05T11:41:18Z</time>
      </trkpt>
      <trkpt lat="46.57013" lon="5.92647">
        <ele>844.9</ele>
        <time>2019-09-05T11:41:21Z</time>
      </trkpt>
      <trkpt lat="46.57011" lon="5.92653">
        <ele>846.1</ele>
        <time>2019-09-05T11:41:25Z</time>
      </trkpt>
      <trkpt lat="46.57007" lon="5.92659">
        <ele>847.2</ele>
        <time>2019-09-05T11:41:29Z</time>
      </trkpt>
      <trkpt lat="46.57005" lon="5.92666">
        <ele>848</ele>
        <time>2019-09-05T11:41:33Z</time>
      </trkpt>
      <trkpt lat="46.57002" lon="5.92673">
        <ele>848.9</ele>
        <time>2019-09-05T11:41:38Z</time>
      </trkpt>
      <trkpt lat="46.56999" lon="5.92678">
        <ele>849.5</ele>
        <time>2019-09-05T11:41:42Z</time>
      </trkpt>
      <trkpt lat="46.56996" lon="5.92683">
        <ele>849.9</ele>
        <time>2019-09-05T11:41:49Z</time>
      </trkpt>
      <trkpt lat="46.56992" lon="5.92688">
        <ele>849.9</ele>
        <time>2019-09-05T11:41:53Z</time>
      </trkpt>
      <trkpt lat="46.56988" lon="5.92695">
        <ele>850.1</ele>
        <time>2019-09-05T11:41:56Z</time>
      </trkpt>
      <trkpt lat="46.56985" lon="5.92701">
        <ele>850.5</ele>
        <time>2019-09-05T11:41:59Z</time>
      </trkpt>
      <trkpt lat="46.56982" lon="5.92708">
        <ele>850.9</ele>
        <time>2019-09-05T11:42:02Z</time>
      </trkpt>
      <trkpt lat="46.56981" lon="5.92714">
        <ele>851.7</ele>
        <time>2019-09-05T11:42:07Z</time>
      </trkpt>
      <trkpt lat="46.56984" lon="5.92719">
        <ele>855.6</ele>
        <time>2019-09-05T11:42:45Z</time>
      </trkpt>
      <trkpt lat="46.56988" lon="5.92723">
        <ele>856.9</ele>
        <time>2019-09-05T11:42:56Z</time>
      </trkpt>
      <trkpt lat="46.56984" lon="5.92727">
        <ele>860.1</ele>
        <time>2019-09-05T11:43:11Z</time>
      </trkpt>
      <trkpt lat="46.56982" lon="5.92734">
        <ele>860.7</ele>
        <time>2019-09-05T11:43:16Z</time>
      </trkpt>
      <trkpt lat="46.56978" lon="5.9274">
        <ele>860.9</ele>
        <time>2019-09-05T11:43:22Z</time>
      </trkpt>
      <trkpt lat="46.56975" lon="5.92745">
        <ele>860.9</ele>
        <time>2019-09-05T11:43:25Z</time>
      </trkpt>
      <trkpt lat="46.56971" lon="5.9275">
        <ele>860.8</ele>
        <time>2019-09-05T11:43:29Z</time>
      </trkpt>
      <trkpt lat="46.56967" lon="5.92756">
        <ele>860.5</ele>
        <time>2019-09-05T11:43:33Z</time>
      </trkpt>
      <trkpt lat="46.56965" lon="5.92763">
        <ele>860.4</ele>
        <time>2019-09-05T11:43:36Z</time>
      </trkpt>
      <trkpt lat="46.56962" lon="5.9277">
        <ele>860.2</ele>
        <time>2019-09-05T11:43:40Z</time>
      </trkpt>
      <trkpt lat="46.5696" lon="5.92777">
        <ele>860</ele>
        <time>2019-09-05T11:43:44Z</time>
      </trkpt>
      <trkpt lat="46.56958" lon="5.92783">
        <ele>860.1</ele>
        <time>2019-09-05T11:43:48Z</time>
      </trkpt>
      <trkpt lat="46.56956" lon="5.9279">
        <ele>860.1</ele>
        <time>2019-09-05T11:43:52Z</time>
      </trkpt>
      <trkpt lat="46.56954" lon="5.92796">
        <ele>859.9</ele>
        <time>2019-09-05T11:43:56Z</time>
      </trkpt>
      <trkpt lat="46.56952" lon="5.92804">
        <ele>859.8</ele>
        <time>2019-09-05T11:44:00Z</time>
      </trkpt>
      <trkpt lat="46.5695" lon="5.9281">
        <ele>859.6</ele>
        <time>2019-09-05T11:44:04Z</time>
      </trkpt>
      <trkpt lat="46.56947" lon="5.92816">
        <ele>859.5</ele>
        <time>2019-09-05T11:44:08Z</time>
      </trkpt>
      <trkpt lat="46.56945" lon="5.92821">
        <ele>859.5</ele>
        <time>2019-09-05T11:44:11Z</time>
      </trkpt>
      <trkpt lat="46.56942" lon="5.92829">
        <ele>859.2</ele>
        <time>2019-09-05T11:44:15Z</time>
      </trkpt>
      <trkpt lat="46.5694" lon="5.92835">
        <ele>859.1</ele>
        <time>2019-09-05T11:44:18Z</time>
      </trkpt>
      <trkpt lat="46.56937" lon="5.92841">
        <ele>859.2</ele>
        <time>2019-09-05T11:44:22Z</time>
      </trkpt>
      <trkpt lat="46.56933" lon="5.92847">
        <ele>859.1</ele>
        <time>2019-09-05T11:44:27Z</time>
      </trkpt>
      <trkpt lat="46.56931" lon="5.92854">
        <ele>858.8</ele>
        <time>2019-09-05T11:44:31Z</time>
      </trkpt>
      <trkpt lat="46.56929" lon="5.92861">
        <ele>858.4</ele>
        <time>2019-09-05T11:44:35Z</time>
      </trkpt>
      <trkpt lat="46.56927" lon="5.92867">
        <ele>857.8</ele>
        <time>2019-09-05T11:44:39Z</time>
      </trkpt>
      <trkpt lat="46.56925" lon="5.92874">
        <ele>857.1</ele>
        <time>2019-09-05T11:44:43Z</time>
      </trkpt>
      <trkpt lat="46.56923" lon="5.9288">
        <ele>856.3</ele>
        <time>2019-09-05T11:44:48Z</time>
      </trkpt>
      <trkpt lat="46.56919" lon="5.92885">
        <ele>855.8</ele>
        <time>2019-09-05T11:44:52Z</time>
      </trkpt>
      <trkpt lat="46.56915" lon="5.9289">
        <ele>855.1</ele>
        <time>2019-09-05T11:44:57Z</time>
      </trkpt>
      <trkpt lat="46.56913" lon="5.92897">
        <ele>854.3</ele>
        <time>2019-09-05T11:45:02Z</time>
      </trkpt>
      <trkpt lat="46.5691" lon="5.92902">
        <ele>853.4</ele>
        <time>2019-09-05T11:45:07Z</time>
      </trkpt>
      <trkpt lat="46.56907" lon="5.9291">
        <ele>852.7</ele>
        <time>2019-09-05T11:45:11Z</time>
      </trkpt>
      <trkpt lat="46.56904" lon="5.92916">
        <ele>852.1</ele>
        <time>2019-09-05T11:45:15Z</time>
      </trkpt>
      <trkpt lat="46.569" lon="5.92921">
        <ele>851.5</ele>
        <time>2019-09-05T11:45:19Z</time>
      </trkpt>
      <trkpt lat="46.56898" lon="5.92926">
        <ele>850.7</ele>
        <time>2019-09-05T11:45:25Z</time>
      </trkpt>
      <trkpt lat="46.56894" lon="5.9293">
        <ele>850.1</ele>
        <time>2019-09-05T11:45:29Z</time>
      </trkpt>
      <trkpt lat="46.56889" lon="5.92935">
        <ele>849.5</ele>
        <time>2019-09-05T11:45:34Z</time>
      </trkpt>
      <trkpt lat="46.56885" lon="5.92939">
        <ele>849.1</ele>
        <time>2019-09-05T11:45:37Z</time>
      </trkpt>
      <trkpt lat="46.56881" lon="5.92945">
        <ele>848.7</ele>
        <time>2019-09-05T11:45:41Z</time>
      </trkpt>
      <trkpt lat="46.56877" lon="5.92949">
        <ele>848.3</ele>
        <time>2019-09-05T11:45:45Z</time>
      </trkpt>
      <trkpt lat="46.56872" lon="5.92952">
        <ele>848</ele>
        <time>2019-09-05T11:45:50Z</time>
      </trkpt>
      <trkpt lat="46.56867" lon="5.92954">
        <ele>847.7</ele>
        <time>2019-09-05T11:45:55Z</time>
      </trkpt>
      <trkpt lat="46.56862" lon="5.92954">
        <ele>847.6</ele>
        <time>2019-09-05T11:46:00Z</time>
      </trkpt>
      <trkpt lat="46.56857" lon="5.92956">
        <ele>847.4</ele>
        <time>2019-09-05T11:46:04Z</time>
      </trkpt>
      <trkpt lat="46.56853" lon="5.92958">
        <ele>847.1</ele>
        <time>2019-09-05T11:46:08Z</time>
      </trkpt>
      <trkpt lat="46.56848" lon="5.92961">
        <ele>846.4</ele>
        <time>2019-09-05T11:46:13Z</time>
      </trkpt>
      <trkpt lat="46.56843" lon="5.92961">
        <ele>845.8</ele>
        <time>2019-09-05T11:46:17Z</time>
      </trkpt>
      <trkpt lat="46.56838" lon="5.9296">
        <ele>845</ele>
        <time>2019-09-05T11:46:22Z</time>
      </trkpt>
      <trkpt lat="46.56833" lon="5.92959">
        <ele>844.3</ele>
        <time>2019-09-05T11:46:27Z</time>
      </trkpt>
      <trkpt lat="46.56827" lon="5.92958">
        <ele>843.5</ele>
        <time>2019-09-05T11:46:33Z</time>
      </trkpt>
      <trkpt lat="46.56823" lon="5.92958">
        <ele>843.1</ele>
        <time>2019-09-05T11:46:37Z</time>
      </trkpt>
      <trkpt lat="46.56817" lon="5.92958">
        <ele>842.7</ele>
        <time>2019-09-05T11:46:41Z</time>
      </trkpt>
      <trkpt lat="46.56808" lon="5.92967">
        <ele>840.8</ele>
        <time>2019-09-05T11:46:52Z</time>
      </trkpt>
      <trkpt lat="46.56804" lon="5.92973">
        <ele>841.1</ele>
        <time>2019-09-05T11:46:56Z</time>
      </trkpt>
      <trkpt lat="46.568" lon="5.92978">
        <ele>841.2</ele>
        <time>2019-09-05T11:46:59Z</time>
      </trkpt>
      <trkpt lat="46.56795" lon="5.92982">
        <ele>841.4</ele>
        <time>2019-09-05T11:47:02Z</time>
      </trkpt>
      <trkpt lat="46.56791" lon="5.92987">
        <ele>841.5</ele>
        <time>2019-09-05T11:47:06Z</time>
      </trkpt>
      <trkpt lat="46.56787" lon="5.9299">
        <ele>841.5</ele>
        <time>2019-09-05T11:47:12Z</time>
      </trkpt>
      <trkpt lat="46.56782" lon="5.92993">
        <ele>841.3</ele>
        <time>2019-09-05T11:47:17Z</time>
      </trkpt>
      <trkpt lat="46.56777" lon="5.92995">
        <ele>841.1</ele>
        <time>2019-09-05T11:47:21Z</time>
      </trkpt>
      <trkpt lat="46.56772" lon="5.92996">
        <ele>840.9</ele>
        <time>2019-09-05T11:47:25Z</time>
      </trkpt>
      <trkpt lat="46.56766" lon="5.92998">
        <ele>840.4</ele>
        <time>2019-09-05T11:47:30Z</time>
      </trkpt>
      <trkpt lat="46.56761" lon="5.92999">
        <ele>839.8</ele>
        <time>2019-09-05T11:47:35Z</time>
      </trkpt>
      <trkpt lat="46.56756" lon="5.93001">
        <ele>839.1</ele>
        <time>2019-09-05T11:47:41Z</time>
      </trkpt>
      <trkpt lat="46.5675" lon="5.93002">
        <ele>838.4</ele>
        <time>2019-09-05T11:47:47Z</time>
      </trkpt>
      <trkpt lat="46.56745" lon="5.93003">
        <ele>837.9</ele>
        <time>2019-09-05T11:47:52Z</time>
      </trkpt>
      <trkpt lat="46.56741" lon="5.93004">
        <ele>837.5</ele>
        <time>2019-09-05T11:47:58Z</time>
      </trkpt>
      <trkpt lat="46.56736" lon="5.93008">
        <ele>837.1</ele>
        <time>2019-09-05T11:48:03Z</time>
      </trkpt>
      <trkpt lat="46.56733" lon="5.93013">
        <ele>836.8</ele>
        <time>2019-09-05T11:48:06Z</time>
      </trkpt>
      <trkpt lat="46.5673" lon="5.9302">
        <ele>836.5</ele>
        <time>2019-09-05T11:48:09Z</time>
      </trkpt>
      <trkpt lat="46.56729" lon="5.93026">
        <ele>836.3</ele>
        <time>2019-09-05T11:48:12Z</time>
      </trkpt>
      <trkpt lat="46.56727" lon="5.93033">
        <ele>836.2</ele>
        <time>2019-09-05T11:48:15Z</time>
      </trkpt>
      <trkpt lat="46.56726" lon="5.9304">
        <ele>836.2</ele>
        <time>2019-09-05T11:48:18Z</time>
      </trkpt>
      <trkpt lat="46.56725" lon="5.93046">
        <ele>836.3</ele>
        <time>2019-09-05T11:48:21Z</time>
      </trkpt>
      <trkpt lat="46.56725" lon="5.93053">
        <ele>836.4</ele>
        <time>2019-09-05T11:48:24Z</time>
      </trkpt>
      <trkpt lat="46.56725" lon="5.9306">
        <ele>836.5</ele>
        <time>2019-09-05T11:48:26Z</time>
      </trkpt>
      <trkpt lat="46.56724" lon="5.93068">
        <ele>836.7</ele>
        <time>2019-09-05T11:48:29Z</time>
      </trkpt>
      <trkpt lat="46.56725" lon="5.93075">
        <ele>837.3</ele>
        <time>2019-09-05T11:48:33Z</time>
      </trkpt>
      <trkpt lat="46.56724" lon="5.93081">
        <ele>837.9</ele>
        <time>2019-09-05T11:48:37Z</time>
      </trkpt>
      <trkpt lat="46.56725" lon="5.93088">
        <ele>838.6</ele>
        <time>2019-09-05T11:48:41Z</time>
      </trkpt>
      <trkpt lat="46.56726" lon="5.93094">
        <ele>839.4</ele>
        <time>2019-09-05T11:48:45Z</time>
      </trkpt>
      <trkpt lat="46.56727" lon="5.93101">
        <ele>840.2</ele>
        <time>2019-09-05T11:48:48Z</time>
      </trkpt>
      <trkpt lat="46.56727" lon="5.93108">
        <ele>840.9</ele>
        <time>2019-09-05T11:48:51Z</time>
      </trkpt>
      <trkpt lat="46.56728" lon="5.93115">
        <ele>841.9</ele>
        <time>2019-09-05T11:48:55Z</time>
      </trkpt>
      <trkpt lat="46.56729" lon="5.93122">
        <ele>843.4</ele>
        <time>2019-09-05T11:49:01Z</time>
      </trkpt>
      <trkpt lat="46.56727" lon="5.93128">
        <ele>844.9</ele>
        <time>2019-09-05T11:49:08Z</time>
      </trkpt>
      <trkpt lat="46.56724" lon="5.93136">
        <ele>845.7</ele>
        <time>2019-09-05T11:49:14Z</time>
      </trkpt>
      <trkpt lat="46.56721" lon="5.93141">
        <ele>846.2</ele>
        <time>2019-09-05T11:49:19Z</time>
      </trkpt>
      <trkpt lat="46.56716" lon="5.93141">
        <ele>847.1</ele>
        <time>2019-09-05T11:49:26Z</time>
      </trkpt>
      <trkpt lat="46.56712" lon="5.93143">
        <ele>844.9</ele>
        <time>2019-09-05T11:49:49Z</time>
      </trkpt>
      <trkpt lat="46.56708" lon="5.93147">
        <ele>843.4</ele>
        <time>2019-09-05T11:49:57Z</time>
      </trkpt>
      <trkpt lat="46.56707" lon="5.93154">
        <ele>842.4</ele>
        <time>2019-09-05T11:50:07Z</time>
      </trkpt>
      <trkpt lat="46.56706" lon="5.9316">
        <ele>842.2</ele>
        <time>2019-09-05T11:50:14Z</time>
      </trkpt>
      <trkpt lat="46.56703" lon="5.93167">
        <ele>842.2</ele>
        <time>2019-09-05T11:50:20Z</time>
      </trkpt>
      <trkpt lat="46.56701" lon="5.93174">
        <ele>842.1</ele>
        <time>2019-09-05T11:50:25Z</time>
      </trkpt>
      <trkpt lat="46.567" lon="5.9318">
        <ele>842.5</ele>
        <time>2019-09-05T11:50:31Z</time>
      </trkpt>
      <trkpt lat="46.56698" lon="5.93188">
        <ele>843.7</ele>
        <time>2019-09-05T11:50:45Z</time>
      </trkpt>
      <trkpt lat="46.56698" lon="5.93196">
        <ele>844.2</ele>
        <time>2019-09-05T11:50:48Z</time>
      </trkpt>
      <trkpt lat="46.56698" lon="5.93203">
        <ele>844.7</ele>
        <time>2019-09-05T11:50:50Z</time>
      </trkpt>
      <trkpt lat="46.56698" lon="5.93209">
        <ele>845.2</ele>
        <time>2019-09-05T11:50:52Z</time>
      </trkpt>
      <trkpt lat="46.56697" lon="5.93215">
        <ele>849</ele>
        <time>2019-09-05T11:51:03Z</time>
      </trkpt>
      <trkpt lat="46.56692" lon="5.93213">
        <ele>852.2</ele>
        <time>2019-09-05T11:51:11Z</time>
      </trkpt>
      <trkpt lat="46.56695" lon="5.93219">
        <ele>855.1</ele>
        <time>2019-09-05T11:51:27Z</time>
      </trkpt>
      <trkpt lat="46.56698" lon="5.93224">
        <ele>855.2</ele>
        <time>2019-09-05T11:51:30Z</time>
      </trkpt>
      <trkpt lat="46.567" lon="5.93231">
        <ele>855.5</ele>
        <time>2019-09-05T11:51:34Z</time>
      </trkpt>
      <trkpt lat="46.567" lon="5.93238">
        <ele>856.3</ele>
        <time>2019-09-05T11:51:41Z</time>
      </trkpt>
      <trkpt lat="46.567" lon="5.93246">
        <ele>857.3</ele>
        <time>2019-09-05T11:51:48Z</time>
      </trkpt>
      <trkpt lat="46.56698" lon="5.93253">
        <ele>857.8</ele>
        <time>2019-09-05T11:51:54Z</time>
      </trkpt>
      <trkpt lat="46.56696" lon="5.93259">
        <ele>858.1</ele>
        <time>2019-09-05T11:51:59Z</time>
      </trkpt>
      <trkpt lat="46.56693" lon="5.93265">
        <ele>858.3</ele>
        <time>2019-09-05T11:52:04Z</time>
      </trkpt>
      <trkpt lat="46.56691" lon="5.93271">
        <ele>858.2</ele>
        <time>2019-09-05T11:52:08Z</time>
      </trkpt>
      <trkpt lat="46.56689" lon="5.93278">
        <ele>858.4</ele>
        <time>2019-09-05T11:52:13Z</time>
      </trkpt>
      <trkpt lat="46.56686" lon="5.93283">
        <ele>860.1</ele>
        <time>2019-09-05T11:52:31Z</time>
      </trkpt>
      <trkpt lat="46.56682" lon="5.93278">
        <ele>861.4</ele>
        <time>2019-09-05T11:52:40Z</time>
      </trkpt>
      <trkpt lat="46.56681" lon="5.93286">
        <ele>863</ele>
        <time>2019-09-05T11:52:53Z</time>
      </trkpt>
      <trkpt lat="46.56681" lon="5.93293">
        <ele>863.8</ele>
        <time>2019-09-05T11:52:59Z</time>
      </trkpt>
      <trkpt lat="46.56679" lon="5.93299">
        <ele>864.6</ele>
        <time>2019-09-05T11:53:07Z</time>
      </trkpt>
      <trkpt lat="46.56677" lon="5.93305">
        <ele>865</ele>
        <time>2019-09-05T11:53:14Z</time>
      </trkpt>
      <trkpt lat="46.56675" lon="5.93311">
        <ele>865.1</ele>
        <time>2019-09-05T11:53:19Z</time>
      </trkpt>
      <trkpt lat="46.56675" lon="5.93319">
        <ele>865.4</ele>
        <time>2019-09-05T11:53:25Z</time>
      </trkpt>
      <trkpt lat="46.56676" lon="5.93327">
        <ele>865.7</ele>
        <time>2019-09-05T11:53:29Z</time>
      </trkpt>
      <trkpt lat="46.56676" lon="5.93334">
        <ele>865.9</ele>
        <time>2019-09-05T11:53:32Z</time>
      </trkpt>
      <trkpt lat="46.56676" lon="5.93342">
        <ele>866.3</ele>
        <time>2019-09-05T11:53:35Z</time>
      </trkpt>
      <trkpt lat="46.56677" lon="5.93348">
        <ele>867.1</ele>
        <time>2019-09-05T11:53:42Z</time>
      </trkpt>
      <trkpt lat="46.56677" lon="5.93355">
        <ele>868</ele>
        <time>2019-09-05T11:53:48Z</time>
      </trkpt>
      <trkpt lat="46.56677" lon="5.93363">
        <ele>868.8</ele>
        <time>2019-09-05T11:53:53Z</time>
      </trkpt>
      <trkpt lat="46.56677" lon="5.9337">
        <ele>869.6</ele>
        <time>2019-09-05T11:53:58Z</time>
      </trkpt>
      <trkpt lat="46.56678" lon="5.93377">
        <ele>870.4</ele>
        <time>2019-09-05T11:54:05Z</time>
      </trkpt>
      <trkpt lat="46.5668" lon="5.93384">
        <ele>871.6</ele>
        <time>2019-09-05T11:54:11Z</time>
      </trkpt>
      <trkpt lat="46.56681" lon="5.9339">
        <ele>874.1</ele>
        <time>2019-09-05T11:54:22Z</time>
      </trkpt>
      <trkpt lat="46.56677" lon="5.93396">
        <ele>877.6</ele>
        <time>2019-09-05T11:54:48Z</time>
      </trkpt>
      <trkpt lat="46.56676" lon="5.93394">
        <ele>880.7</ele>
        <time>2019-09-05T11:55:10Z</time>
      </trkpt>
      <trkpt lat="46.56674" lon="5.934">
        <ele>880.9</ele>
        <time>2019-09-05T11:55:16Z</time>
      </trkpt>
      <trkpt lat="46.56674" lon="5.93407">
        <ele>881.1</ele>
        <time>2019-09-05T11:55:22Z</time>
      </trkpt>
      <trkpt lat="46.56676" lon="5.93413">
        <ele>881.2</ele>
        <time>2019-09-05T11:55:29Z</time>
      </trkpt>
      <trkpt lat="46.56679" lon="5.93418">
        <ele>882.6</ele>
        <time>2019-09-05T11:55:44Z</time>
      </trkpt>
      <trkpt lat="46.56681" lon="5.93424">
        <ele>883.4</ele>
        <time>2019-09-05T11:55:52Z</time>
      </trkpt>
      <trkpt lat="46.5668" lon="5.93432">
        <ele>883.7</ele>
        <time>2019-09-05T11:55:58Z</time>
      </trkpt>
      <trkpt lat="46.56676" lon="5.93437">
        <ele>883.5</ele>
        <time>2019-09-05T11:56:06Z</time>
      </trkpt>
      <trkpt lat="46.56672" lon="5.93441">
        <ele>882.9</ele>
        <time>2019-09-05T11:56:13Z</time>
      </trkpt>
      <trkpt lat="46.56668" lon="5.93442">
        <ele>881.5</ele>
        <time>2019-09-05T11:56:28Z</time>
      </trkpt>
      <trkpt lat="46.56666" lon="5.93449">
        <ele>879.8</ele>
        <time>2019-09-05T11:56:38Z</time>
      </trkpt>
      <trkpt lat="46.56664" lon="5.93456">
        <ele>878.6</ele>
        <time>2019-09-05T11:56:44Z</time>
      </trkpt>
      <trkpt lat="46.56662" lon="5.93463">
        <ele>877.9</ele>
        <time>2019-09-05T11:56:48Z</time>
      </trkpt>
      <trkpt lat="46.56661" lon="5.93469">
        <ele>877.2</ele>
        <time>2019-09-05T11:56:52Z</time>
      </trkpt>
      <trkpt lat="46.56659" lon="5.93476">
        <ele>876.7</ele>
        <time>2019-09-05T11:56:56Z</time>
      </trkpt>
      <trkpt lat="46.56658" lon="5.93482">
        <ele>876.5</ele>
        <time>2019-09-05T11:57:00Z</time>
      </trkpt>
      <trkpt lat="46.56655" lon="5.93489">
        <ele>876.1</ele>
        <time>2019-09-05T11:57:05Z</time>
      </trkpt>
      <trkpt lat="46.56652" lon="5.93496">
        <ele>875.7</ele>
        <time>2019-09-05T11:57:11Z</time>
      </trkpt>
      <trkpt lat="46.56649" lon="5.93501">
        <ele>875.5</ele>
        <time>2019-09-05T11:57:16Z</time>
      </trkpt>
      <trkpt lat="46.56645" lon="5.93504">
        <ele>875.5</ele>
        <time>2019-09-05T11:57:29Z</time>
      </trkpt>
      <trkpt lat="46.56642" lon="5.93509">
        <ele>875.3</ele>
        <time>2019-09-05T11:57:36Z</time>
      </trkpt>
      <trkpt lat="46.5664" lon="5.93516">
        <ele>875</ele>
        <time>2019-09-05T11:57:42Z</time>
      </trkpt>
      <trkpt lat="46.56638" lon="5.93522">
        <ele>873.8</ele>
        <time>2019-09-05T11:57:51Z</time>
      </trkpt>
      <trkpt lat="46.56638" lon="5.93529">
        <ele>872.5</ele>
        <time>2019-09-05T11:57:57Z</time>
      </trkpt>
      <trkpt lat="46.56636" lon="5.93535">
        <ele>871.5</ele>
        <time>2019-09-05T11:58:02Z</time>
      </trkpt>
      <trkpt lat="46.56635" lon="5.93543">
        <ele>870.6</ele>
        <time>2019-09-05T11:58:06Z</time>
      </trkpt>
      <trkpt lat="46.56634" lon="5.9355">
        <ele>870</ele>
        <time>2019-09-05T11:58:09Z</time>
      </trkpt>
      <trkpt lat="46.56632" lon="5.93556">
        <ele>869.5</ele>
        <time>2019-09-05T11:58:12Z</time>
      </trkpt>
      <trkpt lat="46.56631" lon="5.93562">
        <ele>869</ele>
        <time>2019-09-05T11:58:15Z</time>
      </trkpt>
      <trkpt lat="46.56628" lon="5.9357">
        <ele>868.4</ele>
        <time>2019-09-05T11:58:19Z</time>
      </trkpt>
      <trkpt lat="46.56626" lon="5.93576">
        <ele>868.2</ele>
        <time>2019-09-05T11:58:22Z</time>
      </trkpt>
      <trkpt lat="46.56623" lon="5.93582">
        <ele>868.2</ele>
        <time>2019-09-05T11:58:25Z</time>
      </trkpt>
      <trkpt lat="46.5662" lon="5.93588">
        <ele>868.6</ele>
        <time>2019-09-05T11:58:29Z</time>
      </trkpt>
      <trkpt lat="46.56618" lon="5.93595">
        <ele>869.4</ele>
        <time>2019-09-05T11:58:33Z</time>
      </trkpt>
      <trkpt lat="46.56616" lon="5.93602">
        <ele>870.1</ele>
        <time>2019-09-05T11:58:37Z</time>
      </trkpt>
      <trkpt lat="46.56612" lon="5.93609">
        <ele>870.6</ele>
        <time>2019-09-05T11:58:41Z</time>
      </trkpt>
      <trkpt lat="46.56609" lon="5.93614">
        <ele>871</ele>
        <time>2019-09-05T11:58:45Z</time>
      </trkpt>
      <trkpt lat="46.56605" lon="5.93618">
        <ele>871.3</ele>
        <time>2019-09-05T11:58:48Z</time>
      </trkpt>
      <trkpt lat="46.566" lon="5.93623">
        <ele>871.6</ele>
        <time>2019-09-05T11:58:52Z</time>
      </trkpt>
      <trkpt lat="46.56597" lon="5.93627">
        <ele>872</ele>
        <time>2019-09-05T11:58:56Z</time>
      </trkpt>
      <trkpt lat="46.56595" lon="5.93634">
        <ele>872.5</ele>
        <time>2019-09-05T11:59:01Z</time>
      </trkpt>
      <trkpt lat="46.56596" lon="5.93643">
        <ele>872.9</ele>
        <time>2019-09-05T11:59:05Z</time>
      </trkpt>
      <trkpt lat="46.566" lon="5.93647">
        <ele>873.6</ele>
        <time>2019-09-05T11:59:11Z</time>
      </trkpt>
      <trkpt lat="46.56604" lon="5.93649">
        <ele>874.7</ele>
        <time>2019-09-05T11:59:23Z</time>
      </trkpt>
      <trkpt lat="46.56609" lon="5.93651">
        <ele>875.1</ele>
        <time>2019-09-05T11:59:28Z</time>
      </trkpt>
      <trkpt lat="46.56614" lon="5.93652">
        <ele>875.3</ele>
        <time>2019-09-05T11:59:33Z</time>
      </trkpt>
      <trkpt lat="46.56619" lon="5.93654">
        <ele>875.6</ele>
        <time>2019-09-05T11:59:38Z</time>
      </trkpt>
      <trkpt lat="46.56624" lon="5.93655">
        <ele>876.1</ele>
        <time>2019-09-05T11:59:43Z</time>
      </trkpt>
      <trkpt lat="46.56629" lon="5.93657">
        <ele>876.5</ele>
        <time>2019-09-05T11:59:46Z</time>
      </trkpt>
      <trkpt lat="46.56634" lon="5.93659">
        <ele>877</ele>
        <time>2019-09-05T11:59:50Z</time>
      </trkpt>
      <trkpt lat="46.56638" lon="5.93661">
        <ele>877.5</ele>
        <time>2019-09-05T11:59:54Z</time>
      </trkpt>
      <trkpt lat="46.56644" lon="5.93662">
        <ele>877.9</ele>
        <time>2019-09-05T11:59:58Z</time>
      </trkpt>
      <trkpt lat="46.56649" lon="5.93664">
        <ele>878.3</ele>
        <time>2019-09-05T12:00:02Z</time>
      </trkpt>
      <trkpt lat="46.56655" lon="5.93668">
        <ele>878.6</ele>
        <time>2019-09-05T12:00:06Z</time>
      </trkpt>
      <trkpt lat="46.56659" lon="5.9367">
        <ele>878.8</ele>
        <time>2019-09-05T12:00:09Z</time>
      </trkpt>
      <trkpt lat="46.56665" lon="5.93671">
        <ele>879</ele>
        <time>2019-09-05T12:00:13Z</time>
      </trkpt>
      <trkpt lat="46.56669" lon="5.93672">
        <ele>879.3</ele>
        <time>2019-09-05T12:00:17Z</time>
      </trkpt>
      <trkpt lat="46.56675" lon="5.93673">
        <ele>879.6</ele>
        <time>2019-09-05T12:00:21Z</time>
      </trkpt>
      <trkpt lat="46.56679" lon="5.93673">
        <ele>879.9</ele>
        <time>2019-09-05T12:00:24Z</time>
      </trkpt>
      <trkpt lat="46.56685" lon="5.93673">
        <ele>880.3</ele>
        <time>2019-09-05T12:00:29Z</time>
      </trkpt>
      <trkpt lat="46.5669" lon="5.93675">
        <ele>880.6</ele>
        <time>2019-09-05T12:00:33Z</time>
      </trkpt>
      <trkpt lat="46.56695" lon="5.93676">
        <ele>881</ele>
        <time>2019-09-05T12:00:38Z</time>
      </trkpt>
      <trkpt lat="46.567" lon="5.93678">
        <ele>881.7</ele>
        <time>2019-09-05T12:00:44Z</time>
      </trkpt>
      <trkpt lat="46.56705" lon="5.9368">
        <ele>882.3</ele>
        <time>2019-09-05T12:00:49Z</time>
      </trkpt>
      <trkpt lat="46.5671" lon="5.93681">
        <ele>882.7</ele>
        <time>2019-09-05T12:00:54Z</time>
      </trkpt>
      <trkpt lat="46.56715" lon="5.93684">
        <ele>883.6</ele>
        <time>2019-09-05T12:01:03Z</time>
      </trkpt>
      <trkpt lat="46.56719" lon="5.93687">
        <ele>883.9</ele>
        <time>2019-09-05T12:01:08Z</time>
      </trkpt>
      <trkpt lat="46.56723" lon="5.9369">
        <ele>884.2</ele>
        <time>2019-09-05T12:01:13Z</time>
      </trkpt>
      <trkpt lat="46.56728" lon="5.93694">
        <ele>884.4</ele>
        <time>2019-09-05T12:01:17Z</time>
      </trkpt>
      <trkpt lat="46.56732" lon="5.93698">
        <ele>884.5</ele>
        <time>2019-09-05T12:01:21Z</time>
      </trkpt>
      <trkpt lat="46.56737" lon="5.93702">
        <ele>884.5</ele>
        <time>2019-09-05T12:01:25Z</time>
      </trkpt>
      <trkpt lat="46.56741" lon="5.93705">
        <ele>884.4</ele>
        <time>2019-09-05T12:01:29Z</time>
      </trkpt>
      <trkpt lat="46.56746" lon="5.93709">
        <ele>884</ele>
        <time>2019-09-05T12:01:34Z</time>
      </trkpt>
      <trkpt lat="46.56751" lon="5.93713">
        <ele>883.6</ele>
        <time>2019-09-05T12:01:39Z</time>
      </trkpt>
      <trkpt lat="46.56755" lon="5.93714">
        <ele>883.3</ele>
        <time>2019-09-05T12:01:43Z</time>
      </trkpt>
      <trkpt lat="46.5676" lon="5.93717">
        <ele>882.9</ele>
        <time>2019-09-05T12:01:47Z</time>
      </trkpt>
      <trkpt lat="46.56764" lon="5.93721">
        <ele>882.7</ele>
        <time>2019-09-05T12:01:50Z</time>
      </trkpt>
      <trkpt lat="46.56768" lon="5.93724">
        <ele>882.3</ele>
        <time>2019-09-05T12:01:54Z</time>
      </trkpt>
      <trkpt lat="46.56772" lon="5.93726">
        <ele>881.6</ele>
        <time>2019-09-05T12:02:00Z</time>
      </trkpt>
      <trkpt lat="46.56776" lon="5.93728">
        <ele>881</ele>
        <time>2019-09-05T12:02:05Z</time>
      </trkpt>
      <trkpt lat="46.56781" lon="5.9373">
        <ele>880.4</ele>
        <time>2019-09-05T12:02:09Z</time>
      </trkpt>
      <trkpt lat="46.56785" lon="5.93733">
        <ele>879.7</ele>
        <time>2019-09-05T12:02:14Z</time>
      </trkpt>
      <trkpt lat="46.56791" lon="5.93736">
        <ele>879.1</ele>
        <time>2019-09-05T12:02:18Z</time>
      </trkpt>
      <trkpt lat="46.56795" lon="5.93738">
        <ele>878.5</ele>
        <time>2019-09-05T12:02:22Z</time>
      </trkpt>
      <trkpt lat="46.568" lon="5.93739">
        <ele>877.9</ele>
        <time>2019-09-05T12:02:27Z</time>
      </trkpt>
      <trkpt lat="46.56805" lon="5.93742">
        <ele>877.6</ele>
        <time>2019-09-05T12:02:32Z</time>
      </trkpt>
      <trkpt lat="46.56813" lon="5.9375">
        <ele>877.2</ele>
        <time>2019-09-05T12:02:42Z</time>
      </trkpt>
      <trkpt lat="46.56817" lon="5.93755">
        <ele>876.8</ele>
        <time>2019-09-05T12:02:48Z</time>
      </trkpt>
      <trkpt lat="46.56821" lon="5.9376">
        <ele>876.5</ele>
        <time>2019-09-05T12:02:54Z</time>
      </trkpt>
      <trkpt lat="46.56826" lon="5.93773">
        <ele>877</ele>
        <time>2019-09-05T12:03:06Z</time>
      </trkpt>
      <trkpt lat="46.5683" lon="5.93779">
        <ele>877.6</ele>
        <time>2019-09-05T12:03:12Z</time>
      </trkpt>
      <trkpt lat="46.56834" lon="5.93783">
        <ele>878.3</ele>
        <time>2019-09-05T12:03:17Z</time>
      </trkpt>
      <trkpt lat="46.56838" lon="5.93787">
        <ele>878.7</ele>
        <time>2019-09-05T12:03:22Z</time>
      </trkpt>
      <trkpt lat="46.56842" lon="5.93792">
        <ele>879.3</ele>
        <time>2019-09-05T12:03:27Z</time>
      </trkpt>
      <trkpt lat="46.56847" lon="5.93795">
        <ele>880.2</ele>
        <time>2019-09-05T12:03:32Z</time>
      </trkpt>
      <trkpt lat="46.56852" lon="5.93798">
        <ele>880.9</ele>
        <time>2019-09-05T12:03:37Z</time>
      </trkpt>
      <trkpt lat="46.56856" lon="5.93801">
        <ele>881.5</ele>
        <time>2019-09-05T12:03:42Z</time>
      </trkpt>
      <trkpt lat="46.56861" lon="5.93802">
        <ele>882.1</ele>
        <time>2019-09-05T12:03:48Z</time>
      </trkpt>
      <trkpt lat="46.56866" lon="5.93804">
        <ele>882.5</ele>
        <time>2019-09-05T12:03:52Z</time>
      </trkpt>
      <trkpt lat="46.56871" lon="5.93803">
        <ele>883</ele>
        <time>2019-09-05T12:03:58Z</time>
      </trkpt>
      <trkpt lat="46.56876" lon="5.93805">
        <ele>883.2</ele>
        <time>2019-09-05T12:04:01Z</time>
      </trkpt>
      <trkpt lat="46.5688" lon="5.93807">
        <ele>883.5</ele>
        <time>2019-09-05T12:04:04Z</time>
      </trkpt>
      <trkpt lat="46.56885" lon="5.9381">
        <ele>883.9</ele>
        <time>2019-09-05T12:04:10Z</time>
      </trkpt>
      <trkpt lat="46.56889" lon="5.93811">
        <ele>884.5</ele>
        <time>2019-09-05T12:04:20Z</time>
      </trkpt>
      <trkpt lat="46.56894" lon="5.93812">
        <ele>885</ele>
        <time>2019-09-05T12:04:27Z</time>
      </trkpt>
      <trkpt lat="46.56899" lon="5.93813">
        <ele>885.5</ele>
        <time>2019-09-05T12:04:33Z</time>
      </trkpt>
      <trkpt lat="46.56904" lon="5.93816">
        <ele>886.2</ele>
        <time>2019-09-05T12:04:39Z</time>
      </trkpt>
      <trkpt lat="46.56909" lon="5.93818">
        <ele>887</ele>
        <time>2019-09-05T12:04:44Z</time>
      </trkpt>
      <trkpt lat="46.56914" lon="5.93819">
        <ele>888.5</ele>
        <time>2019-09-05T12:04:52Z</time>
      </trkpt>
      <trkpt lat="46.56919" lon="5.93819">
        <ele>889.4</ele>
        <time>2019-09-05T12:04:59Z</time>
      </trkpt>
      <trkpt lat="46.56924" lon="5.93821">
        <ele>889.9</ele>
        <time>2019-09-05T12:05:03Z</time>
      </trkpt>
      <trkpt lat="46.56928" lon="5.93824">
        <ele>890.6</ele>
        <time>2019-09-05T12:05:08Z</time>
      </trkpt>
      <trkpt lat="46.56933" lon="5.93828">
        <ele>892.1</ele>
        <time>2019-09-05T12:05:16Z</time>
      </trkpt>
      <trkpt lat="46.56938" lon="5.93829">
        <ele>893.5</ele>
        <time>2019-09-05T12:05:23Z</time>
      </trkpt>
      <trkpt lat="46.56943" lon="5.9383">
        <ele>894.2</ele>
        <time>2019-09-05T12:05:29Z</time>
      </trkpt>
      <trkpt lat="46.56947" lon="5.93833">
        <ele>894.5</ele>
        <time>2019-09-05T12:05:36Z</time>
      </trkpt>
      <trkpt lat="46.56951" lon="5.93836">
        <ele>894.7</ele>
        <time>2019-09-05T12:05:43Z</time>
      </trkpt>
      <trkpt lat="46.56956" lon="5.93833">
        <ele>895.1</ele>
        <time>2019-09-05T12:05:54Z</time>
      </trkpt>
      <trkpt lat="46.56956" lon="5.93841">
        <ele>895.4</ele>
        <time>2019-09-05T12:06:07Z</time>
      </trkpt>
      <trkpt lat="46.56957" lon="5.93847">
        <ele>895.4</ele>
        <time>2019-09-05T12:06:12Z</time>
      </trkpt>
      <trkpt lat="46.56959" lon="5.93853">
        <ele>895.1</ele>
        <time>2019-09-05T12:06:23Z</time>
      </trkpt>
      <trkpt lat="46.56958" lon="5.93847">
        <ele>893.9</ele>
        <time>2019-09-05T12:06:45Z</time>
      </trkpt>
      <trkpt lat="46.56961" lon="5.93851">
        <ele>893.6</ele>
        <time>2019-09-05T12:07:06Z</time>
      </trkpt>
      <trkpt lat="46.56963" lon="5.93857">
        <ele>891.9</ele>
        <time>2019-09-05T12:07:39Z</time>
      </trkpt>
      <trkpt lat="46.56967" lon="5.9386">
        <ele>891.1</ele>
        <time>2019-09-05T12:07:44Z</time>
      </trkpt>
      <trkpt lat="46.56972" lon="5.93863">
        <ele>890.5</ele>
        <time>2019-09-05T12:07:48Z</time>
      </trkpt>
      <trkpt lat="46.56977" lon="5.93866">
        <ele>890</ele>
        <time>2019-09-05T12:07:52Z</time>
      </trkpt>
      <trkpt lat="46.56982" lon="5.93868">
        <ele>889.6</ele>
        <time>2019-09-05T12:07:55Z</time>
      </trkpt>
      <trkpt lat="46.56987" lon="5.93869">
        <ele>889.1</ele>
        <time>2019-09-05T12:07:59Z</time>
      </trkpt>
      <trkpt lat="46.56992" lon="5.9387">
        <ele>888.7</ele>
        <time>2019-09-05T12:08:02Z</time>
      </trkpt>
      <trkpt lat="46.56996" lon="5.93872">
        <ele>888.3</ele>
        <time>2019-09-05T12:08:05Z</time>
      </trkpt>
      <trkpt lat="46.57001" lon="5.93874">
        <ele>887.4</ele>
        <time>2019-09-05T12:08:11Z</time>
      </trkpt>
      <trkpt lat="46.57006" lon="5.93875">
        <ele>886.9</ele>
        <time>2019-09-05T12:08:15Z</time>
      </trkpt>
      <trkpt lat="46.57011" lon="5.93879">
        <ele>886.3</ele>
        <time>2019-09-05T12:08:20Z</time>
      </trkpt>
      <trkpt lat="46.57016" lon="5.93881">
        <ele>885.8</ele>
        <time>2019-09-05T12:08:25Z</time>
      </trkpt>
      <trkpt lat="46.5702" lon="5.93879">
        <ele>885.8</ele>
        <time>2019-09-05T12:08:32Z</time>
      </trkpt>
      <trkpt lat="46.57024" lon="5.93875">
        <ele>887.1</ele>
        <time>2019-09-05T12:08:38Z</time>
      </trkpt>
      <trkpt lat="46.57029" lon="5.93874">
        <ele>888.3</ele>
        <time>2019-09-05T12:08:42Z</time>
      </trkpt>
      <trkpt lat="46.57034" lon="5.93873">
        <ele>889.7</ele>
        <time>2019-09-05T12:08:47Z</time>
      </trkpt>
      <trkpt lat="46.57039" lon="5.93872">
        <ele>891</ele>
        <time>2019-09-05T12:08:52Z</time>
      </trkpt>
      <trkpt lat="46.57044" lon="5.93872">
        <ele>892.1</ele>
        <time>2019-09-05T12:08:56Z</time>
      </trkpt>
      <trkpt lat="46.57048" lon="5.93871">
        <ele>893.4</ele>
        <time>2019-09-05T12:09:01Z</time>
      </trkpt>
      <trkpt lat="46.57053" lon="5.93872">
        <ele>894.2</ele>
        <time>2019-09-05T12:09:05Z</time>
      </trkpt>
      <trkpt lat="46.57058" lon="5.93873">
        <ele>895.1</ele>
        <time>2019-09-05T12:09:09Z</time>
      </trkpt>
      <trkpt lat="46.57063" lon="5.93876">
        <ele>895.8</ele>
        <time>2019-09-05T12:09:13Z</time>
      </trkpt>
      <trkpt lat="46.57069" lon="5.93878">
        <ele>896.7</ele>
        <time>2019-09-05T12:09:18Z</time>
      </trkpt>
      <trkpt lat="46.57073" lon="5.93881">
        <ele>897.3</ele>
        <time>2019-09-05T12:09:23Z</time>
      </trkpt>
      <trkpt lat="46.57077" lon="5.93884">
        <ele>897.8</ele>
        <time>2019-09-05T12:09:28Z</time>
      </trkpt>
      <trkpt lat="46.57082" lon="5.93886">
        <ele>898.4</ele>
        <time>2019-09-05T12:09:33Z</time>
      </trkpt>
      <trkpt lat="46.57086" lon="5.93889">
        <ele>899</ele>
        <time>2019-09-05T12:09:38Z</time>
      </trkpt>
      <trkpt lat="46.57091" lon="5.93891">
        <ele>899.5</ele>
        <time>2019-09-05T12:09:43Z</time>
      </trkpt>
      <trkpt lat="46.57095" lon="5.93894">
        <ele>900</ele>
        <time>2019-09-05T12:09:48Z</time>
      </trkpt>
      <trkpt lat="46.57099" lon="5.93897">
        <ele>900.2</ele>
        <time>2019-09-05T12:09:52Z</time>
      </trkpt>
      <trkpt lat="46.57103" lon="5.93901">
        <ele>900.3</ele>
        <time>2019-09-05T12:09:56Z</time>
      </trkpt>
      <trkpt lat="46.57107" lon="5.93905">
        <ele>900.4</ele>
        <time>2019-09-05T12:10:00Z</time>
      </trkpt>
      <trkpt lat="46.57111" lon="5.93909">
        <ele>900.4</ele>
        <time>2019-09-05T12:10:03Z</time>
      </trkpt>
      <trkpt lat="46.57115" lon="5.93913">
        <ele>900.3</ele>
        <time>2019-09-05T12:10:07Z</time>
      </trkpt>
      <trkpt lat="46.5712" lon="5.93917">
        <ele>900</ele>
        <time>2019-09-05T12:10:12Z</time>
      </trkpt>
      <trkpt lat="46.57124" lon="5.93921">
        <ele>899.6</ele>
        <time>2019-09-05T12:10:16Z</time>
      </trkpt>
      <trkpt lat="46.57128" lon="5.93924">
        <ele>899.2</ele>
        <time>2019-09-05T12:10:19Z</time>
      </trkpt>
      <trkpt lat="46.57132" lon="5.93929">
        <ele>898.4</ele>
        <time>2019-09-05T12:10:24Z</time>
      </trkpt>
      <trkpt lat="46.57136" lon="5.93934">
        <ele>897.4</ele>
        <time>2019-09-05T12:10:29Z</time>
      </trkpt>
      <trkpt lat="46.5714" lon="5.93939">
        <ele>896.4</ele>
        <time>2019-09-05T12:10:33Z</time>
      </trkpt>
      <trkpt lat="46.57144" lon="5.93942">
        <ele>895.1</ele>
        <time>2019-09-05T12:10:38Z</time>
      </trkpt>
      <trkpt lat="46.57149" lon="5.93945">
        <ele>893.7</ele>
        <time>2019-09-05T12:10:43Z</time>
      </trkpt>
      <trkpt lat="46.57153" lon="5.93947">
        <ele>892.7</ele>
        <time>2019-09-05T12:10:47Z</time>
      </trkpt>
      <trkpt lat="46.57158" lon="5.93951">
        <ele>891.6</ele>
        <time>2019-09-05T12:10:52Z</time>
      </trkpt>
      <trkpt lat="46.57163" lon="5.93955">
        <ele>890.8</ele>
        <time>2019-09-05T12:10:56Z</time>
      </trkpt>
      <trkpt lat="46.57167" lon="5.93958">
        <ele>890.3</ele>
        <time>2019-09-05T12:10:59Z</time>
      </trkpt>
      <trkpt lat="46.57171" lon="5.93962">
        <ele>889.4</ele>
        <time>2019-09-05T12:11:04Z</time>
      </trkpt>
      <trkpt lat="46.57176" lon="5.93962">
        <ele>887.8</ele>
        <time>2019-09-05T12:11:13Z</time>
      </trkpt>
      <trkpt lat="46.57181" lon="5.93961">
        <ele>887</ele>
        <time>2019-09-05T12:11:18Z</time>
      </trkpt>
      <trkpt lat="46.57183" lon="5.93953">
        <ele>885.4</ele>
        <time>2019-09-05T12:11:29Z</time>
      </trkpt>
      <trkpt lat="46.57182" lon="5.93946">
        <ele>885.1</ele>
        <time>2019-09-05T12:11:33Z</time>
      </trkpt>
      <trkpt lat="46.5718" lon="5.9394">
        <ele>885</ele>
        <time>2019-09-05T12:11:37Z</time>
      </trkpt>
      <trkpt lat="46.57178" lon="5.93934">
        <ele>885.2</ele>
        <time>2019-09-05T12:11:40Z</time>
      </trkpt>
      <trkpt lat="46.57176" lon="5.93928">
        <ele>885.5</ele>
        <time>2019-09-05T12:11:43Z</time>
      </trkpt>
      <trkpt lat="46.57174" lon="5.93921">
        <ele>885.9</ele>
        <time>2019-09-05T12:11:47Z</time>
      </trkpt>
      <trkpt lat="46.57172" lon="5.93914">
        <ele>886.6</ele>
        <time>2019-09-05T12:11:51Z</time>
      </trkpt>
      <trkpt lat="46.57169" lon="5.93908">
        <ele>887.5</ele>
        <time>2019-09-05T12:11:55Z</time>
      </trkpt>
      <trkpt lat="46.57165" lon="5.93901">
        <ele>888.4</ele>
        <time>2019-09-05T12:11:58Z</time>
      </trkpt>
      <trkpt lat="46.57161" lon="5.93894">
        <ele>889.6</ele>
        <time>2019-09-05T12:12:01Z</time>
      </trkpt>
      <trkpt lat="46.57157" lon="5.93888">
        <ele>890.9</ele>
        <time>2019-09-05T12:12:04Z</time>
      </trkpt>
      <trkpt lat="46.57153" lon="5.93881">
        <ele>892.3</ele>
        <time>2019-09-05T12:12:07Z</time>
      </trkpt>
      <trkpt lat="46.5715" lon="5.93875">
        <ele>893.9</ele>
        <time>2019-09-05T12:12:10Z</time>
      </trkpt>
      <trkpt lat="46.57146" lon="5.93869">
        <ele>895.5</ele>
        <time>2019-09-05T12:12:13Z</time>
      </trkpt>
      <trkpt lat="46.57142" lon="5.93863">
        <ele>897</ele>
        <time>2019-09-05T12:12:16Z</time>
      </trkpt>
      <trkpt lat="46.57139" lon="5.93858">
        <ele>899.5</ele>
        <time>2019-09-05T12:12:22Z</time>
      </trkpt>
      <trkpt lat="46.57135" lon="5.93854">
        <ele>901.2</ele>
        <time>2019-09-05T12:12:27Z</time>
      </trkpt>
      <trkpt lat="46.57132" lon="5.93849">
        <ele>902.6</ele>
        <time>2019-09-05T12:12:32Z</time>
      </trkpt>
      <trkpt lat="46.57127" lon="5.93844">
        <ele>903.8</ele>
        <time>2019-09-05T12:12:37Z</time>
      </trkpt>
      <trkpt lat="46.57124" lon="5.9384">
        <ele>904.9</ele>
        <time>2019-09-05T12:12:42Z</time>
      </trkpt>
    </trkseg>
  </trk>
</gpx>